<?xml version="1.0" encoding="UTF-8" standalone="no" ?>
<gpx xmlns="http://www.topografix.com/GPX/1/1" xmlns:xsi="http://www.w3.org/2001/XMLSchema-instance" xsi:schemaLocation="http://www.topografix.com/GPX/1/1 http://www.topografix.com/GPX/1/1/gpx.xsd" version="1.1" creator="VisuGPX - https://www.visugpx.com">
  <metadata>
    <name>Crêtes du Pensier</name>
    <desc><![CDATA[Double boucle avec montée commune mais deux descentes distinctes. La première est magnifique, la deuxième moins exaltante est intéressante dans sa partie haute.]]></desc>
  </metadata>
  <trk>
    <name><![CDATA[Pensier]]></name>
    <trkseg>
      <trkpt lat="43.82667" lon="6.74105">
        <ele>1091</ele>
        <time>2018-04-27T08:24:53Z</time>
      </trkpt>
      <trkpt lat="43.82679" lon="6.74097">
        <ele>1088</ele>
        <time>2018-04-27T08:25:17Z</time>
      </trkpt>
      <trkpt lat="43.82679" lon="6.741">
        <ele>1084</ele>
        <time>2018-04-27T08:25:21Z</time>
      </trkpt>
      <trkpt lat="43.8267" lon="6.74102">
        <ele>1077</ele>
        <time>2018-04-27T08:25:48Z</time>
      </trkpt>
      <trkpt lat="43.8267" lon="6.74102">
        <ele>1082</ele>
        <time>2018-04-27T08:25:50Z</time>
      </trkpt>
      <trkpt lat="43.82669" lon="6.74101">
        <ele>1080</ele>
        <time>2018-04-27T08:26:17Z</time>
      </trkpt>
      <trkpt lat="43.82669" lon="6.74101">
        <ele>1081</ele>
        <time>2018-04-27T08:26:20Z</time>
      </trkpt>
      <trkpt lat="43.8266" lon="6.74089">
        <ele>1092</ele>
        <time>2018-04-27T08:26:48Z</time>
      </trkpt>
      <trkpt lat="43.82666" lon="6.74102">
        <ele>1092</ele>
        <time>2018-04-27T08:26:51Z</time>
      </trkpt>
      <trkpt lat="43.82668" lon="6.74101">
        <ele>1092</ele>
        <time>2018-04-27T08:27:18Z</time>
      </trkpt>
      <trkpt lat="43.82667" lon="6.74101">
        <ele>1092</ele>
        <time>2018-04-27T08:27:22Z</time>
      </trkpt>
      <trkpt lat="43.82666" lon="6.741">
        <ele>1093</ele>
        <time>2018-04-27T08:27:43Z</time>
      </trkpt>
      <trkpt lat="43.82666" lon="6.741">
        <ele>1085</ele>
        <time>2018-04-27T08:27:46Z</time>
      </trkpt>
      <trkpt lat="43.82666" lon="6.741">
        <ele>1086</ele>
        <time>2018-04-27T08:28:13Z</time>
      </trkpt>
      <trkpt lat="43.82666" lon="6.741">
        <ele>1088</ele>
        <time>2018-04-27T08:28:16Z</time>
      </trkpt>
      <trkpt lat="43.82666" lon="6.741">
        <ele>1090</ele>
        <time>2018-04-27T08:28:43Z</time>
      </trkpt>
      <trkpt lat="43.82666" lon="6.741">
        <ele>1090</ele>
        <time>2018-04-27T08:28:46Z</time>
      </trkpt>
      <trkpt lat="43.82666" lon="6.741">
        <ele>1090</ele>
        <time>2018-04-27T08:29:13Z</time>
      </trkpt>
      <trkpt lat="43.82666" lon="6.741">
        <ele>1090</ele>
        <time>2018-04-27T08:29:17Z</time>
      </trkpt>
      <trkpt lat="43.82666" lon="6.741">
        <ele>1090</ele>
        <time>2018-04-27T08:29:43Z</time>
      </trkpt>
      <trkpt lat="43.82666" lon="6.741">
        <ele>1090</ele>
        <time>2018-04-27T08:29:47Z</time>
      </trkpt>
      <trkpt lat="43.82666" lon="6.741">
        <ele>1090</ele>
        <time>2018-04-27T08:30:13Z</time>
      </trkpt>
      <trkpt lat="43.82666" lon="6.741">
        <ele>1090</ele>
        <time>2018-04-27T08:30:16Z</time>
      </trkpt>
      <trkpt lat="43.82666" lon="6.741">
        <ele>1090</ele>
        <time>2018-04-27T08:30:43Z</time>
      </trkpt>
      <trkpt lat="43.82666" lon="6.741">
        <ele>1090</ele>
        <time>2018-04-27T08:30:46Z</time>
      </trkpt>
      <trkpt lat="43.82666" lon="6.741">
        <ele>1090</ele>
        <time>2018-04-27T08:31:13Z</time>
      </trkpt>
      <trkpt lat="43.82666" lon="6.741">
        <ele>1090</ele>
        <time>2018-04-27T08:31:16Z</time>
      </trkpt>
      <trkpt lat="43.82666" lon="6.741">
        <ele>1090</ele>
        <time>2018-04-27T08:31:43Z</time>
      </trkpt>
      <trkpt lat="43.82666" lon="6.741">
        <ele>1090</ele>
        <time>2018-04-27T08:31:46Z</time>
      </trkpt>
      <trkpt lat="43.82666" lon="6.741">
        <ele>1090</ele>
        <time>2018-04-27T08:32:13Z</time>
      </trkpt>
      <trkpt lat="43.82666" lon="6.741">
        <ele>1090</ele>
        <time>2018-04-27T08:32:16Z</time>
      </trkpt>
      <trkpt lat="43.82666" lon="6.741">
        <ele>1089</ele>
        <time>2018-04-27T08:32:43Z</time>
      </trkpt>
      <trkpt lat="43.82666" lon="6.741">
        <ele>1089</ele>
        <time>2018-04-27T08:32:46Z</time>
      </trkpt>
      <trkpt lat="43.82666" lon="6.741">
        <ele>1089</ele>
        <time>2018-04-27T08:33:13Z</time>
      </trkpt>
      <trkpt lat="43.82666" lon="6.741">
        <ele>1089</ele>
        <time>2018-04-27T08:33:16Z</time>
      </trkpt>
      <trkpt lat="43.82666" lon="6.741">
        <ele>1089</ele>
        <time>2018-04-27T08:33:43Z</time>
      </trkpt>
      <trkpt lat="43.82666" lon="6.741">
        <ele>1089</ele>
        <time>2018-04-27T08:33:46Z</time>
      </trkpt>
      <trkpt lat="43.8267" lon="6.74097">
        <ele>1088</ele>
        <time>2018-04-27T08:34:00Z</time>
      </trkpt>
      <trkpt lat="43.82674" lon="6.74093">
        <ele>1087</ele>
        <time>2018-04-27T08:34:02Z</time>
      </trkpt>
      <trkpt lat="43.82679" lon="6.74091">
        <ele>1086</ele>
        <time>2018-04-27T08:34:05Z</time>
      </trkpt>
      <trkpt lat="43.82684" lon="6.74092">
        <ele>1085</ele>
        <time>2018-04-27T08:34:08Z</time>
      </trkpt>
      <trkpt lat="43.8269" lon="6.7409">
        <ele>1084</ele>
        <time>2018-04-27T08:34:12Z</time>
      </trkpt>
      <trkpt lat="43.82695" lon="6.74089">
        <ele>1083</ele>
        <time>2018-04-27T08:34:15Z</time>
      </trkpt>
      <trkpt lat="43.827" lon="6.74088">
        <ele>1082</ele>
        <time>2018-04-27T08:34:18Z</time>
      </trkpt>
      <trkpt lat="43.82705" lon="6.74086">
        <ele>1081</ele>
        <time>2018-04-27T08:34:22Z</time>
      </trkpt>
      <trkpt lat="43.8271" lon="6.74086">
        <ele>1080</ele>
        <time>2018-04-27T08:34:25Z</time>
      </trkpt>
      <trkpt lat="43.82716" lon="6.74085">
        <ele>1080</ele>
        <time>2018-04-27T08:34:29Z</time>
      </trkpt>
      <trkpt lat="43.82722" lon="6.74086">
        <ele>1079</ele>
        <time>2018-04-27T08:34:33Z</time>
      </trkpt>
      <trkpt lat="43.82726" lon="6.74085">
        <ele>1080</ele>
        <time>2018-04-27T08:34:36Z</time>
      </trkpt>
      <trkpt lat="43.82731" lon="6.74085">
        <ele>1080</ele>
        <time>2018-04-27T08:34:39Z</time>
      </trkpt>
      <trkpt lat="43.82737" lon="6.74086">
        <ele>1080</ele>
        <time>2018-04-27T08:34:42Z</time>
      </trkpt>
      <trkpt lat="43.82741" lon="6.74085">
        <ele>1080</ele>
        <time>2018-04-27T08:34:45Z</time>
      </trkpt>
      <trkpt lat="43.82746" lon="6.74083">
        <ele>1080</ele>
        <time>2018-04-27T08:34:48Z</time>
      </trkpt>
      <trkpt lat="43.82751" lon="6.74079">
        <ele>1080</ele>
        <time>2018-04-27T08:34:52Z</time>
      </trkpt>
      <trkpt lat="43.82756" lon="6.74076">
        <ele>1080</ele>
        <time>2018-04-27T08:34:56Z</time>
      </trkpt>
      <trkpt lat="43.82761" lon="6.74073">
        <ele>1081</ele>
        <time>2018-04-27T08:34:59Z</time>
      </trkpt>
      <trkpt lat="43.82765" lon="6.74068">
        <ele>1081</ele>
        <time>2018-04-27T08:35:03Z</time>
      </trkpt>
      <trkpt lat="43.82769" lon="6.74064">
        <ele>1082</ele>
        <time>2018-04-27T08:35:06Z</time>
      </trkpt>
      <trkpt lat="43.82773" lon="6.7406">
        <ele>1082</ele>
        <time>2018-04-27T08:35:09Z</time>
      </trkpt>
      <trkpt lat="43.82778" lon="6.74057">
        <ele>1083</ele>
        <time>2018-04-27T08:35:13Z</time>
      </trkpt>
      <trkpt lat="43.82783" lon="6.74055">
        <ele>1084</ele>
        <time>2018-04-27T08:35:17Z</time>
      </trkpt>
      <trkpt lat="43.82788" lon="6.74051">
        <ele>1084</ele>
        <time>2018-04-27T08:35:21Z</time>
      </trkpt>
      <trkpt lat="43.82793" lon="6.74049">
        <ele>1085</ele>
        <time>2018-04-27T08:35:25Z</time>
      </trkpt>
      <trkpt lat="43.82797" lon="6.74047">
        <ele>1086</ele>
        <time>2018-04-27T08:35:28Z</time>
      </trkpt>
      <trkpt lat="43.82802" lon="6.74044">
        <ele>1087</ele>
        <time>2018-04-27T08:35:31Z</time>
      </trkpt>
      <trkpt lat="43.82807" lon="6.7404">
        <ele>1087</ele>
        <time>2018-04-27T08:35:34Z</time>
      </trkpt>
      <trkpt lat="43.82812" lon="6.74037">
        <ele>1087</ele>
        <time>2018-04-27T08:35:37Z</time>
      </trkpt>
      <trkpt lat="43.82816" lon="6.74033">
        <ele>1086</ele>
        <time>2018-04-27T08:35:40Z</time>
      </trkpt>
      <trkpt lat="43.82818" lon="6.74028">
        <ele>1087</ele>
        <time>2018-04-27T08:35:43Z</time>
      </trkpt>
      <trkpt lat="43.82822" lon="6.74024">
        <ele>1087</ele>
        <time>2018-04-27T08:35:46Z</time>
      </trkpt>
      <trkpt lat="43.82827" lon="6.74022">
        <ele>1088</ele>
        <time>2018-04-27T08:35:49Z</time>
      </trkpt>
      <trkpt lat="43.82832" lon="6.7402">
        <ele>1089</ele>
        <time>2018-04-27T08:35:53Z</time>
      </trkpt>
      <trkpt lat="43.82837" lon="6.74018">
        <ele>1090</ele>
        <time>2018-04-27T08:35:57Z</time>
      </trkpt>
      <trkpt lat="43.8284" lon="6.74012">
        <ele>1090</ele>
        <time>2018-04-27T08:36:02Z</time>
      </trkpt>
      <trkpt lat="43.82843" lon="6.74005">
        <ele>1090</ele>
        <time>2018-04-27T08:36:06Z</time>
      </trkpt>
      <trkpt lat="43.82848" lon="6.74001">
        <ele>1091</ele>
        <time>2018-04-27T08:36:09Z</time>
      </trkpt>
      <trkpt lat="43.82852" lon="6.73996">
        <ele>1091</ele>
        <time>2018-04-27T08:36:13Z</time>
      </trkpt>
      <trkpt lat="43.82856" lon="6.73992">
        <ele>1091</ele>
        <time>2018-04-27T08:36:16Z</time>
      </trkpt>
      <trkpt lat="43.82861" lon="6.73989">
        <ele>1091</ele>
        <time>2018-04-27T08:36:19Z</time>
      </trkpt>
      <trkpt lat="43.82866" lon="6.73986">
        <ele>1092</ele>
        <time>2018-04-27T08:36:23Z</time>
      </trkpt>
      <trkpt lat="43.82871" lon="6.73982">
        <ele>1093</ele>
        <time>2018-04-27T08:36:27Z</time>
      </trkpt>
      <trkpt lat="43.82876" lon="6.73978">
        <ele>1094</ele>
        <time>2018-04-27T08:36:31Z</time>
      </trkpt>
      <trkpt lat="43.82881" lon="6.73974">
        <ele>1094</ele>
        <time>2018-04-27T08:36:35Z</time>
      </trkpt>
      <trkpt lat="43.82885" lon="6.7397">
        <ele>1095</ele>
        <time>2018-04-27T08:36:39Z</time>
      </trkpt>
      <trkpt lat="43.8289" lon="6.73968">
        <ele>1094</ele>
        <time>2018-04-27T08:36:42Z</time>
      </trkpt>
      <trkpt lat="43.82894" lon="6.73966">
        <ele>1094</ele>
        <time>2018-04-27T08:36:45Z</time>
      </trkpt>
      <trkpt lat="43.829" lon="6.73965">
        <ele>1094</ele>
        <time>2018-04-27T08:36:48Z</time>
      </trkpt>
      <trkpt lat="43.82906" lon="6.73962">
        <ele>1094</ele>
        <time>2018-04-27T08:36:52Z</time>
      </trkpt>
      <trkpt lat="43.82912" lon="6.7396">
        <ele>1094</ele>
        <time>2018-04-27T08:36:55Z</time>
      </trkpt>
      <trkpt lat="43.82916" lon="6.73956">
        <ele>1094</ele>
        <time>2018-04-27T08:36:59Z</time>
      </trkpt>
      <trkpt lat="43.82922" lon="6.73953">
        <ele>1095</ele>
        <time>2018-04-27T08:37:03Z</time>
      </trkpt>
      <trkpt lat="43.82926" lon="6.73948">
        <ele>1096</ele>
        <time>2018-04-27T08:37:07Z</time>
      </trkpt>
      <trkpt lat="43.82929" lon="6.73942">
        <ele>1096</ele>
        <time>2018-04-27T08:37:11Z</time>
      </trkpt>
      <trkpt lat="43.82933" lon="6.73938">
        <ele>1097</ele>
        <time>2018-04-27T08:37:15Z</time>
      </trkpt>
      <trkpt lat="43.82938" lon="6.73934">
        <ele>1098</ele>
        <time>2018-04-27T08:37:19Z</time>
      </trkpt>
      <trkpt lat="43.82943" lon="6.73932">
        <ele>1099</ele>
        <time>2018-04-27T08:37:23Z</time>
      </trkpt>
      <trkpt lat="43.82948" lon="6.7393">
        <ele>1101</ele>
        <time>2018-04-27T08:37:26Z</time>
      </trkpt>
      <trkpt lat="43.82953" lon="6.73924">
        <ele>1102</ele>
        <time>2018-04-27T08:37:29Z</time>
      </trkpt>
      <trkpt lat="43.82958" lon="6.73923">
        <ele>1104</ele>
        <time>2018-04-27T08:37:33Z</time>
      </trkpt>
      <trkpt lat="43.82964" lon="6.73922">
        <ele>1105</ele>
        <time>2018-04-27T08:37:36Z</time>
      </trkpt>
      <trkpt lat="43.8297" lon="6.73922">
        <ele>1107</ele>
        <time>2018-04-27T08:37:39Z</time>
      </trkpt>
      <trkpt lat="43.82975" lon="6.73919">
        <ele>1108</ele>
        <time>2018-04-27T08:37:43Z</time>
      </trkpt>
      <trkpt lat="43.8298" lon="6.73917">
        <ele>1110</ele>
        <time>2018-04-27T08:37:46Z</time>
      </trkpt>
      <trkpt lat="43.82985" lon="6.73912">
        <ele>1111</ele>
        <time>2018-04-27T08:37:50Z</time>
      </trkpt>
      <trkpt lat="43.8299" lon="6.73908">
        <ele>1111</ele>
        <time>2018-04-27T08:37:53Z</time>
      </trkpt>
      <trkpt lat="43.82994" lon="6.73904">
        <ele>1111</ele>
        <time>2018-04-27T08:37:56Z</time>
      </trkpt>
      <trkpt lat="43.82999" lon="6.73899">
        <ele>1111</ele>
        <time>2018-04-27T08:38:00Z</time>
      </trkpt>
      <trkpt lat="43.83002" lon="6.73893">
        <ele>1111</ele>
        <time>2018-04-27T08:38:03Z</time>
      </trkpt>
      <trkpt lat="43.83004" lon="6.73886">
        <ele>1111</ele>
        <time>2018-04-27T08:38:06Z</time>
      </trkpt>
      <trkpt lat="43.83005" lon="6.73879">
        <ele>1111</ele>
        <time>2018-04-27T08:38:09Z</time>
      </trkpt>
      <trkpt lat="43.83005" lon="6.73873">
        <ele>1111</ele>
        <time>2018-04-27T08:38:12Z</time>
      </trkpt>
      <trkpt lat="43.83007" lon="6.73866">
        <ele>1111</ele>
        <time>2018-04-27T08:38:16Z</time>
      </trkpt>
      <trkpt lat="43.83007" lon="6.7386">
        <ele>1112</ele>
        <time>2018-04-27T08:38:19Z</time>
      </trkpt>
      <trkpt lat="43.83006" lon="6.73851">
        <ele>1112</ele>
        <time>2018-04-27T08:38:23Z</time>
      </trkpt>
      <trkpt lat="43.83006" lon="6.73845">
        <ele>1112</ele>
        <time>2018-04-27T08:38:26Z</time>
      </trkpt>
      <trkpt lat="43.83007" lon="6.73839">
        <ele>1112</ele>
        <time>2018-04-27T08:38:29Z</time>
      </trkpt>
      <trkpt lat="43.83007" lon="6.73832">
        <ele>1112</ele>
        <time>2018-04-27T08:38:32Z</time>
      </trkpt>
      <trkpt lat="43.83006" lon="6.73824">
        <ele>1112</ele>
        <time>2018-04-27T08:38:36Z</time>
      </trkpt>
      <trkpt lat="43.83006" lon="6.73816">
        <ele>1113</ele>
        <time>2018-04-27T08:38:40Z</time>
      </trkpt>
      <trkpt lat="43.83005" lon="6.73808">
        <ele>1113</ele>
        <time>2018-04-27T08:38:43Z</time>
      </trkpt>
      <trkpt lat="43.83005" lon="6.73801">
        <ele>1114</ele>
        <time>2018-04-27T08:38:47Z</time>
      </trkpt>
      <trkpt lat="43.83005" lon="6.73794">
        <ele>1115</ele>
        <time>2018-04-27T08:38:50Z</time>
      </trkpt>
      <trkpt lat="43.83006" lon="6.73787">
        <ele>1117</ele>
        <time>2018-04-27T08:38:54Z</time>
      </trkpt>
      <trkpt lat="43.83004" lon="6.73779">
        <ele>1118</ele>
        <time>2018-04-27T08:38:58Z</time>
      </trkpt>
      <trkpt lat="43.83004" lon="6.73773">
        <ele>1119</ele>
        <time>2018-04-27T08:39:01Z</time>
      </trkpt>
      <trkpt lat="43.83003" lon="6.73765">
        <ele>1119</ele>
        <time>2018-04-27T08:39:04Z</time>
      </trkpt>
      <trkpt lat="43.83002" lon="6.73756">
        <ele>1120</ele>
        <time>2018-04-27T08:39:08Z</time>
      </trkpt>
      <trkpt lat="43.83" lon="6.73748">
        <ele>1121</ele>
        <time>2018-04-27T08:39:11Z</time>
      </trkpt>
      <trkpt lat="43.83" lon="6.73741">
        <ele>1121</ele>
        <time>2018-04-27T08:39:14Z</time>
      </trkpt>
      <trkpt lat="43.82998" lon="6.73734">
        <ele>1122</ele>
        <time>2018-04-27T08:39:17Z</time>
      </trkpt>
      <trkpt lat="43.82996" lon="6.73729">
        <ele>1124</ele>
        <time>2018-04-27T08:39:20Z</time>
      </trkpt>
      <trkpt lat="43.82994" lon="6.73722">
        <ele>1125</ele>
        <time>2018-04-27T08:39:23Z</time>
      </trkpt>
      <trkpt lat="43.82993" lon="6.73716">
        <ele>1126</ele>
        <time>2018-04-27T08:39:26Z</time>
      </trkpt>
      <trkpt lat="43.82992" lon="6.7371">
        <ele>1127</ele>
        <time>2018-04-27T08:39:29Z</time>
      </trkpt>
      <trkpt lat="43.82993" lon="6.73701">
        <ele>1128</ele>
        <time>2018-04-27T08:39:33Z</time>
      </trkpt>
      <trkpt lat="43.82992" lon="6.73693">
        <ele>1129</ele>
        <time>2018-04-27T08:39:37Z</time>
      </trkpt>
      <trkpt lat="43.82992" lon="6.73685">
        <ele>1130</ele>
        <time>2018-04-27T08:39:40Z</time>
      </trkpt>
      <trkpt lat="43.82991" lon="6.73679">
        <ele>1131</ele>
        <time>2018-04-27T08:39:43Z</time>
      </trkpt>
      <trkpt lat="43.8299" lon="6.73672">
        <ele>1131</ele>
        <time>2018-04-27T08:39:46Z</time>
      </trkpt>
      <trkpt lat="43.8299" lon="6.73664">
        <ele>1131</ele>
        <time>2018-04-27T08:39:50Z</time>
      </trkpt>
      <trkpt lat="43.82989" lon="6.73658">
        <ele>1132</ele>
        <time>2018-04-27T08:39:53Z</time>
      </trkpt>
      <trkpt lat="43.82986" lon="6.73651">
        <ele>1133</ele>
        <time>2018-04-27T08:39:57Z</time>
      </trkpt>
      <trkpt lat="43.82985" lon="6.73644">
        <ele>1133</ele>
        <time>2018-04-27T08:40:00Z</time>
      </trkpt>
      <trkpt lat="43.82983" lon="6.73638">
        <ele>1134</ele>
        <time>2018-04-27T08:40:03Z</time>
      </trkpt>
      <trkpt lat="43.82983" lon="6.73629">
        <ele>1135</ele>
        <time>2018-04-27T08:40:08Z</time>
      </trkpt>
      <trkpt lat="43.82984" lon="6.73623">
        <ele>1137</ele>
        <time>2018-04-27T08:40:11Z</time>
      </trkpt>
      <trkpt lat="43.82983" lon="6.73615">
        <ele>1137</ele>
        <time>2018-04-27T08:40:14Z</time>
      </trkpt>
      <trkpt lat="43.82983" lon="6.73608">
        <ele>1138</ele>
        <time>2018-04-27T08:40:17Z</time>
      </trkpt>
      <trkpt lat="43.82979" lon="6.73601">
        <ele>1139</ele>
        <time>2018-04-27T08:40:20Z</time>
      </trkpt>
      <trkpt lat="43.82978" lon="6.73593">
        <ele>1138</ele>
        <time>2018-04-27T08:40:23Z</time>
      </trkpt>
      <trkpt lat="43.82975" lon="6.73587">
        <ele>1138</ele>
        <time>2018-04-27T08:40:26Z</time>
      </trkpt>
      <trkpt lat="43.82972" lon="6.7358">
        <ele>1137</ele>
        <time>2018-04-27T08:40:29Z</time>
      </trkpt>
      <trkpt lat="43.8297" lon="6.73574">
        <ele>1137</ele>
        <time>2018-04-27T08:40:32Z</time>
      </trkpt>
      <trkpt lat="43.82969" lon="6.73566">
        <ele>1138</ele>
        <time>2018-04-27T08:40:36Z</time>
      </trkpt>
      <trkpt lat="43.82968" lon="6.73559">
        <ele>1139</ele>
        <time>2018-04-27T08:40:39Z</time>
      </trkpt>
      <trkpt lat="43.82966" lon="6.73553">
        <ele>1140</ele>
        <time>2018-04-27T08:40:44Z</time>
      </trkpt>
      <trkpt lat="43.82964" lon="6.73547">
        <ele>1141</ele>
        <time>2018-04-27T08:40:48Z</time>
      </trkpt>
      <trkpt lat="43.82963" lon="6.7354">
        <ele>1141</ele>
        <time>2018-04-27T08:40:52Z</time>
      </trkpt>
      <trkpt lat="43.82962" lon="6.73534">
        <ele>1140</ele>
        <time>2018-04-27T08:40:57Z</time>
      </trkpt>
      <trkpt lat="43.82957" lon="6.7353">
        <ele>1141</ele>
        <time>2018-04-27T08:41:11Z</time>
      </trkpt>
      <trkpt lat="43.82957" lon="6.73523">
        <ele>1141</ele>
        <time>2018-04-27T08:41:15Z</time>
      </trkpt>
      <trkpt lat="43.82956" lon="6.73517">
        <ele>1143</ele>
        <time>2018-04-27T08:41:20Z</time>
      </trkpt>
      <trkpt lat="43.82954" lon="6.7351">
        <ele>1145</ele>
        <time>2018-04-27T08:41:30Z</time>
      </trkpt>
      <trkpt lat="43.82956" lon="6.73503">
        <ele>1147</ele>
        <time>2018-04-27T08:41:34Z</time>
      </trkpt>
      <trkpt lat="43.82955" lon="6.73495">
        <ele>1149</ele>
        <time>2018-04-27T08:41:37Z</time>
      </trkpt>
      <trkpt lat="43.82952" lon="6.73488">
        <ele>1151</ele>
        <time>2018-04-27T08:41:40Z</time>
      </trkpt>
      <trkpt lat="43.82951" lon="6.7348">
        <ele>1152</ele>
        <time>2018-04-27T08:41:43Z</time>
      </trkpt>
      <trkpt lat="43.8295" lon="6.73473">
        <ele>1152</ele>
        <time>2018-04-27T08:41:46Z</time>
      </trkpt>
      <trkpt lat="43.82948" lon="6.73467">
        <ele>1153</ele>
        <time>2018-04-27T08:41:49Z</time>
      </trkpt>
      <trkpt lat="43.82946" lon="6.7346">
        <ele>1153</ele>
        <time>2018-04-27T08:41:53Z</time>
      </trkpt>
      <trkpt lat="43.82945" lon="6.73452">
        <ele>1153</ele>
        <time>2018-04-27T08:41:56Z</time>
      </trkpt>
      <trkpt lat="43.82944" lon="6.73446">
        <ele>1154</ele>
        <time>2018-04-27T08:41:59Z</time>
      </trkpt>
      <trkpt lat="43.82942" lon="6.7344">
        <ele>1154</ele>
        <time>2018-04-27T08:42:02Z</time>
      </trkpt>
      <trkpt lat="43.8294" lon="6.73434">
        <ele>1155</ele>
        <time>2018-04-27T08:42:05Z</time>
      </trkpt>
      <trkpt lat="43.82938" lon="6.73426">
        <ele>1156</ele>
        <time>2018-04-27T08:42:09Z</time>
      </trkpt>
      <trkpt lat="43.82938" lon="6.73419">
        <ele>1158</ele>
        <time>2018-04-27T08:42:13Z</time>
      </trkpt>
      <trkpt lat="43.82937" lon="6.73413">
        <ele>1160</ele>
        <time>2018-04-27T08:42:17Z</time>
      </trkpt>
      <trkpt lat="43.82935" lon="6.73406">
        <ele>1162</ele>
        <time>2018-04-27T08:42:20Z</time>
      </trkpt>
      <trkpt lat="43.82933" lon="6.73398">
        <ele>1162</ele>
        <time>2018-04-27T08:42:23Z</time>
      </trkpt>
      <trkpt lat="43.82932" lon="6.73391">
        <ele>1163</ele>
        <time>2018-04-27T08:42:26Z</time>
      </trkpt>
      <trkpt lat="43.8293" lon="6.73384">
        <ele>1162</ele>
        <time>2018-04-27T08:42:29Z</time>
      </trkpt>
      <trkpt lat="43.82928" lon="6.73378">
        <ele>1162</ele>
        <time>2018-04-27T08:42:32Z</time>
      </trkpt>
      <trkpt lat="43.82929" lon="6.73371">
        <ele>1162</ele>
        <time>2018-04-27T08:42:36Z</time>
      </trkpt>
      <trkpt lat="43.82927" lon="6.73364">
        <ele>1163</ele>
        <time>2018-04-27T08:42:39Z</time>
      </trkpt>
      <trkpt lat="43.82924" lon="6.73357">
        <ele>1163</ele>
        <time>2018-04-27T08:42:42Z</time>
      </trkpt>
      <trkpt lat="43.82922" lon="6.73351">
        <ele>1165</ele>
        <time>2018-04-27T08:42:44Z</time>
      </trkpt>
      <trkpt lat="43.82921" lon="6.73343">
        <ele>1166</ele>
        <time>2018-04-27T08:42:48Z</time>
      </trkpt>
      <trkpt lat="43.82919" lon="6.73335">
        <ele>1166</ele>
        <time>2018-04-27T08:42:51Z</time>
      </trkpt>
      <trkpt lat="43.82918" lon="6.73329">
        <ele>1166</ele>
        <time>2018-04-27T08:42:54Z</time>
      </trkpt>
      <trkpt lat="43.82918" lon="6.7332">
        <ele>1166</ele>
        <time>2018-04-27T08:42:57Z</time>
      </trkpt>
      <trkpt lat="43.82916" lon="6.73313">
        <ele>1166</ele>
        <time>2018-04-27T08:43:00Z</time>
      </trkpt>
      <trkpt lat="43.82916" lon="6.73306">
        <ele>1165</ele>
        <time>2018-04-27T08:43:03Z</time>
      </trkpt>
      <trkpt lat="43.82914" lon="6.73299">
        <ele>1165</ele>
        <time>2018-04-27T08:43:06Z</time>
      </trkpt>
      <trkpt lat="43.82912" lon="6.73292">
        <ele>1166</ele>
        <time>2018-04-27T08:43:10Z</time>
      </trkpt>
      <trkpt lat="43.82909" lon="6.73285">
        <ele>1167</ele>
        <time>2018-04-27T08:43:14Z</time>
      </trkpt>
      <trkpt lat="43.82909" lon="6.73278">
        <ele>1167</ele>
        <time>2018-04-27T08:43:17Z</time>
      </trkpt>
      <trkpt lat="43.82909" lon="6.73272">
        <ele>1168</ele>
        <time>2018-04-27T08:43:21Z</time>
      </trkpt>
      <trkpt lat="43.82908" lon="6.73265">
        <ele>1168</ele>
        <time>2018-04-27T08:43:25Z</time>
      </trkpt>
      <trkpt lat="43.82906" lon="6.73258">
        <ele>1169</ele>
        <time>2018-04-27T08:43:28Z</time>
      </trkpt>
      <trkpt lat="43.82905" lon="6.73252">
        <ele>1169</ele>
        <time>2018-04-27T08:43:31Z</time>
      </trkpt>
      <trkpt lat="43.82904" lon="6.73245">
        <ele>1170</ele>
        <time>2018-04-27T08:43:35Z</time>
      </trkpt>
      <trkpt lat="43.82904" lon="6.73237">
        <ele>1170</ele>
        <time>2018-04-27T08:43:39Z</time>
      </trkpt>
      <trkpt lat="43.82902" lon="6.7323">
        <ele>1170</ele>
        <time>2018-04-27T08:43:42Z</time>
      </trkpt>
      <trkpt lat="43.82901" lon="6.73224">
        <ele>1171</ele>
        <time>2018-04-27T08:43:45Z</time>
      </trkpt>
      <trkpt lat="43.82898" lon="6.73217">
        <ele>1171</ele>
        <time>2018-04-27T08:43:48Z</time>
      </trkpt>
      <trkpt lat="43.82898" lon="6.73211">
        <ele>1172</ele>
        <time>2018-04-27T08:43:51Z</time>
      </trkpt>
      <trkpt lat="43.82897" lon="6.73203">
        <ele>1173</ele>
        <time>2018-04-27T08:43:55Z</time>
      </trkpt>
      <trkpt lat="43.82896" lon="6.73196">
        <ele>1175</ele>
        <time>2018-04-27T08:43:59Z</time>
      </trkpt>
      <trkpt lat="43.82894" lon="6.7319">
        <ele>1177</ele>
        <time>2018-04-27T08:44:02Z</time>
      </trkpt>
      <trkpt lat="43.82893" lon="6.73183">
        <ele>1179</ele>
        <time>2018-04-27T08:44:05Z</time>
      </trkpt>
      <trkpt lat="43.82893" lon="6.73177">
        <ele>1181</ele>
        <time>2018-04-27T08:44:08Z</time>
      </trkpt>
      <trkpt lat="43.82893" lon="6.73171">
        <ele>1182</ele>
        <time>2018-04-27T08:44:11Z</time>
      </trkpt>
      <trkpt lat="43.82892" lon="6.73164">
        <ele>1182</ele>
        <time>2018-04-27T08:44:14Z</time>
      </trkpt>
      <trkpt lat="43.82892" lon="6.73157">
        <ele>1183</ele>
        <time>2018-04-27T08:44:18Z</time>
      </trkpt>
      <trkpt lat="43.82889" lon="6.73151">
        <ele>1183</ele>
        <time>2018-04-27T08:44:21Z</time>
      </trkpt>
      <trkpt lat="43.82887" lon="6.73144">
        <ele>1184</ele>
        <time>2018-04-27T08:44:24Z</time>
      </trkpt>
      <trkpt lat="43.82885" lon="6.73138">
        <ele>1184</ele>
        <time>2018-04-27T08:44:27Z</time>
      </trkpt>
      <trkpt lat="43.82883" lon="6.73131">
        <ele>1183</ele>
        <time>2018-04-27T08:44:31Z</time>
      </trkpt>
      <trkpt lat="43.82883" lon="6.73125">
        <ele>1183</ele>
        <time>2018-04-27T08:44:34Z</time>
      </trkpt>
      <trkpt lat="43.82882" lon="6.73117">
        <ele>1183</ele>
        <time>2018-04-27T08:44:38Z</time>
      </trkpt>
      <trkpt lat="43.8288" lon="6.73111">
        <ele>1183</ele>
        <time>2018-04-27T08:44:41Z</time>
      </trkpt>
      <trkpt lat="43.82878" lon="6.73105">
        <ele>1184</ele>
        <time>2018-04-27T08:44:44Z</time>
      </trkpt>
      <trkpt lat="43.82876" lon="6.73098">
        <ele>1185</ele>
        <time>2018-04-27T08:44:47Z</time>
      </trkpt>
      <trkpt lat="43.82876" lon="6.73091">
        <ele>1185</ele>
        <time>2018-04-27T08:44:51Z</time>
      </trkpt>
      <trkpt lat="43.82876" lon="6.73083">
        <ele>1186</ele>
        <time>2018-04-27T08:44:55Z</time>
      </trkpt>
      <trkpt lat="43.82875" lon="6.73076">
        <ele>1187</ele>
        <time>2018-04-27T08:44:59Z</time>
      </trkpt>
      <trkpt lat="43.82874" lon="6.73068">
        <ele>1187</ele>
        <time>2018-04-27T08:45:03Z</time>
      </trkpt>
      <trkpt lat="43.82873" lon="6.73061">
        <ele>1186</ele>
        <time>2018-04-27T08:45:06Z</time>
      </trkpt>
      <trkpt lat="43.82873" lon="6.73055">
        <ele>1186</ele>
        <time>2018-04-27T08:45:09Z</time>
      </trkpt>
      <trkpt lat="43.82874" lon="6.73047">
        <ele>1185</ele>
        <time>2018-04-27T08:45:13Z</time>
      </trkpt>
      <trkpt lat="43.82875" lon="6.73039">
        <ele>1184</ele>
        <time>2018-04-27T08:45:17Z</time>
      </trkpt>
      <trkpt lat="43.82875" lon="6.73032">
        <ele>1184</ele>
        <time>2018-04-27T08:45:21Z</time>
      </trkpt>
      <trkpt lat="43.82874" lon="6.73025">
        <ele>1184</ele>
        <time>2018-04-27T08:45:25Z</time>
      </trkpt>
      <trkpt lat="43.82874" lon="6.73018">
        <ele>1184</ele>
        <time>2018-04-27T08:45:28Z</time>
      </trkpt>
      <trkpt lat="43.82874" lon="6.73012">
        <ele>1184</ele>
        <time>2018-04-27T08:45:31Z</time>
      </trkpt>
      <trkpt lat="43.82874" lon="6.73005">
        <ele>1183</ele>
        <time>2018-04-27T08:45:35Z</time>
      </trkpt>
      <trkpt lat="43.82873" lon="6.72997">
        <ele>1183</ele>
        <time>2018-04-27T08:45:39Z</time>
      </trkpt>
      <trkpt lat="43.82874" lon="6.7299">
        <ele>1183</ele>
        <time>2018-04-27T08:45:43Z</time>
      </trkpt>
      <trkpt lat="43.82874" lon="6.72983">
        <ele>1183</ele>
        <time>2018-04-27T08:45:46Z</time>
      </trkpt>
      <trkpt lat="43.82873" lon="6.72977">
        <ele>1183</ele>
        <time>2018-04-27T08:45:49Z</time>
      </trkpt>
      <trkpt lat="43.82871" lon="6.72971">
        <ele>1184</ele>
        <time>2018-04-27T08:45:52Z</time>
      </trkpt>
      <trkpt lat="43.82869" lon="6.72964">
        <ele>1185</ele>
        <time>2018-04-27T08:45:55Z</time>
      </trkpt>
      <trkpt lat="43.82867" lon="6.72958">
        <ele>1186</ele>
        <time>2018-04-27T08:45:58Z</time>
      </trkpt>
      <trkpt lat="43.82866" lon="6.72951">
        <ele>1187</ele>
        <time>2018-04-27T08:46:02Z</time>
      </trkpt>
      <trkpt lat="43.82869" lon="6.72946">
        <ele>1189</ele>
        <time>2018-04-27T08:46:05Z</time>
      </trkpt>
      <trkpt lat="43.82874" lon="6.7294">
        <ele>1189</ele>
        <time>2018-04-27T08:46:08Z</time>
      </trkpt>
      <trkpt lat="43.82879" lon="6.7294">
        <ele>1190</ele>
        <time>2018-04-27T08:46:10Z</time>
      </trkpt>
      <trkpt lat="43.82885" lon="6.72942">
        <ele>1191</ele>
        <time>2018-04-27T08:46:13Z</time>
      </trkpt>
      <trkpt lat="43.8289" lon="6.72943">
        <ele>1192</ele>
        <time>2018-04-27T08:46:16Z</time>
      </trkpt>
      <trkpt lat="43.82896" lon="6.72944">
        <ele>1192</ele>
        <time>2018-04-27T08:46:19Z</time>
      </trkpt>
      <trkpt lat="43.82902" lon="6.72943">
        <ele>1192</ele>
        <time>2018-04-27T08:46:22Z</time>
      </trkpt>
      <trkpt lat="43.82907" lon="6.72944">
        <ele>1193</ele>
        <time>2018-04-27T08:46:25Z</time>
      </trkpt>
      <trkpt lat="43.82912" lon="6.72944">
        <ele>1193</ele>
        <time>2018-04-27T08:46:29Z</time>
      </trkpt>
      <trkpt lat="43.82919" lon="6.72946">
        <ele>1193</ele>
        <time>2018-04-27T08:46:33Z</time>
      </trkpt>
      <trkpt lat="43.82923" lon="6.72948">
        <ele>1194</ele>
        <time>2018-04-27T08:46:36Z</time>
      </trkpt>
      <trkpt lat="43.82929" lon="6.72948">
        <ele>1195</ele>
        <time>2018-04-27T08:46:39Z</time>
      </trkpt>
      <trkpt lat="43.82934" lon="6.72949">
        <ele>1195</ele>
        <time>2018-04-27T08:46:42Z</time>
      </trkpt>
      <trkpt lat="43.82939" lon="6.7295">
        <ele>1196</ele>
        <time>2018-04-27T08:46:45Z</time>
      </trkpt>
      <trkpt lat="43.82944" lon="6.72952">
        <ele>1196</ele>
        <time>2018-04-27T08:46:48Z</time>
      </trkpt>
      <trkpt lat="43.82949" lon="6.72953">
        <ele>1196</ele>
        <time>2018-04-27T08:46:52Z</time>
      </trkpt>
      <trkpt lat="43.82954" lon="6.72955">
        <ele>1197</ele>
        <time>2018-04-27T08:46:59Z</time>
      </trkpt>
      <trkpt lat="43.82959" lon="6.72956">
        <ele>1197</ele>
        <time>2018-04-27T08:47:03Z</time>
      </trkpt>
      <trkpt lat="43.82964" lon="6.72958">
        <ele>1198</ele>
        <time>2018-04-27T08:47:08Z</time>
      </trkpt>
      <trkpt lat="43.82969" lon="6.7296">
        <ele>1198</ele>
        <time>2018-04-27T08:47:12Z</time>
      </trkpt>
      <trkpt lat="43.82974" lon="6.72961">
        <ele>1199</ele>
        <time>2018-04-27T08:47:16Z</time>
      </trkpt>
      <trkpt lat="43.8298" lon="6.72964">
        <ele>1199</ele>
        <time>2018-04-27T08:47:20Z</time>
      </trkpt>
      <trkpt lat="43.82984" lon="6.72967">
        <ele>1200</ele>
        <time>2018-04-27T08:47:23Z</time>
      </trkpt>
      <trkpt lat="43.82989" lon="6.72969">
        <ele>1201</ele>
        <time>2018-04-27T08:47:27Z</time>
      </trkpt>
      <trkpt lat="43.82995" lon="6.72973">
        <ele>1201</ele>
        <time>2018-04-27T08:47:31Z</time>
      </trkpt>
      <trkpt lat="43.82999" lon="6.72975">
        <ele>1202</ele>
        <time>2018-04-27T08:47:34Z</time>
      </trkpt>
      <trkpt lat="43.83004" lon="6.72979">
        <ele>1202</ele>
        <time>2018-04-27T08:47:37Z</time>
      </trkpt>
      <trkpt lat="43.83009" lon="6.72981">
        <ele>1202</ele>
        <time>2018-04-27T08:47:40Z</time>
      </trkpt>
      <trkpt lat="43.83014" lon="6.72983">
        <ele>1202</ele>
        <time>2018-04-27T08:47:43Z</time>
      </trkpt>
      <trkpt lat="43.83019" lon="6.72987">
        <ele>1201</ele>
        <time>2018-04-27T08:47:46Z</time>
      </trkpt>
      <trkpt lat="43.83023" lon="6.72991">
        <ele>1201</ele>
        <time>2018-04-27T08:47:49Z</time>
      </trkpt>
      <trkpt lat="43.83027" lon="6.72995">
        <ele>1201</ele>
        <time>2018-04-27T08:47:52Z</time>
      </trkpt>
      <trkpt lat="43.83033" lon="6.72999">
        <ele>1200</ele>
        <time>2018-04-27T08:47:55Z</time>
      </trkpt>
      <trkpt lat="43.83037" lon="6.73002">
        <ele>1200</ele>
        <time>2018-04-27T08:47:57Z</time>
      </trkpt>
      <trkpt lat="43.83043" lon="6.73006">
        <ele>1200</ele>
        <time>2018-04-27T08:47:59Z</time>
      </trkpt>
      <trkpt lat="43.83048" lon="6.73007">
        <ele>1200</ele>
        <time>2018-04-27T08:48:01Z</time>
      </trkpt>
      <trkpt lat="43.83053" lon="6.73008">
        <ele>1200</ele>
        <time>2018-04-27T08:48:03Z</time>
      </trkpt>
      <trkpt lat="43.83057" lon="6.73009">
        <ele>1200</ele>
        <time>2018-04-27T08:48:05Z</time>
      </trkpt>
      <trkpt lat="43.83063" lon="6.73008">
        <ele>1200</ele>
        <time>2018-04-27T08:48:08Z</time>
      </trkpt>
      <trkpt lat="43.83068" lon="6.73009">
        <ele>1200</ele>
        <time>2018-04-27T08:48:11Z</time>
      </trkpt>
      <trkpt lat="43.83073" lon="6.73009">
        <ele>1201</ele>
        <time>2018-04-27T08:48:15Z</time>
      </trkpt>
      <trkpt lat="43.83079" lon="6.73009">
        <ele>1202</ele>
        <time>2018-04-27T08:48:19Z</time>
      </trkpt>
      <trkpt lat="43.83084" lon="6.73008">
        <ele>1203</ele>
        <time>2018-04-27T08:48:23Z</time>
      </trkpt>
      <trkpt lat="43.83089" lon="6.73007">
        <ele>1204</ele>
        <time>2018-04-27T08:48:27Z</time>
      </trkpt>
      <trkpt lat="43.83095" lon="6.73006">
        <ele>1205</ele>
        <time>2018-04-27T08:48:32Z</time>
      </trkpt>
      <trkpt lat="43.831" lon="6.73005">
        <ele>1206</ele>
        <time>2018-04-27T08:48:36Z</time>
      </trkpt>
      <trkpt lat="43.83104" lon="6.73003">
        <ele>1208</ele>
        <time>2018-04-27T08:48:40Z</time>
      </trkpt>
      <trkpt lat="43.8311" lon="6.73002">
        <ele>1209</ele>
        <time>2018-04-27T08:48:44Z</time>
      </trkpt>
      <trkpt lat="43.83115" lon="6.73001">
        <ele>1210</ele>
        <time>2018-04-27T08:48:48Z</time>
      </trkpt>
      <trkpt lat="43.8312" lon="6.72999">
        <ele>1210</ele>
        <time>2018-04-27T08:48:52Z</time>
      </trkpt>
      <trkpt lat="43.83126" lon="6.72998">
        <ele>1211</ele>
        <time>2018-04-27T08:48:56Z</time>
      </trkpt>
      <trkpt lat="43.83131" lon="6.72998">
        <ele>1211</ele>
        <time>2018-04-27T08:49:00Z</time>
      </trkpt>
      <trkpt lat="43.83136" lon="6.72998">
        <ele>1211</ele>
        <time>2018-04-27T08:49:04Z</time>
      </trkpt>
      <trkpt lat="43.83141" lon="6.72998">
        <ele>1212</ele>
        <time>2018-04-27T08:49:08Z</time>
      </trkpt>
      <trkpt lat="43.83147" lon="6.72998">
        <ele>1213</ele>
        <time>2018-04-27T08:49:12Z</time>
      </trkpt>
      <trkpt lat="43.83152" lon="6.72997">
        <ele>1213</ele>
        <time>2018-04-27T08:49:16Z</time>
      </trkpt>
      <trkpt lat="43.83157" lon="6.72999">
        <ele>1214</ele>
        <time>2018-04-27T08:49:21Z</time>
      </trkpt>
      <trkpt lat="43.83162" lon="6.73002">
        <ele>1214</ele>
        <time>2018-04-27T08:49:25Z</time>
      </trkpt>
      <trkpt lat="43.83167" lon="6.73001">
        <ele>1215</ele>
        <time>2018-04-27T08:49:29Z</time>
      </trkpt>
      <trkpt lat="43.83172" lon="6.73002">
        <ele>1215</ele>
        <time>2018-04-27T08:49:33Z</time>
      </trkpt>
      <trkpt lat="43.83176" lon="6.73002">
        <ele>1216</ele>
        <time>2018-04-27T08:49:37Z</time>
      </trkpt>
      <trkpt lat="43.83182" lon="6.73004">
        <ele>1216</ele>
        <time>2018-04-27T08:49:42Z</time>
      </trkpt>
      <trkpt lat="43.83186" lon="6.73004">
        <ele>1217</ele>
        <time>2018-04-27T08:49:47Z</time>
      </trkpt>
      <trkpt lat="43.83192" lon="6.73005">
        <ele>1218</ele>
        <time>2018-04-27T08:49:52Z</time>
      </trkpt>
      <trkpt lat="43.83196" lon="6.73004">
        <ele>1219</ele>
        <time>2018-04-27T08:49:56Z</time>
      </trkpt>
      <trkpt lat="43.83202" lon="6.73006">
        <ele>1220</ele>
        <time>2018-04-27T08:50:00Z</time>
      </trkpt>
      <trkpt lat="43.83207" lon="6.73007">
        <ele>1221</ele>
        <time>2018-04-27T08:50:05Z</time>
      </trkpt>
      <trkpt lat="43.83212" lon="6.73009">
        <ele>1222</ele>
        <time>2018-04-27T08:50:09Z</time>
      </trkpt>
      <trkpt lat="43.83218" lon="6.73011">
        <ele>1222</ele>
        <time>2018-04-27T08:50:14Z</time>
      </trkpt>
      <trkpt lat="43.83223" lon="6.73012">
        <ele>1223</ele>
        <time>2018-04-27T08:50:18Z</time>
      </trkpt>
      <trkpt lat="43.83228" lon="6.73015">
        <ele>1223</ele>
        <time>2018-04-27T08:50:22Z</time>
      </trkpt>
      <trkpt lat="43.83232" lon="6.73017">
        <ele>1224</ele>
        <time>2018-04-27T08:50:25Z</time>
      </trkpt>
      <trkpt lat="43.83238" lon="6.7302">
        <ele>1224</ele>
        <time>2018-04-27T08:50:29Z</time>
      </trkpt>
      <trkpt lat="43.83243" lon="6.73022">
        <ele>1224</ele>
        <time>2018-04-27T08:50:33Z</time>
      </trkpt>
      <trkpt lat="43.83247" lon="6.73025">
        <ele>1225</ele>
        <time>2018-04-27T08:50:36Z</time>
      </trkpt>
      <trkpt lat="43.83252" lon="6.73028">
        <ele>1226</ele>
        <time>2018-04-27T08:50:41Z</time>
      </trkpt>
      <trkpt lat="43.83257" lon="6.7303">
        <ele>1226</ele>
        <time>2018-04-27T08:50:44Z</time>
      </trkpt>
      <trkpt lat="43.83262" lon="6.73033">
        <ele>1227</ele>
        <time>2018-04-27T08:50:49Z</time>
      </trkpt>
      <trkpt lat="43.83266" lon="6.73035">
        <ele>1228</ele>
        <time>2018-04-27T08:50:52Z</time>
      </trkpt>
      <trkpt lat="43.83271" lon="6.73038">
        <ele>1228</ele>
        <time>2018-04-27T08:50:55Z</time>
      </trkpt>
      <trkpt lat="43.83276" lon="6.7304">
        <ele>1228</ele>
        <time>2018-04-27T08:50:58Z</time>
      </trkpt>
      <trkpt lat="43.83281" lon="6.73044">
        <ele>1229</ele>
        <time>2018-04-27T08:51:02Z</time>
      </trkpt>
      <trkpt lat="43.83286" lon="6.73045">
        <ele>1229</ele>
        <time>2018-04-27T08:51:06Z</time>
      </trkpt>
      <trkpt lat="43.83291" lon="6.73048">
        <ele>1230</ele>
        <time>2018-04-27T08:51:11Z</time>
      </trkpt>
      <trkpt lat="43.83295" lon="6.7305">
        <ele>1231</ele>
        <time>2018-04-27T08:51:15Z</time>
      </trkpt>
      <trkpt lat="43.833" lon="6.73052">
        <ele>1232</ele>
        <time>2018-04-27T08:51:19Z</time>
      </trkpt>
      <trkpt lat="43.83305" lon="6.73054">
        <ele>1233</ele>
        <time>2018-04-27T08:51:23Z</time>
      </trkpt>
      <trkpt lat="43.8331" lon="6.73056">
        <ele>1233</ele>
        <time>2018-04-27T08:51:27Z</time>
      </trkpt>
      <trkpt lat="43.83315" lon="6.7306">
        <ele>1234</ele>
        <time>2018-04-27T08:51:32Z</time>
      </trkpt>
      <trkpt lat="43.83321" lon="6.7306">
        <ele>1235</ele>
        <time>2018-04-27T08:51:36Z</time>
      </trkpt>
      <trkpt lat="43.83327" lon="6.73062">
        <ele>1236</ele>
        <time>2018-04-27T08:51:40Z</time>
      </trkpt>
      <trkpt lat="43.83332" lon="6.73064">
        <ele>1237</ele>
        <time>2018-04-27T08:51:44Z</time>
      </trkpt>
      <trkpt lat="43.83336" lon="6.73067">
        <ele>1238</ele>
        <time>2018-04-27T08:51:47Z</time>
      </trkpt>
      <trkpt lat="43.8334" lon="6.7307">
        <ele>1239</ele>
        <time>2018-04-27T08:51:50Z</time>
      </trkpt>
      <trkpt lat="43.83344" lon="6.73073">
        <ele>1239</ele>
        <time>2018-04-27T08:51:53Z</time>
      </trkpt>
      <trkpt lat="43.83349" lon="6.73076">
        <ele>1239</ele>
        <time>2018-04-27T08:51:56Z</time>
      </trkpt>
      <trkpt lat="43.83355" lon="6.73079">
        <ele>1239</ele>
        <time>2018-04-27T08:52:00Z</time>
      </trkpt>
      <trkpt lat="43.8336" lon="6.7308">
        <ele>1239</ele>
        <time>2018-04-27T08:52:03Z</time>
      </trkpt>
      <trkpt lat="43.83364" lon="6.73083">
        <ele>1240</ele>
        <time>2018-04-27T08:52:06Z</time>
      </trkpt>
      <trkpt lat="43.83368" lon="6.73086">
        <ele>1240</ele>
        <time>2018-04-27T08:52:09Z</time>
      </trkpt>
      <trkpt lat="43.83373" lon="6.7309">
        <ele>1240</ele>
        <time>2018-04-27T08:52:13Z</time>
      </trkpt>
      <trkpt lat="43.83378" lon="6.73093">
        <ele>1241</ele>
        <time>2018-04-27T08:52:17Z</time>
      </trkpt>
      <trkpt lat="43.83383" lon="6.73096">
        <ele>1242</ele>
        <time>2018-04-27T08:52:21Z</time>
      </trkpt>
      <trkpt lat="43.83387" lon="6.73099">
        <ele>1242</ele>
        <time>2018-04-27T08:52:25Z</time>
      </trkpt>
      <trkpt lat="43.83392" lon="6.73104">
        <ele>1243</ele>
        <time>2018-04-27T08:52:30Z</time>
      </trkpt>
      <trkpt lat="43.83396" lon="6.73108">
        <ele>1244</ele>
        <time>2018-04-27T08:52:34Z</time>
      </trkpt>
      <trkpt lat="43.83402" lon="6.7311">
        <ele>1245</ele>
        <time>2018-04-27T08:52:38Z</time>
      </trkpt>
      <trkpt lat="43.83406" lon="6.73115">
        <ele>1245</ele>
        <time>2018-04-27T08:52:42Z</time>
      </trkpt>
      <trkpt lat="43.8341" lon="6.73119">
        <ele>1246</ele>
        <time>2018-04-27T08:52:45Z</time>
      </trkpt>
      <trkpt lat="43.83413" lon="6.73123">
        <ele>1246</ele>
        <time>2018-04-27T08:52:48Z</time>
      </trkpt>
      <trkpt lat="43.83418" lon="6.73124">
        <ele>1246</ele>
        <time>2018-04-27T08:52:51Z</time>
      </trkpt>
      <trkpt lat="43.83419" lon="6.73118">
        <ele>1246</ele>
        <time>2018-04-27T08:52:55Z</time>
      </trkpt>
      <trkpt lat="43.83416" lon="6.73114">
        <ele>1246</ele>
        <time>2018-04-27T08:52:58Z</time>
      </trkpt>
      <trkpt lat="43.83411" lon="6.7311">
        <ele>1247</ele>
        <time>2018-04-27T08:53:01Z</time>
      </trkpt>
      <trkpt lat="43.83406" lon="6.73106">
        <ele>1247</ele>
        <time>2018-04-27T08:53:04Z</time>
      </trkpt>
      <trkpt lat="43.834" lon="6.73102">
        <ele>1247</ele>
        <time>2018-04-27T08:53:07Z</time>
      </trkpt>
      <trkpt lat="43.83396" lon="6.73098">
        <ele>1247</ele>
        <time>2018-04-27T08:53:10Z</time>
      </trkpt>
      <trkpt lat="43.83391" lon="6.73093">
        <ele>1247</ele>
        <time>2018-04-27T08:53:13Z</time>
      </trkpt>
      <trkpt lat="43.83387" lon="6.73087">
        <ele>1247</ele>
        <time>2018-04-27T08:53:16Z</time>
      </trkpt>
      <trkpt lat="43.83383" lon="6.73083">
        <ele>1247</ele>
        <time>2018-04-27T08:53:19Z</time>
      </trkpt>
      <trkpt lat="43.83379" lon="6.73078">
        <ele>1247</ele>
        <time>2018-04-27T08:53:22Z</time>
      </trkpt>
      <trkpt lat="43.83375" lon="6.73073">
        <ele>1248</ele>
        <time>2018-04-27T08:53:25Z</time>
      </trkpt>
      <trkpt lat="43.8337" lon="6.73067">
        <ele>1248</ele>
        <time>2018-04-27T08:53:28Z</time>
      </trkpt>
      <trkpt lat="43.83366" lon="6.73064">
        <ele>1248</ele>
        <time>2018-04-27T08:53:30Z</time>
      </trkpt>
      <trkpt lat="43.83362" lon="6.7306">
        <ele>1248</ele>
        <time>2018-04-27T08:53:33Z</time>
      </trkpt>
      <trkpt lat="43.83358" lon="6.73056">
        <ele>1248</ele>
        <time>2018-04-27T08:53:36Z</time>
      </trkpt>
      <trkpt lat="43.83353" lon="6.73051">
        <ele>1248</ele>
        <time>2018-04-27T08:53:40Z</time>
      </trkpt>
      <trkpt lat="43.83349" lon="6.73048">
        <ele>1249</ele>
        <time>2018-04-27T08:53:43Z</time>
      </trkpt>
      <trkpt lat="43.83345" lon="6.73043">
        <ele>1249</ele>
        <time>2018-04-27T08:53:47Z</time>
      </trkpt>
      <trkpt lat="43.83341" lon="6.73039">
        <ele>1249</ele>
        <time>2018-04-27T08:53:50Z</time>
      </trkpt>
      <trkpt lat="43.83337" lon="6.73035">
        <ele>1250</ele>
        <time>2018-04-27T08:53:53Z</time>
      </trkpt>
      <trkpt lat="43.83334" lon="6.7303">
        <ele>1251</ele>
        <time>2018-04-27T08:53:57Z</time>
      </trkpt>
      <trkpt lat="43.8333" lon="6.73025">
        <ele>1251</ele>
        <time>2018-04-27T08:54:01Z</time>
      </trkpt>
      <trkpt lat="43.83326" lon="6.7302">
        <ele>1252</ele>
        <time>2018-04-27T08:54:05Z</time>
      </trkpt>
      <trkpt lat="43.83323" lon="6.73016">
        <ele>1253</ele>
        <time>2018-04-27T08:54:09Z</time>
      </trkpt>
      <trkpt lat="43.83319" lon="6.73011">
        <ele>1254</ele>
        <time>2018-04-27T08:54:13Z</time>
      </trkpt>
      <trkpt lat="43.83315" lon="6.73005">
        <ele>1254</ele>
        <time>2018-04-27T08:54:17Z</time>
      </trkpt>
      <trkpt lat="43.8331" lon="6.73002">
        <ele>1255</ele>
        <time>2018-04-27T08:54:21Z</time>
      </trkpt>
      <trkpt lat="43.83307" lon="6.72996">
        <ele>1256</ele>
        <time>2018-04-27T08:54:25Z</time>
      </trkpt>
      <trkpt lat="43.83302" lon="6.72992">
        <ele>1256</ele>
        <time>2018-04-27T08:54:29Z</time>
      </trkpt>
      <trkpt lat="43.83298" lon="6.72988">
        <ele>1257</ele>
        <time>2018-04-27T08:54:33Z</time>
      </trkpt>
      <trkpt lat="43.83294" lon="6.72985">
        <ele>1257</ele>
        <time>2018-04-27T08:54:37Z</time>
      </trkpt>
      <trkpt lat="43.8329" lon="6.7298">
        <ele>1258</ele>
        <time>2018-04-27T08:54:41Z</time>
      </trkpt>
      <trkpt lat="43.83286" lon="6.72976">
        <ele>1258</ele>
        <time>2018-04-27T08:54:45Z</time>
      </trkpt>
      <trkpt lat="43.83281" lon="6.72971">
        <ele>1259</ele>
        <time>2018-04-27T08:54:49Z</time>
      </trkpt>
      <trkpt lat="43.83277" lon="6.72967">
        <ele>1259</ele>
        <time>2018-04-27T08:54:52Z</time>
      </trkpt>
      <trkpt lat="43.83273" lon="6.72962">
        <ele>1260</ele>
        <time>2018-04-27T08:54:55Z</time>
      </trkpt>
      <trkpt lat="43.83268" lon="6.72958">
        <ele>1260</ele>
        <time>2018-04-27T08:54:58Z</time>
      </trkpt>
      <trkpt lat="43.83263" lon="6.72955">
        <ele>1260</ele>
        <time>2018-04-27T08:55:01Z</time>
      </trkpt>
      <trkpt lat="43.83259" lon="6.7295">
        <ele>1261</ele>
        <time>2018-04-27T08:55:04Z</time>
      </trkpt>
      <trkpt lat="43.83255" lon="6.72946">
        <ele>1261</ele>
        <time>2018-04-27T08:55:07Z</time>
      </trkpt>
      <trkpt lat="43.83252" lon="6.7294">
        <ele>1262</ele>
        <time>2018-04-27T08:55:11Z</time>
      </trkpt>
      <trkpt lat="43.83247" lon="6.72935">
        <ele>1263</ele>
        <time>2018-04-27T08:55:15Z</time>
      </trkpt>
      <trkpt lat="43.83244" lon="6.72929">
        <ele>1264</ele>
        <time>2018-04-27T08:55:19Z</time>
      </trkpt>
      <trkpt lat="43.8324" lon="6.72924">
        <ele>1264</ele>
        <time>2018-04-27T08:55:23Z</time>
      </trkpt>
      <trkpt lat="43.83236" lon="6.7292">
        <ele>1265</ele>
        <time>2018-04-27T08:55:27Z</time>
      </trkpt>
      <trkpt lat="43.83231" lon="6.72915">
        <ele>1266</ele>
        <time>2018-04-27T08:55:31Z</time>
      </trkpt>
      <trkpt lat="43.83227" lon="6.72911">
        <ele>1267</ele>
        <time>2018-04-27T08:55:34Z</time>
      </trkpt>
      <trkpt lat="43.83223" lon="6.72907">
        <ele>1267</ele>
        <time>2018-04-27T08:55:38Z</time>
      </trkpt>
      <trkpt lat="43.83218" lon="6.72903">
        <ele>1268</ele>
        <time>2018-04-27T08:55:42Z</time>
      </trkpt>
      <trkpt lat="43.83213" lon="6.72899">
        <ele>1268</ele>
        <time>2018-04-27T08:55:46Z</time>
      </trkpt>
      <trkpt lat="43.83209" lon="6.72896">
        <ele>1269</ele>
        <time>2018-04-27T08:55:49Z</time>
      </trkpt>
      <trkpt lat="43.83204" lon="6.72892">
        <ele>1269</ele>
        <time>2018-04-27T08:55:53Z</time>
      </trkpt>
      <trkpt lat="43.832" lon="6.72889">
        <ele>1270</ele>
        <time>2018-04-27T08:55:56Z</time>
      </trkpt>
      <trkpt lat="43.83195" lon="6.72885">
        <ele>1270</ele>
        <time>2018-04-27T08:56:00Z</time>
      </trkpt>
      <trkpt lat="43.83189" lon="6.72881">
        <ele>1271</ele>
        <time>2018-04-27T08:56:04Z</time>
      </trkpt>
      <trkpt lat="43.83185" lon="6.72877">
        <ele>1272</ele>
        <time>2018-04-27T08:56:08Z</time>
      </trkpt>
      <trkpt lat="43.83181" lon="6.72874">
        <ele>1273</ele>
        <time>2018-04-27T08:56:12Z</time>
      </trkpt>
      <trkpt lat="43.83176" lon="6.7287">
        <ele>1274</ele>
        <time>2018-04-27T08:56:16Z</time>
      </trkpt>
      <trkpt lat="43.83172" lon="6.72866">
        <ele>1275</ele>
        <time>2018-04-27T08:56:20Z</time>
      </trkpt>
      <trkpt lat="43.83168" lon="6.72863">
        <ele>1275</ele>
        <time>2018-04-27T08:56:24Z</time>
      </trkpt>
      <trkpt lat="43.83164" lon="6.72862">
        <ele>1276</ele>
        <time>2018-04-27T08:56:44Z</time>
      </trkpt>
      <trkpt lat="43.83165" lon="6.72861">
        <ele>1276</ele>
        <time>2018-04-27T08:56:47Z</time>
      </trkpt>
      <trkpt lat="43.8316" lon="6.72858">
        <ele>1276</ele>
        <time>2018-04-27T08:57:10Z</time>
      </trkpt>
      <trkpt lat="43.83155" lon="6.72853">
        <ele>1276</ele>
        <time>2018-04-27T08:57:14Z</time>
      </trkpt>
      <trkpt lat="43.83151" lon="6.72849">
        <ele>1277</ele>
        <time>2018-04-27T08:57:17Z</time>
      </trkpt>
      <trkpt lat="43.83148" lon="6.72845">
        <ele>1277</ele>
        <time>2018-04-27T08:57:20Z</time>
      </trkpt>
      <trkpt lat="43.83144" lon="6.72841">
        <ele>1277</ele>
        <time>2018-04-27T08:57:23Z</time>
      </trkpt>
      <trkpt lat="43.83141" lon="6.72836">
        <ele>1278</ele>
        <time>2018-04-27T08:57:26Z</time>
      </trkpt>
      <trkpt lat="43.83137" lon="6.72831">
        <ele>1278</ele>
        <time>2018-04-27T08:57:30Z</time>
      </trkpt>
      <trkpt lat="43.83132" lon="6.72827">
        <ele>1278</ele>
        <time>2018-04-27T08:57:34Z</time>
      </trkpt>
      <trkpt lat="43.83128" lon="6.72824">
        <ele>1279</ele>
        <time>2018-04-27T08:57:37Z</time>
      </trkpt>
      <trkpt lat="43.83124" lon="6.72819">
        <ele>1280</ele>
        <time>2018-04-27T08:57:41Z</time>
      </trkpt>
      <trkpt lat="43.8312" lon="6.72816">
        <ele>1280</ele>
        <time>2018-04-27T08:57:44Z</time>
      </trkpt>
      <trkpt lat="43.83116" lon="6.72811">
        <ele>1281</ele>
        <time>2018-04-27T08:57:48Z</time>
      </trkpt>
      <trkpt lat="43.8311" lon="6.72807">
        <ele>1282</ele>
        <time>2018-04-27T08:57:52Z</time>
      </trkpt>
      <trkpt lat="43.83106" lon="6.72802">
        <ele>1283</ele>
        <time>2018-04-27T08:57:56Z</time>
      </trkpt>
      <trkpt lat="43.83102" lon="6.72799">
        <ele>1283</ele>
        <time>2018-04-27T08:57:59Z</time>
      </trkpt>
      <trkpt lat="43.83098" lon="6.72795">
        <ele>1284</ele>
        <time>2018-04-27T08:58:02Z</time>
      </trkpt>
      <trkpt lat="43.83093" lon="6.72791">
        <ele>1285</ele>
        <time>2018-04-27T08:58:05Z</time>
      </trkpt>
      <trkpt lat="43.83089" lon="6.72786">
        <ele>1285</ele>
        <time>2018-04-27T08:58:08Z</time>
      </trkpt>
      <trkpt lat="43.83085" lon="6.72782">
        <ele>1285</ele>
        <time>2018-04-27T08:58:11Z</time>
      </trkpt>
      <trkpt lat="43.8308" lon="6.72778">
        <ele>1285</ele>
        <time>2018-04-27T08:58:14Z</time>
      </trkpt>
      <trkpt lat="43.83077" lon="6.72773">
        <ele>1286</ele>
        <time>2018-04-27T08:58:17Z</time>
      </trkpt>
      <trkpt lat="43.83073" lon="6.72769">
        <ele>1286</ele>
        <time>2018-04-27T08:58:20Z</time>
      </trkpt>
      <trkpt lat="43.83069" lon="6.72764">
        <ele>1286</ele>
        <time>2018-04-27T08:58:23Z</time>
      </trkpt>
      <trkpt lat="43.83064" lon="6.7276">
        <ele>1287</ele>
        <time>2018-04-27T08:58:26Z</time>
      </trkpt>
      <trkpt lat="43.83061" lon="6.72756">
        <ele>1288</ele>
        <time>2018-04-27T08:58:29Z</time>
      </trkpt>
      <trkpt lat="43.83057" lon="6.72751">
        <ele>1288</ele>
        <time>2018-04-27T08:58:32Z</time>
      </trkpt>
      <trkpt lat="43.83054" lon="6.72747">
        <ele>1289</ele>
        <time>2018-04-27T08:58:35Z</time>
      </trkpt>
      <trkpt lat="43.8305" lon="6.72741">
        <ele>1290</ele>
        <time>2018-04-27T08:58:39Z</time>
      </trkpt>
      <trkpt lat="43.83047" lon="6.72734">
        <ele>1290</ele>
        <time>2018-04-27T08:58:43Z</time>
      </trkpt>
      <trkpt lat="43.83044" lon="6.72729">
        <ele>1291</ele>
        <time>2018-04-27T08:58:46Z</time>
      </trkpt>
      <trkpt lat="43.8304" lon="6.72723">
        <ele>1292</ele>
        <time>2018-04-27T08:58:50Z</time>
      </trkpt>
      <trkpt lat="43.83036" lon="6.72718">
        <ele>1292</ele>
        <time>2018-04-27T08:58:53Z</time>
      </trkpt>
      <trkpt lat="43.83033" lon="6.72712">
        <ele>1293</ele>
        <time>2018-04-27T08:58:57Z</time>
      </trkpt>
      <trkpt lat="43.83029" lon="6.72707">
        <ele>1294</ele>
        <time>2018-04-27T08:59:01Z</time>
      </trkpt>
      <trkpt lat="43.83026" lon="6.72701">
        <ele>1295</ele>
        <time>2018-04-27T08:59:05Z</time>
      </trkpt>
      <trkpt lat="43.83022" lon="6.72696">
        <ele>1296</ele>
        <time>2018-04-27T08:59:09Z</time>
      </trkpt>
      <trkpt lat="43.83019" lon="6.7269">
        <ele>1296</ele>
        <time>2018-04-27T08:59:13Z</time>
      </trkpt>
      <trkpt lat="43.83015" lon="6.72685">
        <ele>1297</ele>
        <time>2018-04-27T08:59:17Z</time>
      </trkpt>
      <trkpt lat="43.83011" lon="6.72679">
        <ele>1298</ele>
        <time>2018-04-27T08:59:21Z</time>
      </trkpt>
      <trkpt lat="43.83007" lon="6.72673">
        <ele>1299</ele>
        <time>2018-04-27T08:59:25Z</time>
      </trkpt>
      <trkpt lat="43.83004" lon="6.72669">
        <ele>1299</ele>
        <time>2018-04-27T08:59:28Z</time>
      </trkpt>
      <trkpt lat="43.83001" lon="6.72664">
        <ele>1300</ele>
        <time>2018-04-27T08:59:31Z</time>
      </trkpt>
      <trkpt lat="43.82997" lon="6.72659">
        <ele>1300</ele>
        <time>2018-04-27T08:59:34Z</time>
      </trkpt>
      <trkpt lat="43.82993" lon="6.72654">
        <ele>1301</ele>
        <time>2018-04-27T08:59:37Z</time>
      </trkpt>
      <trkpt lat="43.82989" lon="6.7265">
        <ele>1302</ele>
        <time>2018-04-27T08:59:40Z</time>
      </trkpt>
      <trkpt lat="43.82986" lon="6.72644">
        <ele>1302</ele>
        <time>2018-04-27T08:59:43Z</time>
      </trkpt>
      <trkpt lat="43.82981" lon="6.72639">
        <ele>1302</ele>
        <time>2018-04-27T08:59:46Z</time>
      </trkpt>
      <trkpt lat="43.82977" lon="6.72634">
        <ele>1303</ele>
        <time>2018-04-27T08:59:49Z</time>
      </trkpt>
      <trkpt lat="43.82972" lon="6.72629">
        <ele>1303</ele>
        <time>2018-04-27T08:59:52Z</time>
      </trkpt>
      <trkpt lat="43.82968" lon="6.72625">
        <ele>1303</ele>
        <time>2018-04-27T08:59:55Z</time>
      </trkpt>
      <trkpt lat="43.82964" lon="6.7262">
        <ele>1303</ele>
        <time>2018-04-27T08:59:58Z</time>
      </trkpt>
      <trkpt lat="43.82959" lon="6.72615">
        <ele>1304</ele>
        <time>2018-04-27T09:00:02Z</time>
      </trkpt>
      <trkpt lat="43.82956" lon="6.72611">
        <ele>1304</ele>
        <time>2018-04-27T09:00:05Z</time>
      </trkpt>
      <trkpt lat="43.82951" lon="6.72606">
        <ele>1305</ele>
        <time>2018-04-27T09:00:09Z</time>
      </trkpt>
      <trkpt lat="43.82948" lon="6.72603">
        <ele>1305</ele>
        <time>2018-04-27T09:00:12Z</time>
      </trkpt>
      <trkpt lat="43.82944" lon="6.72598">
        <ele>1306</ele>
        <time>2018-04-27T09:00:16Z</time>
      </trkpt>
      <trkpt lat="43.8294" lon="6.72592">
        <ele>1307</ele>
        <time>2018-04-27T09:00:20Z</time>
      </trkpt>
      <trkpt lat="43.82936" lon="6.72587">
        <ele>1307</ele>
        <time>2018-04-27T09:00:24Z</time>
      </trkpt>
      <trkpt lat="43.82932" lon="6.72581">
        <ele>1308</ele>
        <time>2018-04-27T09:00:28Z</time>
      </trkpt>
      <trkpt lat="43.82929" lon="6.72576">
        <ele>1308</ele>
        <time>2018-04-27T09:00:31Z</time>
      </trkpt>
      <trkpt lat="43.82925" lon="6.72571">
        <ele>1309</ele>
        <time>2018-04-27T09:00:34Z</time>
      </trkpt>
      <trkpt lat="43.82922" lon="6.72565">
        <ele>1310</ele>
        <time>2018-04-27T09:00:38Z</time>
      </trkpt>
      <trkpt lat="43.82917" lon="6.72559">
        <ele>1310</ele>
        <time>2018-04-27T09:00:42Z</time>
      </trkpt>
      <trkpt lat="43.82915" lon="6.72554">
        <ele>1311</ele>
        <time>2018-04-27T09:00:45Z</time>
      </trkpt>
      <trkpt lat="43.82912" lon="6.72549">
        <ele>1311</ele>
        <time>2018-04-27T09:00:48Z</time>
      </trkpt>
      <trkpt lat="43.82909" lon="6.72543">
        <ele>1311</ele>
        <time>2018-04-27T09:00:52Z</time>
      </trkpt>
      <trkpt lat="43.82906" lon="6.72537">
        <ele>1312</ele>
        <time>2018-04-27T09:00:56Z</time>
      </trkpt>
      <trkpt lat="43.82903" lon="6.72531">
        <ele>1313</ele>
        <time>2018-04-27T09:01:00Z</time>
      </trkpt>
      <trkpt lat="43.829" lon="6.72525">
        <ele>1313</ele>
        <time>2018-04-27T09:01:04Z</time>
      </trkpt>
      <trkpt lat="43.82896" lon="6.72518">
        <ele>1314</ele>
        <time>2018-04-27T09:01:08Z</time>
      </trkpt>
      <trkpt lat="43.82894" lon="6.72513">
        <ele>1315</ele>
        <time>2018-04-27T09:01:11Z</time>
      </trkpt>
      <trkpt lat="43.82892" lon="6.72506">
        <ele>1315</ele>
        <time>2018-04-27T09:01:15Z</time>
      </trkpt>
      <trkpt lat="43.82889" lon="6.72501">
        <ele>1316</ele>
        <time>2018-04-27T09:01:18Z</time>
      </trkpt>
      <trkpt lat="43.82886" lon="6.72495">
        <ele>1316</ele>
        <time>2018-04-27T09:01:22Z</time>
      </trkpt>
      <trkpt lat="43.82884" lon="6.72489">
        <ele>1317</ele>
        <time>2018-04-27T09:01:26Z</time>
      </trkpt>
      <trkpt lat="43.8288" lon="6.72484">
        <ele>1317</ele>
        <time>2018-04-27T09:01:29Z</time>
      </trkpt>
      <trkpt lat="43.82878" lon="6.72479">
        <ele>1318</ele>
        <time>2018-04-27T09:01:32Z</time>
      </trkpt>
      <trkpt lat="43.82874" lon="6.72475">
        <ele>1318</ele>
        <time>2018-04-27T09:01:35Z</time>
      </trkpt>
      <trkpt lat="43.82872" lon="6.7247">
        <ele>1319</ele>
        <time>2018-04-27T09:01:38Z</time>
      </trkpt>
      <trkpt lat="43.82869" lon="6.72464">
        <ele>1320</ele>
        <time>2018-04-27T09:01:42Z</time>
      </trkpt>
      <trkpt lat="43.82867" lon="6.72457">
        <ele>1321</ele>
        <time>2018-04-27T09:01:46Z</time>
      </trkpt>
      <trkpt lat="43.82865" lon="6.72452">
        <ele>1321</ele>
        <time>2018-04-27T09:01:49Z</time>
      </trkpt>
      <trkpt lat="43.82861" lon="6.72446">
        <ele>1322</ele>
        <time>2018-04-27T09:01:53Z</time>
      </trkpt>
      <trkpt lat="43.82858" lon="6.72442">
        <ele>1323</ele>
        <time>2018-04-27T09:01:56Z</time>
      </trkpt>
      <trkpt lat="43.82854" lon="6.72436">
        <ele>1324</ele>
        <time>2018-04-27T09:02:00Z</time>
      </trkpt>
      <trkpt lat="43.82851" lon="6.7243">
        <ele>1324</ele>
        <time>2018-04-27T09:02:04Z</time>
      </trkpt>
      <trkpt lat="43.82848" lon="6.72425">
        <ele>1325</ele>
        <time>2018-04-27T09:02:07Z</time>
      </trkpt>
      <trkpt lat="43.82845" lon="6.7242">
        <ele>1325</ele>
        <time>2018-04-27T09:02:10Z</time>
      </trkpt>
      <trkpt lat="43.82842" lon="6.72415">
        <ele>1326</ele>
        <time>2018-04-27T09:02:13Z</time>
      </trkpt>
      <trkpt lat="43.82839" lon="6.7241">
        <ele>1326</ele>
        <time>2018-04-27T09:02:16Z</time>
      </trkpt>
      <trkpt lat="43.82836" lon="6.72403">
        <ele>1326</ele>
        <time>2018-04-27T09:02:20Z</time>
      </trkpt>
      <trkpt lat="43.82832" lon="6.72397">
        <ele>1327</ele>
        <time>2018-04-27T09:02:24Z</time>
      </trkpt>
      <trkpt lat="43.8283" lon="6.7239">
        <ele>1328</ele>
        <time>2018-04-27T09:02:28Z</time>
      </trkpt>
      <trkpt lat="43.82826" lon="6.72384">
        <ele>1328</ele>
        <time>2018-04-27T09:02:32Z</time>
      </trkpt>
      <trkpt lat="43.82822" lon="6.72379">
        <ele>1329</ele>
        <time>2018-04-27T09:02:35Z</time>
      </trkpt>
      <trkpt lat="43.8282" lon="6.72374">
        <ele>1329</ele>
        <time>2018-04-27T09:02:38Z</time>
      </trkpt>
      <trkpt lat="43.82818" lon="6.72367">
        <ele>1330</ele>
        <time>2018-04-27T09:02:42Z</time>
      </trkpt>
      <trkpt lat="43.82817" lon="6.72365">
        <ele>1330</ele>
        <time>2018-04-27T09:02:59Z</time>
      </trkpt>
      <trkpt lat="43.82826" lon="6.72371">
        <ele>1332</ele>
        <time>2018-04-27T09:04:22Z</time>
      </trkpt>
      <trkpt lat="43.82817" lon="6.72365">
        <ele>1332</ele>
        <time>2018-04-27T09:04:22Z</time>
      </trkpt>
      <trkpt lat="43.82824" lon="6.72364">
        <ele>1331</ele>
        <time>2018-04-27T09:04:24Z</time>
      </trkpt>
      <trkpt lat="43.82825" lon="6.72364">
        <ele>1331</ele>
        <time>2018-04-27T09:04:47Z</time>
      </trkpt>
      <trkpt lat="43.82809" lon="6.72363">
        <ele>1326</ele>
        <time>2018-04-27T09:05:29Z</time>
      </trkpt>
      <trkpt lat="43.82821" lon="6.72366">
        <ele>1324</ele>
        <time>2018-04-27T09:05:31Z</time>
      </trkpt>
      <trkpt lat="43.82822" lon="6.72366">
        <ele>1325</ele>
        <time>2018-04-27T09:05:56Z</time>
      </trkpt>
      <trkpt lat="43.82817" lon="6.72364">
        <ele>1324</ele>
        <time>2018-04-27T09:06:32Z</time>
      </trkpt>
      <trkpt lat="43.82822" lon="6.72366">
        <ele>1324</ele>
        <time>2018-04-27T09:06:32Z</time>
      </trkpt>
      <trkpt lat="43.82823" lon="6.72366">
        <ele>1329</ele>
        <time>2018-04-27T09:06:57Z</time>
      </trkpt>
      <trkpt lat="43.82823" lon="6.72366">
        <ele>1329</ele>
        <time>2018-04-27T09:07:35Z</time>
      </trkpt>
      <trkpt lat="43.8282" lon="6.72364">
        <ele>1328</ele>
        <time>2018-04-27T09:08:00Z</time>
      </trkpt>
      <trkpt lat="43.8282" lon="6.72364">
        <ele>1329</ele>
        <time>2018-04-27T09:08:03Z</time>
      </trkpt>
      <trkpt lat="43.82815" lon="6.72363">
        <ele>1328</ele>
        <time>2018-04-27T09:08:20Z</time>
      </trkpt>
      <trkpt lat="43.8281" lon="6.72361">
        <ele>1328</ele>
        <time>2018-04-27T09:08:23Z</time>
      </trkpt>
      <trkpt lat="43.82805" lon="6.72358">
        <ele>1327</ele>
        <time>2018-04-27T09:08:26Z</time>
      </trkpt>
      <trkpt lat="43.828" lon="6.72355">
        <ele>1328</ele>
        <time>2018-04-27T09:08:29Z</time>
      </trkpt>
      <trkpt lat="43.82795" lon="6.72351">
        <ele>1329</ele>
        <time>2018-04-27T09:08:32Z</time>
      </trkpt>
      <trkpt lat="43.8279" lon="6.72348">
        <ele>1330</ele>
        <time>2018-04-27T09:08:35Z</time>
      </trkpt>
      <trkpt lat="43.82786" lon="6.72343">
        <ele>1330</ele>
        <time>2018-04-27T09:08:38Z</time>
      </trkpt>
      <trkpt lat="43.82782" lon="6.72338">
        <ele>1330</ele>
        <time>2018-04-27T09:08:42Z</time>
      </trkpt>
      <trkpt lat="43.8278" lon="6.72332">
        <ele>1331</ele>
        <time>2018-04-27T09:08:45Z</time>
      </trkpt>
      <trkpt lat="43.82777" lon="6.72326">
        <ele>1331</ele>
        <time>2018-04-27T09:08:48Z</time>
      </trkpt>
      <trkpt lat="43.82774" lon="6.72321">
        <ele>1332</ele>
        <time>2018-04-27T09:08:52Z</time>
      </trkpt>
      <trkpt lat="43.82772" lon="6.72314">
        <ele>1332</ele>
        <time>2018-04-27T09:08:56Z</time>
      </trkpt>
      <trkpt lat="43.8277" lon="6.72309">
        <ele>1333</ele>
        <time>2018-04-27T09:08:59Z</time>
      </trkpt>
      <trkpt lat="43.82766" lon="6.72301">
        <ele>1333</ele>
        <time>2018-04-27T09:09:03Z</time>
      </trkpt>
      <trkpt lat="43.82765" lon="6.72295">
        <ele>1334</ele>
        <time>2018-04-27T09:09:06Z</time>
      </trkpt>
      <trkpt lat="43.82762" lon="6.7229">
        <ele>1334</ele>
        <time>2018-04-27T09:09:09Z</time>
      </trkpt>
      <trkpt lat="43.82761" lon="6.72283">
        <ele>1335</ele>
        <time>2018-04-27T09:09:13Z</time>
      </trkpt>
      <trkpt lat="43.8276" lon="6.72276">
        <ele>1335</ele>
        <time>2018-04-27T09:09:17Z</time>
      </trkpt>
      <trkpt lat="43.82758" lon="6.72269">
        <ele>1336</ele>
        <time>2018-04-27T09:09:21Z</time>
      </trkpt>
      <trkpt lat="43.82757" lon="6.72261">
        <ele>1337</ele>
        <time>2018-04-27T09:09:25Z</time>
      </trkpt>
      <trkpt lat="43.82755" lon="6.72253">
        <ele>1337</ele>
        <time>2018-04-27T09:09:29Z</time>
      </trkpt>
      <trkpt lat="43.82755" lon="6.72246">
        <ele>1338</ele>
        <time>2018-04-27T09:09:33Z</time>
      </trkpt>
      <trkpt lat="43.82753" lon="6.72239">
        <ele>1339</ele>
        <time>2018-04-27T09:09:36Z</time>
      </trkpt>
      <trkpt lat="43.82753" lon="6.72233">
        <ele>1339</ele>
        <time>2018-04-27T09:09:39Z</time>
      </trkpt>
      <trkpt lat="43.82751" lon="6.72227">
        <ele>1339</ele>
        <time>2018-04-27T09:09:42Z</time>
      </trkpt>
      <trkpt lat="43.82749" lon="6.72221">
        <ele>1340</ele>
        <time>2018-04-27T09:09:45Z</time>
      </trkpt>
      <trkpt lat="43.82747" lon="6.72215">
        <ele>1340</ele>
        <time>2018-04-27T09:09:48Z</time>
      </trkpt>
      <trkpt lat="43.82745" lon="6.7221">
        <ele>1340</ele>
        <time>2018-04-27T09:09:51Z</time>
      </trkpt>
      <trkpt lat="43.82742" lon="6.72203">
        <ele>1341</ele>
        <time>2018-04-27T09:09:55Z</time>
      </trkpt>
      <trkpt lat="43.82739" lon="6.72196">
        <ele>1341</ele>
        <time>2018-04-27T09:09:59Z</time>
      </trkpt>
      <trkpt lat="43.82735" lon="6.72191">
        <ele>1342</ele>
        <time>2018-04-27T09:10:02Z</time>
      </trkpt>
      <trkpt lat="43.82732" lon="6.72184">
        <ele>1343</ele>
        <time>2018-04-27T09:10:06Z</time>
      </trkpt>
      <trkpt lat="43.82729" lon="6.72179">
        <ele>1343</ele>
        <time>2018-04-27T09:10:10Z</time>
      </trkpt>
      <trkpt lat="43.82726" lon="6.72173">
        <ele>1344</ele>
        <time>2018-04-27T09:10:14Z</time>
      </trkpt>
      <trkpt lat="43.82722" lon="6.72168">
        <ele>1345</ele>
        <time>2018-04-27T09:10:18Z</time>
      </trkpt>
      <trkpt lat="43.82719" lon="6.72162">
        <ele>1345</ele>
        <time>2018-04-27T09:10:22Z</time>
      </trkpt>
      <trkpt lat="43.82715" lon="6.72157">
        <ele>1346</ele>
        <time>2018-04-27T09:10:26Z</time>
      </trkpt>
      <trkpt lat="43.82711" lon="6.72152">
        <ele>1346</ele>
        <time>2018-04-27T09:10:29Z</time>
      </trkpt>
      <trkpt lat="43.82707" lon="6.72148">
        <ele>1347</ele>
        <time>2018-04-27T09:10:32Z</time>
      </trkpt>
      <trkpt lat="43.82703" lon="6.72144">
        <ele>1347</ele>
        <time>2018-04-27T09:10:36Z</time>
      </trkpt>
      <trkpt lat="43.82699" lon="6.7214">
        <ele>1348</ele>
        <time>2018-04-27T09:10:40Z</time>
      </trkpt>
      <trkpt lat="43.82695" lon="6.72136">
        <ele>1349</ele>
        <time>2018-04-27T09:10:43Z</time>
      </trkpt>
      <trkpt lat="43.82692" lon="6.72132">
        <ele>1349</ele>
        <time>2018-04-27T09:10:46Z</time>
      </trkpt>
      <trkpt lat="43.82689" lon="6.72126">
        <ele>1349</ele>
        <time>2018-04-27T09:10:50Z</time>
      </trkpt>
      <trkpt lat="43.82685" lon="6.72121">
        <ele>1350</ele>
        <time>2018-04-27T09:10:54Z</time>
      </trkpt>
      <trkpt lat="43.82682" lon="6.72115">
        <ele>1350</ele>
        <time>2018-04-27T09:10:58Z</time>
      </trkpt>
      <trkpt lat="43.82678" lon="6.72109">
        <ele>1350</ele>
        <time>2018-04-27T09:11:02Z</time>
      </trkpt>
      <trkpt lat="43.82674" lon="6.72104">
        <ele>1351</ele>
        <time>2018-04-27T09:11:06Z</time>
      </trkpt>
      <trkpt lat="43.82671" lon="6.72097">
        <ele>1352</ele>
        <time>2018-04-27T09:11:10Z</time>
      </trkpt>
      <trkpt lat="43.82668" lon="6.72093">
        <ele>1352</ele>
        <time>2018-04-27T09:11:13Z</time>
      </trkpt>
      <trkpt lat="43.82664" lon="6.72088">
        <ele>1353</ele>
        <time>2018-04-27T09:11:17Z</time>
      </trkpt>
      <trkpt lat="43.82661" lon="6.72082">
        <ele>1354</ele>
        <time>2018-04-27T09:11:21Z</time>
      </trkpt>
      <trkpt lat="43.82659" lon="6.72075">
        <ele>1355</ele>
        <time>2018-04-27T09:11:25Z</time>
      </trkpt>
      <trkpt lat="43.82657" lon="6.72068">
        <ele>1355</ele>
        <time>2018-04-27T09:11:29Z</time>
      </trkpt>
      <trkpt lat="43.82657" lon="6.72061">
        <ele>1356</ele>
        <time>2018-04-27T09:11:33Z</time>
      </trkpt>
      <trkpt lat="43.82655" lon="6.72055">
        <ele>1356</ele>
        <time>2018-04-27T09:11:37Z</time>
      </trkpt>
      <trkpt lat="43.82653" lon="6.72049">
        <ele>1357</ele>
        <time>2018-04-27T09:11:41Z</time>
      </trkpt>
      <trkpt lat="43.8265" lon="6.72043">
        <ele>1358</ele>
        <time>2018-04-27T09:11:45Z</time>
      </trkpt>
      <trkpt lat="43.82646" lon="6.72038">
        <ele>1358</ele>
        <time>2018-04-27T09:11:49Z</time>
      </trkpt>
      <trkpt lat="43.82644" lon="6.72033">
        <ele>1359</ele>
        <time>2018-04-27T09:11:53Z</time>
      </trkpt>
      <trkpt lat="43.8264" lon="6.72027">
        <ele>1360</ele>
        <time>2018-04-27T09:11:57Z</time>
      </trkpt>
      <trkpt lat="43.82639" lon="6.7202">
        <ele>1360</ele>
        <time>2018-04-27T09:12:01Z</time>
      </trkpt>
      <trkpt lat="43.82637" lon="6.72014">
        <ele>1361</ele>
        <time>2018-04-27T09:12:05Z</time>
      </trkpt>
      <trkpt lat="43.82634" lon="6.72007">
        <ele>1362</ele>
        <time>2018-04-27T09:12:09Z</time>
      </trkpt>
      <trkpt lat="43.82632" lon="6.72001">
        <ele>1362</ele>
        <time>2018-04-27T09:12:13Z</time>
      </trkpt>
      <trkpt lat="43.8263" lon="6.71995">
        <ele>1363</ele>
        <time>2018-04-27T09:12:17Z</time>
      </trkpt>
      <trkpt lat="43.82627" lon="6.71989">
        <ele>1364</ele>
        <time>2018-04-27T09:12:21Z</time>
      </trkpt>
      <trkpt lat="43.82625" lon="6.71984">
        <ele>1364</ele>
        <time>2018-04-27T09:12:25Z</time>
      </trkpt>
      <trkpt lat="43.82623" lon="6.71977">
        <ele>1365</ele>
        <time>2018-04-27T09:12:29Z</time>
      </trkpt>
      <trkpt lat="43.82621" lon="6.71971">
        <ele>1366</ele>
        <time>2018-04-27T09:12:34Z</time>
      </trkpt>
      <trkpt lat="43.82619" lon="6.71964">
        <ele>1366</ele>
        <time>2018-04-27T09:12:38Z</time>
      </trkpt>
      <trkpt lat="43.82618" lon="6.71958">
        <ele>1366</ele>
        <time>2018-04-27T09:12:42Z</time>
      </trkpt>
      <trkpt lat="43.82616" lon="6.71952">
        <ele>1367</ele>
        <time>2018-04-27T09:12:46Z</time>
      </trkpt>
      <trkpt lat="43.82614" lon="6.71946">
        <ele>1367</ele>
        <time>2018-04-27T09:12:50Z</time>
      </trkpt>
      <trkpt lat="43.82613" lon="6.71938">
        <ele>1368</ele>
        <time>2018-04-27T09:12:55Z</time>
      </trkpt>
      <trkpt lat="43.8261" lon="6.71932">
        <ele>1369</ele>
        <time>2018-04-27T09:12:59Z</time>
      </trkpt>
      <trkpt lat="43.82608" lon="6.71926">
        <ele>1370</ele>
        <time>2018-04-27T09:13:03Z</time>
      </trkpt>
      <trkpt lat="43.82605" lon="6.71921">
        <ele>1370</ele>
        <time>2018-04-27T09:13:07Z</time>
      </trkpt>
      <trkpt lat="43.82601" lon="6.71917">
        <ele>1371</ele>
        <time>2018-04-27T09:13:11Z</time>
      </trkpt>
      <trkpt lat="43.82597" lon="6.71913">
        <ele>1371</ele>
        <time>2018-04-27T09:13:15Z</time>
      </trkpt>
      <trkpt lat="43.82594" lon="6.71906">
        <ele>1372</ele>
        <time>2018-04-27T09:13:19Z</time>
      </trkpt>
      <trkpt lat="43.82592" lon="6.719">
        <ele>1372</ele>
        <time>2018-04-27T09:13:22Z</time>
      </trkpt>
      <trkpt lat="43.8259" lon="6.71894">
        <ele>1373</ele>
        <time>2018-04-27T09:13:26Z</time>
      </trkpt>
      <trkpt lat="43.82588" lon="6.71887">
        <ele>1373</ele>
        <time>2018-04-27T09:13:30Z</time>
      </trkpt>
      <trkpt lat="43.82584" lon="6.71881">
        <ele>1374</ele>
        <time>2018-04-27T09:13:34Z</time>
      </trkpt>
      <trkpt lat="43.8258" lon="6.71877">
        <ele>1374</ele>
        <time>2018-04-27T09:13:38Z</time>
      </trkpt>
      <trkpt lat="43.82575" lon="6.71875">
        <ele>1375</ele>
        <time>2018-04-27T09:13:42Z</time>
      </trkpt>
      <trkpt lat="43.8257" lon="6.71873">
        <ele>1375</ele>
        <time>2018-04-27T09:13:46Z</time>
      </trkpt>
      <trkpt lat="43.82567" lon="6.71869">
        <ele>1376</ele>
        <time>2018-04-27T09:13:50Z</time>
      </trkpt>
      <trkpt lat="43.82562" lon="6.71865">
        <ele>1376</ele>
        <time>2018-04-27T09:13:54Z</time>
      </trkpt>
      <trkpt lat="43.82558" lon="6.71859">
        <ele>1377</ele>
        <time>2018-04-27T09:13:58Z</time>
      </trkpt>
      <trkpt lat="43.82554" lon="6.71855">
        <ele>1377</ele>
        <time>2018-04-27T09:14:01Z</time>
      </trkpt>
      <trkpt lat="43.82551" lon="6.7185">
        <ele>1377</ele>
        <time>2018-04-27T09:14:05Z</time>
      </trkpt>
      <trkpt lat="43.82547" lon="6.71846">
        <ele>1378</ele>
        <time>2018-04-27T09:14:09Z</time>
      </trkpt>
      <trkpt lat="43.82542" lon="6.7184">
        <ele>1378</ele>
        <time>2018-04-27T09:14:14Z</time>
      </trkpt>
      <trkpt lat="43.82538" lon="6.71836">
        <ele>1378</ele>
        <time>2018-04-27T09:14:18Z</time>
      </trkpt>
      <trkpt lat="43.82535" lon="6.7183">
        <ele>1379</ele>
        <time>2018-04-27T09:14:22Z</time>
      </trkpt>
      <trkpt lat="43.82534" lon="6.71824">
        <ele>1379</ele>
        <time>2018-04-27T09:14:26Z</time>
      </trkpt>
      <trkpt lat="43.82532" lon="6.71818">
        <ele>1380</ele>
        <time>2018-04-27T09:14:30Z</time>
      </trkpt>
      <trkpt lat="43.82527" lon="6.71814">
        <ele>1380</ele>
        <time>2018-04-27T09:14:34Z</time>
      </trkpt>
      <trkpt lat="43.82523" lon="6.7181">
        <ele>1381</ele>
        <time>2018-04-27T09:14:37Z</time>
      </trkpt>
      <trkpt lat="43.82519" lon="6.71806">
        <ele>1382</ele>
        <time>2018-04-27T09:14:41Z</time>
      </trkpt>
      <trkpt lat="43.82515" lon="6.71802">
        <ele>1382</ele>
        <time>2018-04-27T09:14:45Z</time>
      </trkpt>
      <trkpt lat="43.8251" lon="6.71797">
        <ele>1383</ele>
        <time>2018-04-27T09:14:49Z</time>
      </trkpt>
      <trkpt lat="43.82507" lon="6.71793">
        <ele>1384</ele>
        <time>2018-04-27T09:14:53Z</time>
      </trkpt>
      <trkpt lat="43.82502" lon="6.71789">
        <ele>1385</ele>
        <time>2018-04-27T09:14:57Z</time>
      </trkpt>
      <trkpt lat="43.82499" lon="6.71783">
        <ele>1385</ele>
        <time>2018-04-27T09:15:01Z</time>
      </trkpt>
      <trkpt lat="43.82496" lon="6.71777">
        <ele>1386</ele>
        <time>2018-04-27T09:15:05Z</time>
      </trkpt>
      <trkpt lat="43.82493" lon="6.71771">
        <ele>1386</ele>
        <time>2018-04-27T09:15:09Z</time>
      </trkpt>
      <trkpt lat="43.8249" lon="6.71765">
        <ele>1387</ele>
        <time>2018-04-27T09:15:13Z</time>
      </trkpt>
      <trkpt lat="43.82488" lon="6.71758">
        <ele>1387</ele>
        <time>2018-04-27T09:15:17Z</time>
      </trkpt>
      <trkpt lat="43.82486" lon="6.7175">
        <ele>1388</ele>
        <time>2018-04-27T09:15:21Z</time>
      </trkpt>
      <trkpt lat="43.82484" lon="6.71743">
        <ele>1388</ele>
        <time>2018-04-27T09:15:25Z</time>
      </trkpt>
      <trkpt lat="43.82483" lon="6.71737">
        <ele>1389</ele>
        <time>2018-04-27T09:15:29Z</time>
      </trkpt>
      <trkpt lat="43.82481" lon="6.71729">
        <ele>1389</ele>
        <time>2018-04-27T09:15:33Z</time>
      </trkpt>
      <trkpt lat="43.82481" lon="6.71722">
        <ele>1389</ele>
        <time>2018-04-27T09:15:37Z</time>
      </trkpt>
      <trkpt lat="43.82481" lon="6.71716">
        <ele>1390</ele>
        <time>2018-04-27T09:15:41Z</time>
      </trkpt>
      <trkpt lat="43.82479" lon="6.71709">
        <ele>1390</ele>
        <time>2018-04-27T09:15:45Z</time>
      </trkpt>
      <trkpt lat="43.82478" lon="6.71701">
        <ele>1390</ele>
        <time>2018-04-27T09:15:49Z</time>
      </trkpt>
      <trkpt lat="43.82478" lon="6.71694">
        <ele>1390</ele>
        <time>2018-04-27T09:15:53Z</time>
      </trkpt>
      <trkpt lat="43.82479" lon="6.71687">
        <ele>1391</ele>
        <time>2018-04-27T09:15:57Z</time>
      </trkpt>
      <trkpt lat="43.8248" lon="6.71679">
        <ele>1391</ele>
        <time>2018-04-27T09:16:01Z</time>
      </trkpt>
      <trkpt lat="43.82479" lon="6.71673">
        <ele>1391</ele>
        <time>2018-04-27T09:16:05Z</time>
      </trkpt>
      <trkpt lat="43.82479" lon="6.71666">
        <ele>1391</ele>
        <time>2018-04-27T09:16:09Z</time>
      </trkpt>
      <trkpt lat="43.82478" lon="6.71659">
        <ele>1392</ele>
        <time>2018-04-27T09:16:13Z</time>
      </trkpt>
      <trkpt lat="43.82477" lon="6.71652">
        <ele>1392</ele>
        <time>2018-04-27T09:16:17Z</time>
      </trkpt>
      <trkpt lat="43.82476" lon="6.71645">
        <ele>1393</ele>
        <time>2018-04-27T09:16:21Z</time>
      </trkpt>
      <trkpt lat="43.82476" lon="6.71637">
        <ele>1393</ele>
        <time>2018-04-27T09:16:25Z</time>
      </trkpt>
      <trkpt lat="43.82477" lon="6.7163">
        <ele>1393</ele>
        <time>2018-04-27T09:16:29Z</time>
      </trkpt>
      <trkpt lat="43.82477" lon="6.71623">
        <ele>1394</ele>
        <time>2018-04-27T09:16:33Z</time>
      </trkpt>
      <trkpt lat="43.82476" lon="6.71615">
        <ele>1394</ele>
        <time>2018-04-27T09:16:37Z</time>
      </trkpt>
      <trkpt lat="43.82475" lon="6.71608">
        <ele>1395</ele>
        <time>2018-04-27T09:16:41Z</time>
      </trkpt>
      <trkpt lat="43.82475" lon="6.71601">
        <ele>1395</ele>
        <time>2018-04-27T09:16:45Z</time>
      </trkpt>
      <trkpt lat="43.82473" lon="6.71594">
        <ele>1395</ele>
        <time>2018-04-27T09:16:49Z</time>
      </trkpt>
      <trkpt lat="43.82471" lon="6.71587">
        <ele>1396</ele>
        <time>2018-04-27T09:16:53Z</time>
      </trkpt>
      <trkpt lat="43.82469" lon="6.71581">
        <ele>1397</ele>
        <time>2018-04-27T09:16:57Z</time>
      </trkpt>
      <trkpt lat="43.82467" lon="6.71575">
        <ele>1397</ele>
        <time>2018-04-27T09:17:01Z</time>
      </trkpt>
      <trkpt lat="43.82466" lon="6.71568">
        <ele>1398</ele>
        <time>2018-04-27T09:17:05Z</time>
      </trkpt>
      <trkpt lat="43.82464" lon="6.71561">
        <ele>1399</ele>
        <time>2018-04-27T09:17:09Z</time>
      </trkpt>
      <trkpt lat="43.82462" lon="6.71554">
        <ele>1400</ele>
        <time>2018-04-27T09:17:13Z</time>
      </trkpt>
      <trkpt lat="43.82459" lon="6.71548">
        <ele>1401</ele>
        <time>2018-04-27T09:17:17Z</time>
      </trkpt>
      <trkpt lat="43.82458" lon="6.71541">
        <ele>1401</ele>
        <time>2018-04-27T09:17:21Z</time>
      </trkpt>
      <trkpt lat="43.82457" lon="6.71535">
        <ele>1402</ele>
        <time>2018-04-27T09:17:25Z</time>
      </trkpt>
      <trkpt lat="43.82456" lon="6.71528">
        <ele>1402</ele>
        <time>2018-04-27T09:17:28Z</time>
      </trkpt>
      <trkpt lat="43.82454" lon="6.7152">
        <ele>1403</ele>
        <time>2018-04-27T09:17:32Z</time>
      </trkpt>
      <trkpt lat="43.82453" lon="6.71513">
        <ele>1403</ele>
        <time>2018-04-27T09:17:36Z</time>
      </trkpt>
      <trkpt lat="43.82451" lon="6.71506">
        <ele>1404</ele>
        <time>2018-04-27T09:17:40Z</time>
      </trkpt>
      <trkpt lat="43.82449" lon="6.715">
        <ele>1405</ele>
        <time>2018-04-27T09:17:44Z</time>
      </trkpt>
      <trkpt lat="43.82447" lon="6.71492">
        <ele>1406</ele>
        <time>2018-04-27T09:17:48Z</time>
      </trkpt>
      <trkpt lat="43.82446" lon="6.71486">
        <ele>1406</ele>
        <time>2018-04-27T09:17:52Z</time>
      </trkpt>
      <trkpt lat="43.82445" lon="6.71478">
        <ele>1406</ele>
        <time>2018-04-27T09:17:56Z</time>
      </trkpt>
      <trkpt lat="43.82444" lon="6.71472">
        <ele>1407</ele>
        <time>2018-04-27T09:17:59Z</time>
      </trkpt>
      <trkpt lat="43.82443" lon="6.71466">
        <ele>1407</ele>
        <time>2018-04-27T09:18:02Z</time>
      </trkpt>
      <trkpt lat="43.82442" lon="6.71459">
        <ele>1407</ele>
        <time>2018-04-27T09:18:05Z</time>
      </trkpt>
      <trkpt lat="43.82441" lon="6.71452">
        <ele>1407</ele>
        <time>2018-04-27T09:18:09Z</time>
      </trkpt>
      <trkpt lat="43.82441" lon="6.71444">
        <ele>1408</ele>
        <time>2018-04-27T09:18:13Z</time>
      </trkpt>
      <trkpt lat="43.82439" lon="6.71438">
        <ele>1408</ele>
        <time>2018-04-27T09:18:16Z</time>
      </trkpt>
      <trkpt lat="43.82439" lon="6.7143">
        <ele>1408</ele>
        <time>2018-04-27T09:18:20Z</time>
      </trkpt>
      <trkpt lat="43.82439" lon="6.71422">
        <ele>1408</ele>
        <time>2018-04-27T09:18:24Z</time>
      </trkpt>
      <trkpt lat="43.82439" lon="6.71415">
        <ele>1409</ele>
        <time>2018-04-27T09:18:28Z</time>
      </trkpt>
      <trkpt lat="43.82439" lon="6.71407">
        <ele>1409</ele>
        <time>2018-04-27T09:18:32Z</time>
      </trkpt>
      <trkpt lat="43.82439" lon="6.714">
        <ele>1409</ele>
        <time>2018-04-27T09:18:36Z</time>
      </trkpt>
      <trkpt lat="43.8244" lon="6.71393">
        <ele>1410</ele>
        <time>2018-04-27T09:18:40Z</time>
      </trkpt>
      <trkpt lat="43.82441" lon="6.71386">
        <ele>1411</ele>
        <time>2018-04-27T09:18:43Z</time>
      </trkpt>
      <trkpt lat="43.82441" lon="6.71378">
        <ele>1412</ele>
        <time>2018-04-27T09:18:47Z</time>
      </trkpt>
      <trkpt lat="43.82443" lon="6.71372">
        <ele>1412</ele>
        <time>2018-04-27T09:18:50Z</time>
      </trkpt>
      <trkpt lat="43.82443" lon="6.71366">
        <ele>1413</ele>
        <time>2018-04-27T09:18:53Z</time>
      </trkpt>
      <trkpt lat="43.82443" lon="6.71358">
        <ele>1413</ele>
        <time>2018-04-27T09:18:56Z</time>
      </trkpt>
      <trkpt lat="43.82442" lon="6.71352">
        <ele>1414</ele>
        <time>2018-04-27T09:18:59Z</time>
      </trkpt>
      <trkpt lat="43.82441" lon="6.71344">
        <ele>1414</ele>
        <time>2018-04-27T09:19:03Z</time>
      </trkpt>
      <trkpt lat="43.82439" lon="6.71337">
        <ele>1414</ele>
        <time>2018-04-27T09:19:06Z</time>
      </trkpt>
      <trkpt lat="43.82438" lon="6.71331">
        <ele>1414</ele>
        <time>2018-04-27T09:19:09Z</time>
      </trkpt>
      <trkpt lat="43.82436" lon="6.71323">
        <ele>1414</ele>
        <time>2018-04-27T09:19:13Z</time>
      </trkpt>
      <trkpt lat="43.82435" lon="6.71317">
        <ele>1414</ele>
        <time>2018-04-27T09:19:16Z</time>
      </trkpt>
      <trkpt lat="43.82433" lon="6.71311">
        <ele>1415</ele>
        <time>2018-04-27T09:19:19Z</time>
      </trkpt>
      <trkpt lat="43.82431" lon="6.71306">
        <ele>1415</ele>
        <time>2018-04-27T09:19:22Z</time>
      </trkpt>
      <trkpt lat="43.8243" lon="6.71299">
        <ele>1416</ele>
        <time>2018-04-27T09:19:25Z</time>
      </trkpt>
      <trkpt lat="43.82432" lon="6.71293">
        <ele>1416</ele>
        <time>2018-04-27T09:19:29Z</time>
      </trkpt>
      <trkpt lat="43.82438" lon="6.71295">
        <ele>1417</ele>
        <time>2018-04-27T09:19:33Z</time>
      </trkpt>
      <trkpt lat="43.82442" lon="6.71301">
        <ele>1418</ele>
        <time>2018-04-27T09:19:37Z</time>
      </trkpt>
      <trkpt lat="43.82444" lon="6.71308">
        <ele>1418</ele>
        <time>2018-04-27T09:19:41Z</time>
      </trkpt>
      <trkpt lat="43.82445" lon="6.71314">
        <ele>1419</ele>
        <time>2018-04-27T09:19:45Z</time>
      </trkpt>
      <trkpt lat="43.82448" lon="6.7132">
        <ele>1419</ele>
        <time>2018-04-27T09:19:49Z</time>
      </trkpt>
      <trkpt lat="43.82452" lon="6.71325">
        <ele>1419</ele>
        <time>2018-04-27T09:19:53Z</time>
      </trkpt>
      <trkpt lat="43.82454" lon="6.71332">
        <ele>1420</ele>
        <time>2018-04-27T09:19:58Z</time>
      </trkpt>
      <trkpt lat="43.82456" lon="6.71338">
        <ele>1420</ele>
        <time>2018-04-27T09:20:02Z</time>
      </trkpt>
      <trkpt lat="43.82458" lon="6.71344">
        <ele>1420</ele>
        <time>2018-04-27T09:20:06Z</time>
      </trkpt>
      <trkpt lat="43.8246" lon="6.71351">
        <ele>1421</ele>
        <time>2018-04-27T09:20:10Z</time>
      </trkpt>
      <trkpt lat="43.82462" lon="6.71358">
        <ele>1421</ele>
        <time>2018-04-27T09:20:14Z</time>
      </trkpt>
      <trkpt lat="43.82464" lon="6.71364">
        <ele>1422</ele>
        <time>2018-04-27T09:20:18Z</time>
      </trkpt>
      <trkpt lat="43.82467" lon="6.7137">
        <ele>1423</ele>
        <time>2018-04-27T09:20:22Z</time>
      </trkpt>
      <trkpt lat="43.82469" lon="6.71376">
        <ele>1424</ele>
        <time>2018-04-27T09:20:26Z</time>
      </trkpt>
      <trkpt lat="43.82472" lon="6.71383">
        <ele>1425</ele>
        <time>2018-04-27T09:20:30Z</time>
      </trkpt>
      <trkpt lat="43.82475" lon="6.71389">
        <ele>1426</ele>
        <time>2018-04-27T09:20:34Z</time>
      </trkpt>
      <trkpt lat="43.82478" lon="6.71394">
        <ele>1426</ele>
        <time>2018-04-27T09:20:38Z</time>
      </trkpt>
      <trkpt lat="43.82481" lon="6.714">
        <ele>1427</ele>
        <time>2018-04-27T09:20:42Z</time>
      </trkpt>
      <trkpt lat="43.82483" lon="6.71407">
        <ele>1427</ele>
        <time>2018-04-27T09:20:46Z</time>
      </trkpt>
      <trkpt lat="43.82488" lon="6.71412">
        <ele>1427</ele>
        <time>2018-04-27T09:20:50Z</time>
      </trkpt>
      <trkpt lat="43.8249" lon="6.71418">
        <ele>1427</ele>
        <time>2018-04-27T09:20:54Z</time>
      </trkpt>
      <trkpt lat="43.82493" lon="6.71424">
        <ele>1428</ele>
        <time>2018-04-27T09:20:58Z</time>
      </trkpt>
      <trkpt lat="43.82497" lon="6.71429">
        <ele>1428</ele>
        <time>2018-04-27T09:21:02Z</time>
      </trkpt>
      <trkpt lat="43.82499" lon="6.71436">
        <ele>1429</ele>
        <time>2018-04-27T09:21:06Z</time>
      </trkpt>
      <trkpt lat="43.82501" lon="6.71442">
        <ele>1429</ele>
        <time>2018-04-27T09:21:09Z</time>
      </trkpt>
      <trkpt lat="43.82504" lon="6.71448">
        <ele>1430</ele>
        <time>2018-04-27T09:21:13Z</time>
      </trkpt>
      <trkpt lat="43.82506" lon="6.71453">
        <ele>1430</ele>
        <time>2018-04-27T09:21:17Z</time>
      </trkpt>
      <trkpt lat="43.82508" lon="6.7146">
        <ele>1430</ele>
        <time>2018-04-27T09:21:21Z</time>
      </trkpt>
      <trkpt lat="43.82511" lon="6.71466">
        <ele>1431</ele>
        <time>2018-04-27T09:21:25Z</time>
      </trkpt>
      <trkpt lat="43.82513" lon="6.71472">
        <ele>1431</ele>
        <time>2018-04-27T09:21:29Z</time>
      </trkpt>
      <trkpt lat="43.82517" lon="6.71479">
        <ele>1431</ele>
        <time>2018-04-27T09:21:33Z</time>
      </trkpt>
      <trkpt lat="43.82521" lon="6.71485">
        <ele>1432</ele>
        <time>2018-04-27T09:21:37Z</time>
      </trkpt>
      <trkpt lat="43.82523" lon="6.71491">
        <ele>1432</ele>
        <time>2018-04-27T09:21:40Z</time>
      </trkpt>
      <trkpt lat="43.82526" lon="6.71498">
        <ele>1433</ele>
        <time>2018-04-27T09:21:44Z</time>
      </trkpt>
      <trkpt lat="43.82529" lon="6.71504">
        <ele>1434</ele>
        <time>2018-04-27T09:21:48Z</time>
      </trkpt>
      <trkpt lat="43.82531" lon="6.71511">
        <ele>1435</ele>
        <time>2018-04-27T09:21:52Z</time>
      </trkpt>
      <trkpt lat="43.82535" lon="6.71518">
        <ele>1436</ele>
        <time>2018-04-27T09:21:56Z</time>
      </trkpt>
      <trkpt lat="43.82536" lon="6.71526">
        <ele>1436</ele>
        <time>2018-04-27T09:22:00Z</time>
      </trkpt>
      <trkpt lat="43.82539" lon="6.71532">
        <ele>1437</ele>
        <time>2018-04-27T09:22:03Z</time>
      </trkpt>
      <trkpt lat="43.82542" lon="6.71538">
        <ele>1438</ele>
        <time>2018-04-27T09:22:07Z</time>
      </trkpt>
      <trkpt lat="43.82544" lon="6.71544">
        <ele>1439</ele>
        <time>2018-04-27T09:22:11Z</time>
      </trkpt>
      <trkpt lat="43.82546" lon="6.71551">
        <ele>1439</ele>
        <time>2018-04-27T09:22:15Z</time>
      </trkpt>
      <trkpt lat="43.82549" lon="6.71555">
        <ele>1440</ele>
        <time>2018-04-27T09:22:19Z</time>
      </trkpt>
      <trkpt lat="43.82552" lon="6.71561">
        <ele>1441</ele>
        <time>2018-04-27T09:22:24Z</time>
      </trkpt>
      <trkpt lat="43.82556" lon="6.71564">
        <ele>1442</ele>
        <time>2018-04-27T09:22:28Z</time>
      </trkpt>
      <trkpt lat="43.8256" lon="6.71569">
        <ele>1442</ele>
        <time>2018-04-27T09:22:32Z</time>
      </trkpt>
      <trkpt lat="43.82564" lon="6.71573">
        <ele>1442</ele>
        <time>2018-04-27T09:22:36Z</time>
      </trkpt>
      <trkpt lat="43.8257" lon="6.71575">
        <ele>1442</ele>
        <time>2018-04-27T09:22:40Z</time>
      </trkpt>
      <trkpt lat="43.82574" lon="6.71578">
        <ele>1443</ele>
        <time>2018-04-27T09:22:44Z</time>
      </trkpt>
      <trkpt lat="43.82579" lon="6.71582">
        <ele>1443</ele>
        <time>2018-04-27T09:22:48Z</time>
      </trkpt>
      <trkpt lat="43.82583" lon="6.71586">
        <ele>1443</ele>
        <time>2018-04-27T09:22:52Z</time>
      </trkpt>
      <trkpt lat="43.82587" lon="6.71589">
        <ele>1443</ele>
        <time>2018-04-27T09:22:56Z</time>
      </trkpt>
      <trkpt lat="43.82591" lon="6.71593">
        <ele>1444</ele>
        <time>2018-04-27T09:22:59Z</time>
      </trkpt>
      <trkpt lat="43.82596" lon="6.71597">
        <ele>1444</ele>
        <time>2018-04-27T09:23:03Z</time>
      </trkpt>
      <trkpt lat="43.826" lon="6.71599">
        <ele>1444</ele>
        <time>2018-04-27T09:23:07Z</time>
      </trkpt>
      <trkpt lat="43.82605" lon="6.71603">
        <ele>1445</ele>
        <time>2018-04-27T09:23:12Z</time>
      </trkpt>
      <trkpt lat="43.82611" lon="6.71606">
        <ele>1447</ele>
        <time>2018-04-27T09:23:17Z</time>
      </trkpt>
      <trkpt lat="43.82616" lon="6.71608">
        <ele>1447</ele>
        <time>2018-04-27T09:23:21Z</time>
      </trkpt>
      <trkpt lat="43.8262" lon="6.71611">
        <ele>1448</ele>
        <time>2018-04-27T09:23:25Z</time>
      </trkpt>
      <trkpt lat="43.82625" lon="6.71614">
        <ele>1449</ele>
        <time>2018-04-27T09:23:29Z</time>
      </trkpt>
      <trkpt lat="43.8263" lon="6.71616">
        <ele>1450</ele>
        <time>2018-04-27T09:23:33Z</time>
      </trkpt>
      <trkpt lat="43.82635" lon="6.71618">
        <ele>1451</ele>
        <time>2018-04-27T09:23:37Z</time>
      </trkpt>
      <trkpt lat="43.82639" lon="6.71622">
        <ele>1452</ele>
        <time>2018-04-27T09:23:41Z</time>
      </trkpt>
      <trkpt lat="43.82643" lon="6.71626">
        <ele>1453</ele>
        <time>2018-04-27T09:23:45Z</time>
      </trkpt>
      <trkpt lat="43.82647" lon="6.7163">
        <ele>1454</ele>
        <time>2018-04-27T09:23:49Z</time>
      </trkpt>
      <trkpt lat="43.82651" lon="6.71634">
        <ele>1454</ele>
        <time>2018-04-27T09:23:53Z</time>
      </trkpt>
      <trkpt lat="43.82655" lon="6.71639">
        <ele>1455</ele>
        <time>2018-04-27T09:23:57Z</time>
      </trkpt>
      <trkpt lat="43.82659" lon="6.71643">
        <ele>1455</ele>
        <time>2018-04-27T09:24:01Z</time>
      </trkpt>
      <trkpt lat="43.82663" lon="6.71646">
        <ele>1456</ele>
        <time>2018-04-27T09:24:05Z</time>
      </trkpt>
      <trkpt lat="43.82668" lon="6.71651">
        <ele>1456</ele>
        <time>2018-04-27T09:24:09Z</time>
      </trkpt>
      <trkpt lat="43.82671" lon="6.71656">
        <ele>1456</ele>
        <time>2018-04-27T09:24:13Z</time>
      </trkpt>
      <trkpt lat="43.82675" lon="6.71661">
        <ele>1457</ele>
        <time>2018-04-27T09:24:17Z</time>
      </trkpt>
      <trkpt lat="43.82679" lon="6.71666">
        <ele>1457</ele>
        <time>2018-04-27T09:24:21Z</time>
      </trkpt>
      <trkpt lat="43.82683" lon="6.7167">
        <ele>1457</ele>
        <time>2018-04-27T09:24:25Z</time>
      </trkpt>
      <trkpt lat="43.82688" lon="6.71675">
        <ele>1457</ele>
        <time>2018-04-27T09:24:29Z</time>
      </trkpt>
      <trkpt lat="43.82692" lon="6.7168">
        <ele>1457</ele>
        <time>2018-04-27T09:24:33Z</time>
      </trkpt>
      <trkpt lat="43.82697" lon="6.71684">
        <ele>1458</ele>
        <time>2018-04-27T09:24:37Z</time>
      </trkpt>
      <trkpt lat="43.827" lon="6.71688">
        <ele>1458</ele>
        <time>2018-04-27T09:24:40Z</time>
      </trkpt>
      <trkpt lat="43.82703" lon="6.71693">
        <ele>1459</ele>
        <time>2018-04-27T09:24:44Z</time>
      </trkpt>
      <trkpt lat="43.82708" lon="6.71698">
        <ele>1459</ele>
        <time>2018-04-27T09:24:48Z</time>
      </trkpt>
      <trkpt lat="43.82712" lon="6.71704">
        <ele>1460</ele>
        <time>2018-04-27T09:24:52Z</time>
      </trkpt>
      <trkpt lat="43.82716" lon="6.71709">
        <ele>1461</ele>
        <time>2018-04-27T09:24:56Z</time>
      </trkpt>
      <trkpt lat="43.82719" lon="6.71714">
        <ele>1462</ele>
        <time>2018-04-27T09:25:00Z</time>
      </trkpt>
      <trkpt lat="43.82723" lon="6.71719">
        <ele>1463</ele>
        <time>2018-04-27T09:25:04Z</time>
      </trkpt>
      <trkpt lat="43.82727" lon="6.71723">
        <ele>1464</ele>
        <time>2018-04-27T09:25:08Z</time>
      </trkpt>
      <trkpt lat="43.82731" lon="6.71728">
        <ele>1464</ele>
        <time>2018-04-27T09:25:12Z</time>
      </trkpt>
      <trkpt lat="43.82735" lon="6.71733">
        <ele>1465</ele>
        <time>2018-04-27T09:25:16Z</time>
      </trkpt>
      <trkpt lat="43.82739" lon="6.71738">
        <ele>1466</ele>
        <time>2018-04-27T09:25:20Z</time>
      </trkpt>
      <trkpt lat="43.82742" lon="6.71744">
        <ele>1467</ele>
        <time>2018-04-27T09:25:24Z</time>
      </trkpt>
      <trkpt lat="43.82745" lon="6.71748">
        <ele>1467</ele>
        <time>2018-04-27T09:25:28Z</time>
      </trkpt>
      <trkpt lat="43.8275" lon="6.71753">
        <ele>1468</ele>
        <time>2018-04-27T09:25:32Z</time>
      </trkpt>
      <trkpt lat="43.82755" lon="6.71757">
        <ele>1468</ele>
        <time>2018-04-27T09:25:36Z</time>
      </trkpt>
      <trkpt lat="43.82759" lon="6.7176">
        <ele>1469</ele>
        <time>2018-04-27T09:25:40Z</time>
      </trkpt>
      <trkpt lat="43.82763" lon="6.71764">
        <ele>1469</ele>
        <time>2018-04-27T09:25:44Z</time>
      </trkpt>
      <trkpt lat="43.82768" lon="6.71768">
        <ele>1470</ele>
        <time>2018-04-27T09:25:48Z</time>
      </trkpt>
      <trkpt lat="43.82772" lon="6.71773">
        <ele>1471</ele>
        <time>2018-04-27T09:25:52Z</time>
      </trkpt>
      <trkpt lat="43.82777" lon="6.71776">
        <ele>1471</ele>
        <time>2018-04-27T09:25:56Z</time>
      </trkpt>
      <trkpt lat="43.82782" lon="6.71779">
        <ele>1472</ele>
        <time>2018-04-27T09:26:00Z</time>
      </trkpt>
      <trkpt lat="43.82786" lon="6.71783">
        <ele>1473</ele>
        <time>2018-04-27T09:26:04Z</time>
      </trkpt>
      <trkpt lat="43.8279" lon="6.71787">
        <ele>1473</ele>
        <time>2018-04-27T09:26:08Z</time>
      </trkpt>
      <trkpt lat="43.82794" lon="6.7179">
        <ele>1474</ele>
        <time>2018-04-27T09:26:12Z</time>
      </trkpt>
      <trkpt lat="43.828" lon="6.71792">
        <ele>1474</ele>
        <time>2018-04-27T09:26:16Z</time>
      </trkpt>
      <trkpt lat="43.82804" lon="6.71795">
        <ele>1475</ele>
        <time>2018-04-27T09:26:21Z</time>
      </trkpt>
      <trkpt lat="43.82809" lon="6.71797">
        <ele>1475</ele>
        <time>2018-04-27T09:26:26Z</time>
      </trkpt>
      <trkpt lat="43.82814" lon="6.71801">
        <ele>1476</ele>
        <time>2018-04-27T09:26:31Z</time>
      </trkpt>
      <trkpt lat="43.82819" lon="6.71803">
        <ele>1476</ele>
        <time>2018-04-27T09:26:35Z</time>
      </trkpt>
      <trkpt lat="43.82824" lon="6.71807">
        <ele>1477</ele>
        <time>2018-04-27T09:26:39Z</time>
      </trkpt>
      <trkpt lat="43.82828" lon="6.7181">
        <ele>1477</ele>
        <time>2018-04-27T09:26:42Z</time>
      </trkpt>
      <trkpt lat="43.82833" lon="6.71813">
        <ele>1478</ele>
        <time>2018-04-27T09:26:46Z</time>
      </trkpt>
      <trkpt lat="43.82837" lon="6.71817">
        <ele>1479</ele>
        <time>2018-04-27T09:26:51Z</time>
      </trkpt>
      <trkpt lat="43.82841" lon="6.71821">
        <ele>1480</ele>
        <time>2018-04-27T09:26:58Z</time>
      </trkpt>
      <trkpt lat="43.82845" lon="6.71825">
        <ele>1481</ele>
        <time>2018-04-27T09:27:03Z</time>
      </trkpt>
      <trkpt lat="43.82849" lon="6.71829">
        <ele>1482</ele>
        <time>2018-04-27T09:27:09Z</time>
      </trkpt>
      <trkpt lat="43.82853" lon="6.71832">
        <ele>1482</ele>
        <time>2018-04-27T09:27:14Z</time>
      </trkpt>
      <trkpt lat="43.82857" lon="6.71836">
        <ele>1483</ele>
        <time>2018-04-27T09:27:19Z</time>
      </trkpt>
      <trkpt lat="43.82861" lon="6.7184">
        <ele>1484</ele>
        <time>2018-04-27T09:27:25Z</time>
      </trkpt>
      <trkpt lat="43.82866" lon="6.71843">
        <ele>1485</ele>
        <time>2018-04-27T09:27:31Z</time>
      </trkpt>
      <trkpt lat="43.8287" lon="6.71847">
        <ele>1485</ele>
        <time>2018-04-27T09:27:36Z</time>
      </trkpt>
      <trkpt lat="43.82874" lon="6.71851">
        <ele>1486</ele>
        <time>2018-04-27T09:27:42Z</time>
      </trkpt>
      <trkpt lat="43.82879" lon="6.71855">
        <ele>1486</ele>
        <time>2018-04-27T09:27:47Z</time>
      </trkpt>
      <trkpt lat="43.82883" lon="6.71859">
        <ele>1487</ele>
        <time>2018-04-27T09:27:52Z</time>
      </trkpt>
      <trkpt lat="43.82887" lon="6.71863">
        <ele>1487</ele>
        <time>2018-04-27T09:27:57Z</time>
      </trkpt>
      <trkpt lat="43.82891" lon="6.71867">
        <ele>1487</ele>
        <time>2018-04-27T09:28:02Z</time>
      </trkpt>
      <trkpt lat="43.82895" lon="6.71871">
        <ele>1488</ele>
        <time>2018-04-27T09:28:07Z</time>
      </trkpt>
      <trkpt lat="43.82899" lon="6.71876">
        <ele>1488</ele>
        <time>2018-04-27T09:28:12Z</time>
      </trkpt>
      <trkpt lat="43.82902" lon="6.71881">
        <ele>1488</ele>
        <time>2018-04-27T09:28:18Z</time>
      </trkpt>
      <trkpt lat="43.82905" lon="6.71887">
        <ele>1489</ele>
        <time>2018-04-27T09:28:23Z</time>
      </trkpt>
      <trkpt lat="43.82908" lon="6.71893">
        <ele>1489</ele>
        <time>2018-04-27T09:28:28Z</time>
      </trkpt>
      <trkpt lat="43.82911" lon="6.71898">
        <ele>1489</ele>
        <time>2018-04-27T09:28:34Z</time>
      </trkpt>
      <trkpt lat="43.82914" lon="6.71903">
        <ele>1490</ele>
        <time>2018-04-27T09:28:39Z</time>
      </trkpt>
      <trkpt lat="43.82917" lon="6.71908">
        <ele>1490</ele>
        <time>2018-04-27T09:28:44Z</time>
      </trkpt>
      <trkpt lat="43.82921" lon="6.71914">
        <ele>1491</ele>
        <time>2018-04-27T09:28:49Z</time>
      </trkpt>
      <trkpt lat="43.82925" lon="6.71917">
        <ele>1492</ele>
        <time>2018-04-27T09:28:54Z</time>
      </trkpt>
      <trkpt lat="43.8293" lon="6.71921">
        <ele>1492</ele>
        <time>2018-04-27T09:29:05Z</time>
      </trkpt>
      <trkpt lat="43.82935" lon="6.71923">
        <ele>1492</ele>
        <time>2018-04-27T09:29:09Z</time>
      </trkpt>
      <trkpt lat="43.8294" lon="6.71926">
        <ele>1493</ele>
        <time>2018-04-27T09:29:13Z</time>
      </trkpt>
      <trkpt lat="43.82945" lon="6.71929">
        <ele>1493</ele>
        <time>2018-04-27T09:29:16Z</time>
      </trkpt>
      <trkpt lat="43.82949" lon="6.71929">
        <ele>1494</ele>
        <time>2018-04-27T09:29:20Z</time>
      </trkpt>
      <trkpt lat="43.82954" lon="6.71929">
        <ele>1494</ele>
        <time>2018-04-27T09:29:24Z</time>
      </trkpt>
      <trkpt lat="43.82959" lon="6.71928">
        <ele>1495</ele>
        <time>2018-04-27T09:29:28Z</time>
      </trkpt>
      <trkpt lat="43.82964" lon="6.71928">
        <ele>1496</ele>
        <time>2018-04-27T09:29:33Z</time>
      </trkpt>
      <trkpt lat="43.82969" lon="6.71929">
        <ele>1497</ele>
        <time>2018-04-27T09:29:37Z</time>
      </trkpt>
      <trkpt lat="43.82974" lon="6.71928">
        <ele>1498</ele>
        <time>2018-04-27T09:29:41Z</time>
      </trkpt>
      <trkpt lat="43.82979" lon="6.71928">
        <ele>1499</ele>
        <time>2018-04-27T09:29:45Z</time>
      </trkpt>
      <trkpt lat="43.82984" lon="6.71929">
        <ele>1499</ele>
        <time>2018-04-27T09:29:49Z</time>
      </trkpt>
      <trkpt lat="43.82989" lon="6.7193">
        <ele>1499</ele>
        <time>2018-04-27T09:29:53Z</time>
      </trkpt>
      <trkpt lat="43.82995" lon="6.71931">
        <ele>1500</ele>
        <time>2018-04-27T09:29:57Z</time>
      </trkpt>
      <trkpt lat="43.82999" lon="6.71933">
        <ele>1500</ele>
        <time>2018-04-27T09:30:00Z</time>
      </trkpt>
      <trkpt lat="43.83003" lon="6.71935">
        <ele>1500</ele>
        <time>2018-04-27T09:30:03Z</time>
      </trkpt>
      <trkpt lat="43.83009" lon="6.71937">
        <ele>1500</ele>
        <time>2018-04-27T09:30:07Z</time>
      </trkpt>
      <trkpt lat="43.83013" lon="6.7194">
        <ele>1501</ele>
        <time>2018-04-27T09:30:10Z</time>
      </trkpt>
      <trkpt lat="43.83017" lon="6.71942">
        <ele>1501</ele>
        <time>2018-04-27T09:30:13Z</time>
      </trkpt>
      <trkpt lat="43.83021" lon="6.71945">
        <ele>1502</ele>
        <time>2018-04-27T09:30:16Z</time>
      </trkpt>
      <trkpt lat="43.83026" lon="6.71949">
        <ele>1502</ele>
        <time>2018-04-27T09:30:20Z</time>
      </trkpt>
      <trkpt lat="43.8303" lon="6.71952">
        <ele>1502</ele>
        <time>2018-04-27T09:30:24Z</time>
      </trkpt>
      <trkpt lat="43.83035" lon="6.71956">
        <ele>1503</ele>
        <time>2018-04-27T09:30:28Z</time>
      </trkpt>
      <trkpt lat="43.8304" lon="6.7196">
        <ele>1503</ele>
        <time>2018-04-27T09:30:32Z</time>
      </trkpt>
      <trkpt lat="43.83044" lon="6.71963">
        <ele>1504</ele>
        <time>2018-04-27T09:30:36Z</time>
      </trkpt>
      <trkpt lat="43.83049" lon="6.71966">
        <ele>1504</ele>
        <time>2018-04-27T09:30:40Z</time>
      </trkpt>
      <trkpt lat="43.83053" lon="6.71971">
        <ele>1505</ele>
        <time>2018-04-27T09:30:44Z</time>
      </trkpt>
      <trkpt lat="43.83057" lon="6.71974">
        <ele>1506</ele>
        <time>2018-04-27T09:30:48Z</time>
      </trkpt>
      <trkpt lat="43.83061" lon="6.7198">
        <ele>1506</ele>
        <time>2018-04-27T09:30:52Z</time>
      </trkpt>
      <trkpt lat="43.83065" lon="6.71985">
        <ele>1506</ele>
        <time>2018-04-27T09:30:56Z</time>
      </trkpt>
      <trkpt lat="43.83069" lon="6.7199">
        <ele>1506</ele>
        <time>2018-04-27T09:31:00Z</time>
      </trkpt>
      <trkpt lat="43.83072" lon="6.71995">
        <ele>1507</ele>
        <time>2018-04-27T09:31:04Z</time>
      </trkpt>
      <trkpt lat="43.83076" lon="6.72">
        <ele>1507</ele>
        <time>2018-04-27T09:31:08Z</time>
      </trkpt>
      <trkpt lat="43.83078" lon="6.72006">
        <ele>1508</ele>
        <time>2018-04-27T09:31:12Z</time>
      </trkpt>
      <trkpt lat="43.83081" lon="6.72011">
        <ele>1508</ele>
        <time>2018-04-27T09:31:16Z</time>
      </trkpt>
      <trkpt lat="43.83084" lon="6.72017">
        <ele>1509</ele>
        <time>2018-04-27T09:31:20Z</time>
      </trkpt>
      <trkpt lat="43.83086" lon="6.72024">
        <ele>1509</ele>
        <time>2018-04-27T09:31:24Z</time>
      </trkpt>
      <trkpt lat="43.83089" lon="6.7203">
        <ele>1510</ele>
        <time>2018-04-27T09:31:28Z</time>
      </trkpt>
      <trkpt lat="43.83092" lon="6.72037">
        <ele>1510</ele>
        <time>2018-04-27T09:31:32Z</time>
      </trkpt>
      <trkpt lat="43.83092" lon="6.72045">
        <ele>1511</ele>
        <time>2018-04-27T09:31:36Z</time>
      </trkpt>
      <trkpt lat="43.83094" lon="6.72052">
        <ele>1511</ele>
        <time>2018-04-27T09:31:40Z</time>
      </trkpt>
      <trkpt lat="43.83096" lon="6.72059">
        <ele>1512</ele>
        <time>2018-04-27T09:31:44Z</time>
      </trkpt>
      <trkpt lat="43.83096" lon="6.72065">
        <ele>1513</ele>
        <time>2018-04-27T09:31:48Z</time>
      </trkpt>
      <trkpt lat="43.83098" lon="6.72072">
        <ele>1513</ele>
        <time>2018-04-27T09:31:52Z</time>
      </trkpt>
      <trkpt lat="43.831" lon="6.72078">
        <ele>1513</ele>
        <time>2018-04-27T09:31:56Z</time>
      </trkpt>
      <trkpt lat="43.83101" lon="6.72086">
        <ele>1514</ele>
        <time>2018-04-27T09:32:00Z</time>
      </trkpt>
      <trkpt lat="43.83101" lon="6.72093">
        <ele>1514</ele>
        <time>2018-04-27T09:32:04Z</time>
      </trkpt>
      <trkpt lat="43.83102" lon="6.72099">
        <ele>1515</ele>
        <time>2018-04-27T09:32:07Z</time>
      </trkpt>
      <trkpt lat="43.83104" lon="6.72107">
        <ele>1515</ele>
        <time>2018-04-27T09:32:11Z</time>
      </trkpt>
      <trkpt lat="43.83105" lon="6.72115">
        <ele>1516</ele>
        <time>2018-04-27T09:32:15Z</time>
      </trkpt>
      <trkpt lat="43.83106" lon="6.72122">
        <ele>1516</ele>
        <time>2018-04-27T09:32:19Z</time>
      </trkpt>
      <trkpt lat="43.83109" lon="6.72129">
        <ele>1517</ele>
        <time>2018-04-27T09:32:23Z</time>
      </trkpt>
      <trkpt lat="43.83113" lon="6.72136">
        <ele>1518</ele>
        <time>2018-04-27T09:32:27Z</time>
      </trkpt>
      <trkpt lat="43.83115" lon="6.72142">
        <ele>1518</ele>
        <time>2018-04-27T09:32:31Z</time>
      </trkpt>
      <trkpt lat="43.83119" lon="6.72147">
        <ele>1519</ele>
        <time>2018-04-27T09:32:35Z</time>
      </trkpt>
      <trkpt lat="43.83122" lon="6.72154">
        <ele>1520</ele>
        <time>2018-04-27T09:32:39Z</time>
      </trkpt>
      <trkpt lat="43.83126" lon="6.7216">
        <ele>1521</ele>
        <time>2018-04-27T09:32:43Z</time>
      </trkpt>
      <trkpt lat="43.8313" lon="6.72165">
        <ele>1522</ele>
        <time>2018-04-27T09:32:47Z</time>
      </trkpt>
      <trkpt lat="43.83133" lon="6.72171">
        <ele>1522</ele>
        <time>2018-04-27T09:32:51Z</time>
      </trkpt>
      <trkpt lat="43.83138" lon="6.72176">
        <ele>1523</ele>
        <time>2018-04-27T09:32:55Z</time>
      </trkpt>
      <trkpt lat="43.83142" lon="6.7218">
        <ele>1523</ele>
        <time>2018-04-27T09:32:59Z</time>
      </trkpt>
      <trkpt lat="43.83147" lon="6.72182">
        <ele>1524</ele>
        <time>2018-04-27T09:33:02Z</time>
      </trkpt>
      <trkpt lat="43.83152" lon="6.72185">
        <ele>1524</ele>
        <time>2018-04-27T09:33:06Z</time>
      </trkpt>
      <trkpt lat="43.83157" lon="6.72187">
        <ele>1524</ele>
        <time>2018-04-27T09:33:10Z</time>
      </trkpt>
      <trkpt lat="43.83164" lon="6.72188">
        <ele>1525</ele>
        <time>2018-04-27T09:33:14Z</time>
      </trkpt>
      <trkpt lat="43.83168" lon="6.72189">
        <ele>1525</ele>
        <time>2018-04-27T09:33:17Z</time>
      </trkpt>
      <trkpt lat="43.83173" lon="6.72189">
        <ele>1525</ele>
        <time>2018-04-27T09:33:20Z</time>
      </trkpt>
      <trkpt lat="43.83178" lon="6.7219">
        <ele>1525</ele>
        <time>2018-04-27T09:33:24Z</time>
      </trkpt>
      <trkpt lat="43.83183" lon="6.72191">
        <ele>1526</ele>
        <time>2018-04-27T09:33:28Z</time>
      </trkpt>
      <trkpt lat="43.83188" lon="6.72191">
        <ele>1526</ele>
        <time>2018-04-27T09:33:31Z</time>
      </trkpt>
      <trkpt lat="43.83192" lon="6.72187">
        <ele>1527</ele>
        <time>2018-04-27T09:33:35Z</time>
      </trkpt>
      <trkpt lat="43.83195" lon="6.72182">
        <ele>1527</ele>
        <time>2018-04-27T09:33:39Z</time>
      </trkpt>
      <trkpt lat="43.83196" lon="6.72175">
        <ele>1528</ele>
        <time>2018-04-27T09:33:43Z</time>
      </trkpt>
      <trkpt lat="43.83195" lon="6.72171">
        <ele>1529</ele>
        <time>2018-04-27T09:34:00Z</time>
      </trkpt>
      <trkpt lat="43.83195" lon="6.72171">
        <ele>1529</ele>
        <time>2018-04-27T09:34:03Z</time>
      </trkpt>
      <trkpt lat="43.83194" lon="6.72164">
        <ele>1530</ele>
        <time>2018-04-27T09:34:16Z</time>
      </trkpt>
      <trkpt lat="43.83194" lon="6.72158">
        <ele>1531</ele>
        <time>2018-04-27T09:34:20Z</time>
      </trkpt>
      <trkpt lat="43.83193" lon="6.72156">
        <ele>1531</ele>
        <time>2018-04-27T09:34:45Z</time>
      </trkpt>
      <trkpt lat="43.83193" lon="6.72156">
        <ele>1532</ele>
        <time>2018-04-27T09:34:48Z</time>
      </trkpt>
      <trkpt lat="43.83191" lon="6.72149">
        <ele>1533</ele>
        <time>2018-04-27T09:34:53Z</time>
      </trkpt>
      <trkpt lat="43.8319" lon="6.72143">
        <ele>1533</ele>
        <time>2018-04-27T09:34:59Z</time>
      </trkpt>
      <trkpt lat="43.83189" lon="6.72136">
        <ele>1533</ele>
        <time>2018-04-27T09:35:05Z</time>
      </trkpt>
      <trkpt lat="43.83188" lon="6.7213">
        <ele>1534</ele>
        <time>2018-04-27T09:35:12Z</time>
      </trkpt>
      <trkpt lat="43.83186" lon="6.72123">
        <ele>1535</ele>
        <time>2018-04-27T09:35:18Z</time>
      </trkpt>
      <trkpt lat="43.83186" lon="6.72116">
        <ele>1537</ele>
        <time>2018-04-27T09:35:23Z</time>
      </trkpt>
      <trkpt lat="43.83185" lon="6.7211">
        <ele>1538</ele>
        <time>2018-04-27T09:35:29Z</time>
      </trkpt>
      <trkpt lat="43.83183" lon="6.72104">
        <ele>1540</ele>
        <time>2018-04-27T09:35:34Z</time>
      </trkpt>
      <trkpt lat="43.83183" lon="6.72096">
        <ele>1541</ele>
        <time>2018-04-27T09:35:40Z</time>
      </trkpt>
      <trkpt lat="43.83182" lon="6.72089">
        <ele>1542</ele>
        <time>2018-04-27T09:35:46Z</time>
      </trkpt>
      <trkpt lat="43.83182" lon="6.72082">
        <ele>1543</ele>
        <time>2018-04-27T09:35:52Z</time>
      </trkpt>
      <trkpt lat="43.83181" lon="6.72076">
        <ele>1544</ele>
        <time>2018-04-27T09:35:58Z</time>
      </trkpt>
      <trkpt lat="43.83183" lon="6.72069">
        <ele>1545</ele>
        <time>2018-04-27T09:36:04Z</time>
      </trkpt>
      <trkpt lat="43.83182" lon="6.72063">
        <ele>1546</ele>
        <time>2018-04-27T09:36:10Z</time>
      </trkpt>
      <trkpt lat="43.83182" lon="6.72056">
        <ele>1547</ele>
        <time>2018-04-27T09:36:16Z</time>
      </trkpt>
      <trkpt lat="43.83183" lon="6.72049">
        <ele>1548</ele>
        <time>2018-04-27T09:36:22Z</time>
      </trkpt>
      <trkpt lat="43.83183" lon="6.72042">
        <ele>1549</ele>
        <time>2018-04-27T09:36:28Z</time>
      </trkpt>
      <trkpt lat="43.83183" lon="6.72035">
        <ele>1549</ele>
        <time>2018-04-27T09:36:34Z</time>
      </trkpt>
      <trkpt lat="43.83183" lon="6.72028">
        <ele>1550</ele>
        <time>2018-04-27T09:36:41Z</time>
      </trkpt>
      <trkpt lat="43.83183" lon="6.72021">
        <ele>1551</ele>
        <time>2018-04-27T09:36:47Z</time>
      </trkpt>
      <trkpt lat="43.83182" lon="6.72015">
        <ele>1552</ele>
        <time>2018-04-27T09:36:53Z</time>
      </trkpt>
      <trkpt lat="43.8318" lon="6.72008">
        <ele>1553</ele>
        <time>2018-04-27T09:36:59Z</time>
      </trkpt>
      <trkpt lat="43.83178" lon="6.72001">
        <ele>1554</ele>
        <time>2018-04-27T09:37:05Z</time>
      </trkpt>
      <trkpt lat="43.83176" lon="6.71995">
        <ele>1555</ele>
        <time>2018-04-27T09:37:10Z</time>
      </trkpt>
      <trkpt lat="43.83174" lon="6.71989">
        <ele>1556</ele>
        <time>2018-04-27T09:37:15Z</time>
      </trkpt>
      <trkpt lat="43.83172" lon="6.71982">
        <ele>1556</ele>
        <time>2018-04-27T09:37:21Z</time>
      </trkpt>
      <trkpt lat="43.83171" lon="6.71976">
        <ele>1557</ele>
        <time>2018-04-27T09:37:28Z</time>
      </trkpt>
      <trkpt lat="43.8317" lon="6.71969">
        <ele>1557</ele>
        <time>2018-04-27T09:37:35Z</time>
      </trkpt>
      <trkpt lat="43.83169" lon="6.71962">
        <ele>1558</ele>
        <time>2018-04-27T09:37:42Z</time>
      </trkpt>
      <trkpt lat="43.83168" lon="6.71956">
        <ele>1559</ele>
        <time>2018-04-27T09:37:49Z</time>
      </trkpt>
      <trkpt lat="43.83166" lon="6.7195">
        <ele>1560</ele>
        <time>2018-04-27T09:37:56Z</time>
      </trkpt>
      <trkpt lat="43.83162" lon="6.71944">
        <ele>1560</ele>
        <time>2018-04-27T09:38:04Z</time>
      </trkpt>
      <trkpt lat="43.8316" lon="6.71939">
        <ele>1562</ele>
        <time>2018-04-27T09:38:11Z</time>
      </trkpt>
      <trkpt lat="43.83157" lon="6.71933">
        <ele>1563</ele>
        <time>2018-04-27T09:38:19Z</time>
      </trkpt>
      <trkpt lat="43.83154" lon="6.71928">
        <ele>1564</ele>
        <time>2018-04-27T09:38:26Z</time>
      </trkpt>
      <trkpt lat="43.83152" lon="6.71922">
        <ele>1565</ele>
        <time>2018-04-27T09:38:33Z</time>
      </trkpt>
      <trkpt lat="43.83151" lon="6.71916">
        <ele>1567</ele>
        <time>2018-04-27T09:38:45Z</time>
      </trkpt>
      <trkpt lat="43.83151" lon="6.71909">
        <ele>1568</ele>
        <time>2018-04-27T09:38:53Z</time>
      </trkpt>
      <trkpt lat="43.83148" lon="6.71904">
        <ele>1569</ele>
        <time>2018-04-27T09:39:00Z</time>
      </trkpt>
      <trkpt lat="43.83146" lon="6.71897">
        <ele>1570</ele>
        <time>2018-04-27T09:39:08Z</time>
      </trkpt>
      <trkpt lat="43.83146" lon="6.7189">
        <ele>1571</ele>
        <time>2018-04-27T09:39:15Z</time>
      </trkpt>
      <trkpt lat="43.83144" lon="6.71884">
        <ele>1572</ele>
        <time>2018-04-27T09:39:21Z</time>
      </trkpt>
      <trkpt lat="43.83144" lon="6.71877">
        <ele>1573</ele>
        <time>2018-04-27T09:39:27Z</time>
      </trkpt>
      <trkpt lat="43.83143" lon="6.71871">
        <ele>1574</ele>
        <time>2018-04-27T09:39:33Z</time>
      </trkpt>
      <trkpt lat="43.83142" lon="6.71864">
        <ele>1575</ele>
        <time>2018-04-27T09:39:56Z</time>
      </trkpt>
      <trkpt lat="43.83142" lon="6.71858">
        <ele>1576</ele>
        <time>2018-04-27T09:40:02Z</time>
      </trkpt>
      <trkpt lat="43.8314" lon="6.71852">
        <ele>1577</ele>
        <time>2018-04-27T09:40:08Z</time>
      </trkpt>
      <trkpt lat="43.83139" lon="6.71845">
        <ele>1579</ele>
        <time>2018-04-27T09:40:15Z</time>
      </trkpt>
      <trkpt lat="43.83136" lon="6.71838">
        <ele>1580</ele>
        <time>2018-04-27T09:40:21Z</time>
      </trkpt>
      <trkpt lat="43.83134" lon="6.71833">
        <ele>1581</ele>
        <time>2018-04-27T09:40:26Z</time>
      </trkpt>
      <trkpt lat="43.83131" lon="6.71827">
        <ele>1582</ele>
        <time>2018-04-27T09:40:32Z</time>
      </trkpt>
      <trkpt lat="43.83128" lon="6.71821">
        <ele>1583</ele>
        <time>2018-04-27T09:40:39Z</time>
      </trkpt>
      <trkpt lat="43.83125" lon="6.71815">
        <ele>1583</ele>
        <time>2018-04-27T09:40:46Z</time>
      </trkpt>
      <trkpt lat="43.83122" lon="6.7181">
        <ele>1584</ele>
        <time>2018-04-27T09:40:53Z</time>
      </trkpt>
      <trkpt lat="43.83116" lon="6.7181">
        <ele>1584</ele>
        <time>2018-04-27T09:41:13Z</time>
      </trkpt>
      <trkpt lat="43.83117" lon="6.71804">
        <ele>1584</ele>
        <time>2018-04-27T09:41:27Z</time>
      </trkpt>
      <trkpt lat="43.8312" lon="6.71796">
        <ele>1584</ele>
        <time>2018-04-27T09:41:31Z</time>
      </trkpt>
      <trkpt lat="43.83119" lon="6.71787">
        <ele>1584</ele>
        <time>2018-04-27T09:41:34Z</time>
      </trkpt>
      <trkpt lat="43.83118" lon="6.71781">
        <ele>1584</ele>
        <time>2018-04-27T09:41:36Z</time>
      </trkpt>
      <trkpt lat="43.83115" lon="6.71775">
        <ele>1584</ele>
        <time>2018-04-27T09:41:38Z</time>
      </trkpt>
      <trkpt lat="43.83114" lon="6.71768">
        <ele>1584</ele>
        <time>2018-04-27T09:41:41Z</time>
      </trkpt>
      <trkpt lat="43.83113" lon="6.71759">
        <ele>1584</ele>
        <time>2018-04-27T09:41:44Z</time>
      </trkpt>
      <trkpt lat="43.8311" lon="6.71753">
        <ele>1583</ele>
        <time>2018-04-27T09:41:46Z</time>
      </trkpt>
      <trkpt lat="43.83106" lon="6.71745">
        <ele>1583</ele>
        <time>2018-04-27T09:41:48Z</time>
      </trkpt>
      <trkpt lat="43.831" lon="6.71739">
        <ele>1583</ele>
        <time>2018-04-27T09:41:50Z</time>
      </trkpt>
      <trkpt lat="43.83094" lon="6.71734">
        <ele>1582</ele>
        <time>2018-04-27T09:41:52Z</time>
      </trkpt>
      <trkpt lat="43.83089" lon="6.71731">
        <ele>1582</ele>
        <time>2018-04-27T09:41:55Z</time>
      </trkpt>
      <trkpt lat="43.83085" lon="6.71728">
        <ele>1581</ele>
        <time>2018-04-27T09:41:58Z</time>
      </trkpt>
      <trkpt lat="43.8308" lon="6.71724">
        <ele>1581</ele>
        <time>2018-04-27T09:42:01Z</time>
      </trkpt>
      <trkpt lat="43.83075" lon="6.71722">
        <ele>1581</ele>
        <time>2018-04-27T09:42:04Z</time>
      </trkpt>
      <trkpt lat="43.8307" lon="6.71724">
        <ele>1582</ele>
        <time>2018-04-27T09:42:07Z</time>
      </trkpt>
      <trkpt lat="43.83064" lon="6.71724">
        <ele>1582</ele>
        <time>2018-04-27T09:42:11Z</time>
      </trkpt>
      <trkpt lat="43.83059" lon="6.71722">
        <ele>1582</ele>
        <time>2018-04-27T09:42:15Z</time>
      </trkpt>
      <trkpt lat="43.83055" lon="6.71716">
        <ele>1583</ele>
        <time>2018-04-27T09:42:19Z</time>
      </trkpt>
      <trkpt lat="43.83054" lon="6.71708">
        <ele>1583</ele>
        <time>2018-04-27T09:42:23Z</time>
      </trkpt>
      <trkpt lat="43.83051" lon="6.71703">
        <ele>1584</ele>
        <time>2018-04-27T09:42:26Z</time>
      </trkpt>
      <trkpt lat="43.83048" lon="6.71698">
        <ele>1584</ele>
        <time>2018-04-27T09:42:29Z</time>
      </trkpt>
      <trkpt lat="43.83046" lon="6.71692">
        <ele>1584</ele>
        <time>2018-04-27T09:42:32Z</time>
      </trkpt>
      <trkpt lat="43.83045" lon="6.71684">
        <ele>1585</ele>
        <time>2018-04-27T09:42:36Z</time>
      </trkpt>
      <trkpt lat="43.83044" lon="6.71677">
        <ele>1585</ele>
        <time>2018-04-27T09:42:39Z</time>
      </trkpt>
      <trkpt lat="43.83041" lon="6.7167">
        <ele>1585</ele>
        <time>2018-04-27T09:42:43Z</time>
      </trkpt>
      <trkpt lat="43.83042" lon="6.71662">
        <ele>1586</ele>
        <time>2018-04-27T09:42:47Z</time>
      </trkpt>
      <trkpt lat="43.83043" lon="6.71656">
        <ele>1586</ele>
        <time>2018-04-27T09:42:51Z</time>
      </trkpt>
      <trkpt lat="43.83046" lon="6.71651">
        <ele>1586</ele>
        <time>2018-04-27T09:42:55Z</time>
      </trkpt>
      <trkpt lat="43.83049" lon="6.71647">
        <ele>1587</ele>
        <time>2018-04-27T09:42:59Z</time>
      </trkpt>
      <trkpt lat="43.83053" lon="6.71642">
        <ele>1587</ele>
        <time>2018-04-27T09:43:03Z</time>
      </trkpt>
      <trkpt lat="43.83056" lon="6.71637">
        <ele>1587</ele>
        <time>2018-04-27T09:43:15Z</time>
      </trkpt>
      <trkpt lat="43.83056" lon="6.71632">
        <ele>1588</ele>
        <time>2018-04-27T09:43:30Z</time>
      </trkpt>
      <trkpt lat="43.83056" lon="6.71632">
        <ele>1588</ele>
        <time>2018-04-27T09:43:33Z</time>
      </trkpt>
      <trkpt lat="43.83056" lon="6.71631">
        <ele>1588</ele>
        <time>2018-04-27T09:44:00Z</time>
      </trkpt>
      <trkpt lat="43.83056" lon="6.71631">
        <ele>1588</ele>
        <time>2018-04-27T09:44:03Z</time>
      </trkpt>
      <trkpt lat="43.83056" lon="6.71631">
        <ele>1588</ele>
        <time>2018-04-27T09:44:30Z</time>
      </trkpt>
      <trkpt lat="43.83058" lon="6.71635">
        <ele>1588</ele>
        <time>2018-04-27T09:44:33Z</time>
      </trkpt>
      <trkpt lat="43.83062" lon="6.71639">
        <ele>1587</ele>
        <time>2018-04-27T09:44:35Z</time>
      </trkpt>
      <trkpt lat="43.83065" lon="6.71634">
        <ele>1587</ele>
        <time>2018-04-27T09:44:38Z</time>
      </trkpt>
      <trkpt lat="43.83068" lon="6.71629">
        <ele>1587</ele>
        <time>2018-04-27T09:44:41Z</time>
      </trkpt>
      <trkpt lat="43.83067" lon="6.71622">
        <ele>1587</ele>
        <time>2018-04-27T09:44:44Z</time>
      </trkpt>
      <trkpt lat="43.83062" lon="6.71624">
        <ele>1587</ele>
        <time>2018-04-27T09:44:47Z</time>
      </trkpt>
      <trkpt lat="43.8306" lon="6.71627">
        <ele>1587</ele>
        <time>2018-04-27T09:45:15Z</time>
      </trkpt>
      <trkpt lat="43.8306" lon="6.71627">
        <ele>1587</ele>
        <time>2018-04-27T09:45:18Z</time>
      </trkpt>
      <trkpt lat="43.83054" lon="6.71622">
        <ele>1588</ele>
        <time>2018-04-27T09:45:21Z</time>
      </trkpt>
      <trkpt lat="43.83051" lon="6.71615">
        <ele>1588</ele>
        <time>2018-04-27T09:45:24Z</time>
      </trkpt>
      <trkpt lat="43.83046" lon="6.71608">
        <ele>1588</ele>
        <time>2018-04-27T09:45:27Z</time>
      </trkpt>
      <trkpt lat="43.83043" lon="6.71603">
        <ele>1589</ele>
        <time>2018-04-27T09:45:30Z</time>
      </trkpt>
      <trkpt lat="43.83041" lon="6.71596">
        <ele>1589</ele>
        <time>2018-04-27T09:45:33Z</time>
      </trkpt>
      <trkpt lat="43.83041" lon="6.71589">
        <ele>1589</ele>
        <time>2018-04-27T09:45:36Z</time>
      </trkpt>
      <trkpt lat="43.83042" lon="6.71582">
        <ele>1590</ele>
        <time>2018-04-27T09:45:39Z</time>
      </trkpt>
      <trkpt lat="43.83044" lon="6.71575">
        <ele>1590</ele>
        <time>2018-04-27T09:45:42Z</time>
      </trkpt>
      <trkpt lat="43.83044" lon="6.7157">
        <ele>1590</ele>
        <time>2018-04-27T09:46:00Z</time>
      </trkpt>
      <trkpt lat="43.83044" lon="6.7157">
        <ele>1590</ele>
        <time>2018-04-27T09:46:03Z</time>
      </trkpt>
      <trkpt lat="43.83045" lon="6.71572">
        <ele>1590</ele>
        <time>2018-04-27T09:46:30Z</time>
      </trkpt>
      <trkpt lat="43.83045" lon="6.71572">
        <ele>1590</ele>
        <time>2018-04-27T09:46:33Z</time>
      </trkpt>
      <trkpt lat="43.8304" lon="6.71567">
        <ele>1590</ele>
        <time>2018-04-27T09:46:36Z</time>
      </trkpt>
      <trkpt lat="43.83036" lon="6.71565">
        <ele>1590</ele>
        <time>2018-04-27T09:46:39Z</time>
      </trkpt>
      <trkpt lat="43.83035" lon="6.71558">
        <ele>1591</ele>
        <time>2018-04-27T09:46:43Z</time>
      </trkpt>
      <trkpt lat="43.83038" lon="6.71554">
        <ele>1591</ele>
        <time>2018-04-27T09:46:46Z</time>
      </trkpt>
      <trkpt lat="43.83041" lon="6.7156">
        <ele>1591</ele>
        <time>2018-04-27T09:46:49Z</time>
      </trkpt>
      <trkpt lat="43.83043" lon="6.71568">
        <ele>1591</ele>
        <time>2018-04-27T09:46:52Z</time>
      </trkpt>
      <trkpt lat="43.83043" lon="6.71571">
        <ele>1591</ele>
        <time>2018-04-27T09:47:15Z</time>
      </trkpt>
      <trkpt lat="43.83043" lon="6.71571">
        <ele>1591</ele>
        <time>2018-04-27T09:47:18Z</time>
      </trkpt>
      <trkpt lat="43.83037" lon="6.7157">
        <ele>1590</ele>
        <time>2018-04-27T09:47:40Z</time>
      </trkpt>
      <trkpt lat="43.83035" lon="6.71565">
        <ele>1590</ele>
        <time>2018-04-27T09:47:42Z</time>
      </trkpt>
      <trkpt lat="43.83032" lon="6.71557">
        <ele>1590</ele>
        <time>2018-04-27T09:47:45Z</time>
      </trkpt>
      <trkpt lat="43.83029" lon="6.71551">
        <ele>1590</ele>
        <time>2018-04-27T09:47:47Z</time>
      </trkpt>
      <trkpt lat="43.83025" lon="6.71547">
        <ele>1589</ele>
        <time>2018-04-27T09:47:49Z</time>
      </trkpt>
      <trkpt lat="43.83021" lon="6.71542">
        <ele>1589</ele>
        <time>2018-04-27T09:47:51Z</time>
      </trkpt>
      <trkpt lat="43.83016" lon="6.71537">
        <ele>1589</ele>
        <time>2018-04-27T09:47:53Z</time>
      </trkpt>
      <trkpt lat="43.83012" lon="6.71532">
        <ele>1589</ele>
        <time>2018-04-27T09:47:55Z</time>
      </trkpt>
      <trkpt lat="43.83007" lon="6.71528">
        <ele>1588</ele>
        <time>2018-04-27T09:47:57Z</time>
      </trkpt>
      <trkpt lat="43.83003" lon="6.71522">
        <ele>1588</ele>
        <time>2018-04-27T09:47:59Z</time>
      </trkpt>
      <trkpt lat="43.82998" lon="6.71517">
        <ele>1588</ele>
        <time>2018-04-27T09:48:01Z</time>
      </trkpt>
      <trkpt lat="43.82994" lon="6.71512">
        <ele>1588</ele>
        <time>2018-04-27T09:48:03Z</time>
      </trkpt>
      <trkpt lat="43.82991" lon="6.71506">
        <ele>1588</ele>
        <time>2018-04-27T09:48:05Z</time>
      </trkpt>
      <trkpt lat="43.82987" lon="6.71501">
        <ele>1588</ele>
        <time>2018-04-27T09:48:07Z</time>
      </trkpt>
      <trkpt lat="43.82984" lon="6.71497">
        <ele>1589</ele>
        <time>2018-04-27T09:48:09Z</time>
      </trkpt>
      <trkpt lat="43.82981" lon="6.71491">
        <ele>1589</ele>
        <time>2018-04-27T09:48:12Z</time>
      </trkpt>
      <trkpt lat="43.82978" lon="6.71485">
        <ele>1589</ele>
        <time>2018-04-27T09:48:15Z</time>
      </trkpt>
      <trkpt lat="43.82975" lon="6.71479">
        <ele>1590</ele>
        <time>2018-04-27T09:48:18Z</time>
      </trkpt>
      <trkpt lat="43.82974" lon="6.71472">
        <ele>1591</ele>
        <time>2018-04-27T09:48:22Z</time>
      </trkpt>
      <trkpt lat="43.82972" lon="6.71464">
        <ele>1592</ele>
        <time>2018-04-27T09:48:26Z</time>
      </trkpt>
      <trkpt lat="43.82972" lon="6.71458">
        <ele>1592</ele>
        <time>2018-04-27T09:48:29Z</time>
      </trkpt>
      <trkpt lat="43.82973" lon="6.71451">
        <ele>1593</ele>
        <time>2018-04-27T09:48:32Z</time>
      </trkpt>
      <trkpt lat="43.82972" lon="6.71445">
        <ele>1594</ele>
        <time>2018-04-27T09:48:35Z</time>
      </trkpt>
      <trkpt lat="43.82973" lon="6.71437">
        <ele>1594</ele>
        <time>2018-04-27T09:48:39Z</time>
      </trkpt>
      <trkpt lat="43.82974" lon="6.7143">
        <ele>1594</ele>
        <time>2018-04-27T09:48:42Z</time>
      </trkpt>
      <trkpt lat="43.82975" lon="6.71423">
        <ele>1595</ele>
        <time>2018-04-27T09:48:46Z</time>
      </trkpt>
      <trkpt lat="43.82973" lon="6.71415">
        <ele>1595</ele>
        <time>2018-04-27T09:48:50Z</time>
      </trkpt>
      <trkpt lat="43.82969" lon="6.71411">
        <ele>1596</ele>
        <time>2018-04-27T09:48:54Z</time>
      </trkpt>
      <trkpt lat="43.82965" lon="6.71417">
        <ele>1596</ele>
        <time>2018-04-27T09:48:58Z</time>
      </trkpt>
      <trkpt lat="43.82961" lon="6.71423">
        <ele>1597</ele>
        <time>2018-04-27T09:49:02Z</time>
      </trkpt>
      <trkpt lat="43.82958" lon="6.71429">
        <ele>1598</ele>
        <time>2018-04-27T09:49:06Z</time>
      </trkpt>
      <trkpt lat="43.82954" lon="6.71435">
        <ele>1598</ele>
        <time>2018-04-27T09:49:10Z</time>
      </trkpt>
      <trkpt lat="43.82951" lon="6.71441">
        <ele>1598</ele>
        <time>2018-04-27T09:49:14Z</time>
      </trkpt>
      <trkpt lat="43.82945" lon="6.71445">
        <ele>1599</ele>
        <time>2018-04-27T09:49:18Z</time>
      </trkpt>
      <trkpt lat="43.82942" lon="6.7145">
        <ele>1599</ele>
        <time>2018-04-27T09:49:22Z</time>
      </trkpt>
      <trkpt lat="43.82937" lon="6.71455">
        <ele>1600</ele>
        <time>2018-04-27T09:49:26Z</time>
      </trkpt>
      <trkpt lat="43.82933" lon="6.71458">
        <ele>1601</ele>
        <time>2018-04-27T09:49:29Z</time>
      </trkpt>
      <trkpt lat="43.8293" lon="6.71463">
        <ele>1601</ele>
        <time>2018-04-27T09:49:32Z</time>
      </trkpt>
      <trkpt lat="43.82925" lon="6.71466">
        <ele>1601</ele>
        <time>2018-04-27T09:49:36Z</time>
      </trkpt>
      <trkpt lat="43.82919" lon="6.71466">
        <ele>1602</ele>
        <time>2018-04-27T09:49:40Z</time>
      </trkpt>
      <trkpt lat="43.82916" lon="6.71463">
        <ele>1602</ele>
        <time>2018-04-27T09:49:46Z</time>
      </trkpt>
      <trkpt lat="43.82912" lon="6.71457">
        <ele>1602</ele>
        <time>2018-04-27T09:49:51Z</time>
      </trkpt>
      <trkpt lat="43.82911" lon="6.71451">
        <ele>1603</ele>
        <time>2018-04-27T09:49:57Z</time>
      </trkpt>
      <trkpt lat="43.82912" lon="6.71444">
        <ele>1604</ele>
        <time>2018-04-27T09:50:02Z</time>
      </trkpt>
      <trkpt lat="43.82912" lon="6.71437">
        <ele>1605</ele>
        <time>2018-04-27T09:50:08Z</time>
      </trkpt>
      <trkpt lat="43.82913" lon="6.71431">
        <ele>1606</ele>
        <time>2018-04-27T09:50:13Z</time>
      </trkpt>
      <trkpt lat="43.82912" lon="6.71424">
        <ele>1607</ele>
        <time>2018-04-27T09:50:18Z</time>
      </trkpt>
      <trkpt lat="43.82908" lon="6.7142">
        <ele>1608</ele>
        <time>2018-04-27T09:50:23Z</time>
      </trkpt>
      <trkpt lat="43.82903" lon="6.7142">
        <ele>1609</ele>
        <time>2018-04-27T09:50:29Z</time>
      </trkpt>
      <trkpt lat="43.829" lon="6.71426">
        <ele>1610</ele>
        <time>2018-04-27T09:50:36Z</time>
      </trkpt>
      <trkpt lat="43.82895" lon="6.71428">
        <ele>1611</ele>
        <time>2018-04-27T09:50:49Z</time>
      </trkpt>
      <trkpt lat="43.82895" lon="6.71431">
        <ele>1612</ele>
        <time>2018-04-27T09:51:15Z</time>
      </trkpt>
      <trkpt lat="43.82895" lon="6.71431">
        <ele>1613</ele>
        <time>2018-04-27T09:51:18Z</time>
      </trkpt>
      <trkpt lat="43.82895" lon="6.71431">
        <ele>1613</ele>
        <time>2018-04-27T09:51:45Z</time>
      </trkpt>
      <trkpt lat="43.82895" lon="6.71431">
        <ele>1614</ele>
        <time>2018-04-27T09:51:48Z</time>
      </trkpt>
      <trkpt lat="43.82895" lon="6.71432">
        <ele>1614</ele>
        <time>2018-04-27T09:52:15Z</time>
      </trkpt>
      <trkpt lat="43.82895" lon="6.71432">
        <ele>1614</ele>
        <time>2018-04-27T09:52:18Z</time>
      </trkpt>
      <trkpt lat="43.82895" lon="6.71432">
        <ele>1614</ele>
        <time>2018-04-27T09:52:45Z</time>
      </trkpt>
      <trkpt lat="43.82895" lon="6.71432">
        <ele>1614</ele>
        <time>2018-04-27T09:52:48Z</time>
      </trkpt>
      <trkpt lat="43.82895" lon="6.71431">
        <ele>1613</ele>
        <time>2018-04-27T09:53:15Z</time>
      </trkpt>
      <trkpt lat="43.82895" lon="6.71431">
        <ele>1613</ele>
        <time>2018-04-27T09:53:18Z</time>
      </trkpt>
      <trkpt lat="43.82895" lon="6.71431">
        <ele>1613</ele>
        <time>2018-04-27T09:53:45Z</time>
      </trkpt>
      <trkpt lat="43.82895" lon="6.71431">
        <ele>1613</ele>
        <time>2018-04-27T09:53:48Z</time>
      </trkpt>
      <trkpt lat="43.829" lon="6.71429">
        <ele>1613</ele>
        <time>2018-04-27T09:54:04Z</time>
      </trkpt>
      <trkpt lat="43.82903" lon="6.71423">
        <ele>1612</ele>
        <time>2018-04-27T09:54:13Z</time>
      </trkpt>
      <trkpt lat="43.82905" lon="6.71418">
        <ele>1612</ele>
        <time>2018-04-27T09:54:15Z</time>
      </trkpt>
      <trkpt lat="43.82903" lon="6.71411">
        <ele>1612</ele>
        <time>2018-04-27T09:54:18Z</time>
      </trkpt>
      <trkpt lat="43.82909" lon="6.71412">
        <ele>1611</ele>
        <time>2018-04-27T09:54:25Z</time>
      </trkpt>
      <trkpt lat="43.82912" lon="6.71406">
        <ele>1610</ele>
        <time>2018-04-27T09:54:28Z</time>
      </trkpt>
      <trkpt lat="43.82918" lon="6.71399">
        <ele>1609</ele>
        <time>2018-04-27T09:54:33Z</time>
      </trkpt>
      <trkpt lat="43.82924" lon="6.71397">
        <ele>1609</ele>
        <time>2018-04-27T09:54:35Z</time>
      </trkpt>
      <trkpt lat="43.82928" lon="6.71391">
        <ele>1608</ele>
        <time>2018-04-27T09:54:37Z</time>
      </trkpt>
      <trkpt lat="43.82928" lon="6.71383">
        <ele>1607</ele>
        <time>2018-04-27T09:54:40Z</time>
      </trkpt>
      <trkpt lat="43.82925" lon="6.71379">
        <ele>1606</ele>
        <time>2018-04-27T09:54:42Z</time>
      </trkpt>
      <trkpt lat="43.82919" lon="6.71375">
        <ele>1604</ele>
        <time>2018-04-27T09:54:45Z</time>
      </trkpt>
      <trkpt lat="43.82914" lon="6.71373">
        <ele>1603</ele>
        <time>2018-04-27T09:54:48Z</time>
      </trkpt>
      <trkpt lat="43.82908" lon="6.7137">
        <ele>1602</ele>
        <time>2018-04-27T09:54:51Z</time>
      </trkpt>
      <trkpt lat="43.82903" lon="6.71368">
        <ele>1601</ele>
        <time>2018-04-27T09:54:53Z</time>
      </trkpt>
      <trkpt lat="43.82899" lon="6.71366">
        <ele>1600</ele>
        <time>2018-04-27T09:54:55Z</time>
      </trkpt>
      <trkpt lat="43.82894" lon="6.71365">
        <ele>1599</ele>
        <time>2018-04-27T09:54:57Z</time>
      </trkpt>
      <trkpt lat="43.82888" lon="6.71362">
        <ele>1598</ele>
        <time>2018-04-27T09:54:59Z</time>
      </trkpt>
      <trkpt lat="43.82882" lon="6.71359">
        <ele>1598</ele>
        <time>2018-04-27T09:55:01Z</time>
      </trkpt>
      <trkpt lat="43.82878" lon="6.7135">
        <ele>1597</ele>
        <time>2018-04-27T09:55:03Z</time>
      </trkpt>
      <trkpt lat="43.82872" lon="6.71344">
        <ele>1596</ele>
        <time>2018-04-27T09:55:05Z</time>
      </trkpt>
      <trkpt lat="43.82868" lon="6.71343">
        <ele>1595</ele>
        <time>2018-04-27T09:55:06Z</time>
      </trkpt>
      <trkpt lat="43.8286" lon="6.71339">
        <ele>1594</ele>
        <time>2018-04-27T09:55:08Z</time>
      </trkpt>
      <trkpt lat="43.82857" lon="6.71331">
        <ele>1593</ele>
        <time>2018-04-27T09:55:10Z</time>
      </trkpt>
      <trkpt lat="43.8286" lon="6.71323">
        <ele>1592</ele>
        <time>2018-04-27T09:55:12Z</time>
      </trkpt>
      <trkpt lat="43.82862" lon="6.71316">
        <ele>1592</ele>
        <time>2018-04-27T09:55:14Z</time>
      </trkpt>
      <trkpt lat="43.82859" lon="6.71309">
        <ele>1591</ele>
        <time>2018-04-27T09:55:17Z</time>
      </trkpt>
      <trkpt lat="43.82854" lon="6.71308">
        <ele>1591</ele>
        <time>2018-04-27T09:55:21Z</time>
      </trkpt>
      <trkpt lat="43.82849" lon="6.71307">
        <ele>1591</ele>
        <time>2018-04-27T09:55:23Z</time>
      </trkpt>
      <trkpt lat="43.82845" lon="6.71304">
        <ele>1591</ele>
        <time>2018-04-27T09:55:32Z</time>
      </trkpt>
      <trkpt lat="43.8284" lon="6.71301">
        <ele>1591</ele>
        <time>2018-04-27T09:55:35Z</time>
      </trkpt>
      <trkpt lat="43.82835" lon="6.71299">
        <ele>1591</ele>
        <time>2018-04-27T09:55:38Z</time>
      </trkpt>
      <trkpt lat="43.8283" lon="6.71296">
        <ele>1591</ele>
        <time>2018-04-27T09:55:41Z</time>
      </trkpt>
      <trkpt lat="43.82824" lon="6.71294">
        <ele>1591</ele>
        <time>2018-04-27T09:55:44Z</time>
      </trkpt>
      <trkpt lat="43.82819" lon="6.71292">
        <ele>1591</ele>
        <time>2018-04-27T09:55:47Z</time>
      </trkpt>
      <trkpt lat="43.82815" lon="6.7129">
        <ele>1592</ele>
        <time>2018-04-27T09:55:50Z</time>
      </trkpt>
      <trkpt lat="43.82811" lon="6.71286">
        <ele>1592</ele>
        <time>2018-04-27T09:55:53Z</time>
      </trkpt>
      <trkpt lat="43.82807" lon="6.71283">
        <ele>1592</ele>
        <time>2018-04-27T09:55:56Z</time>
      </trkpt>
      <trkpt lat="43.82803" lon="6.71279">
        <ele>1593</ele>
        <time>2018-04-27T09:55:59Z</time>
      </trkpt>
      <trkpt lat="43.82803" lon="6.71271">
        <ele>1593</ele>
        <time>2018-04-27T09:56:02Z</time>
      </trkpt>
      <trkpt lat="43.82804" lon="6.71265">
        <ele>1593</ele>
        <time>2018-04-27T09:56:05Z</time>
      </trkpt>
      <trkpt lat="43.82803" lon="6.71256">
        <ele>1594</ele>
        <time>2018-04-27T09:56:09Z</time>
      </trkpt>
      <trkpt lat="43.82801" lon="6.71251">
        <ele>1594</ele>
        <time>2018-04-27T09:56:12Z</time>
      </trkpt>
      <trkpt lat="43.82798" lon="6.71246">
        <ele>1595</ele>
        <time>2018-04-27T09:56:15Z</time>
      </trkpt>
      <trkpt lat="43.82795" lon="6.7124">
        <ele>1595</ele>
        <time>2018-04-27T09:56:18Z</time>
      </trkpt>
      <trkpt lat="43.82792" lon="6.71234">
        <ele>1596</ele>
        <time>2018-04-27T09:56:21Z</time>
      </trkpt>
      <trkpt lat="43.8279" lon="6.71229">
        <ele>1596</ele>
        <time>2018-04-27T09:56:24Z</time>
      </trkpt>
      <trkpt lat="43.82787" lon="6.71222">
        <ele>1597</ele>
        <time>2018-04-27T09:56:28Z</time>
      </trkpt>
      <trkpt lat="43.82785" lon="6.71214">
        <ele>1597</ele>
        <time>2018-04-27T09:56:32Z</time>
      </trkpt>
      <trkpt lat="43.82781" lon="6.71211">
        <ele>1598</ele>
        <time>2018-04-27T09:56:35Z</time>
      </trkpt>
      <trkpt lat="43.82777" lon="6.71209">
        <ele>1598</ele>
        <time>2018-04-27T09:56:38Z</time>
      </trkpt>
      <trkpt lat="43.82774" lon="6.71203">
        <ele>1599</ele>
        <time>2018-04-27T09:56:42Z</time>
      </trkpt>
      <trkpt lat="43.82771" lon="6.71197">
        <ele>1599</ele>
        <time>2018-04-27T09:56:46Z</time>
      </trkpt>
      <trkpt lat="43.82765" lon="6.71193">
        <ele>1600</ele>
        <time>2018-04-27T09:56:50Z</time>
      </trkpt>
      <trkpt lat="43.8276" lon="6.7119">
        <ele>1600</ele>
        <time>2018-04-27T09:56:54Z</time>
      </trkpt>
      <trkpt lat="43.82756" lon="6.71191">
        <ele>1601</ele>
        <time>2018-04-27T09:56:57Z</time>
      </trkpt>
      <trkpt lat="43.8275" lon="6.71191">
        <ele>1601</ele>
        <time>2018-04-27T09:57:01Z</time>
      </trkpt>
      <trkpt lat="43.82745" lon="6.7119">
        <ele>1601</ele>
        <time>2018-04-27T09:57:05Z</time>
      </trkpt>
      <trkpt lat="43.8274" lon="6.7119">
        <ele>1602</ele>
        <time>2018-04-27T09:57:09Z</time>
      </trkpt>
      <trkpt lat="43.82734" lon="6.71187">
        <ele>1602</ele>
        <time>2018-04-27T09:57:14Z</time>
      </trkpt>
      <trkpt lat="43.82734" lon="6.71187">
        <ele>1602</ele>
        <time>2018-04-27T09:57:30Z</time>
      </trkpt>
      <trkpt lat="43.82734" lon="6.71187">
        <ele>1602</ele>
        <time>2018-04-27T09:57:33Z</time>
      </trkpt>
      <trkpt lat="43.82734" lon="6.7118">
        <ele>1602</ele>
        <time>2018-04-27T09:57:50Z</time>
      </trkpt>
      <trkpt lat="43.82733" lon="6.71172">
        <ele>1602</ele>
        <time>2018-04-27T09:57:53Z</time>
      </trkpt>
      <trkpt lat="43.82734" lon="6.71162">
        <ele>1601</ele>
        <time>2018-04-27T09:57:56Z</time>
      </trkpt>
      <trkpt lat="43.82733" lon="6.71154">
        <ele>1601</ele>
        <time>2018-04-27T09:57:58Z</time>
      </trkpt>
      <trkpt lat="43.82733" lon="6.71147">
        <ele>1600</ele>
        <time>2018-04-27T09:58:00Z</time>
      </trkpt>
      <trkpt lat="43.82733" lon="6.7114">
        <ele>1599</ele>
        <time>2018-04-27T09:58:02Z</time>
      </trkpt>
      <trkpt lat="43.82732" lon="6.71133">
        <ele>1599</ele>
        <time>2018-04-27T09:58:04Z</time>
      </trkpt>
      <trkpt lat="43.82733" lon="6.71126">
        <ele>1599</ele>
        <time>2018-04-27T09:58:06Z</time>
      </trkpt>
      <trkpt lat="43.82735" lon="6.71118">
        <ele>1599</ele>
        <time>2018-04-27T09:58:08Z</time>
      </trkpt>
      <trkpt lat="43.82734" lon="6.71111">
        <ele>1599</ele>
        <time>2018-04-27T09:58:10Z</time>
      </trkpt>
      <trkpt lat="43.82731" lon="6.71107">
        <ele>1599</ele>
        <time>2018-04-27T09:58:12Z</time>
      </trkpt>
      <trkpt lat="43.82727" lon="6.71099">
        <ele>1599</ele>
        <time>2018-04-27T09:58:15Z</time>
      </trkpt>
      <trkpt lat="43.82723" lon="6.71093">
        <ele>1598</ele>
        <time>2018-04-27T09:58:17Z</time>
      </trkpt>
      <trkpt lat="43.8272" lon="6.71088">
        <ele>1598</ele>
        <time>2018-04-27T09:58:19Z</time>
      </trkpt>
      <trkpt lat="43.82715" lon="6.71079">
        <ele>1598</ele>
        <time>2018-04-27T09:58:21Z</time>
      </trkpt>
      <trkpt lat="43.82709" lon="6.7107">
        <ele>1597</ele>
        <time>2018-04-27T09:58:23Z</time>
      </trkpt>
      <trkpt lat="43.82705" lon="6.71064">
        <ele>1596</ele>
        <time>2018-04-27T09:58:24Z</time>
      </trkpt>
      <trkpt lat="43.82702" lon="6.71057">
        <ele>1595</ele>
        <time>2018-04-27T09:58:25Z</time>
      </trkpt>
      <trkpt lat="43.82698" lon="6.7105">
        <ele>1594</ele>
        <time>2018-04-27T09:58:26Z</time>
      </trkpt>
      <trkpt lat="43.82696" lon="6.71042">
        <ele>1593</ele>
        <time>2018-04-27T09:58:27Z</time>
      </trkpt>
      <trkpt lat="43.82694" lon="6.71035">
        <ele>1592</ele>
        <time>2018-04-27T09:58:28Z</time>
      </trkpt>
      <trkpt lat="43.82692" lon="6.71028">
        <ele>1592</ele>
        <time>2018-04-27T09:58:29Z</time>
      </trkpt>
      <trkpt lat="43.82688" lon="6.71021">
        <ele>1592</ele>
        <time>2018-04-27T09:58:31Z</time>
      </trkpt>
      <trkpt lat="43.82684" lon="6.71016">
        <ele>1592</ele>
        <time>2018-04-27T09:58:34Z</time>
      </trkpt>
      <trkpt lat="43.82681" lon="6.7101">
        <ele>1592</ele>
        <time>2018-04-27T09:58:37Z</time>
      </trkpt>
      <trkpt lat="43.8268" lon="6.71001">
        <ele>1591</ele>
        <time>2018-04-27T09:58:40Z</time>
      </trkpt>
      <trkpt lat="43.82681" lon="6.70992">
        <ele>1590</ele>
        <time>2018-04-27T09:58:42Z</time>
      </trkpt>
      <trkpt lat="43.82681" lon="6.70981">
        <ele>1589</ele>
        <time>2018-04-27T09:58:44Z</time>
      </trkpt>
      <trkpt lat="43.82679" lon="6.70971">
        <ele>1588</ele>
        <time>2018-04-27T09:58:46Z</time>
      </trkpt>
      <trkpt lat="43.82678" lon="6.70964">
        <ele>1587</ele>
        <time>2018-04-27T09:58:48Z</time>
      </trkpt>
      <trkpt lat="43.82676" lon="6.70958">
        <ele>1585</ele>
        <time>2018-04-27T09:58:50Z</time>
      </trkpt>
      <trkpt lat="43.82675" lon="6.70951">
        <ele>1584</ele>
        <time>2018-04-27T09:58:52Z</time>
      </trkpt>
      <trkpt lat="43.82675" lon="6.70943">
        <ele>1583</ele>
        <time>2018-04-27T09:58:54Z</time>
      </trkpt>
      <trkpt lat="43.82673" lon="6.70937">
        <ele>1582</ele>
        <time>2018-04-27T09:58:56Z</time>
      </trkpt>
      <trkpt lat="43.82669" lon="6.70933">
        <ele>1581</ele>
        <time>2018-04-27T09:58:58Z</time>
      </trkpt>
      <trkpt lat="43.82666" lon="6.70925">
        <ele>1580</ele>
        <time>2018-04-27T09:59:00Z</time>
      </trkpt>
      <trkpt lat="43.82661" lon="6.70919">
        <ele>1578</ele>
        <time>2018-04-27T09:59:02Z</time>
      </trkpt>
      <trkpt lat="43.82656" lon="6.70912">
        <ele>1577</ele>
        <time>2018-04-27T09:59:04Z</time>
      </trkpt>
      <trkpt lat="43.8265" lon="6.70903">
        <ele>1575</ele>
        <time>2018-04-27T09:59:06Z</time>
      </trkpt>
      <trkpt lat="43.82645" lon="6.709">
        <ele>1574</ele>
        <time>2018-04-27T09:59:07Z</time>
      </trkpt>
      <trkpt lat="43.82641" lon="6.70895">
        <ele>1573</ele>
        <time>2018-04-27T09:59:08Z</time>
      </trkpt>
      <trkpt lat="43.82638" lon="6.70889">
        <ele>1572</ele>
        <time>2018-04-27T09:59:09Z</time>
      </trkpt>
      <trkpt lat="43.82636" lon="6.70882">
        <ele>1571</ele>
        <time>2018-04-27T09:59:10Z</time>
      </trkpt>
      <trkpt lat="43.82632" lon="6.70874">
        <ele>1571</ele>
        <time>2018-04-27T09:59:12Z</time>
      </trkpt>
      <trkpt lat="43.82634" lon="6.70865">
        <ele>1571</ele>
        <time>2018-04-27T09:59:23Z</time>
      </trkpt>
      <trkpt lat="43.82638" lon="6.7086">
        <ele>1570</ele>
        <time>2018-04-27T09:59:26Z</time>
      </trkpt>
      <trkpt lat="43.82634" lon="6.70855">
        <ele>1570</ele>
        <time>2018-04-27T09:59:30Z</time>
      </trkpt>
      <trkpt lat="43.82636" lon="6.70847">
        <ele>1570</ele>
        <time>2018-04-27T09:59:34Z</time>
      </trkpt>
      <trkpt lat="43.82634" lon="6.7084">
        <ele>1570</ele>
        <time>2018-04-27T09:59:37Z</time>
      </trkpt>
      <trkpt lat="43.82633" lon="6.70834">
        <ele>1570</ele>
        <time>2018-04-27T09:59:40Z</time>
      </trkpt>
      <trkpt lat="43.82638" lon="6.7083">
        <ele>1570</ele>
        <time>2018-04-27T09:59:43Z</time>
      </trkpt>
      <trkpt lat="43.82642" lon="6.70824">
        <ele>1571</ele>
        <time>2018-04-27T09:59:47Z</time>
      </trkpt>
      <trkpt lat="43.82644" lon="6.70815">
        <ele>1571</ele>
        <time>2018-04-27T09:59:50Z</time>
      </trkpt>
      <trkpt lat="43.82643" lon="6.70807">
        <ele>1572</ele>
        <time>2018-04-27T09:59:53Z</time>
      </trkpt>
      <trkpt lat="43.82642" lon="6.70799">
        <ele>1572</ele>
        <time>2018-04-27T09:59:56Z</time>
      </trkpt>
      <trkpt lat="43.82642" lon="6.70792">
        <ele>1573</ele>
        <time>2018-04-27T09:59:59Z</time>
      </trkpt>
      <trkpt lat="43.82642" lon="6.70785">
        <ele>1573</ele>
        <time>2018-04-27T10:00:02Z</time>
      </trkpt>
      <trkpt lat="43.82638" lon="6.70781">
        <ele>1573</ele>
        <time>2018-04-27T10:00:05Z</time>
      </trkpt>
      <trkpt lat="43.82635" lon="6.70775">
        <ele>1573</ele>
        <time>2018-04-27T10:00:09Z</time>
      </trkpt>
      <trkpt lat="43.82629" lon="6.70769">
        <ele>1573</ele>
        <time>2018-04-27T10:00:13Z</time>
      </trkpt>
      <trkpt lat="43.82625" lon="6.70764">
        <ele>1572</ele>
        <time>2018-04-27T10:00:15Z</time>
      </trkpt>
      <trkpt lat="43.82623" lon="6.70756">
        <ele>1572</ele>
        <time>2018-04-27T10:00:17Z</time>
      </trkpt>
      <trkpt lat="43.82618" lon="6.70749">
        <ele>1571</ele>
        <time>2018-04-27T10:00:19Z</time>
      </trkpt>
      <trkpt lat="43.82613" lon="6.70742">
        <ele>1570</ele>
        <time>2018-04-27T10:00:21Z</time>
      </trkpt>
      <trkpt lat="43.82608" lon="6.70737">
        <ele>1569</ele>
        <time>2018-04-27T10:00:23Z</time>
      </trkpt>
      <trkpt lat="43.82604" lon="6.7073">
        <ele>1568</ele>
        <time>2018-04-27T10:00:25Z</time>
      </trkpt>
      <trkpt lat="43.82599" lon="6.70725">
        <ele>1567</ele>
        <time>2018-04-27T10:00:27Z</time>
      </trkpt>
      <trkpt lat="43.82592" lon="6.7072">
        <ele>1567</ele>
        <time>2018-04-27T10:00:29Z</time>
      </trkpt>
      <trkpt lat="43.82588" lon="6.70713">
        <ele>1566</ele>
        <time>2018-04-27T10:00:31Z</time>
      </trkpt>
      <trkpt lat="43.82586" lon="6.70706">
        <ele>1566</ele>
        <time>2018-04-27T10:00:38Z</time>
      </trkpt>
      <trkpt lat="43.82583" lon="6.70699">
        <ele>1565</ele>
        <time>2018-04-27T10:00:41Z</time>
      </trkpt>
      <trkpt lat="43.82579" lon="6.70694">
        <ele>1565</ele>
        <time>2018-04-27T10:00:44Z</time>
      </trkpt>
      <trkpt lat="43.82573" lon="6.7069">
        <ele>1564</ele>
        <time>2018-04-27T10:00:47Z</time>
      </trkpt>
      <trkpt lat="43.8257" lon="6.70685">
        <ele>1564</ele>
        <time>2018-04-27T10:00:49Z</time>
      </trkpt>
      <trkpt lat="43.82568" lon="6.70677">
        <ele>1563</ele>
        <time>2018-04-27T10:00:51Z</time>
      </trkpt>
      <trkpt lat="43.82569" lon="6.7067">
        <ele>1562</ele>
        <time>2018-04-27T10:00:54Z</time>
      </trkpt>
      <trkpt lat="43.82572" lon="6.70663">
        <ele>1561</ele>
        <time>2018-04-27T10:01:10Z</time>
      </trkpt>
      <trkpt lat="43.82577" lon="6.70659">
        <ele>1561</ele>
        <time>2018-04-27T10:01:13Z</time>
      </trkpt>
      <trkpt lat="43.82581" lon="6.70655">
        <ele>1561</ele>
        <time>2018-04-27T10:01:16Z</time>
      </trkpt>
      <trkpt lat="43.82582" lon="6.70648">
        <ele>1560</ele>
        <time>2018-04-27T10:01:18Z</time>
      </trkpt>
      <trkpt lat="43.82578" lon="6.70642">
        <ele>1560</ele>
        <time>2018-04-27T10:01:20Z</time>
      </trkpt>
      <trkpt lat="43.82576" lon="6.70634">
        <ele>1560</ele>
        <time>2018-04-27T10:01:22Z</time>
      </trkpt>
      <trkpt lat="43.82573" lon="6.70629">
        <ele>1559</ele>
        <time>2018-04-27T10:01:24Z</time>
      </trkpt>
      <trkpt lat="43.8257" lon="6.70622">
        <ele>1558</ele>
        <time>2018-04-27T10:01:26Z</time>
      </trkpt>
      <trkpt lat="43.82565" lon="6.70617">
        <ele>1557</ele>
        <time>2018-04-27T10:01:28Z</time>
      </trkpt>
      <trkpt lat="43.82561" lon="6.7061">
        <ele>1556</ele>
        <time>2018-04-27T10:01:31Z</time>
      </trkpt>
      <trkpt lat="43.82558" lon="6.70603">
        <ele>1555</ele>
        <time>2018-04-27T10:01:33Z</time>
      </trkpt>
      <trkpt lat="43.82556" lon="6.70597">
        <ele>1554</ele>
        <time>2018-04-27T10:01:35Z</time>
      </trkpt>
      <trkpt lat="43.82552" lon="6.7059">
        <ele>1553</ele>
        <time>2018-04-27T10:01:37Z</time>
      </trkpt>
      <trkpt lat="43.8255" lon="6.70583">
        <ele>1552</ele>
        <time>2018-04-27T10:01:39Z</time>
      </trkpt>
      <trkpt lat="43.82546" lon="6.70579">
        <ele>1552</ele>
        <time>2018-04-27T10:01:45Z</time>
      </trkpt>
      <trkpt lat="43.82545" lon="6.70572">
        <ele>1551</ele>
        <time>2018-04-27T10:01:47Z</time>
      </trkpt>
      <trkpt lat="43.82546" lon="6.70564">
        <ele>1550</ele>
        <time>2018-04-27T10:01:49Z</time>
      </trkpt>
      <trkpt lat="43.82546" lon="6.70556">
        <ele>1550</ele>
        <time>2018-04-27T10:01:51Z</time>
      </trkpt>
      <trkpt lat="43.82545" lon="6.70546">
        <ele>1549</ele>
        <time>2018-04-27T10:01:53Z</time>
      </trkpt>
      <trkpt lat="43.82546" lon="6.70537">
        <ele>1548</ele>
        <time>2018-04-27T10:01:55Z</time>
      </trkpt>
      <trkpt lat="43.82547" lon="6.70529">
        <ele>1547</ele>
        <time>2018-04-27T10:01:58Z</time>
      </trkpt>
      <trkpt lat="43.82547" lon="6.70524">
        <ele>1545</ele>
        <time>2018-04-27T10:02:15Z</time>
      </trkpt>
      <trkpt lat="43.82548" lon="6.70521">
        <ele>1544</ele>
        <time>2018-04-27T10:02:18Z</time>
      </trkpt>
      <trkpt lat="43.82551" lon="6.70515">
        <ele>1543</ele>
        <time>2018-04-27T10:02:19Z</time>
      </trkpt>
      <trkpt lat="43.82555" lon="6.70507">
        <ele>1542</ele>
        <time>2018-04-27T10:02:21Z</time>
      </trkpt>
      <trkpt lat="43.82557" lon="6.70498">
        <ele>1541</ele>
        <time>2018-04-27T10:02:24Z</time>
      </trkpt>
      <trkpt lat="43.82559" lon="6.7049">
        <ele>1540</ele>
        <time>2018-04-27T10:02:27Z</time>
      </trkpt>
      <trkpt lat="43.82558" lon="6.70481">
        <ele>1538</ele>
        <time>2018-04-27T10:02:30Z</time>
      </trkpt>
      <trkpt lat="43.82558" lon="6.70473">
        <ele>1537</ele>
        <time>2018-04-27T10:02:32Z</time>
      </trkpt>
      <trkpt lat="43.82555" lon="6.70466">
        <ele>1536</ele>
        <time>2018-04-27T10:02:34Z</time>
      </trkpt>
      <trkpt lat="43.8255" lon="6.70458">
        <ele>1535</ele>
        <time>2018-04-27T10:02:36Z</time>
      </trkpt>
      <trkpt lat="43.82547" lon="6.70454">
        <ele>1534</ele>
        <time>2018-04-27T10:02:37Z</time>
      </trkpt>
      <trkpt lat="43.82544" lon="6.70448">
        <ele>1533</ele>
        <time>2018-04-27T10:02:38Z</time>
      </trkpt>
      <trkpt lat="43.82541" lon="6.70443">
        <ele>1532</ele>
        <time>2018-04-27T10:02:39Z</time>
      </trkpt>
      <trkpt lat="43.82535" lon="6.70441">
        <ele>1531</ele>
        <time>2018-04-27T10:02:40Z</time>
      </trkpt>
      <trkpt lat="43.82529" lon="6.70436">
        <ele>1530</ele>
        <time>2018-04-27T10:02:42Z</time>
      </trkpt>
      <trkpt lat="43.82525" lon="6.70432">
        <ele>1530</ele>
        <time>2018-04-27T10:02:44Z</time>
      </trkpt>
      <trkpt lat="43.82521" lon="6.70426">
        <ele>1529</ele>
        <time>2018-04-27T10:02:47Z</time>
      </trkpt>
      <trkpt lat="43.82516" lon="6.70421">
        <ele>1529</ele>
        <time>2018-04-27T10:02:50Z</time>
      </trkpt>
      <trkpt lat="43.8251" lon="6.7042">
        <ele>1529</ele>
        <time>2018-04-27T10:02:53Z</time>
      </trkpt>
      <trkpt lat="43.82505" lon="6.70423">
        <ele>1529</ele>
        <time>2018-04-27T10:02:56Z</time>
      </trkpt>
      <trkpt lat="43.82503" lon="6.70431">
        <ele>1530</ele>
        <time>2018-04-27T10:02:59Z</time>
      </trkpt>
      <trkpt lat="43.82499" lon="6.70435">
        <ele>1530</ele>
        <time>2018-04-27T10:03:02Z</time>
      </trkpt>
      <trkpt lat="43.82495" lon="6.70439">
        <ele>1531</ele>
        <time>2018-04-27T10:03:04Z</time>
      </trkpt>
      <trkpt lat="43.82489" lon="6.70444">
        <ele>1531</ele>
        <time>2018-04-27T10:03:07Z</time>
      </trkpt>
      <trkpt lat="43.82485" lon="6.70448">
        <ele>1531</ele>
        <time>2018-04-27T10:03:09Z</time>
      </trkpt>
      <trkpt lat="43.8248" lon="6.70452">
        <ele>1531</ele>
        <time>2018-04-27T10:03:11Z</time>
      </trkpt>
      <trkpt lat="43.82476" lon="6.70456">
        <ele>1531</ele>
        <time>2018-04-27T10:03:13Z</time>
      </trkpt>
      <trkpt lat="43.82471" lon="6.70463">
        <ele>1530</ele>
        <time>2018-04-27T10:03:16Z</time>
      </trkpt>
      <trkpt lat="43.82468" lon="6.70471">
        <ele>1530</ele>
        <time>2018-04-27T10:03:19Z</time>
      </trkpt>
      <trkpt lat="43.82465" lon="6.70479">
        <ele>1530</ele>
        <time>2018-04-27T10:03:22Z</time>
      </trkpt>
      <trkpt lat="43.82463" lon="6.70489">
        <ele>1530</ele>
        <time>2018-04-27T10:03:25Z</time>
      </trkpt>
      <trkpt lat="43.82462" lon="6.70496">
        <ele>1531</ele>
        <time>2018-04-27T10:03:28Z</time>
      </trkpt>
      <trkpt lat="43.82461" lon="6.70502">
        <ele>1531</ele>
        <time>2018-04-27T10:03:30Z</time>
      </trkpt>
      <trkpt lat="43.8246" lon="6.7051">
        <ele>1531</ele>
        <time>2018-04-27T10:03:32Z</time>
      </trkpt>
      <trkpt lat="43.82459" lon="6.70517">
        <ele>1531</ele>
        <time>2018-04-27T10:03:34Z</time>
      </trkpt>
      <trkpt lat="43.82457" lon="6.70523">
        <ele>1531</ele>
        <time>2018-04-27T10:03:36Z</time>
      </trkpt>
      <trkpt lat="43.82454" lon="6.70529">
        <ele>1531</ele>
        <time>2018-04-27T10:03:38Z</time>
      </trkpt>
      <trkpt lat="43.82453" lon="6.70536">
        <ele>1531</ele>
        <time>2018-04-27T10:03:40Z</time>
      </trkpt>
      <trkpt lat="43.82451" lon="6.70542">
        <ele>1531</ele>
        <time>2018-04-27T10:03:42Z</time>
      </trkpt>
      <trkpt lat="43.82447" lon="6.7055">
        <ele>1531</ele>
        <time>2018-04-27T10:03:44Z</time>
      </trkpt>
      <trkpt lat="43.82444" lon="6.70557">
        <ele>1530</ele>
        <time>2018-04-27T10:03:46Z</time>
      </trkpt>
      <trkpt lat="43.82441" lon="6.70565">
        <ele>1529</ele>
        <time>2018-04-27T10:03:48Z</time>
      </trkpt>
      <trkpt lat="43.82437" lon="6.70573">
        <ele>1528</ele>
        <time>2018-04-27T10:03:50Z</time>
      </trkpt>
      <trkpt lat="43.82433" lon="6.70579">
        <ele>1527</ele>
        <time>2018-04-27T10:03:52Z</time>
      </trkpt>
      <trkpt lat="43.8243" lon="6.70585">
        <ele>1526</ele>
        <time>2018-04-27T10:03:54Z</time>
      </trkpt>
      <trkpt lat="43.82423" lon="6.70592">
        <ele>1525</ele>
        <time>2018-04-27T10:03:56Z</time>
      </trkpt>
      <trkpt lat="43.82415" lon="6.70595">
        <ele>1525</ele>
        <time>2018-04-27T10:03:58Z</time>
      </trkpt>
      <trkpt lat="43.8241" lon="6.70596">
        <ele>1524</ele>
        <time>2018-04-27T10:03:59Z</time>
      </trkpt>
      <trkpt lat="43.82401" lon="6.706">
        <ele>1524</ele>
        <time>2018-04-27T10:04:01Z</time>
      </trkpt>
      <trkpt lat="43.82397" lon="6.70606">
        <ele>1523</ele>
        <time>2018-04-27T10:04:02Z</time>
      </trkpt>
      <trkpt lat="43.82393" lon="6.70611">
        <ele>1522</ele>
        <time>2018-04-27T10:04:03Z</time>
      </trkpt>
      <trkpt lat="43.82389" lon="6.70618">
        <ele>1521</ele>
        <time>2018-04-27T10:04:04Z</time>
      </trkpt>
      <trkpt lat="43.82383" lon="6.70626">
        <ele>1520</ele>
        <time>2018-04-27T10:04:06Z</time>
      </trkpt>
      <trkpt lat="43.82377" lon="6.70628">
        <ele>1520</ele>
        <time>2018-04-27T10:04:08Z</time>
      </trkpt>
      <trkpt lat="43.82374" lon="6.70636">
        <ele>1519</ele>
        <time>2018-04-27T10:04:11Z</time>
      </trkpt>
      <trkpt lat="43.8237" lon="6.70642">
        <ele>1518</ele>
        <time>2018-04-27T10:04:13Z</time>
      </trkpt>
      <trkpt lat="43.82366" lon="6.70648">
        <ele>1518</ele>
        <time>2018-04-27T10:04:15Z</time>
      </trkpt>
      <trkpt lat="43.82362" lon="6.70653">
        <ele>1517</ele>
        <time>2018-04-27T10:04:17Z</time>
      </trkpt>
      <trkpt lat="43.82358" lon="6.7066">
        <ele>1517</ele>
        <time>2018-04-27T10:04:19Z</time>
      </trkpt>
      <trkpt lat="43.82355" lon="6.70667">
        <ele>1516</ele>
        <time>2018-04-27T10:04:21Z</time>
      </trkpt>
      <trkpt lat="43.82351" lon="6.70676">
        <ele>1516</ele>
        <time>2018-04-27T10:04:23Z</time>
      </trkpt>
      <trkpt lat="43.82348" lon="6.70685">
        <ele>1516</ele>
        <time>2018-04-27T10:04:25Z</time>
      </trkpt>
      <trkpt lat="43.82348" lon="6.70694">
        <ele>1517</ele>
        <time>2018-04-27T10:04:27Z</time>
      </trkpt>
      <trkpt lat="43.82346" lon="6.70703">
        <ele>1517</ele>
        <time>2018-04-27T10:04:29Z</time>
      </trkpt>
      <trkpt lat="43.82346" lon="6.70712">
        <ele>1517</ele>
        <time>2018-04-27T10:04:31Z</time>
      </trkpt>
      <trkpt lat="43.82346" lon="6.70722">
        <ele>1517</ele>
        <time>2018-04-27T10:04:33Z</time>
      </trkpt>
      <trkpt lat="43.82348" lon="6.70732">
        <ele>1517</ele>
        <time>2018-04-27T10:04:35Z</time>
      </trkpt>
      <trkpt lat="43.82351" lon="6.70744">
        <ele>1516</ele>
        <time>2018-04-27T10:04:37Z</time>
      </trkpt>
      <trkpt lat="43.82352" lon="6.70752">
        <ele>1515</ele>
        <time>2018-04-27T10:04:39Z</time>
      </trkpt>
      <trkpt lat="43.82356" lon="6.70763">
        <ele>1515</ele>
        <time>2018-04-27T10:04:41Z</time>
      </trkpt>
      <trkpt lat="43.82358" lon="6.70776">
        <ele>1514</ele>
        <time>2018-04-27T10:04:43Z</time>
      </trkpt>
      <trkpt lat="43.82359" lon="6.70783">
        <ele>1513</ele>
        <time>2018-04-27T10:04:44Z</time>
      </trkpt>
      <trkpt lat="43.82361" lon="6.70788">
        <ele>1512</ele>
        <time>2018-04-27T10:04:45Z</time>
      </trkpt>
      <trkpt lat="43.82364" lon="6.70796">
        <ele>1511</ele>
        <time>2018-04-27T10:04:47Z</time>
      </trkpt>
      <trkpt lat="43.82365" lon="6.70802">
        <ele>1510</ele>
        <time>2018-04-27T10:04:48Z</time>
      </trkpt>
      <trkpt lat="43.82369" lon="6.70811">
        <ele>1510</ele>
        <time>2018-04-27T10:04:50Z</time>
      </trkpt>
      <trkpt lat="43.82369" lon="6.70819">
        <ele>1509</ele>
        <time>2018-04-27T10:04:53Z</time>
      </trkpt>
      <trkpt lat="43.8237" lon="6.70827">
        <ele>1507</ele>
        <time>2018-04-27T10:04:56Z</time>
      </trkpt>
      <trkpt lat="43.8237" lon="6.70834">
        <ele>1505</ele>
        <time>2018-04-27T10:04:58Z</time>
      </trkpt>
      <trkpt lat="43.82375" lon="6.70838">
        <ele>1503</ele>
        <time>2018-04-27T10:05:00Z</time>
      </trkpt>
      <trkpt lat="43.8238" lon="6.70843">
        <ele>1501</ele>
        <time>2018-04-27T10:05:02Z</time>
      </trkpt>
      <trkpt lat="43.82384" lon="6.70847">
        <ele>1498</ele>
        <time>2018-04-27T10:05:04Z</time>
      </trkpt>
      <trkpt lat="43.82388" lon="6.70854">
        <ele>1495</ele>
        <time>2018-04-27T10:05:07Z</time>
      </trkpt>
      <trkpt lat="43.82391" lon="6.70858">
        <ele>1493</ele>
        <time>2018-04-27T10:05:09Z</time>
      </trkpt>
      <trkpt lat="43.82394" lon="6.70864">
        <ele>1490</ele>
        <time>2018-04-27T10:05:12Z</time>
      </trkpt>
      <trkpt lat="43.82397" lon="6.70872">
        <ele>1488</ele>
        <time>2018-04-27T10:05:15Z</time>
      </trkpt>
      <trkpt lat="43.82399" lon="6.7088">
        <ele>1486</ele>
        <time>2018-04-27T10:05:18Z</time>
      </trkpt>
      <trkpt lat="43.824" lon="6.70889">
        <ele>1484</ele>
        <time>2018-04-27T10:05:21Z</time>
      </trkpt>
      <trkpt lat="43.82402" lon="6.70894">
        <ele>1482</ele>
        <time>2018-04-27T10:05:43Z</time>
      </trkpt>
      <trkpt lat="43.82401" lon="6.70903">
        <ele>1480</ele>
        <time>2018-04-27T10:05:50Z</time>
      </trkpt>
      <trkpt lat="43.82399" lon="6.70911">
        <ele>1478</ele>
        <time>2018-04-27T10:05:54Z</time>
      </trkpt>
      <trkpt lat="43.82397" lon="6.70918">
        <ele>1476</ele>
        <time>2018-04-27T10:05:57Z</time>
      </trkpt>
      <trkpt lat="43.82395" lon="6.70921">
        <ele>1474</ele>
        <time>2018-04-27T10:06:15Z</time>
      </trkpt>
      <trkpt lat="43.82394" lon="6.70921">
        <ele>1472</ele>
        <time>2018-04-27T10:06:18Z</time>
      </trkpt>
      <trkpt lat="43.82396" lon="6.70922">
        <ele>1470</ele>
        <time>2018-04-27T10:06:45Z</time>
      </trkpt>
      <trkpt lat="43.82396" lon="6.70922">
        <ele>1469</ele>
        <time>2018-04-27T10:06:48Z</time>
      </trkpt>
      <trkpt lat="43.82396" lon="6.70922">
        <ele>1469</ele>
        <time>2018-04-27T10:07:15Z</time>
      </trkpt>
      <trkpt lat="43.82396" lon="6.70922">
        <ele>1469</ele>
        <time>2018-04-27T10:07:18Z</time>
      </trkpt>
      <trkpt lat="43.82396" lon="6.70922">
        <ele>1470</ele>
        <time>2018-04-27T10:07:45Z</time>
      </trkpt>
      <trkpt lat="43.82396" lon="6.70922">
        <ele>1470</ele>
        <time>2018-04-27T10:07:48Z</time>
      </trkpt>
      <trkpt lat="43.82391" lon="6.70916">
        <ele>1469</ele>
        <time>2018-04-27T10:07:56Z</time>
      </trkpt>
      <trkpt lat="43.82386" lon="6.70913">
        <ele>1468</ele>
        <time>2018-04-27T10:08:00Z</time>
      </trkpt>
      <trkpt lat="43.82388" lon="6.70914">
        <ele>1468</ele>
        <time>2018-04-27T10:08:15Z</time>
      </trkpt>
      <trkpt lat="43.82388" lon="6.70914">
        <ele>1467</ele>
        <time>2018-04-27T10:08:18Z</time>
      </trkpt>
      <trkpt lat="43.82388" lon="6.70914">
        <ele>1467</ele>
        <time>2018-04-27T10:08:45Z</time>
      </trkpt>
      <trkpt lat="43.82388" lon="6.70914">
        <ele>1467</ele>
        <time>2018-04-27T10:08:48Z</time>
      </trkpt>
      <trkpt lat="43.82383" lon="6.70911">
        <ele>1467</ele>
        <time>2018-04-27T10:09:02Z</time>
      </trkpt>
      <trkpt lat="43.82378" lon="6.70905">
        <ele>1467</ele>
        <time>2018-04-27T10:09:05Z</time>
      </trkpt>
      <trkpt lat="43.82377" lon="6.70906">
        <ele>1466</ele>
        <time>2018-04-27T10:09:30Z</time>
      </trkpt>
      <trkpt lat="43.82377" lon="6.70906">
        <ele>1465</ele>
        <time>2018-04-27T10:09:33Z</time>
      </trkpt>
      <trkpt lat="43.82377" lon="6.70906">
        <ele>1464</ele>
        <time>2018-04-27T10:10:00Z</time>
      </trkpt>
      <trkpt lat="43.82377" lon="6.70906">
        <ele>1463</ele>
        <time>2018-04-27T10:10:03Z</time>
      </trkpt>
      <trkpt lat="43.82377" lon="6.70915">
        <ele>1462</ele>
        <time>2018-04-27T10:10:13Z</time>
      </trkpt>
      <trkpt lat="43.82377" lon="6.70923">
        <ele>1461</ele>
        <time>2018-04-27T10:10:16Z</time>
      </trkpt>
      <trkpt lat="43.82376" lon="6.70931">
        <ele>1459</ele>
        <time>2018-04-27T10:10:19Z</time>
      </trkpt>
      <trkpt lat="43.82378" lon="6.70939">
        <ele>1457</ele>
        <time>2018-04-27T10:10:22Z</time>
      </trkpt>
      <trkpt lat="43.82378" lon="6.70945">
        <ele>1456</ele>
        <time>2018-04-27T10:10:32Z</time>
      </trkpt>
      <trkpt lat="43.82381" lon="6.7095">
        <ele>1454</ele>
        <time>2018-04-27T10:10:38Z</time>
      </trkpt>
      <trkpt lat="43.82385" lon="6.70955">
        <ele>1453</ele>
        <time>2018-04-27T10:10:41Z</time>
      </trkpt>
      <trkpt lat="43.82388" lon="6.70961">
        <ele>1452</ele>
        <time>2018-04-27T10:10:44Z</time>
      </trkpt>
      <trkpt lat="43.8239" lon="6.70969">
        <ele>1451</ele>
        <time>2018-04-27T10:10:47Z</time>
      </trkpt>
      <trkpt lat="43.82392" lon="6.70977">
        <ele>1450</ele>
        <time>2018-04-27T10:10:50Z</time>
      </trkpt>
      <trkpt lat="43.82394" lon="6.70983">
        <ele>1449</ele>
        <time>2018-04-27T10:10:52Z</time>
      </trkpt>
      <trkpt lat="43.82395" lon="6.7099">
        <ele>1448</ele>
        <time>2018-04-27T10:10:54Z</time>
      </trkpt>
      <trkpt lat="43.82397" lon="6.70999">
        <ele>1447</ele>
        <time>2018-04-27T10:10:57Z</time>
      </trkpt>
      <trkpt lat="43.82397" lon="6.71005">
        <ele>1446</ele>
        <time>2018-04-27T10:10:59Z</time>
      </trkpt>
      <trkpt lat="43.82396" lon="6.71012">
        <ele>1445</ele>
        <time>2018-04-27T10:11:01Z</time>
      </trkpt>
      <trkpt lat="43.82397" lon="6.71021">
        <ele>1444</ele>
        <time>2018-04-27T10:11:03Z</time>
      </trkpt>
      <trkpt lat="43.82396" lon="6.71028">
        <ele>1443</ele>
        <time>2018-04-27T10:11:05Z</time>
      </trkpt>
      <trkpt lat="43.82394" lon="6.71034">
        <ele>1442</ele>
        <time>2018-04-27T10:11:07Z</time>
      </trkpt>
      <trkpt lat="43.8239" lon="6.71036">
        <ele>1440</ele>
        <time>2018-04-27T10:11:13Z</time>
      </trkpt>
      <trkpt lat="43.82386" lon="6.71032">
        <ele>1439</ele>
        <time>2018-04-27T10:11:15Z</time>
      </trkpt>
      <trkpt lat="43.82381" lon="6.71028">
        <ele>1438</ele>
        <time>2018-04-27T10:11:17Z</time>
      </trkpt>
      <trkpt lat="43.82375" lon="6.71023">
        <ele>1437</ele>
        <time>2018-04-27T10:11:20Z</time>
      </trkpt>
      <trkpt lat="43.82372" lon="6.71019">
        <ele>1436</ele>
        <time>2018-04-27T10:11:22Z</time>
      </trkpt>
      <trkpt lat="43.82369" lon="6.71023">
        <ele>1435</ele>
        <time>2018-04-27T10:11:27Z</time>
      </trkpt>
      <trkpt lat="43.8237" lon="6.7103">
        <ele>1434</ele>
        <time>2018-04-27T10:11:30Z</time>
      </trkpt>
      <trkpt lat="43.82373" lon="6.71038">
        <ele>1433</ele>
        <time>2018-04-27T10:11:32Z</time>
      </trkpt>
      <trkpt lat="43.82375" lon="6.71046">
        <ele>1432</ele>
        <time>2018-04-27T10:11:34Z</time>
      </trkpt>
      <trkpt lat="43.82376" lon="6.71054">
        <ele>1431</ele>
        <time>2018-04-27T10:11:36Z</time>
      </trkpt>
      <trkpt lat="43.82375" lon="6.71061">
        <ele>1431</ele>
        <time>2018-04-27T10:11:38Z</time>
      </trkpt>
      <trkpt lat="43.82369" lon="6.71063">
        <ele>1431</ele>
        <time>2018-04-27T10:11:41Z</time>
      </trkpt>
      <trkpt lat="43.82364" lon="6.71061">
        <ele>1430</ele>
        <time>2018-04-27T10:11:43Z</time>
      </trkpt>
      <trkpt lat="43.82361" lon="6.71067">
        <ele>1430</ele>
        <time>2018-04-27T10:11:47Z</time>
      </trkpt>
      <trkpt lat="43.82362" lon="6.71076">
        <ele>1429</ele>
        <time>2018-04-27T10:11:50Z</time>
      </trkpt>
      <trkpt lat="43.82362" lon="6.71083">
        <ele>1428</ele>
        <time>2018-04-27T10:11:53Z</time>
      </trkpt>
      <trkpt lat="43.82363" lon="6.71093">
        <ele>1427</ele>
        <time>2018-04-27T10:11:56Z</time>
      </trkpt>
      <trkpt lat="43.82366" lon="6.71104">
        <ele>1426</ele>
        <time>2018-04-27T10:11:58Z</time>
      </trkpt>
      <trkpt lat="43.82369" lon="6.71114">
        <ele>1425</ele>
        <time>2018-04-27T10:12:00Z</time>
      </trkpt>
      <trkpt lat="43.82372" lon="6.71121">
        <ele>1424</ele>
        <time>2018-04-27T10:12:02Z</time>
      </trkpt>
      <trkpt lat="43.82375" lon="6.71128">
        <ele>1423</ele>
        <time>2018-04-27T10:12:04Z</time>
      </trkpt>
      <trkpt lat="43.82376" lon="6.71136">
        <ele>1422</ele>
        <time>2018-04-27T10:12:05Z</time>
      </trkpt>
      <trkpt lat="43.82378" lon="6.71142">
        <ele>1421</ele>
        <time>2018-04-27T10:12:06Z</time>
      </trkpt>
      <trkpt lat="43.82381" lon="6.71149">
        <ele>1420</ele>
        <time>2018-04-27T10:12:07Z</time>
      </trkpt>
      <trkpt lat="43.82383" lon="6.71155">
        <ele>1419</ele>
        <time>2018-04-27T10:12:08Z</time>
      </trkpt>
      <trkpt lat="43.82384" lon="6.71162">
        <ele>1418</ele>
        <time>2018-04-27T10:12:09Z</time>
      </trkpt>
      <trkpt lat="43.82385" lon="6.7117">
        <ele>1417</ele>
        <time>2018-04-27T10:12:10Z</time>
      </trkpt>
      <trkpt lat="43.82385" lon="6.71177">
        <ele>1417</ele>
        <time>2018-04-27T10:12:11Z</time>
      </trkpt>
      <trkpt lat="43.82386" lon="6.71184">
        <ele>1416</ele>
        <time>2018-04-27T10:12:12Z</time>
      </trkpt>
      <trkpt lat="43.82386" lon="6.71192">
        <ele>1416</ele>
        <time>2018-04-27T10:12:13Z</time>
      </trkpt>
      <trkpt lat="43.82388" lon="6.71203">
        <ele>1415</ele>
        <time>2018-04-27T10:12:15Z</time>
      </trkpt>
      <trkpt lat="43.82391" lon="6.71208">
        <ele>1414</ele>
        <time>2018-04-27T10:12:18Z</time>
      </trkpt>
      <trkpt lat="43.82394" lon="6.71214">
        <ele>1413</ele>
        <time>2018-04-27T10:12:22Z</time>
      </trkpt>
      <trkpt lat="43.82399" lon="6.7122">
        <ele>1412</ele>
        <time>2018-04-27T10:12:26Z</time>
      </trkpt>
      <trkpt lat="43.82402" lon="6.71223">
        <ele>1411</ele>
        <time>2018-04-27T10:12:29Z</time>
      </trkpt>
      <trkpt lat="43.82405" lon="6.71229">
        <ele>1410</ele>
        <time>2018-04-27T10:12:34Z</time>
      </trkpt>
      <trkpt lat="43.82403" lon="6.71237">
        <ele>1409</ele>
        <time>2018-04-27T10:12:37Z</time>
      </trkpt>
      <trkpt lat="43.82402" lon="6.71244">
        <ele>1409</ele>
        <time>2018-04-27T10:12:41Z</time>
      </trkpt>
      <trkpt lat="43.82399" lon="6.71253">
        <ele>1408</ele>
        <time>2018-04-27T10:12:44Z</time>
      </trkpt>
      <trkpt lat="43.824" lon="6.71259">
        <ele>1408</ele>
        <time>2018-04-27T10:12:46Z</time>
      </trkpt>
      <trkpt lat="43.82402" lon="6.71266">
        <ele>1407</ele>
        <time>2018-04-27T10:12:49Z</time>
      </trkpt>
      <trkpt lat="43.82403" lon="6.71273">
        <ele>1406</ele>
        <time>2018-04-27T10:13:14Z</time>
      </trkpt>
      <trkpt lat="43.82401" lon="6.71279">
        <ele>1406</ele>
        <time>2018-04-27T10:13:24Z</time>
      </trkpt>
      <trkpt lat="43.82403" lon="6.71287">
        <ele>1405</ele>
        <time>2018-04-27T10:13:28Z</time>
      </trkpt>
      <trkpt lat="43.82405" lon="6.71295">
        <ele>1405</ele>
        <time>2018-04-27T10:13:30Z</time>
      </trkpt>
      <trkpt lat="43.82405" lon="6.71302">
        <ele>1404</ele>
        <time>2018-04-27T10:13:32Z</time>
      </trkpt>
      <trkpt lat="43.82404" lon="6.71309">
        <ele>1403</ele>
        <time>2018-04-27T10:13:34Z</time>
      </trkpt>
      <trkpt lat="43.82407" lon="6.71315">
        <ele>1402</ele>
        <time>2018-04-27T10:13:36Z</time>
      </trkpt>
      <trkpt lat="43.82407" lon="6.71321">
        <ele>1402</ele>
        <time>2018-04-27T10:13:38Z</time>
      </trkpt>
      <trkpt lat="43.82406" lon="6.7133">
        <ele>1401</ele>
        <time>2018-04-27T10:13:40Z</time>
      </trkpt>
      <trkpt lat="43.82402" lon="6.71336">
        <ele>1400</ele>
        <time>2018-04-27T10:13:42Z</time>
      </trkpt>
      <trkpt lat="43.82399" lon="6.71343">
        <ele>1400</ele>
        <time>2018-04-27T10:13:44Z</time>
      </trkpt>
      <trkpt lat="43.82397" lon="6.71349">
        <ele>1400</ele>
        <time>2018-04-27T10:13:45Z</time>
      </trkpt>
      <trkpt lat="43.82394" lon="6.71359">
        <ele>1400</ele>
        <time>2018-04-27T10:13:47Z</time>
      </trkpt>
      <trkpt lat="43.82392" lon="6.71365">
        <ele>1399</ele>
        <time>2018-04-27T10:13:49Z</time>
      </trkpt>
      <trkpt lat="43.82393" lon="6.71374">
        <ele>1399</ele>
        <time>2018-04-27T10:13:51Z</time>
      </trkpt>
      <trkpt lat="43.82394" lon="6.71385">
        <ele>1398</ele>
        <time>2018-04-27T10:13:54Z</time>
      </trkpt>
      <trkpt lat="43.82394" lon="6.71392">
        <ele>1397</ele>
        <time>2018-04-27T10:13:55Z</time>
      </trkpt>
      <trkpt lat="43.82394" lon="6.71398">
        <ele>1396</ele>
        <time>2018-04-27T10:13:56Z</time>
      </trkpt>
      <trkpt lat="43.82396" lon="6.71408">
        <ele>1395</ele>
        <time>2018-04-27T10:13:58Z</time>
      </trkpt>
      <trkpt lat="43.82397" lon="6.7142">
        <ele>1394</ele>
        <time>2018-04-27T10:14:00Z</time>
      </trkpt>
      <trkpt lat="43.82397" lon="6.71426">
        <ele>1394</ele>
        <time>2018-04-27T10:14:01Z</time>
      </trkpt>
      <trkpt lat="43.82399" lon="6.71432">
        <ele>1393</ele>
        <time>2018-04-27T10:14:02Z</time>
      </trkpt>
      <trkpt lat="43.82401" lon="6.71443">
        <ele>1393</ele>
        <time>2018-04-27T10:14:04Z</time>
      </trkpt>
      <trkpt lat="43.82402" lon="6.71451">
        <ele>1393</ele>
        <time>2018-04-27T10:14:05Z</time>
      </trkpt>
      <trkpt lat="43.82404" lon="6.71464">
        <ele>1392</ele>
        <time>2018-04-27T10:14:07Z</time>
      </trkpt>
      <trkpt lat="43.82407" lon="6.71474">
        <ele>1391</ele>
        <time>2018-04-27T10:14:09Z</time>
      </trkpt>
      <trkpt lat="43.82406" lon="6.71486">
        <ele>1390</ele>
        <time>2018-04-27T10:14:11Z</time>
      </trkpt>
      <trkpt lat="43.82408" lon="6.71492">
        <ele>1388</ele>
        <time>2018-04-27T10:14:12Z</time>
      </trkpt>
      <trkpt lat="43.82412" lon="6.71498">
        <ele>1387</ele>
        <time>2018-04-27T10:14:13Z</time>
      </trkpt>
      <trkpt lat="43.82412" lon="6.7151">
        <ele>1386</ele>
        <time>2018-04-27T10:14:15Z</time>
      </trkpt>
      <trkpt lat="43.82414" lon="6.71518">
        <ele>1385</ele>
        <time>2018-04-27T10:14:16Z</time>
      </trkpt>
      <trkpt lat="43.82418" lon="6.71525">
        <ele>1385</ele>
        <time>2018-04-27T10:14:17Z</time>
      </trkpt>
      <trkpt lat="43.82421" lon="6.71532">
        <ele>1384</ele>
        <time>2018-04-27T10:14:18Z</time>
      </trkpt>
      <trkpt lat="43.82422" lon="6.71548">
        <ele>1384</ele>
        <time>2018-04-27T10:14:20Z</time>
      </trkpt>
      <trkpt lat="43.82423" lon="6.71556">
        <ele>1384</ele>
        <time>2018-04-27T10:14:21Z</time>
      </trkpt>
      <trkpt lat="43.82425" lon="6.71568">
        <ele>1383</ele>
        <time>2018-04-27T10:14:23Z</time>
      </trkpt>
      <trkpt lat="43.82427" lon="6.71575">
        <ele>1382</ele>
        <time>2018-04-27T10:14:28Z</time>
      </trkpt>
      <trkpt lat="43.82425" lon="6.71583">
        <ele>1381</ele>
        <time>2018-04-27T10:14:30Z</time>
      </trkpt>
      <trkpt lat="43.82426" lon="6.71594">
        <ele>1379</ele>
        <time>2018-04-27T10:14:32Z</time>
      </trkpt>
      <trkpt lat="43.82427" lon="6.71602">
        <ele>1378</ele>
        <time>2018-04-27T10:14:33Z</time>
      </trkpt>
      <trkpt lat="43.82426" lon="6.71608">
        <ele>1377</ele>
        <time>2018-04-27T10:14:34Z</time>
      </trkpt>
      <trkpt lat="43.82428" lon="6.71615">
        <ele>1376</ele>
        <time>2018-04-27T10:14:35Z</time>
      </trkpt>
      <trkpt lat="43.82432" lon="6.71622">
        <ele>1375</ele>
        <time>2018-04-27T10:14:37Z</time>
      </trkpt>
      <trkpt lat="43.8243" lon="6.7163">
        <ele>1375</ele>
        <time>2018-04-27T10:14:39Z</time>
      </trkpt>
      <trkpt lat="43.8243" lon="6.71637">
        <ele>1374</ele>
        <time>2018-04-27T10:14:41Z</time>
      </trkpt>
      <trkpt lat="43.82431" lon="6.71647">
        <ele>1373</ele>
        <time>2018-04-27T10:14:43Z</time>
      </trkpt>
      <trkpt lat="43.82431" lon="6.71654">
        <ele>1372</ele>
        <time>2018-04-27T10:14:45Z</time>
      </trkpt>
      <trkpt lat="43.8243" lon="6.71665">
        <ele>1371</ele>
        <time>2018-04-27T10:14:47Z</time>
      </trkpt>
      <trkpt lat="43.8243" lon="6.71676">
        <ele>1370</ele>
        <time>2018-04-27T10:14:49Z</time>
      </trkpt>
      <trkpt lat="43.82429" lon="6.71684">
        <ele>1369</ele>
        <time>2018-04-27T10:14:50Z</time>
      </trkpt>
      <trkpt lat="43.8243" lon="6.71692">
        <ele>1369</ele>
        <time>2018-04-27T10:14:51Z</time>
      </trkpt>
      <trkpt lat="43.82431" lon="6.71699">
        <ele>1369</ele>
        <time>2018-04-27T10:14:52Z</time>
      </trkpt>
      <trkpt lat="43.82432" lon="6.71709">
        <ele>1369</ele>
        <time>2018-04-27T10:14:54Z</time>
      </trkpt>
      <trkpt lat="43.82428" lon="6.71719">
        <ele>1369</ele>
        <time>2018-04-27T10:14:56Z</time>
      </trkpt>
      <trkpt lat="43.82427" lon="6.71731">
        <ele>1368</ele>
        <time>2018-04-27T10:14:58Z</time>
      </trkpt>
      <trkpt lat="43.82425" lon="6.71738">
        <ele>1367</ele>
        <time>2018-04-27T10:14:59Z</time>
      </trkpt>
      <trkpt lat="43.82423" lon="6.71745">
        <ele>1366</ele>
        <time>2018-04-27T10:15:00Z</time>
      </trkpt>
      <trkpt lat="43.82422" lon="6.71752">
        <ele>1365</ele>
        <time>2018-04-27T10:15:01Z</time>
      </trkpt>
      <trkpt lat="43.8242" lon="6.71758">
        <ele>1364</ele>
        <time>2018-04-27T10:15:02Z</time>
      </trkpt>
      <trkpt lat="43.82419" lon="6.71765">
        <ele>1362</ele>
        <time>2018-04-27T10:15:03Z</time>
      </trkpt>
      <trkpt lat="43.82418" lon="6.71773">
        <ele>1361</ele>
        <time>2018-04-27T10:15:04Z</time>
      </trkpt>
      <trkpt lat="43.82418" lon="6.71782">
        <ele>1360</ele>
        <time>2018-04-27T10:15:05Z</time>
      </trkpt>
      <trkpt lat="43.82417" lon="6.71789">
        <ele>1359</ele>
        <time>2018-04-27T10:15:06Z</time>
      </trkpt>
      <trkpt lat="43.82416" lon="6.71796">
        <ele>1359</ele>
        <time>2018-04-27T10:15:07Z</time>
      </trkpt>
      <trkpt lat="43.82415" lon="6.71803">
        <ele>1358</ele>
        <time>2018-04-27T10:15:08Z</time>
      </trkpt>
      <trkpt lat="43.82415" lon="6.71811">
        <ele>1358</ele>
        <time>2018-04-27T10:15:09Z</time>
      </trkpt>
      <trkpt lat="43.82416" lon="6.71819">
        <ele>1357</ele>
        <time>2018-04-27T10:15:10Z</time>
      </trkpt>
      <trkpt lat="43.82417" lon="6.71827">
        <ele>1356</ele>
        <time>2018-04-27T10:15:11Z</time>
      </trkpt>
      <trkpt lat="43.82417" lon="6.71833">
        <ele>1356</ele>
        <time>2018-04-27T10:15:12Z</time>
      </trkpt>
      <trkpt lat="43.82419" lon="6.7184">
        <ele>1355</ele>
        <time>2018-04-27T10:15:13Z</time>
      </trkpt>
      <trkpt lat="43.82423" lon="6.71845">
        <ele>1354</ele>
        <time>2018-04-27T10:15:14Z</time>
      </trkpt>
      <trkpt lat="43.82427" lon="6.71853">
        <ele>1354</ele>
        <time>2018-04-27T10:15:16Z</time>
      </trkpt>
      <trkpt lat="43.82431" lon="6.71863">
        <ele>1353</ele>
        <time>2018-04-27T10:15:18Z</time>
      </trkpt>
      <trkpt lat="43.82436" lon="6.71872">
        <ele>1352</ele>
        <time>2018-04-27T10:15:20Z</time>
      </trkpt>
      <trkpt lat="43.82441" lon="6.7188">
        <ele>1351</ele>
        <time>2018-04-27T10:15:22Z</time>
      </trkpt>
      <trkpt lat="43.82447" lon="6.71883">
        <ele>1349</ele>
        <time>2018-04-27T10:15:24Z</time>
      </trkpt>
      <trkpt lat="43.82451" lon="6.71891">
        <ele>1348</ele>
        <time>2018-04-27T10:15:26Z</time>
      </trkpt>
      <trkpt lat="43.82456" lon="6.719">
        <ele>1346</ele>
        <time>2018-04-27T10:15:28Z</time>
      </trkpt>
      <trkpt lat="43.82461" lon="6.71908">
        <ele>1345</ele>
        <time>2018-04-27T10:15:30Z</time>
      </trkpt>
      <trkpt lat="43.82465" lon="6.71912">
        <ele>1344</ele>
        <time>2018-04-27T10:15:31Z</time>
      </trkpt>
      <trkpt lat="43.82469" lon="6.71916">
        <ele>1343</ele>
        <time>2018-04-27T10:15:32Z</time>
      </trkpt>
      <trkpt lat="43.82474" lon="6.71922">
        <ele>1342</ele>
        <time>2018-04-27T10:15:34Z</time>
      </trkpt>
      <trkpt lat="43.82482" lon="6.71926">
        <ele>1340</ele>
        <time>2018-04-27T10:15:37Z</time>
      </trkpt>
      <trkpt lat="43.8249" lon="6.71931">
        <ele>1339</ele>
        <time>2018-04-27T10:15:39Z</time>
      </trkpt>
      <trkpt lat="43.82494" lon="6.71939">
        <ele>1337</ele>
        <time>2018-04-27T10:15:41Z</time>
      </trkpt>
      <trkpt lat="43.82499" lon="6.71948">
        <ele>1335</ele>
        <time>2018-04-27T10:15:43Z</time>
      </trkpt>
      <trkpt lat="43.82506" lon="6.71955">
        <ele>1334</ele>
        <time>2018-04-27T10:15:45Z</time>
      </trkpt>
      <trkpt lat="43.82511" lon="6.71963">
        <ele>1332</ele>
        <time>2018-04-27T10:15:47Z</time>
      </trkpt>
      <trkpt lat="43.82517" lon="6.71968">
        <ele>1331</ele>
        <time>2018-04-27T10:15:49Z</time>
      </trkpt>
      <trkpt lat="43.8252" lon="6.71975">
        <ele>1330</ele>
        <time>2018-04-27T10:15:51Z</time>
      </trkpt>
      <trkpt lat="43.82525" lon="6.71985">
        <ele>1329</ele>
        <time>2018-04-27T10:15:53Z</time>
      </trkpt>
      <trkpt lat="43.82531" lon="6.71994">
        <ele>1327</ele>
        <time>2018-04-27T10:15:55Z</time>
      </trkpt>
      <trkpt lat="43.82532" lon="6.72001">
        <ele>1326</ele>
        <time>2018-04-27T10:15:56Z</time>
      </trkpt>
      <trkpt lat="43.82533" lon="6.72008">
        <ele>1325</ele>
        <time>2018-04-27T10:15:57Z</time>
      </trkpt>
      <trkpt lat="43.82535" lon="6.72014">
        <ele>1324</ele>
        <time>2018-04-27T10:15:58Z</time>
      </trkpt>
      <trkpt lat="43.8254" lon="6.72019">
        <ele>1323</ele>
        <time>2018-04-27T10:16:00Z</time>
      </trkpt>
      <trkpt lat="43.82543" lon="6.72028">
        <ele>1322</ele>
        <time>2018-04-27T10:16:02Z</time>
      </trkpt>
      <trkpt lat="43.82544" lon="6.72037">
        <ele>1322</ele>
        <time>2018-04-27T10:16:04Z</time>
      </trkpt>
      <trkpt lat="43.82547" lon="6.72048">
        <ele>1321</ele>
        <time>2018-04-27T10:16:06Z</time>
      </trkpt>
      <trkpt lat="43.82552" lon="6.7206">
        <ele>1321</ele>
        <time>2018-04-27T10:16:08Z</time>
      </trkpt>
      <trkpt lat="43.82552" lon="6.72067">
        <ele>1321</ele>
        <time>2018-04-27T10:16:09Z</time>
      </trkpt>
      <trkpt lat="43.82552" lon="6.72074">
        <ele>1321</ele>
        <time>2018-04-27T10:16:10Z</time>
      </trkpt>
      <trkpt lat="43.82554" lon="6.72082">
        <ele>1321</ele>
        <time>2018-04-27T10:16:11Z</time>
      </trkpt>
      <trkpt lat="43.82555" lon="6.72093">
        <ele>1320</ele>
        <time>2018-04-27T10:16:13Z</time>
      </trkpt>
      <trkpt lat="43.82556" lon="6.721">
        <ele>1320</ele>
        <time>2018-04-27T10:16:14Z</time>
      </trkpt>
      <trkpt lat="43.82557" lon="6.72113">
        <ele>1319</ele>
        <time>2018-04-27T10:16:16Z</time>
      </trkpt>
      <trkpt lat="43.82559" lon="6.72119">
        <ele>1318</ele>
        <time>2018-04-27T10:16:17Z</time>
      </trkpt>
      <trkpt lat="43.8256" lon="6.72126">
        <ele>1317</ele>
        <time>2018-04-27T10:16:18Z</time>
      </trkpt>
      <trkpt lat="43.82563" lon="6.72133">
        <ele>1316</ele>
        <time>2018-04-27T10:16:19Z</time>
      </trkpt>
      <trkpt lat="43.82564" lon="6.7214">
        <ele>1315</ele>
        <time>2018-04-27T10:16:20Z</time>
      </trkpt>
      <trkpt lat="43.82564" lon="6.72148">
        <ele>1314</ele>
        <time>2018-04-27T10:16:21Z</time>
      </trkpt>
      <trkpt lat="43.82565" lon="6.72155">
        <ele>1313</ele>
        <time>2018-04-27T10:16:22Z</time>
      </trkpt>
      <trkpt lat="43.82566" lon="6.72162">
        <ele>1312</ele>
        <time>2018-04-27T10:16:23Z</time>
      </trkpt>
      <trkpt lat="43.82567" lon="6.72169">
        <ele>1311</ele>
        <time>2018-04-27T10:16:24Z</time>
      </trkpt>
      <trkpt lat="43.82567" lon="6.72176">
        <ele>1310</ele>
        <time>2018-04-27T10:16:25Z</time>
      </trkpt>
      <trkpt lat="43.82568" lon="6.72188">
        <ele>1309</ele>
        <time>2018-04-27T10:16:27Z</time>
      </trkpt>
      <trkpt lat="43.82569" lon="6.72195">
        <ele>1309</ele>
        <time>2018-04-27T10:16:28Z</time>
      </trkpt>
      <trkpt lat="43.82571" lon="6.72201">
        <ele>1308</ele>
        <time>2018-04-27T10:16:29Z</time>
      </trkpt>
      <trkpt lat="43.82573" lon="6.72207">
        <ele>1308</ele>
        <time>2018-04-27T10:16:30Z</time>
      </trkpt>
      <trkpt lat="43.82575" lon="6.72214">
        <ele>1307</ele>
        <time>2018-04-27T10:16:31Z</time>
      </trkpt>
      <trkpt lat="43.82578" lon="6.72219">
        <ele>1307</ele>
        <time>2018-04-27T10:16:32Z</time>
      </trkpt>
      <trkpt lat="43.82579" lon="6.72226">
        <ele>1306</ele>
        <time>2018-04-27T10:16:33Z</time>
      </trkpt>
      <trkpt lat="43.82576" lon="6.72234">
        <ele>1305</ele>
        <time>2018-04-27T10:16:35Z</time>
      </trkpt>
      <trkpt lat="43.82575" lon="6.72247">
        <ele>1304</ele>
        <time>2018-04-27T10:16:37Z</time>
      </trkpt>
      <trkpt lat="43.82575" lon="6.72256">
        <ele>1303</ele>
        <time>2018-04-27T10:16:39Z</time>
      </trkpt>
      <trkpt lat="43.82577" lon="6.72267">
        <ele>1303</ele>
        <time>2018-04-27T10:16:41Z</time>
      </trkpt>
      <trkpt lat="43.82579" lon="6.72279">
        <ele>1302</ele>
        <time>2018-04-27T10:16:43Z</time>
      </trkpt>
      <trkpt lat="43.8258" lon="6.72291">
        <ele>1301</ele>
        <time>2018-04-27T10:16:45Z</time>
      </trkpt>
      <trkpt lat="43.82581" lon="6.72307">
        <ele>1300</ele>
        <time>2018-04-27T10:16:47Z</time>
      </trkpt>
      <trkpt lat="43.82581" lon="6.72314">
        <ele>1299</ele>
        <time>2018-04-27T10:16:48Z</time>
      </trkpt>
      <trkpt lat="43.82581" lon="6.72322">
        <ele>1298</ele>
        <time>2018-04-27T10:16:49Z</time>
      </trkpt>
      <trkpt lat="43.8258" lon="6.72332">
        <ele>1297</ele>
        <time>2018-04-27T10:16:50Z</time>
      </trkpt>
      <trkpt lat="43.82581" lon="6.72339">
        <ele>1296</ele>
        <time>2018-04-27T10:16:51Z</time>
      </trkpt>
      <trkpt lat="43.82583" lon="6.72349">
        <ele>1295</ele>
        <time>2018-04-27T10:16:53Z</time>
      </trkpt>
      <trkpt lat="43.82586" lon="6.72362">
        <ele>1294</ele>
        <time>2018-04-27T10:16:55Z</time>
      </trkpt>
      <trkpt lat="43.82586" lon="6.72373">
        <ele>1293</ele>
        <time>2018-04-27T10:16:56Z</time>
      </trkpt>
      <trkpt lat="43.82586" lon="6.72381">
        <ele>1293</ele>
        <time>2018-04-27T10:16:57Z</time>
      </trkpt>
      <trkpt lat="43.82586" lon="6.72389">
        <ele>1292</ele>
        <time>2018-04-27T10:16:58Z</time>
      </trkpt>
      <trkpt lat="43.82584" lon="6.72397">
        <ele>1291</ele>
        <time>2018-04-27T10:16:59Z</time>
      </trkpt>
      <trkpt lat="43.82585" lon="6.72403">
        <ele>1290</ele>
        <time>2018-04-27T10:17:00Z</time>
      </trkpt>
      <trkpt lat="43.82585" lon="6.72411">
        <ele>1289</ele>
        <time>2018-04-27T10:17:01Z</time>
      </trkpt>
      <trkpt lat="43.82587" lon="6.72418">
        <ele>1287</ele>
        <time>2018-04-27T10:17:02Z</time>
      </trkpt>
      <trkpt lat="43.82586" lon="6.72426">
        <ele>1287</ele>
        <time>2018-04-27T10:17:03Z</time>
      </trkpt>
      <trkpt lat="43.82586" lon="6.72433">
        <ele>1286</ele>
        <time>2018-04-27T10:17:04Z</time>
      </trkpt>
      <trkpt lat="43.82585" lon="6.72441">
        <ele>1285</ele>
        <time>2018-04-27T10:17:05Z</time>
      </trkpt>
      <trkpt lat="43.82583" lon="6.72447">
        <ele>1285</ele>
        <time>2018-04-27T10:17:06Z</time>
      </trkpt>
      <trkpt lat="43.82582" lon="6.72459">
        <ele>1284</ele>
        <time>2018-04-27T10:17:08Z</time>
      </trkpt>
      <trkpt lat="43.82581" lon="6.72467">
        <ele>1283</ele>
        <time>2018-04-27T10:17:09Z</time>
      </trkpt>
      <trkpt lat="43.8258" lon="6.72475">
        <ele>1282</ele>
        <time>2018-04-27T10:17:10Z</time>
      </trkpt>
      <trkpt lat="43.82578" lon="6.72484">
        <ele>1282</ele>
        <time>2018-04-27T10:17:12Z</time>
      </trkpt>
      <trkpt lat="43.82576" lon="6.72494">
        <ele>1280</ele>
        <time>2018-04-27T10:17:14Z</time>
      </trkpt>
      <trkpt lat="43.82574" lon="6.72502">
        <ele>1279</ele>
        <time>2018-04-27T10:17:16Z</time>
      </trkpt>
      <trkpt lat="43.82573" lon="6.72515">
        <ele>1277</ele>
        <time>2018-04-27T10:17:18Z</time>
      </trkpt>
      <trkpt lat="43.82572" lon="6.72522">
        <ele>1275</ele>
        <time>2018-04-27T10:17:19Z</time>
      </trkpt>
      <trkpt lat="43.82572" lon="6.7253">
        <ele>1273</ele>
        <time>2018-04-27T10:17:20Z</time>
      </trkpt>
      <trkpt lat="43.82569" lon="6.72541">
        <ele>1272</ele>
        <time>2018-04-27T10:17:22Z</time>
      </trkpt>
      <trkpt lat="43.82564" lon="6.72551">
        <ele>1271</ele>
        <time>2018-04-27T10:17:24Z</time>
      </trkpt>
      <trkpt lat="43.82564" lon="6.72558">
        <ele>1271</ele>
        <time>2018-04-27T10:17:25Z</time>
      </trkpt>
      <trkpt lat="43.82566" lon="6.72564">
        <ele>1270</ele>
        <time>2018-04-27T10:17:26Z</time>
      </trkpt>
      <trkpt lat="43.82568" lon="6.72577">
        <ele>1269</ele>
        <time>2018-04-27T10:17:28Z</time>
      </trkpt>
      <trkpt lat="43.82568" lon="6.72584">
        <ele>1268</ele>
        <time>2018-04-27T10:17:29Z</time>
      </trkpt>
      <trkpt lat="43.82573" lon="6.72594">
        <ele>1268</ele>
        <time>2018-04-27T10:17:31Z</time>
      </trkpt>
      <trkpt lat="43.82574" lon="6.72604">
        <ele>1267</ele>
        <time>2018-04-27T10:17:34Z</time>
      </trkpt>
      <trkpt lat="43.82576" lon="6.72614">
        <ele>1265</ele>
        <time>2018-04-27T10:17:36Z</time>
      </trkpt>
      <trkpt lat="43.82578" lon="6.72621">
        <ele>1264</ele>
        <time>2018-04-27T10:17:37Z</time>
      </trkpt>
      <trkpt lat="43.8258" lon="6.72628">
        <ele>1262</ele>
        <time>2018-04-27T10:17:38Z</time>
      </trkpt>
      <trkpt lat="43.82582" lon="6.72635">
        <ele>1261</ele>
        <time>2018-04-27T10:17:39Z</time>
      </trkpt>
      <trkpt lat="43.82584" lon="6.72642">
        <ele>1260</ele>
        <time>2018-04-27T10:17:40Z</time>
      </trkpt>
      <trkpt lat="43.82587" lon="6.72655">
        <ele>1260</ele>
        <time>2018-04-27T10:17:42Z</time>
      </trkpt>
      <trkpt lat="43.82589" lon="6.72663">
        <ele>1259</ele>
        <time>2018-04-27T10:17:43Z</time>
      </trkpt>
      <trkpt lat="43.82592" lon="6.72672">
        <ele>1258</ele>
        <time>2018-04-27T10:17:44Z</time>
      </trkpt>
      <trkpt lat="43.82595" lon="6.7268">
        <ele>1258</ele>
        <time>2018-04-27T10:17:45Z</time>
      </trkpt>
      <trkpt lat="43.82597" lon="6.72688">
        <ele>1257</ele>
        <time>2018-04-27T10:17:46Z</time>
      </trkpt>
      <trkpt lat="43.82598" lon="6.72697">
        <ele>1256</ele>
        <time>2018-04-27T10:17:47Z</time>
      </trkpt>
      <trkpt lat="43.82599" lon="6.72705">
        <ele>1256</ele>
        <time>2018-04-27T10:17:48Z</time>
      </trkpt>
      <trkpt lat="43.82601" lon="6.72713">
        <ele>1255</ele>
        <time>2018-04-27T10:17:49Z</time>
      </trkpt>
      <trkpt lat="43.82603" lon="6.7272">
        <ele>1255</ele>
        <time>2018-04-27T10:17:50Z</time>
      </trkpt>
      <trkpt lat="43.82607" lon="6.72733">
        <ele>1253</ele>
        <time>2018-04-27T10:17:52Z</time>
      </trkpt>
      <trkpt lat="43.82608" lon="6.72741">
        <ele>1252</ele>
        <time>2018-04-27T10:17:53Z</time>
      </trkpt>
      <trkpt lat="43.82608" lon="6.72749">
        <ele>1251</ele>
        <time>2018-04-27T10:17:54Z</time>
      </trkpt>
      <trkpt lat="43.82608" lon="6.72757">
        <ele>1249</ele>
        <time>2018-04-27T10:17:55Z</time>
      </trkpt>
      <trkpt lat="43.8261" lon="6.72763">
        <ele>1247</ele>
        <time>2018-04-27T10:17:56Z</time>
      </trkpt>
      <trkpt lat="43.8261" lon="6.72771">
        <ele>1246</ele>
        <time>2018-04-27T10:17:57Z</time>
      </trkpt>
      <trkpt lat="43.82611" lon="6.72779">
        <ele>1245</ele>
        <time>2018-04-27T10:17:58Z</time>
      </trkpt>
      <trkpt lat="43.82613" lon="6.72788">
        <ele>1244</ele>
        <time>2018-04-27T10:18:00Z</time>
      </trkpt>
      <trkpt lat="43.82615" lon="6.72798">
        <ele>1243</ele>
        <time>2018-04-27T10:18:02Z</time>
      </trkpt>
      <trkpt lat="43.82615" lon="6.72805">
        <ele>1243</ele>
        <time>2018-04-27T10:18:03Z</time>
      </trkpt>
      <trkpt lat="43.8262" lon="6.72809">
        <ele>1243</ele>
        <time>2018-04-27T10:18:04Z</time>
      </trkpt>
      <trkpt lat="43.82622" lon="6.72817">
        <ele>1243</ele>
        <time>2018-04-27T10:18:05Z</time>
      </trkpt>
      <trkpt lat="43.82624" lon="6.72823">
        <ele>1242</ele>
        <time>2018-04-27T10:18:06Z</time>
      </trkpt>
      <trkpt lat="43.82628" lon="6.72829">
        <ele>1242</ele>
        <time>2018-04-27T10:18:07Z</time>
      </trkpt>
      <trkpt lat="43.82631" lon="6.72838">
        <ele>1242</ele>
        <time>2018-04-27T10:18:08Z</time>
      </trkpt>
      <trkpt lat="43.82634" lon="6.72845">
        <ele>1241</ele>
        <time>2018-04-27T10:18:09Z</time>
      </trkpt>
      <trkpt lat="43.82636" lon="6.72855">
        <ele>1241</ele>
        <time>2018-04-27T10:18:10Z</time>
      </trkpt>
      <trkpt lat="43.82638" lon="6.72863">
        <ele>1240</ele>
        <time>2018-04-27T10:18:11Z</time>
      </trkpt>
      <trkpt lat="43.82641" lon="6.72872">
        <ele>1238</ele>
        <time>2018-04-27T10:18:12Z</time>
      </trkpt>
      <trkpt lat="43.82645" lon="6.7288">
        <ele>1237</ele>
        <time>2018-04-27T10:18:13Z</time>
      </trkpt>
      <trkpt lat="43.82648" lon="6.72886">
        <ele>1236</ele>
        <time>2018-04-27T10:18:14Z</time>
      </trkpt>
      <trkpt lat="43.8265" lon="6.72893">
        <ele>1235</ele>
        <time>2018-04-27T10:18:15Z</time>
      </trkpt>
      <trkpt lat="43.82651" lon="6.72899">
        <ele>1234</ele>
        <time>2018-04-27T10:18:16Z</time>
      </trkpt>
      <trkpt lat="43.82653" lon="6.72912">
        <ele>1233</ele>
        <time>2018-04-27T10:18:18Z</time>
      </trkpt>
      <trkpt lat="43.82653" lon="6.72918">
        <ele>1232</ele>
        <time>2018-04-27T10:18:19Z</time>
      </trkpt>
      <trkpt lat="43.82652" lon="6.7293">
        <ele>1231</ele>
        <time>2018-04-27T10:18:21Z</time>
      </trkpt>
      <trkpt lat="43.82656" lon="6.72938">
        <ele>1229</ele>
        <time>2018-04-27T10:18:23Z</time>
      </trkpt>
      <trkpt lat="43.82657" lon="6.72943">
        <ele>1228</ele>
        <time>2018-04-27T10:18:45Z</time>
      </trkpt>
      <trkpt lat="43.82657" lon="6.72943">
        <ele>1226</ele>
        <time>2018-04-27T10:18:48Z</time>
      </trkpt>
      <trkpt lat="43.82652" lon="6.72947">
        <ele>1225</ele>
        <time>2018-04-27T10:19:07Z</time>
      </trkpt>
      <trkpt lat="43.8265" lon="6.72952">
        <ele>1224</ele>
        <time>2018-04-27T10:19:30Z</time>
      </trkpt>
      <trkpt lat="43.82646" lon="6.72952">
        <ele>1222</ele>
        <time>2018-04-27T10:19:33Z</time>
      </trkpt>
      <trkpt lat="43.8264" lon="6.72947">
        <ele>1221</ele>
        <time>2018-04-27T10:19:35Z</time>
      </trkpt>
      <trkpt lat="43.82634" lon="6.7294">
        <ele>1219</ele>
        <time>2018-04-27T10:19:37Z</time>
      </trkpt>
      <trkpt lat="43.82628" lon="6.72933">
        <ele>1218</ele>
        <time>2018-04-27T10:19:39Z</time>
      </trkpt>
      <trkpt lat="43.82621" lon="6.72926">
        <ele>1217</ele>
        <time>2018-04-27T10:19:41Z</time>
      </trkpt>
      <trkpt lat="43.82616" lon="6.72918">
        <ele>1215</ele>
        <time>2018-04-27T10:19:43Z</time>
      </trkpt>
      <trkpt lat="43.8261" lon="6.7291">
        <ele>1214</ele>
        <time>2018-04-27T10:19:45Z</time>
      </trkpt>
      <trkpt lat="43.82605" lon="6.72907">
        <ele>1213</ele>
        <time>2018-04-27T10:19:47Z</time>
      </trkpt>
      <trkpt lat="43.82599" lon="6.72903">
        <ele>1211</ele>
        <time>2018-04-27T10:19:49Z</time>
      </trkpt>
      <trkpt lat="43.82595" lon="6.72903">
        <ele>1210</ele>
        <time>2018-04-27T10:19:51Z</time>
      </trkpt>
      <trkpt lat="43.82588" lon="6.72898">
        <ele>1209</ele>
        <time>2018-04-27T10:19:53Z</time>
      </trkpt>
      <trkpt lat="43.82582" lon="6.72893">
        <ele>1207</ele>
        <time>2018-04-27T10:19:55Z</time>
      </trkpt>
      <trkpt lat="43.82577" lon="6.72889">
        <ele>1205</ele>
        <time>2018-04-27T10:19:57Z</time>
      </trkpt>
      <trkpt lat="43.82572" lon="6.72886">
        <ele>1204</ele>
        <time>2018-04-27T10:19:59Z</time>
      </trkpt>
      <trkpt lat="43.82566" lon="6.72883">
        <ele>1202</ele>
        <time>2018-04-27T10:20:01Z</time>
      </trkpt>
      <trkpt lat="43.8256" lon="6.72881">
        <ele>1200</ele>
        <time>2018-04-27T10:20:03Z</time>
      </trkpt>
      <trkpt lat="43.82555" lon="6.72878">
        <ele>1198</ele>
        <time>2018-04-27T10:20:05Z</time>
      </trkpt>
      <trkpt lat="43.82553" lon="6.7287">
        <ele>1197</ele>
        <time>2018-04-27T10:20:08Z</time>
      </trkpt>
      <trkpt lat="43.82549" lon="6.72863">
        <ele>1196</ele>
        <time>2018-04-27T10:20:10Z</time>
      </trkpt>
      <trkpt lat="43.82545" lon="6.72856">
        <ele>1195</ele>
        <time>2018-04-27T10:20:12Z</time>
      </trkpt>
      <trkpt lat="43.8254" lon="6.7285">
        <ele>1194</ele>
        <time>2018-04-27T10:20:14Z</time>
      </trkpt>
      <trkpt lat="43.82535" lon="6.72845">
        <ele>1193</ele>
        <time>2018-04-27T10:20:16Z</time>
      </trkpt>
      <trkpt lat="43.8253" lon="6.72843">
        <ele>1192</ele>
        <time>2018-04-27T10:20:18Z</time>
      </trkpt>
      <trkpt lat="43.82525" lon="6.72841">
        <ele>1192</ele>
        <time>2018-04-27T10:20:20Z</time>
      </trkpt>
      <trkpt lat="43.82519" lon="6.72838">
        <ele>1191</ele>
        <time>2018-04-27T10:20:23Z</time>
      </trkpt>
      <trkpt lat="43.82515" lon="6.72835">
        <ele>1190</ele>
        <time>2018-04-27T10:20:30Z</time>
      </trkpt>
      <trkpt lat="43.82515" lon="6.72833">
        <ele>1189</ele>
        <time>2018-04-27T10:20:45Z</time>
      </trkpt>
      <trkpt lat="43.82515" lon="6.72833">
        <ele>1188</ele>
        <time>2018-04-27T10:20:48Z</time>
      </trkpt>
      <trkpt lat="43.8251" lon="6.72831">
        <ele>1187</ele>
        <time>2018-04-27T10:21:02Z</time>
      </trkpt>
      <trkpt lat="43.82505" lon="6.72826">
        <ele>1186</ele>
        <time>2018-04-27T10:21:04Z</time>
      </trkpt>
      <trkpt lat="43.82501" lon="6.72822">
        <ele>1185</ele>
        <time>2018-04-27T10:21:06Z</time>
      </trkpt>
      <trkpt lat="43.82496" lon="6.72815">
        <ele>1185</ele>
        <time>2018-04-27T10:21:09Z</time>
      </trkpt>
      <trkpt lat="43.82493" lon="6.72809">
        <ele>1185</ele>
        <time>2018-04-27T10:21:11Z</time>
      </trkpt>
      <trkpt lat="43.8249" lon="6.72803">
        <ele>1184</ele>
        <time>2018-04-27T10:21:14Z</time>
      </trkpt>
      <trkpt lat="43.82489" lon="6.72797">
        <ele>1184</ele>
        <time>2018-04-27T10:21:16Z</time>
      </trkpt>
      <trkpt lat="43.82487" lon="6.72791">
        <ele>1183</ele>
        <time>2018-04-27T10:21:18Z</time>
      </trkpt>
      <trkpt lat="43.82484" lon="6.72785">
        <ele>1183</ele>
        <time>2018-04-27T10:21:22Z</time>
      </trkpt>
      <trkpt lat="43.82479" lon="6.72785">
        <ele>1182</ele>
        <time>2018-04-27T10:21:32Z</time>
      </trkpt>
      <trkpt lat="43.82475" lon="6.72785">
        <ele>1181</ele>
        <time>2018-04-27T10:21:46Z</time>
      </trkpt>
      <trkpt lat="43.8247" lon="6.72781">
        <ele>1180</ele>
        <time>2018-04-27T10:21:59Z</time>
      </trkpt>
      <trkpt lat="43.82468" lon="6.72774">
        <ele>1178</ele>
        <time>2018-04-27T10:22:02Z</time>
      </trkpt>
      <trkpt lat="43.82465" lon="6.72767">
        <ele>1176</ele>
        <time>2018-04-27T10:22:05Z</time>
      </trkpt>
      <trkpt lat="43.82462" lon="6.7276">
        <ele>1175</ele>
        <time>2018-04-27T10:22:08Z</time>
      </trkpt>
      <trkpt lat="43.82456" lon="6.72757">
        <ele>1173</ele>
        <time>2018-04-27T10:22:11Z</time>
      </trkpt>
      <trkpt lat="43.82449" lon="6.72762">
        <ele>1171</ele>
        <time>2018-04-27T10:22:13Z</time>
      </trkpt>
      <trkpt lat="43.82445" lon="6.72766">
        <ele>1170</ele>
        <time>2018-04-27T10:22:14Z</time>
      </trkpt>
      <trkpt lat="43.82439" lon="6.72773">
        <ele>1168</ele>
        <time>2018-04-27T10:22:16Z</time>
      </trkpt>
      <trkpt lat="43.82434" lon="6.72782">
        <ele>1166</ele>
        <time>2018-04-27T10:22:18Z</time>
      </trkpt>
      <trkpt lat="43.8243" lon="6.7279">
        <ele>1165</ele>
        <time>2018-04-27T10:22:20Z</time>
      </trkpt>
      <trkpt lat="43.82427" lon="6.72795">
        <ele>1163</ele>
        <time>2018-04-27T10:22:22Z</time>
      </trkpt>
      <trkpt lat="43.82422" lon="6.728">
        <ele>1162</ele>
        <time>2018-04-27T10:22:24Z</time>
      </trkpt>
      <trkpt lat="43.82415" lon="6.72806">
        <ele>1160</ele>
        <time>2018-04-27T10:22:26Z</time>
      </trkpt>
      <trkpt lat="43.8241" lon="6.72815">
        <ele>1158</ele>
        <time>2018-04-27T10:22:28Z</time>
      </trkpt>
      <trkpt lat="43.82406" lon="6.72825">
        <ele>1156</ele>
        <time>2018-04-27T10:22:30Z</time>
      </trkpt>
      <trkpt lat="43.82401" lon="6.72835">
        <ele>1155</ele>
        <time>2018-04-27T10:22:32Z</time>
      </trkpt>
      <trkpt lat="43.82395" lon="6.72842">
        <ele>1154</ele>
        <time>2018-04-27T10:22:34Z</time>
      </trkpt>
      <trkpt lat="43.82392" lon="6.72847">
        <ele>1152</ele>
        <time>2018-04-27T10:22:36Z</time>
      </trkpt>
      <trkpt lat="43.82389" lon="6.72853">
        <ele>1151</ele>
        <time>2018-04-27T10:22:37Z</time>
      </trkpt>
      <trkpt lat="43.82386" lon="6.72861">
        <ele>1150</ele>
        <time>2018-04-27T10:22:38Z</time>
      </trkpt>
      <trkpt lat="43.82383" lon="6.72868">
        <ele>1149</ele>
        <time>2018-04-27T10:22:39Z</time>
      </trkpt>
      <trkpt lat="43.8238" lon="6.72876">
        <ele>1148</ele>
        <time>2018-04-27T10:22:40Z</time>
      </trkpt>
      <trkpt lat="43.82377" lon="6.72885">
        <ele>1147</ele>
        <time>2018-04-27T10:22:41Z</time>
      </trkpt>
      <trkpt lat="43.82374" lon="6.72896">
        <ele>1146</ele>
        <time>2018-04-27T10:22:42Z</time>
      </trkpt>
      <trkpt lat="43.82372" lon="6.72906">
        <ele>1145</ele>
        <time>2018-04-27T10:22:43Z</time>
      </trkpt>
      <trkpt lat="43.82369" lon="6.72915">
        <ele>1143</ele>
        <time>2018-04-27T10:22:44Z</time>
      </trkpt>
      <trkpt lat="43.82367" lon="6.72923">
        <ele>1142</ele>
        <time>2018-04-27T10:22:45Z</time>
      </trkpt>
      <trkpt lat="43.82364" lon="6.72931">
        <ele>1140</ele>
        <time>2018-04-27T10:22:46Z</time>
      </trkpt>
      <trkpt lat="43.82363" lon="6.72938">
        <ele>1139</ele>
        <time>2018-04-27T10:22:47Z</time>
      </trkpt>
      <trkpt lat="43.82361" lon="6.72948">
        <ele>1139</ele>
        <time>2018-04-27T10:22:48Z</time>
      </trkpt>
      <trkpt lat="43.8236" lon="6.72957">
        <ele>1138</ele>
        <time>2018-04-27T10:22:49Z</time>
      </trkpt>
      <trkpt lat="43.82358" lon="6.72966">
        <ele>1137</ele>
        <time>2018-04-27T10:22:50Z</time>
      </trkpt>
      <trkpt lat="43.82356" lon="6.72973">
        <ele>1136</ele>
        <time>2018-04-27T10:22:51Z</time>
      </trkpt>
      <trkpt lat="43.82354" lon="6.7298">
        <ele>1134</ele>
        <time>2018-04-27T10:22:52Z</time>
      </trkpt>
      <trkpt lat="43.82351" lon="6.72986">
        <ele>1133</ele>
        <time>2018-04-27T10:22:53Z</time>
      </trkpt>
      <trkpt lat="43.82344" lon="6.72993">
        <ele>1131</ele>
        <time>2018-04-27T10:22:55Z</time>
      </trkpt>
      <trkpt lat="43.8234" lon="6.72998">
        <ele>1130</ele>
        <time>2018-04-27T10:22:56Z</time>
      </trkpt>
      <trkpt lat="43.82335" lon="6.73003">
        <ele>1128</ele>
        <time>2018-04-27T10:22:57Z</time>
      </trkpt>
      <trkpt lat="43.8233" lon="6.73007">
        <ele>1127</ele>
        <time>2018-04-27T10:22:58Z</time>
      </trkpt>
      <trkpt lat="43.82323" lon="6.7301">
        <ele>1126</ele>
        <time>2018-04-27T10:22:59Z</time>
      </trkpt>
      <trkpt lat="43.82316" lon="6.73013">
        <ele>1125</ele>
        <time>2018-04-27T10:23:00Z</time>
      </trkpt>
      <trkpt lat="43.82308" lon="6.73015">
        <ele>1124</ele>
        <time>2018-04-27T10:23:01Z</time>
      </trkpt>
      <trkpt lat="43.82301" lon="6.73017">
        <ele>1123</ele>
        <time>2018-04-27T10:23:02Z</time>
      </trkpt>
      <trkpt lat="43.82293" lon="6.73018">
        <ele>1122</ele>
        <time>2018-04-27T10:23:03Z</time>
      </trkpt>
      <trkpt lat="43.82285" lon="6.73018">
        <ele>1121</ele>
        <time>2018-04-27T10:23:04Z</time>
      </trkpt>
      <trkpt lat="43.82278" lon="6.73019">
        <ele>1119</ele>
        <time>2018-04-27T10:23:05Z</time>
      </trkpt>
      <trkpt lat="43.82272" lon="6.7302">
        <ele>1118</ele>
        <time>2018-04-27T10:23:06Z</time>
      </trkpt>
      <trkpt lat="43.82267" lon="6.7302">
        <ele>1117</ele>
        <time>2018-04-27T10:23:07Z</time>
      </trkpt>
      <trkpt lat="43.82259" lon="6.7302">
        <ele>1116</ele>
        <time>2018-04-27T10:23:09Z</time>
      </trkpt>
      <trkpt lat="43.82254" lon="6.7302">
        <ele>1116</ele>
        <time>2018-04-27T10:23:11Z</time>
      </trkpt>
      <trkpt lat="43.82249" lon="6.73027">
        <ele>1115</ele>
        <time>2018-04-27T10:23:14Z</time>
      </trkpt>
      <trkpt lat="43.8225" lon="6.73035">
        <ele>1114</ele>
        <time>2018-04-27T10:23:16Z</time>
      </trkpt>
      <trkpt lat="43.82251" lon="6.73045">
        <ele>1114</ele>
        <time>2018-04-27T10:23:18Z</time>
      </trkpt>
      <trkpt lat="43.82254" lon="6.73055">
        <ele>1113</ele>
        <time>2018-04-27T10:23:20Z</time>
      </trkpt>
      <trkpt lat="43.82258" lon="6.73065">
        <ele>1113</ele>
        <time>2018-04-27T10:23:22Z</time>
      </trkpt>
      <trkpt lat="43.82261" lon="6.73076">
        <ele>1113</ele>
        <time>2018-04-27T10:23:24Z</time>
      </trkpt>
      <trkpt lat="43.82262" lon="6.73083">
        <ele>1113</ele>
        <time>2018-04-27T10:23:25Z</time>
      </trkpt>
      <trkpt lat="43.82264" lon="6.73089">
        <ele>1113</ele>
        <time>2018-04-27T10:23:26Z</time>
      </trkpt>
      <trkpt lat="43.82266" lon="6.73095">
        <ele>1113</ele>
        <time>2018-04-27T10:23:27Z</time>
      </trkpt>
      <trkpt lat="43.82267" lon="6.73102">
        <ele>1113</ele>
        <time>2018-04-27T10:23:28Z</time>
      </trkpt>
      <trkpt lat="43.82268" lon="6.73109">
        <ele>1113</ele>
        <time>2018-04-27T10:23:29Z</time>
      </trkpt>
      <trkpt lat="43.82269" lon="6.73116">
        <ele>1113</ele>
        <time>2018-04-27T10:23:30Z</time>
      </trkpt>
      <trkpt lat="43.82268" lon="6.73124">
        <ele>1113</ele>
        <time>2018-04-27T10:23:31Z</time>
      </trkpt>
      <trkpt lat="43.82267" lon="6.73131">
        <ele>1112</ele>
        <time>2018-04-27T10:23:32Z</time>
      </trkpt>
      <trkpt lat="43.82266" lon="6.73139">
        <ele>1112</ele>
        <time>2018-04-27T10:23:33Z</time>
      </trkpt>
      <trkpt lat="43.82265" lon="6.73146">
        <ele>1111</ele>
        <time>2018-04-27T10:23:34Z</time>
      </trkpt>
      <trkpt lat="43.82264" lon="6.73154">
        <ele>1111</ele>
        <time>2018-04-27T10:23:35Z</time>
      </trkpt>
      <trkpt lat="43.82262" lon="6.73163">
        <ele>1111</ele>
        <time>2018-04-27T10:23:36Z</time>
      </trkpt>
      <trkpt lat="43.82261" lon="6.73171">
        <ele>1111</ele>
        <time>2018-04-27T10:23:37Z</time>
      </trkpt>
      <trkpt lat="43.8226" lon="6.73179">
        <ele>1111</ele>
        <time>2018-04-27T10:23:38Z</time>
      </trkpt>
      <trkpt lat="43.82259" lon="6.73187">
        <ele>1111</ele>
        <time>2018-04-27T10:23:39Z</time>
      </trkpt>
      <trkpt lat="43.82258" lon="6.73195">
        <ele>1111</ele>
        <time>2018-04-27T10:23:40Z</time>
      </trkpt>
      <trkpt lat="43.82257" lon="6.73203">
        <ele>1111</ele>
        <time>2018-04-27T10:23:41Z</time>
      </trkpt>
      <trkpt lat="43.82256" lon="6.73211">
        <ele>1111</ele>
        <time>2018-04-27T10:23:42Z</time>
      </trkpt>
      <trkpt lat="43.82254" lon="6.73219">
        <ele>1111</ele>
        <time>2018-04-27T10:23:43Z</time>
      </trkpt>
      <trkpt lat="43.82253" lon="6.73227">
        <ele>1110</ele>
        <time>2018-04-27T10:23:44Z</time>
      </trkpt>
      <trkpt lat="43.82252" lon="6.73236">
        <ele>1110</ele>
        <time>2018-04-27T10:23:45Z</time>
      </trkpt>
      <trkpt lat="43.8225" lon="6.73243">
        <ele>1110</ele>
        <time>2018-04-27T10:23:46Z</time>
      </trkpt>
      <trkpt lat="43.82248" lon="6.7325">
        <ele>1110</ele>
        <time>2018-04-27T10:23:47Z</time>
      </trkpt>
      <trkpt lat="43.82246" lon="6.73258">
        <ele>1109</ele>
        <time>2018-04-27T10:23:48Z</time>
      </trkpt>
      <trkpt lat="43.82243" lon="6.73265">
        <ele>1109</ele>
        <time>2018-04-27T10:23:49Z</time>
      </trkpt>
      <trkpt lat="43.82242" lon="6.73273">
        <ele>1109</ele>
        <time>2018-04-27T10:23:50Z</time>
      </trkpt>
      <trkpt lat="43.82241" lon="6.73281">
        <ele>1109</ele>
        <time>2018-04-27T10:23:51Z</time>
      </trkpt>
      <trkpt lat="43.8224" lon="6.73288">
        <ele>1109</ele>
        <time>2018-04-27T10:23:52Z</time>
      </trkpt>
      <trkpt lat="43.82239" lon="6.73296">
        <ele>1108</ele>
        <time>2018-04-27T10:23:53Z</time>
      </trkpt>
      <trkpt lat="43.82238" lon="6.73303">
        <ele>1108</ele>
        <time>2018-04-27T10:23:54Z</time>
      </trkpt>
      <trkpt lat="43.82238" lon="6.73311">
        <ele>1108</ele>
        <time>2018-04-27T10:23:55Z</time>
      </trkpt>
      <trkpt lat="43.82238" lon="6.73318">
        <ele>1108</ele>
        <time>2018-04-27T10:23:56Z</time>
      </trkpt>
      <trkpt lat="43.82238" lon="6.73324">
        <ele>1108</ele>
        <time>2018-04-27T10:23:57Z</time>
      </trkpt>
      <trkpt lat="43.82238" lon="6.73332">
        <ele>1108</ele>
        <time>2018-04-27T10:23:58Z</time>
      </trkpt>
      <trkpt lat="43.82237" lon="6.73339">
        <ele>1107</ele>
        <time>2018-04-27T10:23:59Z</time>
      </trkpt>
      <trkpt lat="43.82235" lon="6.73346">
        <ele>1107</ele>
        <time>2018-04-27T10:24:00Z</time>
      </trkpt>
      <trkpt lat="43.82235" lon="6.73354">
        <ele>1107</ele>
        <time>2018-04-27T10:24:01Z</time>
      </trkpt>
      <trkpt lat="43.82234" lon="6.73362">
        <ele>1106</ele>
        <time>2018-04-27T10:24:02Z</time>
      </trkpt>
      <trkpt lat="43.82233" lon="6.7337">
        <ele>1106</ele>
        <time>2018-04-27T10:24:03Z</time>
      </trkpt>
      <trkpt lat="43.82231" lon="6.73378">
        <ele>1105</ele>
        <time>2018-04-27T10:24:04Z</time>
      </trkpt>
      <trkpt lat="43.8223" lon="6.73386">
        <ele>1105</ele>
        <time>2018-04-27T10:24:05Z</time>
      </trkpt>
      <trkpt lat="43.8223" lon="6.73395">
        <ele>1105</ele>
        <time>2018-04-27T10:24:06Z</time>
      </trkpt>
      <trkpt lat="43.8223" lon="6.73403">
        <ele>1105</ele>
        <time>2018-04-27T10:24:07Z</time>
      </trkpt>
      <trkpt lat="43.82229" lon="6.73412">
        <ele>1104</ele>
        <time>2018-04-27T10:24:08Z</time>
      </trkpt>
      <trkpt lat="43.82227" lon="6.73421">
        <ele>1104</ele>
        <time>2018-04-27T10:24:09Z</time>
      </trkpt>
      <trkpt lat="43.82226" lon="6.73429">
        <ele>1104</ele>
        <time>2018-04-27T10:24:10Z</time>
      </trkpt>
      <trkpt lat="43.82225" lon="6.73438">
        <ele>1104</ele>
        <time>2018-04-27T10:24:11Z</time>
      </trkpt>
      <trkpt lat="43.82224" lon="6.73447">
        <ele>1104</ele>
        <time>2018-04-27T10:24:12Z</time>
      </trkpt>
      <trkpt lat="43.82222" lon="6.73455">
        <ele>1104</ele>
        <time>2018-04-27T10:24:13Z</time>
      </trkpt>
      <trkpt lat="43.82222" lon="6.73464">
        <ele>1104</ele>
        <time>2018-04-27T10:24:14Z</time>
      </trkpt>
      <trkpt lat="43.82221" lon="6.73472">
        <ele>1104</ele>
        <time>2018-04-27T10:24:15Z</time>
      </trkpt>
      <trkpt lat="43.8222" lon="6.7348">
        <ele>1103</ele>
        <time>2018-04-27T10:24:16Z</time>
      </trkpt>
      <trkpt lat="43.82219" lon="6.73488">
        <ele>1103</ele>
        <time>2018-04-27T10:24:17Z</time>
      </trkpt>
      <trkpt lat="43.82219" lon="6.73495">
        <ele>1103</ele>
        <time>2018-04-27T10:24:18Z</time>
      </trkpt>
      <trkpt lat="43.8222" lon="6.73503">
        <ele>1103</ele>
        <time>2018-04-27T10:24:19Z</time>
      </trkpt>
      <trkpt lat="43.8222" lon="6.7351">
        <ele>1103</ele>
        <time>2018-04-27T10:24:20Z</time>
      </trkpt>
      <trkpt lat="43.82221" lon="6.73518">
        <ele>1102</ele>
        <time>2018-04-27T10:24:21Z</time>
      </trkpt>
      <trkpt lat="43.82222" lon="6.73526">
        <ele>1102</ele>
        <time>2018-04-27T10:24:22Z</time>
      </trkpt>
      <trkpt lat="43.82223" lon="6.73533">
        <ele>1102</ele>
        <time>2018-04-27T10:24:23Z</time>
      </trkpt>
      <trkpt lat="43.82225" lon="6.73541">
        <ele>1102</ele>
        <time>2018-04-27T10:24:24Z</time>
      </trkpt>
      <trkpt lat="43.82226" lon="6.7355">
        <ele>1101</ele>
        <time>2018-04-27T10:24:25Z</time>
      </trkpt>
      <trkpt lat="43.82227" lon="6.73558">
        <ele>1101</ele>
        <time>2018-04-27T10:24:26Z</time>
      </trkpt>
      <trkpt lat="43.82229" lon="6.73566">
        <ele>1101</ele>
        <time>2018-04-27T10:24:27Z</time>
      </trkpt>
      <trkpt lat="43.8223" lon="6.73574">
        <ele>1101</ele>
        <time>2018-04-27T10:24:28Z</time>
      </trkpt>
      <trkpt lat="43.82232" lon="6.73582">
        <ele>1100</ele>
        <time>2018-04-27T10:24:29Z</time>
      </trkpt>
      <trkpt lat="43.82233" lon="6.7359">
        <ele>1100</ele>
        <time>2018-04-27T10:24:30Z</time>
      </trkpt>
      <trkpt lat="43.82235" lon="6.73599">
        <ele>1100</ele>
        <time>2018-04-27T10:24:31Z</time>
      </trkpt>
      <trkpt lat="43.82235" lon="6.73607">
        <ele>1099</ele>
        <time>2018-04-27T10:24:32Z</time>
      </trkpt>
      <trkpt lat="43.82236" lon="6.73616">
        <ele>1099</ele>
        <time>2018-04-27T10:24:33Z</time>
      </trkpt>
      <trkpt lat="43.82237" lon="6.73624">
        <ele>1099</ele>
        <time>2018-04-27T10:24:34Z</time>
      </trkpt>
      <trkpt lat="43.82239" lon="6.73632">
        <ele>1098</ele>
        <time>2018-04-27T10:24:35Z</time>
      </trkpt>
      <trkpt lat="43.82241" lon="6.73639">
        <ele>1098</ele>
        <time>2018-04-27T10:24:36Z</time>
      </trkpt>
      <trkpt lat="43.82243" lon="6.73647">
        <ele>1098</ele>
        <time>2018-04-27T10:24:37Z</time>
      </trkpt>
      <trkpt lat="43.82244" lon="6.73655">
        <ele>1097</ele>
        <time>2018-04-27T10:24:38Z</time>
      </trkpt>
      <trkpt lat="43.82246" lon="6.73663">
        <ele>1097</ele>
        <time>2018-04-27T10:24:39Z</time>
      </trkpt>
      <trkpt lat="43.8225" lon="6.7367">
        <ele>1097</ele>
        <time>2018-04-27T10:24:40Z</time>
      </trkpt>
      <trkpt lat="43.82254" lon="6.73677">
        <ele>1097</ele>
        <time>2018-04-27T10:24:41Z</time>
      </trkpt>
      <trkpt lat="43.82258" lon="6.73684">
        <ele>1096</ele>
        <time>2018-04-27T10:24:42Z</time>
      </trkpt>
      <trkpt lat="43.82262" lon="6.73691">
        <ele>1096</ele>
        <time>2018-04-27T10:24:43Z</time>
      </trkpt>
      <trkpt lat="43.82267" lon="6.73698">
        <ele>1096</ele>
        <time>2018-04-27T10:24:44Z</time>
      </trkpt>
      <trkpt lat="43.82271" lon="6.73705">
        <ele>1095</ele>
        <time>2018-04-27T10:24:45Z</time>
      </trkpt>
      <trkpt lat="43.82276" lon="6.73713">
        <ele>1095</ele>
        <time>2018-04-27T10:24:46Z</time>
      </trkpt>
      <trkpt lat="43.8228" lon="6.7372">
        <ele>1095</ele>
        <time>2018-04-27T10:24:47Z</time>
      </trkpt>
      <trkpt lat="43.82284" lon="6.73728">
        <ele>1095</ele>
        <time>2018-04-27T10:24:48Z</time>
      </trkpt>
      <trkpt lat="43.82288" lon="6.73737">
        <ele>1094</ele>
        <time>2018-04-27T10:24:49Z</time>
      </trkpt>
      <trkpt lat="43.82291" lon="6.73746">
        <ele>1094</ele>
        <time>2018-04-27T10:24:50Z</time>
      </trkpt>
      <trkpt lat="43.82295" lon="6.73754">
        <ele>1094</ele>
        <time>2018-04-27T10:24:51Z</time>
      </trkpt>
      <trkpt lat="43.82298" lon="6.73763">
        <ele>1093</ele>
        <time>2018-04-27T10:24:52Z</time>
      </trkpt>
      <trkpt lat="43.823" lon="6.73772">
        <ele>1093</ele>
        <time>2018-04-27T10:24:53Z</time>
      </trkpt>
      <trkpt lat="43.82303" lon="6.73781">
        <ele>1093</ele>
        <time>2018-04-27T10:24:54Z</time>
      </trkpt>
      <trkpt lat="43.82304" lon="6.73791">
        <ele>1092</ele>
        <time>2018-04-27T10:24:55Z</time>
      </trkpt>
      <trkpt lat="43.82306" lon="6.73801">
        <ele>1092</ele>
        <time>2018-04-27T10:24:56Z</time>
      </trkpt>
      <trkpt lat="43.82308" lon="6.7381">
        <ele>1092</ele>
        <time>2018-04-27T10:24:57Z</time>
      </trkpt>
      <trkpt lat="43.8231" lon="6.73819">
        <ele>1092</ele>
        <time>2018-04-27T10:24:58Z</time>
      </trkpt>
      <trkpt lat="43.82311" lon="6.73828">
        <ele>1091</ele>
        <time>2018-04-27T10:24:59Z</time>
      </trkpt>
      <trkpt lat="43.82313" lon="6.73838">
        <ele>1091</ele>
        <time>2018-04-27T10:25:00Z</time>
      </trkpt>
      <trkpt lat="43.82314" lon="6.73847">
        <ele>1091</ele>
        <time>2018-04-27T10:25:01Z</time>
      </trkpt>
      <trkpt lat="43.82315" lon="6.73856">
        <ele>1090</ele>
        <time>2018-04-27T10:25:02Z</time>
      </trkpt>
      <trkpt lat="43.82317" lon="6.73866">
        <ele>1090</ele>
        <time>2018-04-27T10:25:03Z</time>
      </trkpt>
      <trkpt lat="43.82318" lon="6.73875">
        <ele>1089</ele>
        <time>2018-04-27T10:25:04Z</time>
      </trkpt>
      <trkpt lat="43.82319" lon="6.73884">
        <ele>1088</ele>
        <time>2018-04-27T10:25:05Z</time>
      </trkpt>
      <trkpt lat="43.82321" lon="6.73894">
        <ele>1088</ele>
        <time>2018-04-27T10:25:06Z</time>
      </trkpt>
      <trkpt lat="43.82324" lon="6.73903">
        <ele>1087</ele>
        <time>2018-04-27T10:25:07Z</time>
      </trkpt>
      <trkpt lat="43.82327" lon="6.73912">
        <ele>1087</ele>
        <time>2018-04-27T10:25:08Z</time>
      </trkpt>
      <trkpt lat="43.82331" lon="6.73919">
        <ele>1087</ele>
        <time>2018-04-27T10:25:09Z</time>
      </trkpt>
      <trkpt lat="43.82336" lon="6.73927">
        <ele>1086</ele>
        <time>2018-04-27T10:25:10Z</time>
      </trkpt>
      <trkpt lat="43.82342" lon="6.73934">
        <ele>1086</ele>
        <time>2018-04-27T10:25:11Z</time>
      </trkpt>
      <trkpt lat="43.82348" lon="6.7394">
        <ele>1086</ele>
        <time>2018-04-27T10:25:12Z</time>
      </trkpt>
      <trkpt lat="43.82355" lon="6.73946">
        <ele>1085</ele>
        <time>2018-04-27T10:25:13Z</time>
      </trkpt>
      <trkpt lat="43.82361" lon="6.73951">
        <ele>1085</ele>
        <time>2018-04-27T10:25:14Z</time>
      </trkpt>
      <trkpt lat="43.82368" lon="6.73958">
        <ele>1084</ele>
        <time>2018-04-27T10:25:15Z</time>
      </trkpt>
      <trkpt lat="43.82375" lon="6.73964">
        <ele>1084</ele>
        <time>2018-04-27T10:25:16Z</time>
      </trkpt>
      <trkpt lat="43.82381" lon="6.73971">
        <ele>1083</ele>
        <time>2018-04-27T10:25:17Z</time>
      </trkpt>
      <trkpt lat="43.82388" lon="6.73978">
        <ele>1083</ele>
        <time>2018-04-27T10:25:18Z</time>
      </trkpt>
      <trkpt lat="43.82393" lon="6.73986">
        <ele>1083</ele>
        <time>2018-04-27T10:25:19Z</time>
      </trkpt>
      <trkpt lat="43.824" lon="6.73994">
        <ele>1082</ele>
        <time>2018-04-27T10:25:20Z</time>
      </trkpt>
      <trkpt lat="43.82405" lon="6.74002">
        <ele>1082</ele>
        <time>2018-04-27T10:25:21Z</time>
      </trkpt>
      <trkpt lat="43.8241" lon="6.74011">
        <ele>1081</ele>
        <time>2018-04-27T10:25:22Z</time>
      </trkpt>
      <trkpt lat="43.82416" lon="6.74021">
        <ele>1081</ele>
        <time>2018-04-27T10:25:23Z</time>
      </trkpt>
      <trkpt lat="43.82421" lon="6.7403">
        <ele>1080</ele>
        <time>2018-04-27T10:25:24Z</time>
      </trkpt>
      <trkpt lat="43.82426" lon="6.74039">
        <ele>1080</ele>
        <time>2018-04-27T10:25:25Z</time>
      </trkpt>
      <trkpt lat="43.82431" lon="6.74048">
        <ele>1080</ele>
        <time>2018-04-27T10:25:26Z</time>
      </trkpt>
      <trkpt lat="43.82436" lon="6.74058">
        <ele>1080</ele>
        <time>2018-04-27T10:25:27Z</time>
      </trkpt>
      <trkpt lat="43.82441" lon="6.74068">
        <ele>1080</ele>
        <time>2018-04-27T10:25:28Z</time>
      </trkpt>
      <trkpt lat="43.82445" lon="6.74078">
        <ele>1079</ele>
        <time>2018-04-27T10:25:29Z</time>
      </trkpt>
      <trkpt lat="43.8245" lon="6.74087">
        <ele>1079</ele>
        <time>2018-04-27T10:25:30Z</time>
      </trkpt>
      <trkpt lat="43.82455" lon="6.74097">
        <ele>1079</ele>
        <time>2018-04-27T10:25:31Z</time>
      </trkpt>
      <trkpt lat="43.8246" lon="6.74107">
        <ele>1078</ele>
        <time>2018-04-27T10:25:32Z</time>
      </trkpt>
      <trkpt lat="43.82465" lon="6.74116">
        <ele>1078</ele>
        <time>2018-04-27T10:25:33Z</time>
      </trkpt>
      <trkpt lat="43.8247" lon="6.74125">
        <ele>1077</ele>
        <time>2018-04-27T10:25:34Z</time>
      </trkpt>
      <trkpt lat="43.82475" lon="6.74134">
        <ele>1077</ele>
        <time>2018-04-27T10:25:35Z</time>
      </trkpt>
      <trkpt lat="43.8248" lon="6.74143">
        <ele>1076</ele>
        <time>2018-04-27T10:25:36Z</time>
      </trkpt>
      <trkpt lat="43.82486" lon="6.7415">
        <ele>1076</ele>
        <time>2018-04-27T10:25:37Z</time>
      </trkpt>
      <trkpt lat="43.82492" lon="6.74157">
        <ele>1076</ele>
        <time>2018-04-27T10:25:38Z</time>
      </trkpt>
      <trkpt lat="43.825" lon="6.74162">
        <ele>1075</ele>
        <time>2018-04-27T10:25:39Z</time>
      </trkpt>
      <trkpt lat="43.82507" lon="6.74166">
        <ele>1075</ele>
        <time>2018-04-27T10:25:40Z</time>
      </trkpt>
      <trkpt lat="43.82515" lon="6.74169">
        <ele>1075</ele>
        <time>2018-04-27T10:25:41Z</time>
      </trkpt>
      <trkpt lat="43.82522" lon="6.74171">
        <ele>1074</ele>
        <time>2018-04-27T10:25:42Z</time>
      </trkpt>
      <trkpt lat="43.8253" lon="6.74171">
        <ele>1074</ele>
        <time>2018-04-27T10:25:43Z</time>
      </trkpt>
      <trkpt lat="43.82538" lon="6.74169">
        <ele>1074</ele>
        <time>2018-04-27T10:25:44Z</time>
      </trkpt>
      <trkpt lat="43.82545" lon="6.74167">
        <ele>1073</ele>
        <time>2018-04-27T10:25:45Z</time>
      </trkpt>
      <trkpt lat="43.82553" lon="6.74164">
        <ele>1073</ele>
        <time>2018-04-27T10:25:46Z</time>
      </trkpt>
      <trkpt lat="43.82561" lon="6.74161">
        <ele>1073</ele>
        <time>2018-04-27T10:25:47Z</time>
      </trkpt>
      <trkpt lat="43.82569" lon="6.74159">
        <ele>1073</ele>
        <time>2018-04-27T10:25:48Z</time>
      </trkpt>
      <trkpt lat="43.82578" lon="6.74156">
        <ele>1073</ele>
        <time>2018-04-27T10:25:49Z</time>
      </trkpt>
      <trkpt lat="43.82586" lon="6.74153">
        <ele>1073</ele>
        <time>2018-04-27T10:25:50Z</time>
      </trkpt>
      <trkpt lat="43.82594" lon="6.7415">
        <ele>1073</ele>
        <time>2018-04-27T10:25:51Z</time>
      </trkpt>
      <trkpt lat="43.82602" lon="6.74146">
        <ele>1073</ele>
        <time>2018-04-27T10:25:52Z</time>
      </trkpt>
      <trkpt lat="43.8261" lon="6.74143">
        <ele>1073</ele>
        <time>2018-04-27T10:25:53Z</time>
      </trkpt>
      <trkpt lat="43.82619" lon="6.7414">
        <ele>1072</ele>
        <time>2018-04-27T10:25:54Z</time>
      </trkpt>
      <trkpt lat="43.82627" lon="6.74137">
        <ele>1072</ele>
        <time>2018-04-27T10:25:55Z</time>
      </trkpt>
      <trkpt lat="43.82634" lon="6.74134">
        <ele>1072</ele>
        <time>2018-04-27T10:25:56Z</time>
      </trkpt>
      <trkpt lat="43.82641" lon="6.74132">
        <ele>1071</ele>
        <time>2018-04-27T10:25:57Z</time>
      </trkpt>
      <trkpt lat="43.82646" lon="6.74129">
        <ele>1071</ele>
        <time>2018-04-27T10:25:58Z</time>
      </trkpt>
      <trkpt lat="43.82652" lon="6.74126">
        <ele>1071</ele>
        <time>2018-04-27T10:25:59Z</time>
      </trkpt>
      <trkpt lat="43.82657" lon="6.74123">
        <ele>1071</ele>
        <time>2018-04-27T10:26:00Z</time>
      </trkpt>
      <trkpt lat="43.82661" lon="6.74118">
        <ele>1071</ele>
        <time>2018-04-27T10:26:01Z</time>
      </trkpt>
      <trkpt lat="43.82666" lon="6.74111">
        <ele>1071</ele>
        <time>2018-04-27T10:26:02Z</time>
      </trkpt>
      <trkpt lat="43.82667" lon="6.74105">
        <ele>1071</ele>
        <time>2018-04-27T10:26:03Z</time>
      </trkpt>
      <trkpt lat="43.82669" lon="6.74094">
        <ele>1070</ele>
        <time>2018-04-27T10:26:05Z</time>
      </trkpt>
      <trkpt lat="43.82672" lon="6.74089">
        <ele>1070</ele>
        <time>2018-04-27T10:26:07Z</time>
      </trkpt>
      <trkpt lat="43.82677" lon="6.74087">
        <ele>1070</ele>
        <time>2018-04-27T10:26:11Z</time>
      </trkpt>
      <trkpt lat="43.82682" lon="6.74088">
        <ele>1071</ele>
        <time>2018-04-27T10:26:15Z</time>
      </trkpt>
      <trkpt lat="43.82687" lon="6.74086">
        <ele>1071</ele>
        <time>2018-04-27T10:26:20Z</time>
      </trkpt>
      <trkpt lat="43.82692" lon="6.74086">
        <ele>1072</ele>
        <time>2018-04-27T10:26:24Z</time>
      </trkpt>
      <trkpt lat="43.82697" lon="6.74085">
        <ele>1073</ele>
        <time>2018-04-27T10:26:28Z</time>
      </trkpt>
      <trkpt lat="43.82702" lon="6.74085">
        <ele>1074</ele>
        <time>2018-04-27T10:26:32Z</time>
      </trkpt>
      <trkpt lat="43.82707" lon="6.74085">
        <ele>1075</ele>
        <time>2018-04-27T10:26:37Z</time>
      </trkpt>
      <trkpt lat="43.82713" lon="6.74085">
        <ele>1076</ele>
        <time>2018-04-27T10:26:41Z</time>
      </trkpt>
      <trkpt lat="43.82718" lon="6.74086">
        <ele>1077</ele>
        <time>2018-04-27T10:26:45Z</time>
      </trkpt>
      <trkpt lat="43.82723" lon="6.74086">
        <ele>1078</ele>
        <time>2018-04-27T10:26:49Z</time>
      </trkpt>
      <trkpt lat="43.82729" lon="6.74084">
        <ele>1078</ele>
        <time>2018-04-27T10:26:53Z</time>
      </trkpt>
      <trkpt lat="43.82734" lon="6.74083">
        <ele>1079</ele>
        <time>2018-04-27T10:26:57Z</time>
      </trkpt>
      <trkpt lat="43.8274" lon="6.74081">
        <ele>1080</ele>
        <time>2018-04-27T10:27:01Z</time>
      </trkpt>
      <trkpt lat="43.82745" lon="6.74079">
        <ele>1080</ele>
        <time>2018-04-27T10:27:06Z</time>
      </trkpt>
      <trkpt lat="43.8275" lon="6.74076">
        <ele>1080</ele>
        <time>2018-04-27T10:27:10Z</time>
      </trkpt>
      <trkpt lat="43.82755" lon="6.74074">
        <ele>1081</ele>
        <time>2018-04-27T10:27:15Z</time>
      </trkpt>
      <trkpt lat="43.8276" lon="6.74071">
        <ele>1081</ele>
        <time>2018-04-27T10:27:20Z</time>
      </trkpt>
      <trkpt lat="43.82764" lon="6.74068">
        <ele>1082</ele>
        <time>2018-04-27T10:27:24Z</time>
      </trkpt>
      <trkpt lat="43.82768" lon="6.74064">
        <ele>1083</ele>
        <time>2018-04-27T10:27:27Z</time>
      </trkpt>
      <trkpt lat="43.82772" lon="6.7406">
        <ele>1083</ele>
        <time>2018-04-27T10:27:31Z</time>
      </trkpt>
      <trkpt lat="43.82776" lon="6.74055">
        <ele>1083</ele>
        <time>2018-04-27T10:27:35Z</time>
      </trkpt>
      <trkpt lat="43.82781" lon="6.74053">
        <ele>1084</ele>
        <time>2018-04-27T10:27:39Z</time>
      </trkpt>
      <trkpt lat="43.82785" lon="6.7405">
        <ele>1084</ele>
        <time>2018-04-27T10:27:43Z</time>
      </trkpt>
      <trkpt lat="43.82789" lon="6.74048">
        <ele>1085</ele>
        <time>2018-04-27T10:27:47Z</time>
      </trkpt>
      <trkpt lat="43.82795" lon="6.74046">
        <ele>1086</ele>
        <time>2018-04-27T10:27:52Z</time>
      </trkpt>
      <trkpt lat="43.828" lon="6.74044">
        <ele>1088</ele>
        <time>2018-04-27T10:27:57Z</time>
      </trkpt>
      <trkpt lat="43.82804" lon="6.74041">
        <ele>1089</ele>
        <time>2018-04-27T10:28:01Z</time>
      </trkpt>
      <trkpt lat="43.82809" lon="6.74037">
        <ele>1090</ele>
        <time>2018-04-27T10:28:05Z</time>
      </trkpt>
      <trkpt lat="43.82813" lon="6.74033">
        <ele>1091</ele>
        <time>2018-04-27T10:28:09Z</time>
      </trkpt>
      <trkpt lat="43.82816" lon="6.74027">
        <ele>1092</ele>
        <time>2018-04-27T10:28:13Z</time>
      </trkpt>
      <trkpt lat="43.82819" lon="6.74021">
        <ele>1092</ele>
        <time>2018-04-27T10:28:16Z</time>
      </trkpt>
      <trkpt lat="43.82824" lon="6.74017">
        <ele>1092</ele>
        <time>2018-04-27T10:28:20Z</time>
      </trkpt>
      <trkpt lat="43.8283" lon="6.74017">
        <ele>1093</ele>
        <time>2018-04-27T10:28:24Z</time>
      </trkpt>
      <trkpt lat="43.82834" lon="6.74015">
        <ele>1094</ele>
        <time>2018-04-27T10:28:28Z</time>
      </trkpt>
      <trkpt lat="43.82839" lon="6.74011">
        <ele>1094</ele>
        <time>2018-04-27T10:28:32Z</time>
      </trkpt>
      <trkpt lat="43.82842" lon="6.74007">
        <ele>1095</ele>
        <time>2018-04-27T10:28:36Z</time>
      </trkpt>
      <trkpt lat="43.82846" lon="6.74002">
        <ele>1096</ele>
        <time>2018-04-27T10:28:40Z</time>
      </trkpt>
      <trkpt lat="43.82849" lon="6.73997">
        <ele>1096</ele>
        <time>2018-04-27T10:28:44Z</time>
      </trkpt>
      <trkpt lat="43.82853" lon="6.73993">
        <ele>1096</ele>
        <time>2018-04-27T10:28:48Z</time>
      </trkpt>
      <trkpt lat="43.82857" lon="6.73989">
        <ele>1096</ele>
        <time>2018-04-27T10:28:52Z</time>
      </trkpt>
      <trkpt lat="43.82863" lon="6.73987">
        <ele>1095</ele>
        <time>2018-04-27T10:28:56Z</time>
      </trkpt>
      <trkpt lat="43.82867" lon="6.73983">
        <ele>1095</ele>
        <time>2018-04-27T10:29:00Z</time>
      </trkpt>
      <trkpt lat="43.82871" lon="6.7398">
        <ele>1095</ele>
        <time>2018-04-27T10:29:05Z</time>
      </trkpt>
      <trkpt lat="43.82875" lon="6.73977">
        <ele>1095</ele>
        <time>2018-04-27T10:29:09Z</time>
      </trkpt>
      <trkpt lat="43.8288" lon="6.73975">
        <ele>1096</ele>
        <time>2018-04-27T10:29:14Z</time>
      </trkpt>
      <trkpt lat="43.82885" lon="6.73971">
        <ele>1097</ele>
        <time>2018-04-27T10:29:19Z</time>
      </trkpt>
      <trkpt lat="43.8289" lon="6.73969">
        <ele>1098</ele>
        <time>2018-04-27T10:29:22Z</time>
      </trkpt>
      <trkpt lat="43.82895" lon="6.73966">
        <ele>1099</ele>
        <time>2018-04-27T10:29:26Z</time>
      </trkpt>
      <trkpt lat="43.829" lon="6.73963">
        <ele>1100</ele>
        <time>2018-04-27T10:29:30Z</time>
      </trkpt>
      <trkpt lat="43.82905" lon="6.7396">
        <ele>1101</ele>
        <time>2018-04-27T10:29:34Z</time>
      </trkpt>
      <trkpt lat="43.8291" lon="6.73958">
        <ele>1101</ele>
        <time>2018-04-27T10:29:39Z</time>
      </trkpt>
      <trkpt lat="43.82914" lon="6.73956">
        <ele>1102</ele>
        <time>2018-04-27T10:29:42Z</time>
      </trkpt>
      <trkpt lat="43.82917" lon="6.73956">
        <ele>1102</ele>
        <time>2018-04-27T10:30:00Z</time>
      </trkpt>
      <trkpt lat="43.82917" lon="6.73956">
        <ele>1102</ele>
        <time>2018-04-27T10:30:03Z</time>
      </trkpt>
      <trkpt lat="43.82922" lon="6.73953">
        <ele>1102</ele>
        <time>2018-04-27T10:30:12Z</time>
      </trkpt>
      <trkpt lat="43.82925" lon="6.73949">
        <ele>1103</ele>
        <time>2018-04-27T10:30:17Z</time>
      </trkpt>
      <trkpt lat="43.82929" lon="6.73944">
        <ele>1103</ele>
        <time>2018-04-27T10:30:21Z</time>
      </trkpt>
      <trkpt lat="43.82933" lon="6.7394">
        <ele>1104</ele>
        <time>2018-04-27T10:30:27Z</time>
      </trkpt>
      <trkpt lat="43.82938" lon="6.73937">
        <ele>1106</ele>
        <time>2018-04-27T10:30:32Z</time>
      </trkpt>
      <trkpt lat="43.82942" lon="6.73934">
        <ele>1108</ele>
        <time>2018-04-27T10:30:37Z</time>
      </trkpt>
      <trkpt lat="43.82945" lon="6.73928">
        <ele>1110</ele>
        <time>2018-04-27T10:30:41Z</time>
      </trkpt>
      <trkpt lat="43.82949" lon="6.73926">
        <ele>1111</ele>
        <time>2018-04-27T10:30:46Z</time>
      </trkpt>
      <trkpt lat="43.82954" lon="6.73923">
        <ele>1113</ele>
        <time>2018-04-27T10:30:50Z</time>
      </trkpt>
      <trkpt lat="43.82959" lon="6.73921">
        <ele>1113</ele>
        <time>2018-04-27T10:30:54Z</time>
      </trkpt>
      <trkpt lat="43.82964" lon="6.73921">
        <ele>1114</ele>
        <time>2018-04-27T10:30:59Z</time>
      </trkpt>
      <trkpt lat="43.82969" lon="6.7392">
        <ele>1115</ele>
        <time>2018-04-27T10:31:03Z</time>
      </trkpt>
      <trkpt lat="43.82974" lon="6.73916">
        <ele>1115</ele>
        <time>2018-04-27T10:31:07Z</time>
      </trkpt>
      <trkpt lat="43.82978" lon="6.73913">
        <ele>1115</ele>
        <time>2018-04-27T10:31:11Z</time>
      </trkpt>
      <trkpt lat="43.82984" lon="6.73911">
        <ele>1116</ele>
        <time>2018-04-27T10:31:16Z</time>
      </trkpt>
      <trkpt lat="43.82989" lon="6.73906">
        <ele>1116</ele>
        <time>2018-04-27T10:31:20Z</time>
      </trkpt>
      <trkpt lat="43.82994" lon="6.73903">
        <ele>1116</ele>
        <time>2018-04-27T10:31:24Z</time>
      </trkpt>
      <trkpt lat="43.82997" lon="6.73899">
        <ele>1117</ele>
        <time>2018-04-27T10:31:28Z</time>
      </trkpt>
      <trkpt lat="43.83001" lon="6.73893">
        <ele>1118</ele>
        <time>2018-04-27T10:31:32Z</time>
      </trkpt>
      <trkpt lat="43.83004" lon="6.73887">
        <ele>1118</ele>
        <time>2018-04-27T10:31:36Z</time>
      </trkpt>
      <trkpt lat="43.83006" lon="6.7388">
        <ele>1118</ele>
        <time>2018-04-27T10:31:40Z</time>
      </trkpt>
      <trkpt lat="43.83008" lon="6.73874">
        <ele>1118</ele>
        <time>2018-04-27T10:31:43Z</time>
      </trkpt>
      <trkpt lat="43.83009" lon="6.73868">
        <ele>1117</ele>
        <time>2018-04-27T10:31:47Z</time>
      </trkpt>
      <trkpt lat="43.8301" lon="6.7386">
        <ele>1117</ele>
        <time>2018-04-27T10:31:52Z</time>
      </trkpt>
      <trkpt lat="43.83011" lon="6.73853">
        <ele>1117</ele>
        <time>2018-04-27T10:31:55Z</time>
      </trkpt>
      <trkpt lat="43.83011" lon="6.73846">
        <ele>1116</ele>
        <time>2018-04-27T10:31:59Z</time>
      </trkpt>
      <trkpt lat="43.83011" lon="6.7384">
        <ele>1116</ele>
        <time>2018-04-27T10:32:04Z</time>
      </trkpt>
      <trkpt lat="43.8301" lon="6.73832">
        <ele>1116</ele>
        <time>2018-04-27T10:32:09Z</time>
      </trkpt>
      <trkpt lat="43.83011" lon="6.73825">
        <ele>1116</ele>
        <time>2018-04-27T10:32:13Z</time>
      </trkpt>
      <trkpt lat="43.8301" lon="6.73817">
        <ele>1116</ele>
        <time>2018-04-27T10:32:17Z</time>
      </trkpt>
      <trkpt lat="43.83009" lon="6.7381">
        <ele>1117</ele>
        <time>2018-04-27T10:32:21Z</time>
      </trkpt>
      <trkpt lat="43.83009" lon="6.73801">
        <ele>1118</ele>
        <time>2018-04-27T10:32:26Z</time>
      </trkpt>
      <trkpt lat="43.83008" lon="6.73794">
        <ele>1119</ele>
        <time>2018-04-27T10:32:30Z</time>
      </trkpt>
      <trkpt lat="43.83007" lon="6.73787">
        <ele>1120</ele>
        <time>2018-04-27T10:32:34Z</time>
      </trkpt>
      <trkpt lat="43.83007" lon="6.73779">
        <ele>1121</ele>
        <time>2018-04-27T10:32:38Z</time>
      </trkpt>
      <trkpt lat="43.83006" lon="6.73771">
        <ele>1121</ele>
        <time>2018-04-27T10:32:41Z</time>
      </trkpt>
      <trkpt lat="43.83006" lon="6.73764">
        <ele>1122</ele>
        <time>2018-04-27T10:32:44Z</time>
      </trkpt>
      <trkpt lat="43.83006" lon="6.73757">
        <ele>1123</ele>
        <time>2018-04-27T10:32:47Z</time>
      </trkpt>
      <trkpt lat="43.83004" lon="6.7375">
        <ele>1123</ele>
        <time>2018-04-27T10:32:51Z</time>
      </trkpt>
      <trkpt lat="43.83005" lon="6.73744">
        <ele>1124</ele>
        <time>2018-04-27T10:32:54Z</time>
      </trkpt>
      <trkpt lat="43.83004" lon="6.73737">
        <ele>1125</ele>
        <time>2018-04-27T10:32:57Z</time>
      </trkpt>
      <trkpt lat="43.83002" lon="6.73729">
        <ele>1126</ele>
        <time>2018-04-27T10:33:01Z</time>
      </trkpt>
      <trkpt lat="43.83" lon="6.73722">
        <ele>1127</ele>
        <time>2018-04-27T10:33:05Z</time>
      </trkpt>
      <trkpt lat="43.82998" lon="6.73716">
        <ele>1128</ele>
        <time>2018-04-27T10:33:09Z</time>
      </trkpt>
      <trkpt lat="43.82996" lon="6.7371">
        <ele>1130</ele>
        <time>2018-04-27T10:33:13Z</time>
      </trkpt>
      <trkpt lat="43.82997" lon="6.73702">
        <ele>1131</ele>
        <time>2018-04-27T10:33:17Z</time>
      </trkpt>
      <trkpt lat="43.82996" lon="6.73694">
        <ele>1131</ele>
        <time>2018-04-27T10:33:21Z</time>
      </trkpt>
      <trkpt lat="43.82993" lon="6.73687">
        <ele>1132</ele>
        <time>2018-04-27T10:33:25Z</time>
      </trkpt>
      <trkpt lat="43.82992" lon="6.7368">
        <ele>1132</ele>
        <time>2018-04-27T10:33:29Z</time>
      </trkpt>
      <trkpt lat="43.82991" lon="6.73672">
        <ele>1133</ele>
        <time>2018-04-27T10:33:33Z</time>
      </trkpt>
      <trkpt lat="43.82991" lon="6.73665">
        <ele>1135</ele>
        <time>2018-04-27T10:33:37Z</time>
      </trkpt>
      <trkpt lat="43.8299" lon="6.73658">
        <ele>1136</ele>
        <time>2018-04-27T10:33:41Z</time>
      </trkpt>
      <trkpt lat="43.8299" lon="6.73651">
        <ele>1136</ele>
        <time>2018-04-27T10:33:45Z</time>
      </trkpt>
      <trkpt lat="43.82988" lon="6.73644">
        <ele>1137</ele>
        <time>2018-04-27T10:33:49Z</time>
      </trkpt>
      <trkpt lat="43.82988" lon="6.73637">
        <ele>1138</ele>
        <time>2018-04-27T10:33:54Z</time>
      </trkpt>
      <trkpt lat="43.82987" lon="6.7363">
        <ele>1138</ele>
        <time>2018-04-27T10:33:58Z</time>
      </trkpt>
      <trkpt lat="43.82987" lon="6.73623">
        <ele>1139</ele>
        <time>2018-04-27T10:34:02Z</time>
      </trkpt>
      <trkpt lat="43.82985" lon="6.73616">
        <ele>1140</ele>
        <time>2018-04-27T10:34:06Z</time>
      </trkpt>
      <trkpt lat="43.82983" lon="6.73608">
        <ele>1140</ele>
        <time>2018-04-27T10:34:10Z</time>
      </trkpt>
      <trkpt lat="43.82982" lon="6.73601">
        <ele>1140</ele>
        <time>2018-04-27T10:34:13Z</time>
      </trkpt>
      <trkpt lat="43.8298" lon="6.73594">
        <ele>1141</ele>
        <time>2018-04-27T10:34:16Z</time>
      </trkpt>
      <trkpt lat="43.8298" lon="6.73586">
        <ele>1140</ele>
        <time>2018-04-27T10:34:19Z</time>
      </trkpt>
      <trkpt lat="43.82978" lon="6.73578">
        <ele>1141</ele>
        <time>2018-04-27T10:34:23Z</time>
      </trkpt>
      <trkpt lat="43.82975" lon="6.73572">
        <ele>1141</ele>
        <time>2018-04-27T10:34:27Z</time>
      </trkpt>
      <trkpt lat="43.82974" lon="6.73565">
        <ele>1141</ele>
        <time>2018-04-27T10:34:30Z</time>
      </trkpt>
      <trkpt lat="43.82973" lon="6.73558">
        <ele>1141</ele>
        <time>2018-04-27T10:34:34Z</time>
      </trkpt>
      <trkpt lat="43.82971" lon="6.73551">
        <ele>1141</ele>
        <time>2018-04-27T10:34:38Z</time>
      </trkpt>
      <trkpt lat="43.82969" lon="6.73543">
        <ele>1141</ele>
        <time>2018-04-27T10:34:42Z</time>
      </trkpt>
      <trkpt lat="43.82967" lon="6.73536">
        <ele>1141</ele>
        <time>2018-04-27T10:34:46Z</time>
      </trkpt>
      <trkpt lat="43.82965" lon="6.73529">
        <ele>1142</ele>
        <time>2018-04-27T10:34:50Z</time>
      </trkpt>
      <trkpt lat="43.82963" lon="6.73522">
        <ele>1143</ele>
        <time>2018-04-27T10:34:54Z</time>
      </trkpt>
      <trkpt lat="43.8296" lon="6.73516">
        <ele>1145</ele>
        <time>2018-04-27T10:34:58Z</time>
      </trkpt>
      <trkpt lat="43.8296" lon="6.73509">
        <ele>1146</ele>
        <time>2018-04-27T10:35:02Z</time>
      </trkpt>
      <trkpt lat="43.82959" lon="6.73503">
        <ele>1147</ele>
        <time>2018-04-27T10:35:06Z</time>
      </trkpt>
      <trkpt lat="43.82957" lon="6.73497">
        <ele>1149</ele>
        <time>2018-04-27T10:35:10Z</time>
      </trkpt>
      <trkpt lat="43.82955" lon="6.73489">
        <ele>1149</ele>
        <time>2018-04-27T10:35:14Z</time>
      </trkpt>
      <trkpt lat="43.82953" lon="6.73482">
        <ele>1150</ele>
        <time>2018-04-27T10:35:18Z</time>
      </trkpt>
      <trkpt lat="43.82952" lon="6.73474">
        <ele>1151</ele>
        <time>2018-04-27T10:35:22Z</time>
      </trkpt>
      <trkpt lat="43.8295" lon="6.73467">
        <ele>1151</ele>
        <time>2018-04-27T10:35:26Z</time>
      </trkpt>
      <trkpt lat="43.82948" lon="6.73462">
        <ele>1152</ele>
        <time>2018-04-27T10:35:31Z</time>
      </trkpt>
      <trkpt lat="43.82947" lon="6.73455">
        <ele>1152</ele>
        <time>2018-04-27T10:35:35Z</time>
      </trkpt>
      <trkpt lat="43.82946" lon="6.73448">
        <ele>1153</ele>
        <time>2018-04-27T10:35:39Z</time>
      </trkpt>
      <trkpt lat="43.82946" lon="6.73442">
        <ele>1154</ele>
        <time>2018-04-27T10:35:42Z</time>
      </trkpt>
      <trkpt lat="43.82945" lon="6.73434">
        <ele>1154</ele>
        <time>2018-04-27T10:35:46Z</time>
      </trkpt>
      <trkpt lat="43.82944" lon="6.73428">
        <ele>1155</ele>
        <time>2018-04-27T10:35:50Z</time>
      </trkpt>
      <trkpt lat="43.82943" lon="6.73421">
        <ele>1155</ele>
        <time>2018-04-27T10:35:54Z</time>
      </trkpt>
      <trkpt lat="43.82942" lon="6.73415">
        <ele>1155</ele>
        <time>2018-04-27T10:35:58Z</time>
      </trkpt>
      <trkpt lat="43.82941" lon="6.73409">
        <ele>1155</ele>
        <time>2018-04-27T10:36:02Z</time>
      </trkpt>
      <trkpt lat="43.82938" lon="6.73403">
        <ele>1155</ele>
        <time>2018-04-27T10:36:06Z</time>
      </trkpt>
      <trkpt lat="43.82938" lon="6.73396">
        <ele>1156</ele>
        <time>2018-04-27T10:36:11Z</time>
      </trkpt>
      <trkpt lat="43.82937" lon="6.7339">
        <ele>1156</ele>
        <time>2018-04-27T10:36:15Z</time>
      </trkpt>
      <trkpt lat="43.82936" lon="6.73382">
        <ele>1156</ele>
        <time>2018-04-27T10:36:18Z</time>
      </trkpt>
      <trkpt lat="43.82935" lon="6.73376">
        <ele>1156</ele>
        <time>2018-04-27T10:36:22Z</time>
      </trkpt>
      <trkpt lat="43.82932" lon="6.7337">
        <ele>1156</ele>
        <time>2018-04-27T10:36:27Z</time>
      </trkpt>
      <trkpt lat="43.82931" lon="6.73363">
        <ele>1156</ele>
        <time>2018-04-27T10:36:31Z</time>
      </trkpt>
      <trkpt lat="43.82929" lon="6.73356">
        <ele>1156</ele>
        <time>2018-04-27T10:36:35Z</time>
      </trkpt>
      <trkpt lat="43.82927" lon="6.7335">
        <ele>1156</ele>
        <time>2018-04-27T10:36:39Z</time>
      </trkpt>
      <trkpt lat="43.82925" lon="6.73344">
        <ele>1156</ele>
        <time>2018-04-27T10:36:42Z</time>
      </trkpt>
      <trkpt lat="43.82924" lon="6.73336">
        <ele>1156</ele>
        <time>2018-04-27T10:36:46Z</time>
      </trkpt>
      <trkpt lat="43.82922" lon="6.73329">
        <ele>1156</ele>
        <time>2018-04-27T10:36:50Z</time>
      </trkpt>
      <trkpt lat="43.82922" lon="6.73322">
        <ele>1156</ele>
        <time>2018-04-27T10:36:53Z</time>
      </trkpt>
      <trkpt lat="43.82921" lon="6.73314">
        <ele>1156</ele>
        <time>2018-04-27T10:36:59Z</time>
      </trkpt>
      <trkpt lat="43.82919" lon="6.73307">
        <ele>1156</ele>
        <time>2018-04-27T10:37:02Z</time>
      </trkpt>
      <trkpt lat="43.82917" lon="6.73301">
        <ele>1157</ele>
        <time>2018-04-27T10:37:06Z</time>
      </trkpt>
      <trkpt lat="43.82916" lon="6.73295">
        <ele>1159</ele>
        <time>2018-04-27T10:37:09Z</time>
      </trkpt>
      <trkpt lat="43.82915" lon="6.73287">
        <ele>1160</ele>
        <time>2018-04-27T10:37:13Z</time>
      </trkpt>
      <trkpt lat="43.82913" lon="6.73279">
        <ele>1161</ele>
        <time>2018-04-27T10:37:17Z</time>
      </trkpt>
      <trkpt lat="43.82912" lon="6.73272">
        <ele>1163</ele>
        <time>2018-04-27T10:37:21Z</time>
      </trkpt>
      <trkpt lat="43.82911" lon="6.73265">
        <ele>1164</ele>
        <time>2018-04-27T10:37:25Z</time>
      </trkpt>
      <trkpt lat="43.82911" lon="6.73258">
        <ele>1165</ele>
        <time>2018-04-27T10:37:29Z</time>
      </trkpt>
      <trkpt lat="43.82909" lon="6.73252">
        <ele>1166</ele>
        <time>2018-04-27T10:37:32Z</time>
      </trkpt>
      <trkpt lat="43.82907" lon="6.73246">
        <ele>1167</ele>
        <time>2018-04-27T10:37:37Z</time>
      </trkpt>
      <trkpt lat="43.82906" lon="6.73239">
        <ele>1167</ele>
        <time>2018-04-27T10:37:41Z</time>
      </trkpt>
      <trkpt lat="43.82906" lon="6.73232">
        <ele>1167</ele>
        <time>2018-04-27T10:37:45Z</time>
      </trkpt>
      <trkpt lat="43.82905" lon="6.73225">
        <ele>1167</ele>
        <time>2018-04-27T10:37:49Z</time>
      </trkpt>
      <trkpt lat="43.82904" lon="6.73217">
        <ele>1167</ele>
        <time>2018-04-27T10:37:54Z</time>
      </trkpt>
      <trkpt lat="43.82902" lon="6.7321">
        <ele>1167</ele>
        <time>2018-04-27T10:37:58Z</time>
      </trkpt>
      <trkpt lat="43.829" lon="6.73204">
        <ele>1167</ele>
        <time>2018-04-27T10:38:02Z</time>
      </trkpt>
      <trkpt lat="43.82899" lon="6.73198">
        <ele>1167</ele>
        <time>2018-04-27T10:38:06Z</time>
      </trkpt>
      <trkpt lat="43.82899" lon="6.73191">
        <ele>1168</ele>
        <time>2018-04-27T10:38:10Z</time>
      </trkpt>
      <trkpt lat="43.82898" lon="6.73184">
        <ele>1168</ele>
        <time>2018-04-27T10:38:14Z</time>
      </trkpt>
      <trkpt lat="43.82897" lon="6.73177">
        <ele>1169</ele>
        <time>2018-04-27T10:38:19Z</time>
      </trkpt>
      <trkpt lat="43.82896" lon="6.7317">
        <ele>1170</ele>
        <time>2018-04-27T10:38:23Z</time>
      </trkpt>
      <trkpt lat="43.82895" lon="6.73162">
        <ele>1171</ele>
        <time>2018-04-27T10:38:27Z</time>
      </trkpt>
      <trkpt lat="43.82893" lon="6.73156">
        <ele>1171</ele>
        <time>2018-04-27T10:38:32Z</time>
      </trkpt>
      <trkpt lat="43.82891" lon="6.7315">
        <ele>1172</ele>
        <time>2018-04-27T10:38:37Z</time>
      </trkpt>
      <trkpt lat="43.8289" lon="6.73142">
        <ele>1173</ele>
        <time>2018-04-27T10:38:41Z</time>
      </trkpt>
      <trkpt lat="43.82888" lon="6.73136">
        <ele>1173</ele>
        <time>2018-04-27T10:38:45Z</time>
      </trkpt>
      <trkpt lat="43.82887" lon="6.73129">
        <ele>1173</ele>
        <time>2018-04-27T10:38:49Z</time>
      </trkpt>
      <trkpt lat="43.82887" lon="6.73122">
        <ele>1173</ele>
        <time>2018-04-27T10:38:53Z</time>
      </trkpt>
      <trkpt lat="43.82887" lon="6.73114">
        <ele>1173</ele>
        <time>2018-04-27T10:38:56Z</time>
      </trkpt>
      <trkpt lat="43.82886" lon="6.73107">
        <ele>1172</ele>
        <time>2018-04-27T10:38:59Z</time>
      </trkpt>
      <trkpt lat="43.82883" lon="6.73102">
        <ele>1171</ele>
        <time>2018-04-27T10:39:02Z</time>
      </trkpt>
      <trkpt lat="43.82881" lon="6.73096">
        <ele>1171</ele>
        <time>2018-04-27T10:39:06Z</time>
      </trkpt>
      <trkpt lat="43.82879" lon="6.7309">
        <ele>1172</ele>
        <time>2018-04-27T10:39:10Z</time>
      </trkpt>
      <trkpt lat="43.82879" lon="6.73083">
        <ele>1173</ele>
        <time>2018-04-27T10:39:14Z</time>
      </trkpt>
      <trkpt lat="43.82877" lon="6.73077">
        <ele>1173</ele>
        <time>2018-04-27T10:39:18Z</time>
      </trkpt>
      <trkpt lat="43.82876" lon="6.7307">
        <ele>1175</ele>
        <time>2018-04-27T10:39:22Z</time>
      </trkpt>
      <trkpt lat="43.82875" lon="6.73064">
        <ele>1175</ele>
        <time>2018-04-27T10:39:25Z</time>
      </trkpt>
      <trkpt lat="43.82874" lon="6.73057">
        <ele>1177</ele>
        <time>2018-04-27T10:39:30Z</time>
      </trkpt>
      <trkpt lat="43.82874" lon="6.7305">
        <ele>1178</ele>
        <time>2018-04-27T10:39:34Z</time>
      </trkpt>
      <trkpt lat="43.82874" lon="6.73043">
        <ele>1180</ele>
        <time>2018-04-27T10:39:39Z</time>
      </trkpt>
      <trkpt lat="43.82874" lon="6.73035">
        <ele>1182</ele>
        <time>2018-04-27T10:39:43Z</time>
      </trkpt>
      <trkpt lat="43.82874" lon="6.73029">
        <ele>1185</ele>
        <time>2018-04-27T10:39:47Z</time>
      </trkpt>
      <trkpt lat="43.82874" lon="6.73023">
        <ele>1186</ele>
        <time>2018-04-27T10:39:50Z</time>
      </trkpt>
      <trkpt lat="43.82873" lon="6.73015">
        <ele>1188</ele>
        <time>2018-04-27T10:39:54Z</time>
      </trkpt>
      <trkpt lat="43.82874" lon="6.73008">
        <ele>1189</ele>
        <time>2018-04-27T10:39:57Z</time>
      </trkpt>
      <trkpt lat="43.82874" lon="6.73001">
        <ele>1190</ele>
        <time>2018-04-27T10:40:00Z</time>
      </trkpt>
      <trkpt lat="43.82875" lon="6.72993">
        <ele>1191</ele>
        <time>2018-04-27T10:40:04Z</time>
      </trkpt>
      <trkpt lat="43.82874" lon="6.72986">
        <ele>1191</ele>
        <time>2018-04-27T10:40:07Z</time>
      </trkpt>
      <trkpt lat="43.82874" lon="6.7298">
        <ele>1192</ele>
        <time>2018-04-27T10:40:10Z</time>
      </trkpt>
      <trkpt lat="43.82873" lon="6.72974">
        <ele>1192</ele>
        <time>2018-04-27T10:40:13Z</time>
      </trkpt>
      <trkpt lat="43.82872" lon="6.72966">
        <ele>1192</ele>
        <time>2018-04-27T10:40:17Z</time>
      </trkpt>
      <trkpt lat="43.82871" lon="6.72959">
        <ele>1192</ele>
        <time>2018-04-27T10:40:21Z</time>
      </trkpt>
      <trkpt lat="43.82869" lon="6.72951">
        <ele>1191</ele>
        <time>2018-04-27T10:40:25Z</time>
      </trkpt>
      <trkpt lat="43.82868" lon="6.72943">
        <ele>1191</ele>
        <time>2018-04-27T10:40:30Z</time>
      </trkpt>
      <trkpt lat="43.82871" lon="6.72938">
        <ele>1191</ele>
        <time>2018-04-27T10:40:33Z</time>
      </trkpt>
      <trkpt lat="43.82876" lon="6.72936">
        <ele>1191</ele>
        <time>2018-04-27T10:40:37Z</time>
      </trkpt>
      <trkpt lat="43.82881" lon="6.72938">
        <ele>1191</ele>
        <time>2018-04-27T10:40:41Z</time>
      </trkpt>
      <trkpt lat="43.82886" lon="6.7294">
        <ele>1191</ele>
        <time>2018-04-27T10:40:45Z</time>
      </trkpt>
      <trkpt lat="43.82892" lon="6.72941">
        <ele>1192</ele>
        <time>2018-04-27T10:40:49Z</time>
      </trkpt>
      <trkpt lat="43.82896" lon="6.72941">
        <ele>1192</ele>
        <time>2018-04-27T10:40:52Z</time>
      </trkpt>
      <trkpt lat="43.82902" lon="6.72941">
        <ele>1192</ele>
        <time>2018-04-27T10:40:55Z</time>
      </trkpt>
      <trkpt lat="43.82907" lon="6.72941">
        <ele>1193</ele>
        <time>2018-04-27T10:40:58Z</time>
      </trkpt>
      <trkpt lat="43.82912" lon="6.72942">
        <ele>1193</ele>
        <time>2018-04-27T10:41:02Z</time>
      </trkpt>
      <trkpt lat="43.82917" lon="6.72941">
        <ele>1194</ele>
        <time>2018-04-27T10:41:05Z</time>
      </trkpt>
      <trkpt lat="43.82922" lon="6.72944">
        <ele>1194</ele>
        <time>2018-04-27T10:41:09Z</time>
      </trkpt>
      <trkpt lat="43.82928" lon="6.72944">
        <ele>1195</ele>
        <time>2018-04-27T10:41:13Z</time>
      </trkpt>
      <trkpt lat="43.82933" lon="6.72946">
        <ele>1195</ele>
        <time>2018-04-27T10:41:17Z</time>
      </trkpt>
      <trkpt lat="43.82938" lon="6.72945">
        <ele>1196</ele>
        <time>2018-04-27T10:41:21Z</time>
      </trkpt>
      <trkpt lat="43.82942" lon="6.72948">
        <ele>1197</ele>
        <time>2018-04-27T10:41:25Z</time>
      </trkpt>
      <trkpt lat="43.82947" lon="6.7295">
        <ele>1199</ele>
        <time>2018-04-27T10:41:29Z</time>
      </trkpt>
      <trkpt lat="43.82951" lon="6.72953">
        <ele>1200</ele>
        <time>2018-04-27T10:41:34Z</time>
      </trkpt>
      <trkpt lat="43.82956" lon="6.72953">
        <ele>1201</ele>
        <time>2018-04-27T10:41:39Z</time>
      </trkpt>
      <trkpt lat="43.82961" lon="6.72956">
        <ele>1202</ele>
        <time>2018-04-27T10:41:45Z</time>
      </trkpt>
      <trkpt lat="43.82966" lon="6.72958">
        <ele>1203</ele>
        <time>2018-04-27T10:41:48Z</time>
      </trkpt>
      <trkpt lat="43.8297" lon="6.7296">
        <ele>1203</ele>
        <time>2018-04-27T10:41:52Z</time>
      </trkpt>
      <trkpt lat="43.82975" lon="6.72961">
        <ele>1204</ele>
        <time>2018-04-27T10:41:56Z</time>
      </trkpt>
      <trkpt lat="43.8298" lon="6.72965">
        <ele>1204</ele>
        <time>2018-04-27T10:42:00Z</time>
      </trkpt>
      <trkpt lat="43.82985" lon="6.72967">
        <ele>1204</ele>
        <time>2018-04-27T10:42:04Z</time>
      </trkpt>
      <trkpt lat="43.8299" lon="6.72968">
        <ele>1204</ele>
        <time>2018-04-27T10:42:08Z</time>
      </trkpt>
      <trkpt lat="43.82995" lon="6.72971">
        <ele>1204</ele>
        <time>2018-04-27T10:42:11Z</time>
      </trkpt>
      <trkpt lat="43.82999" lon="6.72974">
        <ele>1203</ele>
        <time>2018-04-27T10:42:14Z</time>
      </trkpt>
      <trkpt lat="43.83003" lon="6.72976">
        <ele>1203</ele>
        <time>2018-04-27T10:42:17Z</time>
      </trkpt>
      <trkpt lat="43.83008" lon="6.72979">
        <ele>1202</ele>
        <time>2018-04-27T10:42:20Z</time>
      </trkpt>
      <trkpt lat="43.83014" lon="6.72982">
        <ele>1202</ele>
        <time>2018-04-27T10:42:23Z</time>
      </trkpt>
      <trkpt lat="43.83018" lon="6.72987">
        <ele>1202</ele>
        <time>2018-04-27T10:42:26Z</time>
      </trkpt>
      <trkpt lat="43.83022" lon="6.7299">
        <ele>1202</ele>
        <time>2018-04-27T10:42:29Z</time>
      </trkpt>
      <trkpt lat="43.83027" lon="6.72992">
        <ele>1202</ele>
        <time>2018-04-27T10:42:32Z</time>
      </trkpt>
      <trkpt lat="43.83032" lon="6.72996">
        <ele>1201</ele>
        <time>2018-04-27T10:42:35Z</time>
      </trkpt>
      <trkpt lat="43.83035" lon="6.73">
        <ele>1201</ele>
        <time>2018-04-27T10:42:37Z</time>
      </trkpt>
      <trkpt lat="43.8304" lon="6.73003">
        <ele>1201</ele>
        <time>2018-04-27T10:42:39Z</time>
      </trkpt>
      <trkpt lat="43.83044" lon="6.73006">
        <ele>1201</ele>
        <time>2018-04-27T10:42:41Z</time>
      </trkpt>
      <trkpt lat="43.83049" lon="6.73008">
        <ele>1201</ele>
        <time>2018-04-27T10:42:43Z</time>
      </trkpt>
      <trkpt lat="43.83055" lon="6.73009">
        <ele>1201</ele>
        <time>2018-04-27T10:42:46Z</time>
      </trkpt>
      <trkpt lat="43.83061" lon="6.73009">
        <ele>1201</ele>
        <time>2018-04-27T10:42:49Z</time>
      </trkpt>
      <trkpt lat="43.83067" lon="6.73008">
        <ele>1201</ele>
        <time>2018-04-27T10:42:52Z</time>
      </trkpt>
      <trkpt lat="43.83072" lon="6.7301">
        <ele>1202</ele>
        <time>2018-04-27T10:42:56Z</time>
      </trkpt>
      <trkpt lat="43.83076" lon="6.7301">
        <ele>1202</ele>
        <time>2018-04-27T10:43:00Z</time>
      </trkpt>
      <trkpt lat="43.83081" lon="6.73007">
        <ele>1203</ele>
        <time>2018-04-27T10:43:05Z</time>
      </trkpt>
      <trkpt lat="43.83086" lon="6.73008">
        <ele>1204</ele>
        <time>2018-04-27T10:43:09Z</time>
      </trkpt>
      <trkpt lat="43.83088" lon="6.73012">
        <ele>1205</ele>
        <time>2018-04-27T10:43:30Z</time>
      </trkpt>
      <trkpt lat="43.83088" lon="6.73012">
        <ele>1206</ele>
        <time>2018-04-27T10:43:33Z</time>
      </trkpt>
      <trkpt lat="43.83087" lon="6.73012">
        <ele>1206</ele>
        <time>2018-04-27T10:44:00Z</time>
      </trkpt>
      <trkpt lat="43.83087" lon="6.73012">
        <ele>1207</ele>
        <time>2018-04-27T10:44:03Z</time>
      </trkpt>
      <trkpt lat="43.83087" lon="6.73012">
        <ele>1207</ele>
        <time>2018-04-27T10:44:30Z</time>
      </trkpt>
      <trkpt lat="43.83087" lon="6.73012">
        <ele>1207</ele>
        <time>2018-04-27T10:44:33Z</time>
      </trkpt>
      <trkpt lat="43.83087" lon="6.73012">
        <ele>1207</ele>
        <time>2018-04-27T10:45:00Z</time>
      </trkpt>
      <trkpt lat="43.83087" lon="6.73012">
        <ele>1207</ele>
        <time>2018-04-27T10:45:03Z</time>
      </trkpt>
      <trkpt lat="43.83087" lon="6.73012">
        <ele>1207</ele>
        <time>2018-04-27T10:45:30Z</time>
      </trkpt>
      <trkpt lat="43.83087" lon="6.73012">
        <ele>1207</ele>
        <time>2018-04-27T10:45:33Z</time>
      </trkpt>
      <trkpt lat="43.83087" lon="6.73012">
        <ele>1207</ele>
        <time>2018-04-27T10:46:00Z</time>
      </trkpt>
      <trkpt lat="43.83087" lon="6.73012">
        <ele>1207</ele>
        <time>2018-04-27T10:46:03Z</time>
      </trkpt>
      <trkpt lat="43.83087" lon="6.73012">
        <ele>1207</ele>
        <time>2018-04-27T10:46:30Z</time>
      </trkpt>
      <trkpt lat="43.83087" lon="6.73012">
        <ele>1207</ele>
        <time>2018-04-27T10:46:33Z</time>
      </trkpt>
      <trkpt lat="43.83087" lon="6.73012">
        <ele>1207</ele>
        <time>2018-04-27T10:47:00Z</time>
      </trkpt>
      <trkpt lat="43.83087" lon="6.73012">
        <ele>1207</ele>
        <time>2018-04-27T10:47:03Z</time>
      </trkpt>
      <trkpt lat="43.83086" lon="6.73011">
        <ele>1206</ele>
        <time>2018-04-27T10:47:30Z</time>
      </trkpt>
      <trkpt lat="43.83086" lon="6.73011">
        <ele>1206</ele>
        <time>2018-04-27T10:47:33Z</time>
      </trkpt>
      <trkpt lat="43.83091" lon="6.73009">
        <ele>1206</ele>
        <time>2018-04-27T10:47:48Z</time>
      </trkpt>
      <trkpt lat="43.83096" lon="6.73007">
        <ele>1206</ele>
        <time>2018-04-27T10:47:52Z</time>
      </trkpt>
      <trkpt lat="43.831" lon="6.73005">
        <ele>1206</ele>
        <time>2018-04-27T10:47:55Z</time>
      </trkpt>
      <trkpt lat="43.83104" lon="6.73004">
        <ele>1206</ele>
        <time>2018-04-27T10:47:59Z</time>
      </trkpt>
      <trkpt lat="43.83109" lon="6.73001">
        <ele>1207</ele>
        <time>2018-04-27T10:48:03Z</time>
      </trkpt>
      <trkpt lat="43.83114" lon="6.73001">
        <ele>1208</ele>
        <time>2018-04-27T10:48:07Z</time>
      </trkpt>
      <trkpt lat="43.83119" lon="6.73">
        <ele>1209</ele>
        <time>2018-04-27T10:48:12Z</time>
      </trkpt>
      <trkpt lat="43.83123" lon="6.72999">
        <ele>1211</ele>
        <time>2018-04-27T10:48:16Z</time>
      </trkpt>
      <trkpt lat="43.83128" lon="6.72998">
        <ele>1212</ele>
        <time>2018-04-27T10:48:20Z</time>
      </trkpt>
      <trkpt lat="43.83133" lon="6.72998">
        <ele>1213</ele>
        <time>2018-04-27T10:48:24Z</time>
      </trkpt>
      <trkpt lat="43.83138" lon="6.72997">
        <ele>1213</ele>
        <time>2018-04-27T10:48:28Z</time>
      </trkpt>
      <trkpt lat="43.83143" lon="6.72997">
        <ele>1214</ele>
        <time>2018-04-27T10:48:32Z</time>
      </trkpt>
      <trkpt lat="43.83148" lon="6.72996">
        <ele>1215</ele>
        <time>2018-04-27T10:48:36Z</time>
      </trkpt>
      <trkpt lat="43.83153" lon="6.72995">
        <ele>1216</ele>
        <time>2018-04-27T10:48:40Z</time>
      </trkpt>
      <trkpt lat="43.83158" lon="6.72998">
        <ele>1216</ele>
        <time>2018-04-27T10:48:44Z</time>
      </trkpt>
      <trkpt lat="43.83162" lon="6.72999">
        <ele>1217</ele>
        <time>2018-04-27T10:48:48Z</time>
      </trkpt>
      <trkpt lat="43.83168" lon="6.73">
        <ele>1218</ele>
        <time>2018-04-27T10:48:52Z</time>
      </trkpt>
      <trkpt lat="43.83172" lon="6.73002">
        <ele>1219</ele>
        <time>2018-04-27T10:48:56Z</time>
      </trkpt>
      <trkpt lat="43.83177" lon="6.73004">
        <ele>1221</ele>
        <time>2018-04-27T10:49:00Z</time>
      </trkpt>
      <trkpt lat="43.83182" lon="6.73004">
        <ele>1222</ele>
        <time>2018-04-27T10:49:04Z</time>
      </trkpt>
      <trkpt lat="43.83186" lon="6.73003">
        <ele>1223</ele>
        <time>2018-04-27T10:49:08Z</time>
      </trkpt>
      <trkpt lat="43.83191" lon="6.73004">
        <ele>1224</ele>
        <time>2018-04-27T10:49:12Z</time>
      </trkpt>
      <trkpt lat="43.83195" lon="6.73006">
        <ele>1225</ele>
        <time>2018-04-27T10:49:17Z</time>
      </trkpt>
      <trkpt lat="43.83201" lon="6.73007">
        <ele>1226</ele>
        <time>2018-04-27T10:49:21Z</time>
      </trkpt>
      <trkpt lat="43.83206" lon="6.73009">
        <ele>1226</ele>
        <time>2018-04-27T10:49:25Z</time>
      </trkpt>
      <trkpt lat="43.83212" lon="6.73011">
        <ele>1227</ele>
        <time>2018-04-27T10:49:29Z</time>
      </trkpt>
      <trkpt lat="43.83217" lon="6.73012">
        <ele>1227</ele>
        <time>2018-04-27T10:49:33Z</time>
      </trkpt>
      <trkpt lat="43.83222" lon="6.73014">
        <ele>1227</ele>
        <time>2018-04-27T10:49:37Z</time>
      </trkpt>
      <trkpt lat="43.83227" lon="6.73017">
        <ele>1228</ele>
        <time>2018-04-27T10:49:41Z</time>
      </trkpt>
      <trkpt lat="43.83232" lon="6.73018">
        <ele>1228</ele>
        <time>2018-04-27T10:49:45Z</time>
      </trkpt>
      <trkpt lat="43.83237" lon="6.7302">
        <ele>1228</ele>
        <time>2018-04-27T10:49:49Z</time>
      </trkpt>
      <trkpt lat="43.83241" lon="6.73022">
        <ele>1229</ele>
        <time>2018-04-27T10:49:53Z</time>
      </trkpt>
      <trkpt lat="43.83246" lon="6.73025">
        <ele>1230</ele>
        <time>2018-04-27T10:49:57Z</time>
      </trkpt>
      <trkpt lat="43.8325" lon="6.73028">
        <ele>1231</ele>
        <time>2018-04-27T10:50:01Z</time>
      </trkpt>
      <trkpt lat="43.83254" lon="6.73032">
        <ele>1232</ele>
        <time>2018-04-27T10:50:05Z</time>
      </trkpt>
      <trkpt lat="43.83258" lon="6.73035">
        <ele>1233</ele>
        <time>2018-04-27T10:50:10Z</time>
      </trkpt>
      <trkpt lat="43.83264" lon="6.73037">
        <ele>1234</ele>
        <time>2018-04-27T10:50:14Z</time>
      </trkpt>
      <trkpt lat="43.83268" lon="6.73039">
        <ele>1235</ele>
        <time>2018-04-27T10:50:18Z</time>
      </trkpt>
      <trkpt lat="43.83274" lon="6.73042">
        <ele>1236</ele>
        <time>2018-04-27T10:50:22Z</time>
      </trkpt>
      <trkpt lat="43.83279" lon="6.73043">
        <ele>1235</ele>
        <time>2018-04-27T10:50:26Z</time>
      </trkpt>
      <trkpt lat="43.83284" lon="6.73045">
        <ele>1235</ele>
        <time>2018-04-27T10:50:30Z</time>
      </trkpt>
      <trkpt lat="43.83287" lon="6.73049">
        <ele>1235</ele>
        <time>2018-04-27T10:50:34Z</time>
      </trkpt>
      <trkpt lat="43.83292" lon="6.7305">
        <ele>1236</ele>
        <time>2018-04-27T10:50:38Z</time>
      </trkpt>
      <trkpt lat="43.83297" lon="6.73053">
        <ele>1236</ele>
        <time>2018-04-27T10:50:42Z</time>
      </trkpt>
      <trkpt lat="43.83301" lon="6.73054">
        <ele>1236</ele>
        <time>2018-04-27T10:50:46Z</time>
      </trkpt>
      <trkpt lat="43.83307" lon="6.73055">
        <ele>1237</ele>
        <time>2018-04-27T10:50:50Z</time>
      </trkpt>
      <trkpt lat="43.83311" lon="6.73057">
        <ele>1237</ele>
        <time>2018-04-27T10:50:54Z</time>
      </trkpt>
      <trkpt lat="43.83316" lon="6.7306">
        <ele>1238</ele>
        <time>2018-04-27T10:50:58Z</time>
      </trkpt>
      <trkpt lat="43.83321" lon="6.73062">
        <ele>1239</ele>
        <time>2018-04-27T10:51:03Z</time>
      </trkpt>
      <trkpt lat="43.83326" lon="6.73064">
        <ele>1239</ele>
        <time>2018-04-27T10:51:07Z</time>
      </trkpt>
      <trkpt lat="43.83332" lon="6.73065">
        <ele>1240</ele>
        <time>2018-04-27T10:51:11Z</time>
      </trkpt>
      <trkpt lat="43.83338" lon="6.73067">
        <ele>1240</ele>
        <time>2018-04-27T10:51:15Z</time>
      </trkpt>
      <trkpt lat="43.83343" lon="6.7307">
        <ele>1240</ele>
        <time>2018-04-27T10:51:19Z</time>
      </trkpt>
      <trkpt lat="43.83349" lon="6.73073">
        <ele>1240</ele>
        <time>2018-04-27T10:51:23Z</time>
      </trkpt>
      <trkpt lat="43.83353" lon="6.73075">
        <ele>1240</ele>
        <time>2018-04-27T10:51:26Z</time>
      </trkpt>
      <trkpt lat="43.83358" lon="6.73078">
        <ele>1240</ele>
        <time>2018-04-27T10:51:30Z</time>
      </trkpt>
      <trkpt lat="43.83363" lon="6.73081">
        <ele>1240</ele>
        <time>2018-04-27T10:51:33Z</time>
      </trkpt>
      <trkpt lat="43.83368" lon="6.73084">
        <ele>1240</ele>
        <time>2018-04-27T10:51:37Z</time>
      </trkpt>
      <trkpt lat="43.83372" lon="6.73088">
        <ele>1241</ele>
        <time>2018-04-27T10:51:40Z</time>
      </trkpt>
      <trkpt lat="43.83377" lon="6.73091">
        <ele>1241</ele>
        <time>2018-04-27T10:51:44Z</time>
      </trkpt>
      <trkpt lat="43.83382" lon="6.73095">
        <ele>1242</ele>
        <time>2018-04-27T10:51:48Z</time>
      </trkpt>
      <trkpt lat="43.83386" lon="6.73099">
        <ele>1243</ele>
        <time>2018-04-27T10:51:52Z</time>
      </trkpt>
      <trkpt lat="43.83391" lon="6.73103">
        <ele>1243</ele>
        <time>2018-04-27T10:51:56Z</time>
      </trkpt>
      <trkpt lat="43.83396" lon="6.73107">
        <ele>1244</ele>
        <time>2018-04-27T10:52:00Z</time>
      </trkpt>
      <trkpt lat="43.834" lon="6.73111">
        <ele>1245</ele>
        <time>2018-04-27T10:52:04Z</time>
      </trkpt>
      <trkpt lat="43.83404" lon="6.73115">
        <ele>1245</ele>
        <time>2018-04-27T10:52:08Z</time>
      </trkpt>
      <trkpt lat="43.83408" lon="6.73118">
        <ele>1246</ele>
        <time>2018-04-27T10:52:11Z</time>
      </trkpt>
      <trkpt lat="43.83412" lon="6.73124">
        <ele>1246</ele>
        <time>2018-04-27T10:52:15Z</time>
      </trkpt>
      <trkpt lat="43.83416" lon="6.73126">
        <ele>1247</ele>
        <time>2018-04-27T10:52:18Z</time>
      </trkpt>
      <trkpt lat="43.83421" lon="6.73122">
        <ele>1247</ele>
        <time>2018-04-27T10:52:21Z</time>
      </trkpt>
      <trkpt lat="43.83418" lon="6.73116">
        <ele>1247</ele>
        <time>2018-04-27T10:52:25Z</time>
      </trkpt>
      <trkpt lat="43.83414" lon="6.73111">
        <ele>1247</ele>
        <time>2018-04-27T10:52:28Z</time>
      </trkpt>
      <trkpt lat="43.83408" lon="6.73108">
        <ele>1247</ele>
        <time>2018-04-27T10:52:31Z</time>
      </trkpt>
      <trkpt lat="43.83403" lon="6.73105">
        <ele>1246</ele>
        <time>2018-04-27T10:52:34Z</time>
      </trkpt>
      <trkpt lat="43.83398" lon="6.731">
        <ele>1246</ele>
        <time>2018-04-27T10:52:37Z</time>
      </trkpt>
      <trkpt lat="43.83395" lon="6.73095">
        <ele>1246</ele>
        <time>2018-04-27T10:52:40Z</time>
      </trkpt>
      <trkpt lat="43.83392" lon="6.73089">
        <ele>1246</ele>
        <time>2018-04-27T10:52:43Z</time>
      </trkpt>
      <trkpt lat="43.83388" lon="6.73083">
        <ele>1246</ele>
        <time>2018-04-27T10:52:46Z</time>
      </trkpt>
      <trkpt lat="43.83384" lon="6.73079">
        <ele>1246</ele>
        <time>2018-04-27T10:52:49Z</time>
      </trkpt>
      <trkpt lat="43.8338" lon="6.73073">
        <ele>1246</ele>
        <time>2018-04-27T10:52:52Z</time>
      </trkpt>
      <trkpt lat="43.83375" lon="6.73069">
        <ele>1246</ele>
        <time>2018-04-27T10:52:55Z</time>
      </trkpt>
      <trkpt lat="43.8337" lon="6.73064">
        <ele>1245</ele>
        <time>2018-04-27T10:52:58Z</time>
      </trkpt>
      <trkpt lat="43.83365" lon="6.73062">
        <ele>1245</ele>
        <time>2018-04-27T10:53:01Z</time>
      </trkpt>
      <trkpt lat="43.83361" lon="6.73057">
        <ele>1245</ele>
        <time>2018-04-27T10:53:04Z</time>
      </trkpt>
      <trkpt lat="43.83356" lon="6.73054">
        <ele>1245</ele>
        <time>2018-04-27T10:53:08Z</time>
      </trkpt>
      <trkpt lat="43.83352" lon="6.7305">
        <ele>1246</ele>
        <time>2018-04-27T10:53:12Z</time>
      </trkpt>
      <trkpt lat="43.83347" lon="6.73047">
        <ele>1246</ele>
        <time>2018-04-27T10:53:15Z</time>
      </trkpt>
      <trkpt lat="43.83344" lon="6.73042">
        <ele>1247</ele>
        <time>2018-04-27T10:53:19Z</time>
      </trkpt>
      <trkpt lat="43.8334" lon="6.73038">
        <ele>1248</ele>
        <time>2018-04-27T10:53:23Z</time>
      </trkpt>
      <trkpt lat="43.83336" lon="6.73032">
        <ele>1248</ele>
        <time>2018-04-27T10:53:27Z</time>
      </trkpt>
      <trkpt lat="43.83332" lon="6.73027">
        <ele>1249</ele>
        <time>2018-04-27T10:53:31Z</time>
      </trkpt>
      <trkpt lat="43.83327" lon="6.73022">
        <ele>1250</ele>
        <time>2018-04-27T10:53:35Z</time>
      </trkpt>
      <trkpt lat="43.83324" lon="6.73017">
        <ele>1250</ele>
        <time>2018-04-27T10:53:39Z</time>
      </trkpt>
      <trkpt lat="43.8332" lon="6.73013">
        <ele>1251</ele>
        <time>2018-04-27T10:53:43Z</time>
      </trkpt>
      <trkpt lat="43.83316" lon="6.73007">
        <ele>1251</ele>
        <time>2018-04-27T10:53:47Z</time>
      </trkpt>
      <trkpt lat="43.83312" lon="6.73003">
        <ele>1252</ele>
        <time>2018-04-27T10:53:51Z</time>
      </trkpt>
      <trkpt lat="43.83308" lon="6.72999">
        <ele>1253</ele>
        <time>2018-04-27T10:53:55Z</time>
      </trkpt>
      <trkpt lat="43.83304" lon="6.72995">
        <ele>1253</ele>
        <time>2018-04-27T10:53:59Z</time>
      </trkpt>
      <trkpt lat="43.833" lon="6.72992">
        <ele>1254</ele>
        <time>2018-04-27T10:54:03Z</time>
      </trkpt>
      <trkpt lat="43.83296" lon="6.72987">
        <ele>1255</ele>
        <time>2018-04-27T10:54:07Z</time>
      </trkpt>
      <trkpt lat="43.83292" lon="6.72983">
        <ele>1256</ele>
        <time>2018-04-27T10:54:11Z</time>
      </trkpt>
      <trkpt lat="43.83287" lon="6.72978">
        <ele>1256</ele>
        <time>2018-04-27T10:54:15Z</time>
      </trkpt>
      <trkpt lat="43.83283" lon="6.72974">
        <ele>1257</ele>
        <time>2018-04-27T10:54:18Z</time>
      </trkpt>
      <trkpt lat="43.83278" lon="6.72969">
        <ele>1257</ele>
        <time>2018-04-27T10:54:22Z</time>
      </trkpt>
      <trkpt lat="43.83275" lon="6.72965">
        <ele>1258</ele>
        <time>2018-04-27T10:54:25Z</time>
      </trkpt>
      <trkpt lat="43.83271" lon="6.72961">
        <ele>1258</ele>
        <time>2018-04-27T10:54:28Z</time>
      </trkpt>
      <trkpt lat="43.83267" lon="6.72957">
        <ele>1259</ele>
        <time>2018-04-27T10:54:31Z</time>
      </trkpt>
      <trkpt lat="43.83264" lon="6.72953">
        <ele>1260</ele>
        <time>2018-04-27T10:54:34Z</time>
      </trkpt>
      <trkpt lat="43.8326" lon="6.72947">
        <ele>1260</ele>
        <time>2018-04-27T10:54:38Z</time>
      </trkpt>
      <trkpt lat="43.83256" lon="6.72942">
        <ele>1261</ele>
        <time>2018-04-27T10:54:42Z</time>
      </trkpt>
      <trkpt lat="43.83253" lon="6.72937">
        <ele>1261</ele>
        <time>2018-04-27T10:54:45Z</time>
      </trkpt>
      <trkpt lat="43.8325" lon="6.72932">
        <ele>1262</ele>
        <time>2018-04-27T10:54:49Z</time>
      </trkpt>
      <trkpt lat="43.83246" lon="6.72927">
        <ele>1262</ele>
        <time>2018-04-27T10:54:53Z</time>
      </trkpt>
      <trkpt lat="43.83242" lon="6.72922">
        <ele>1263</ele>
        <time>2018-04-27T10:54:58Z</time>
      </trkpt>
      <trkpt lat="43.83238" lon="6.72917">
        <ele>1263</ele>
        <time>2018-04-27T10:55:02Z</time>
      </trkpt>
      <trkpt lat="43.83234" lon="6.72911">
        <ele>1264</ele>
        <time>2018-04-27T10:55:06Z</time>
      </trkpt>
      <trkpt lat="43.8323" lon="6.72908">
        <ele>1264</ele>
        <time>2018-04-27T10:55:09Z</time>
      </trkpt>
      <trkpt lat="43.83225" lon="6.72905">
        <ele>1265</ele>
        <time>2018-04-27T10:55:13Z</time>
      </trkpt>
      <trkpt lat="43.83221" lon="6.72902">
        <ele>1265</ele>
        <time>2018-04-27T10:55:17Z</time>
      </trkpt>
      <trkpt lat="43.83217" lon="6.72899">
        <ele>1266</ele>
        <time>2018-04-27T10:55:21Z</time>
      </trkpt>
      <trkpt lat="43.83212" lon="6.72897">
        <ele>1267</ele>
        <time>2018-04-27T10:55:25Z</time>
      </trkpt>
      <trkpt lat="43.83208" lon="6.72893">
        <ele>1267</ele>
        <time>2018-04-27T10:55:29Z</time>
      </trkpt>
      <trkpt lat="43.83204" lon="6.7289">
        <ele>1268</ele>
        <time>2018-04-27T10:55:33Z</time>
      </trkpt>
      <trkpt lat="43.832" lon="6.72886">
        <ele>1269</ele>
        <time>2018-04-27T10:55:37Z</time>
      </trkpt>
      <trkpt lat="43.83196" lon="6.72883">
        <ele>1270</ele>
        <time>2018-04-27T10:55:41Z</time>
      </trkpt>
      <trkpt lat="43.83192" lon="6.72879">
        <ele>1271</ele>
        <time>2018-04-27T10:55:45Z</time>
      </trkpt>
      <trkpt lat="43.83187" lon="6.72876">
        <ele>1271</ele>
        <time>2018-04-27T10:55:49Z</time>
      </trkpt>
      <trkpt lat="43.83183" lon="6.72873">
        <ele>1271</ele>
        <time>2018-04-27T10:55:52Z</time>
      </trkpt>
      <trkpt lat="43.83179" lon="6.7287">
        <ele>1271</ele>
        <time>2018-04-27T10:55:56Z</time>
      </trkpt>
      <trkpt lat="43.83174" lon="6.72867">
        <ele>1272</ele>
        <time>2018-04-27T10:56:00Z</time>
      </trkpt>
      <trkpt lat="43.8317" lon="6.72863">
        <ele>1272</ele>
        <time>2018-04-27T10:56:04Z</time>
      </trkpt>
      <trkpt lat="43.83166" lon="6.72859">
        <ele>1273</ele>
        <time>2018-04-27T10:56:08Z</time>
      </trkpt>
      <trkpt lat="43.83161" lon="6.72856">
        <ele>1274</ele>
        <time>2018-04-27T10:56:12Z</time>
      </trkpt>
      <trkpt lat="43.83157" lon="6.72853">
        <ele>1275</ele>
        <time>2018-04-27T10:56:16Z</time>
      </trkpt>
      <trkpt lat="43.83153" lon="6.72849">
        <ele>1275</ele>
        <time>2018-04-27T10:56:19Z</time>
      </trkpt>
      <trkpt lat="43.83148" lon="6.72845">
        <ele>1276</ele>
        <time>2018-04-27T10:56:23Z</time>
      </trkpt>
      <trkpt lat="43.83144" lon="6.72841">
        <ele>1277</ele>
        <time>2018-04-27T10:56:27Z</time>
      </trkpt>
      <trkpt lat="43.8314" lon="6.72836">
        <ele>1277</ele>
        <time>2018-04-27T10:56:31Z</time>
      </trkpt>
      <trkpt lat="43.83136" lon="6.72832">
        <ele>1278</ele>
        <time>2018-04-27T10:56:35Z</time>
      </trkpt>
      <trkpt lat="43.83133" lon="6.72827">
        <ele>1278</ele>
        <time>2018-04-27T10:56:39Z</time>
      </trkpt>
      <trkpt lat="43.83129" lon="6.72823">
        <ele>1278</ele>
        <time>2018-04-27T10:56:43Z</time>
      </trkpt>
      <trkpt lat="43.83125" lon="6.72818">
        <ele>1279</ele>
        <time>2018-04-27T10:56:47Z</time>
      </trkpt>
      <trkpt lat="43.8312" lon="6.72813">
        <ele>1279</ele>
        <time>2018-04-27T10:56:51Z</time>
      </trkpt>
      <trkpt lat="43.83117" lon="6.72809">
        <ele>1280</ele>
        <time>2018-04-27T10:56:55Z</time>
      </trkpt>
      <trkpt lat="43.83112" lon="6.72804">
        <ele>1280</ele>
        <time>2018-04-27T10:56:59Z</time>
      </trkpt>
      <trkpt lat="43.83108" lon="6.72801">
        <ele>1281</ele>
        <time>2018-04-27T10:57:03Z</time>
      </trkpt>
      <trkpt lat="43.83104" lon="6.72796">
        <ele>1281</ele>
        <time>2018-04-27T10:57:07Z</time>
      </trkpt>
      <trkpt lat="43.83099" lon="6.72792">
        <ele>1282</ele>
        <time>2018-04-27T10:57:11Z</time>
      </trkpt>
      <trkpt lat="43.83095" lon="6.72789">
        <ele>1282</ele>
        <time>2018-04-27T10:57:14Z</time>
      </trkpt>
      <trkpt lat="43.83091" lon="6.72784">
        <ele>1283</ele>
        <time>2018-04-27T10:57:17Z</time>
      </trkpt>
      <trkpt lat="43.83087" lon="6.7278">
        <ele>1283</ele>
        <time>2018-04-27T10:57:20Z</time>
      </trkpt>
      <trkpt lat="43.83082" lon="6.72776">
        <ele>1284</ele>
        <time>2018-04-27T10:57:24Z</time>
      </trkpt>
      <trkpt lat="43.83078" lon="6.72771">
        <ele>1284</ele>
        <time>2018-04-27T10:57:27Z</time>
      </trkpt>
      <trkpt lat="43.83072" lon="6.72767">
        <ele>1285</ele>
        <time>2018-04-27T10:57:31Z</time>
      </trkpt>
      <trkpt lat="43.83069" lon="6.72763">
        <ele>1286</ele>
        <time>2018-04-27T10:57:34Z</time>
      </trkpt>
      <trkpt lat="43.83065" lon="6.72759">
        <ele>1287</ele>
        <time>2018-04-27T10:57:37Z</time>
      </trkpt>
      <trkpt lat="43.83061" lon="6.72754">
        <ele>1287</ele>
        <time>2018-04-27T10:57:55Z</time>
      </trkpt>
      <trkpt lat="43.83057" lon="6.7275">
        <ele>1288</ele>
        <time>2018-04-27T10:57:59Z</time>
      </trkpt>
      <trkpt lat="43.83054" lon="6.72744">
        <ele>1289</ele>
        <time>2018-04-27T10:58:04Z</time>
      </trkpt>
      <trkpt lat="43.83053" lon="6.72738">
        <ele>1290</ele>
        <time>2018-04-27T10:58:09Z</time>
      </trkpt>
      <trkpt lat="43.83049" lon="6.72734">
        <ele>1291</ele>
        <time>2018-04-27T10:58:14Z</time>
      </trkpt>
      <trkpt lat="43.83046" lon="6.72729">
        <ele>1292</ele>
        <time>2018-04-27T10:58:19Z</time>
      </trkpt>
      <trkpt lat="43.83043" lon="6.72723">
        <ele>1292</ele>
        <time>2018-04-27T10:58:24Z</time>
      </trkpt>
      <trkpt lat="43.8304" lon="6.72718">
        <ele>1293</ele>
        <time>2018-04-27T10:58:29Z</time>
      </trkpt>
      <trkpt lat="43.83037" lon="6.72713">
        <ele>1294</ele>
        <time>2018-04-27T10:58:34Z</time>
      </trkpt>
      <trkpt lat="43.83033" lon="6.72708">
        <ele>1294</ele>
        <time>2018-04-27T10:58:39Z</time>
      </trkpt>
      <trkpt lat="43.8303" lon="6.72702">
        <ele>1295</ele>
        <time>2018-04-27T10:58:44Z</time>
      </trkpt>
      <trkpt lat="43.83027" lon="6.72698">
        <ele>1296</ele>
        <time>2018-04-27T10:58:49Z</time>
      </trkpt>
      <trkpt lat="43.83024" lon="6.72692">
        <ele>1296</ele>
        <time>2018-04-27T10:59:08Z</time>
      </trkpt>
      <trkpt lat="43.8302" lon="6.72687">
        <ele>1297</ele>
        <time>2018-04-27T10:59:14Z</time>
      </trkpt>
      <trkpt lat="43.83017" lon="6.72682">
        <ele>1297</ele>
        <time>2018-04-27T10:59:20Z</time>
      </trkpt>
      <trkpt lat="43.83014" lon="6.72677">
        <ele>1298</ele>
        <time>2018-04-27T10:59:25Z</time>
      </trkpt>
      <trkpt lat="43.8301" lon="6.72674">
        <ele>1298</ele>
        <time>2018-04-27T10:59:30Z</time>
      </trkpt>
      <trkpt lat="43.83005" lon="6.72669">
        <ele>1298</ele>
        <time>2018-04-27T10:59:37Z</time>
      </trkpt>
      <trkpt lat="43.83001" lon="6.72664">
        <ele>1298</ele>
        <time>2018-04-27T10:59:40Z</time>
      </trkpt>
      <trkpt lat="43.82997" lon="6.72657">
        <ele>1298</ele>
        <time>2018-04-27T10:59:43Z</time>
      </trkpt>
      <trkpt lat="43.82992" lon="6.72652">
        <ele>1297</ele>
        <time>2018-04-27T10:59:46Z</time>
      </trkpt>
      <trkpt lat="43.82987" lon="6.72646">
        <ele>1297</ele>
        <time>2018-04-27T10:59:49Z</time>
      </trkpt>
      <trkpt lat="43.82982" lon="6.7264">
        <ele>1297</ele>
        <time>2018-04-27T10:59:52Z</time>
      </trkpt>
      <trkpt lat="43.82978" lon="6.72636">
        <ele>1296</ele>
        <time>2018-04-27T10:59:54Z</time>
      </trkpt>
      <trkpt lat="43.82974" lon="6.7263">
        <ele>1296</ele>
        <time>2018-04-27T10:59:57Z</time>
      </trkpt>
      <trkpt lat="43.82968" lon="6.72624">
        <ele>1297</ele>
        <time>2018-04-27T11:00:00Z</time>
      </trkpt>
      <trkpt lat="43.82965" lon="6.72619">
        <ele>1297</ele>
        <time>2018-04-27T11:00:03Z</time>
      </trkpt>
      <trkpt lat="43.82961" lon="6.72614">
        <ele>1298</ele>
        <time>2018-04-27T11:00:07Z</time>
      </trkpt>
      <trkpt lat="43.82957" lon="6.72609">
        <ele>1298</ele>
        <time>2018-04-27T11:00:11Z</time>
      </trkpt>
      <trkpt lat="43.82952" lon="6.72604">
        <ele>1299</ele>
        <time>2018-04-27T11:00:15Z</time>
      </trkpt>
      <trkpt lat="43.82949" lon="6.726">
        <ele>1300</ele>
        <time>2018-04-27T11:00:18Z</time>
      </trkpt>
      <trkpt lat="43.82945" lon="6.72596">
        <ele>1301</ele>
        <time>2018-04-27T11:00:22Z</time>
      </trkpt>
      <trkpt lat="43.8294" lon="6.72591">
        <ele>1302</ele>
        <time>2018-04-27T11:00:26Z</time>
      </trkpt>
      <trkpt lat="43.82937" lon="6.72586">
        <ele>1302</ele>
        <time>2018-04-27T11:00:29Z</time>
      </trkpt>
      <trkpt lat="43.82935" lon="6.7258">
        <ele>1303</ele>
        <time>2018-04-27T11:00:32Z</time>
      </trkpt>
      <trkpt lat="43.82932" lon="6.72575">
        <ele>1303</ele>
        <time>2018-04-27T11:00:35Z</time>
      </trkpt>
      <trkpt lat="43.82929" lon="6.72569">
        <ele>1303</ele>
        <time>2018-04-27T11:00:38Z</time>
      </trkpt>
      <trkpt lat="43.82925" lon="6.72565">
        <ele>1304</ele>
        <time>2018-04-27T11:00:41Z</time>
      </trkpt>
      <trkpt lat="43.82922" lon="6.7256">
        <ele>1304</ele>
        <time>2018-04-27T11:00:44Z</time>
      </trkpt>
      <trkpt lat="43.82919" lon="6.72555">
        <ele>1305</ele>
        <time>2018-04-27T11:00:47Z</time>
      </trkpt>
      <trkpt lat="43.82916" lon="6.72549">
        <ele>1305</ele>
        <time>2018-04-27T11:00:51Z</time>
      </trkpt>
      <trkpt lat="43.82913" lon="6.72542">
        <ele>1306</ele>
        <time>2018-04-27T11:00:55Z</time>
      </trkpt>
      <trkpt lat="43.8291" lon="6.72536">
        <ele>1307</ele>
        <time>2018-04-27T11:00:59Z</time>
      </trkpt>
      <trkpt lat="43.82907" lon="6.72531">
        <ele>1307</ele>
        <time>2018-04-27T11:01:02Z</time>
      </trkpt>
      <trkpt lat="43.82903" lon="6.72524">
        <ele>1307</ele>
        <time>2018-04-27T11:01:06Z</time>
      </trkpt>
      <trkpt lat="43.82901" lon="6.72517">
        <ele>1307</ele>
        <time>2018-04-27T11:01:10Z</time>
      </trkpt>
      <trkpt lat="43.82896" lon="6.72512">
        <ele>1308</ele>
        <time>2018-04-27T11:01:14Z</time>
      </trkpt>
      <trkpt lat="43.82893" lon="6.72506">
        <ele>1308</ele>
        <time>2018-04-27T11:01:18Z</time>
      </trkpt>
      <trkpt lat="43.8289" lon="6.72502">
        <ele>1309</ele>
        <time>2018-04-27T11:01:21Z</time>
      </trkpt>
      <trkpt lat="43.82887" lon="6.72496">
        <ele>1310</ele>
        <time>2018-04-27T11:01:24Z</time>
      </trkpt>
      <trkpt lat="43.82885" lon="6.72491">
        <ele>1311</ele>
        <time>2018-04-27T11:01:27Z</time>
      </trkpt>
      <trkpt lat="43.82883" lon="6.72485">
        <ele>1311</ele>
        <time>2018-04-27T11:01:30Z</time>
      </trkpt>
      <trkpt lat="43.82878" lon="6.7248">
        <ele>1311</ele>
        <time>2018-04-27T11:01:33Z</time>
      </trkpt>
      <trkpt lat="43.82876" lon="6.72474">
        <ele>1312</ele>
        <time>2018-04-27T11:01:37Z</time>
      </trkpt>
      <trkpt lat="43.82874" lon="6.72468">
        <ele>1313</ele>
        <time>2018-04-27T11:01:41Z</time>
      </trkpt>
      <trkpt lat="43.82871" lon="6.72462">
        <ele>1313</ele>
        <time>2018-04-27T11:01:45Z</time>
      </trkpt>
      <trkpt lat="43.82868" lon="6.72455">
        <ele>1315</ele>
        <time>2018-04-27T11:01:50Z</time>
      </trkpt>
      <trkpt lat="43.82866" lon="6.72449">
        <ele>1316</ele>
        <time>2018-04-27T11:01:53Z</time>
      </trkpt>
      <trkpt lat="43.82863" lon="6.72443">
        <ele>1317</ele>
        <time>2018-04-27T11:01:57Z</time>
      </trkpt>
      <trkpt lat="43.82859" lon="6.72439">
        <ele>1318</ele>
        <time>2018-04-27T11:02:00Z</time>
      </trkpt>
      <trkpt lat="43.82857" lon="6.72432">
        <ele>1319</ele>
        <time>2018-04-27T11:02:04Z</time>
      </trkpt>
      <trkpt lat="43.82854" lon="6.72426">
        <ele>1319</ele>
        <time>2018-04-27T11:02:08Z</time>
      </trkpt>
      <trkpt lat="43.8285" lon="6.7242">
        <ele>1320</ele>
        <time>2018-04-27T11:02:12Z</time>
      </trkpt>
      <trkpt lat="43.82847" lon="6.72412">
        <ele>1320</ele>
        <time>2018-04-27T11:02:16Z</time>
      </trkpt>
      <trkpt lat="43.82843" lon="6.72406">
        <ele>1320</ele>
        <time>2018-04-27T11:02:20Z</time>
      </trkpt>
      <trkpt lat="43.8284" lon="6.724">
        <ele>1321</ele>
        <time>2018-04-27T11:02:24Z</time>
      </trkpt>
      <trkpt lat="43.82837" lon="6.72394">
        <ele>1321</ele>
        <time>2018-04-27T11:02:28Z</time>
      </trkpt>
      <trkpt lat="43.82833" lon="6.72389">
        <ele>1322</ele>
        <time>2018-04-27T11:02:32Z</time>
      </trkpt>
      <trkpt lat="43.82829" lon="6.72384">
        <ele>1322</ele>
        <time>2018-04-27T11:02:36Z</time>
      </trkpt>
      <trkpt lat="43.82826" lon="6.72379">
        <ele>1323</ele>
        <time>2018-04-27T11:02:40Z</time>
      </trkpt>
      <trkpt lat="43.82821" lon="6.72374">
        <ele>1323</ele>
        <time>2018-04-27T11:02:44Z</time>
      </trkpt>
      <trkpt lat="43.82816" lon="6.72369">
        <ele>1323</ele>
        <time>2018-04-27T11:02:48Z</time>
      </trkpt>
      <trkpt lat="43.82812" lon="6.72365">
        <ele>1324</ele>
        <time>2018-04-27T11:02:52Z</time>
      </trkpt>
      <trkpt lat="43.82808" lon="6.72364">
        <ele>1325</ele>
        <time>2018-04-27T11:02:56Z</time>
      </trkpt>
      <trkpt lat="43.82803" lon="6.7236">
        <ele>1326</ele>
        <time>2018-04-27T11:03:00Z</time>
      </trkpt>
      <trkpt lat="43.82798" lon="6.72355">
        <ele>1327</ele>
        <time>2018-04-27T11:03:04Z</time>
      </trkpt>
      <trkpt lat="43.82794" lon="6.72352">
        <ele>1328</ele>
        <time>2018-04-27T11:03:07Z</time>
      </trkpt>
      <trkpt lat="43.8279" lon="6.72348">
        <ele>1329</ele>
        <time>2018-04-27T11:03:11Z</time>
      </trkpt>
      <trkpt lat="43.82786" lon="6.72344">
        <ele>1330</ele>
        <time>2018-04-27T11:03:14Z</time>
      </trkpt>
      <trkpt lat="43.82782" lon="6.72339">
        <ele>1330</ele>
        <time>2018-04-27T11:03:17Z</time>
      </trkpt>
      <trkpt lat="43.82779" lon="6.72332">
        <ele>1330</ele>
        <time>2018-04-27T11:03:21Z</time>
      </trkpt>
      <trkpt lat="43.82776" lon="6.72327">
        <ele>1331</ele>
        <time>2018-04-27T11:03:24Z</time>
      </trkpt>
      <trkpt lat="43.82774" lon="6.72321">
        <ele>1331</ele>
        <time>2018-04-27T11:03:28Z</time>
      </trkpt>
      <trkpt lat="43.82772" lon="6.72315">
        <ele>1332</ele>
        <time>2018-04-27T11:03:32Z</time>
      </trkpt>
      <trkpt lat="43.82769" lon="6.72309">
        <ele>1332</ele>
        <time>2018-04-27T11:03:36Z</time>
      </trkpt>
      <trkpt lat="43.82766" lon="6.72302">
        <ele>1333</ele>
        <time>2018-04-27T11:03:40Z</time>
      </trkpt>
      <trkpt lat="43.82763" lon="6.72296">
        <ele>1334</ele>
        <time>2018-04-27T11:03:44Z</time>
      </trkpt>
      <trkpt lat="43.82762" lon="6.72289">
        <ele>1334</ele>
        <time>2018-04-27T11:03:49Z</time>
      </trkpt>
      <trkpt lat="43.8276" lon="6.72282">
        <ele>1335</ele>
        <time>2018-04-27T11:03:53Z</time>
      </trkpt>
      <trkpt lat="43.82758" lon="6.72276">
        <ele>1335</ele>
        <time>2018-04-27T11:03:57Z</time>
      </trkpt>
      <trkpt lat="43.82757" lon="6.7227">
        <ele>1336</ele>
        <time>2018-04-27T11:04:01Z</time>
      </trkpt>
      <trkpt lat="43.82756" lon="6.72263">
        <ele>1337</ele>
        <time>2018-04-27T11:04:05Z</time>
      </trkpt>
      <trkpt lat="43.82755" lon="6.72255">
        <ele>1337</ele>
        <time>2018-04-27T11:04:10Z</time>
      </trkpt>
      <trkpt lat="43.82755" lon="6.72248">
        <ele>1338</ele>
        <time>2018-04-27T11:04:14Z</time>
      </trkpt>
      <trkpt lat="43.82753" lon="6.7224">
        <ele>1338</ele>
        <time>2018-04-27T11:04:18Z</time>
      </trkpt>
      <trkpt lat="43.82752" lon="6.72234">
        <ele>1338</ele>
        <time>2018-04-27T11:04:21Z</time>
      </trkpt>
      <trkpt lat="43.8275" lon="6.72228">
        <ele>1338</ele>
        <time>2018-04-27T11:04:24Z</time>
      </trkpt>
      <trkpt lat="43.82748" lon="6.72222">
        <ele>1339</ele>
        <time>2018-04-27T11:04:27Z</time>
      </trkpt>
      <trkpt lat="43.82746" lon="6.72216">
        <ele>1339</ele>
        <time>2018-04-27T11:04:30Z</time>
      </trkpt>
      <trkpt lat="43.82744" lon="6.7221">
        <ele>1339</ele>
        <time>2018-04-27T11:04:34Z</time>
      </trkpt>
      <trkpt lat="43.82742" lon="6.72203">
        <ele>1340</ele>
        <time>2018-04-27T11:04:38Z</time>
      </trkpt>
      <trkpt lat="43.82739" lon="6.72197">
        <ele>1340</ele>
        <time>2018-04-27T11:04:42Z</time>
      </trkpt>
      <trkpt lat="43.82736" lon="6.72191">
        <ele>1340</ele>
        <time>2018-04-27T11:04:46Z</time>
      </trkpt>
      <trkpt lat="43.82734" lon="6.72186">
        <ele>1341</ele>
        <time>2018-04-27T11:04:50Z</time>
      </trkpt>
      <trkpt lat="43.82731" lon="6.7218">
        <ele>1342</ele>
        <time>2018-04-27T11:04:55Z</time>
      </trkpt>
      <trkpt lat="43.82727" lon="6.72176">
        <ele>1343</ele>
        <time>2018-04-27T11:05:00Z</time>
      </trkpt>
      <trkpt lat="43.82725" lon="6.7217">
        <ele>1343</ele>
        <time>2018-04-27T11:05:04Z</time>
      </trkpt>
      <trkpt lat="43.82722" lon="6.72165">
        <ele>1344</ele>
        <time>2018-04-27T11:05:08Z</time>
      </trkpt>
      <trkpt lat="43.82718" lon="6.72159">
        <ele>1345</ele>
        <time>2018-04-27T11:05:12Z</time>
      </trkpt>
      <trkpt lat="43.82715" lon="6.72153">
        <ele>1345</ele>
        <time>2018-04-27T11:05:16Z</time>
      </trkpt>
      <trkpt lat="43.8271" lon="6.72149">
        <ele>1345</ele>
        <time>2018-04-27T11:05:20Z</time>
      </trkpt>
      <trkpt lat="43.82706" lon="6.72145">
        <ele>1346</ele>
        <time>2018-04-27T11:05:24Z</time>
      </trkpt>
      <trkpt lat="43.82702" lon="6.72141">
        <ele>1346</ele>
        <time>2018-04-27T11:05:28Z</time>
      </trkpt>
      <trkpt lat="43.82697" lon="6.72137">
        <ele>1347</ele>
        <time>2018-04-27T11:05:32Z</time>
      </trkpt>
      <trkpt lat="43.82693" lon="6.72133">
        <ele>1348</ele>
        <time>2018-04-27T11:05:36Z</time>
      </trkpt>
      <trkpt lat="43.8269" lon="6.72132">
        <ele>1348</ele>
        <time>2018-04-27T11:06:00Z</time>
      </trkpt>
      <trkpt lat="43.8269" lon="6.72132">
        <ele>1349</ele>
        <time>2018-04-27T11:06:03Z</time>
      </trkpt>
      <trkpt lat="43.8269" lon="6.72132">
        <ele>1350</ele>
        <time>2018-04-27T11:06:30Z</time>
      </trkpt>
      <trkpt lat="43.8269" lon="6.72132">
        <ele>1350</ele>
        <time>2018-04-27T11:06:33Z</time>
      </trkpt>
      <trkpt lat="43.8269" lon="6.72132">
        <ele>1351</ele>
        <time>2018-04-27T11:07:00Z</time>
      </trkpt>
      <trkpt lat="43.82692" lon="6.7213">
        <ele>1351</ele>
        <time>2018-04-27T11:07:03Z</time>
      </trkpt>
      <trkpt lat="43.8269" lon="6.72132">
        <ele>1351</ele>
        <time>2018-04-27T11:07:30Z</time>
      </trkpt>
      <trkpt lat="43.8269" lon="6.72132">
        <ele>1352</ele>
        <time>2018-04-27T11:07:33Z</time>
      </trkpt>
      <trkpt lat="43.82687" lon="6.72127">
        <ele>1352</ele>
        <time>2018-04-27T11:07:53Z</time>
      </trkpt>
      <trkpt lat="43.82685" lon="6.72121">
        <ele>1352</ele>
        <time>2018-04-27T11:07:58Z</time>
      </trkpt>
      <trkpt lat="43.82682" lon="6.72116">
        <ele>1353</ele>
        <time>2018-04-27T11:08:03Z</time>
      </trkpt>
      <trkpt lat="43.8268" lon="6.72109">
        <ele>1353</ele>
        <time>2018-04-27T11:08:08Z</time>
      </trkpt>
      <trkpt lat="43.82678" lon="6.72103">
        <ele>1353</ele>
        <time>2018-04-27T11:08:14Z</time>
      </trkpt>
      <trkpt lat="43.82676" lon="6.72098">
        <ele>1353</ele>
        <time>2018-04-27T11:08:19Z</time>
      </trkpt>
      <trkpt lat="43.82672" lon="6.72093">
        <ele>1354</ele>
        <time>2018-04-27T11:08:24Z</time>
      </trkpt>
      <trkpt lat="43.82668" lon="6.7209">
        <ele>1355</ele>
        <time>2018-04-27T11:08:29Z</time>
      </trkpt>
      <trkpt lat="43.82664" lon="6.72084">
        <ele>1355</ele>
        <time>2018-04-27T11:08:34Z</time>
      </trkpt>
      <trkpt lat="43.82661" lon="6.72079">
        <ele>1356</ele>
        <time>2018-04-27T11:08:38Z</time>
      </trkpt>
      <trkpt lat="43.82659" lon="6.72074">
        <ele>1356</ele>
        <time>2018-04-27T11:08:43Z</time>
      </trkpt>
      <trkpt lat="43.82658" lon="6.72068">
        <ele>1356</ele>
        <time>2018-04-27T11:08:48Z</time>
      </trkpt>
      <trkpt lat="43.82659" lon="6.72061">
        <ele>1356</ele>
        <time>2018-04-27T11:08:54Z</time>
      </trkpt>
      <trkpt lat="43.82657" lon="6.72055">
        <ele>1357</ele>
        <time>2018-04-27T11:08:59Z</time>
      </trkpt>
      <trkpt lat="43.82655" lon="6.72049">
        <ele>1357</ele>
        <time>2018-04-27T11:09:04Z</time>
      </trkpt>
      <trkpt lat="43.82652" lon="6.72044">
        <ele>1358</ele>
        <time>2018-04-27T11:09:10Z</time>
      </trkpt>
      <trkpt lat="43.82649" lon="6.72037">
        <ele>1359</ele>
        <time>2018-04-27T11:09:16Z</time>
      </trkpt>
      <trkpt lat="43.82645" lon="6.72032">
        <ele>1360</ele>
        <time>2018-04-27T11:09:26Z</time>
      </trkpt>
      <trkpt lat="43.82643" lon="6.72026">
        <ele>1360</ele>
        <time>2018-04-27T11:09:30Z</time>
      </trkpt>
      <trkpt lat="43.82642" lon="6.72018">
        <ele>1360</ele>
        <time>2018-04-27T11:09:34Z</time>
      </trkpt>
      <trkpt lat="43.82639" lon="6.72012">
        <ele>1360</ele>
        <time>2018-04-27T11:09:38Z</time>
      </trkpt>
      <trkpt lat="43.82637" lon="6.72006">
        <ele>1360</ele>
        <time>2018-04-27T11:09:42Z</time>
      </trkpt>
      <trkpt lat="43.82635" lon="6.71999">
        <ele>1359</ele>
        <time>2018-04-27T11:09:46Z</time>
      </trkpt>
      <trkpt lat="43.82632" lon="6.71993">
        <ele>1359</ele>
        <time>2018-04-27T11:09:50Z</time>
      </trkpt>
      <trkpt lat="43.82629" lon="6.71987">
        <ele>1360</ele>
        <time>2018-04-27T11:09:54Z</time>
      </trkpt>
      <trkpt lat="43.82628" lon="6.71981">
        <ele>1360</ele>
        <time>2018-04-27T11:09:58Z</time>
      </trkpt>
      <trkpt lat="43.82626" lon="6.71975">
        <ele>1360</ele>
        <time>2018-04-27T11:10:02Z</time>
      </trkpt>
      <trkpt lat="43.82623" lon="6.7197">
        <ele>1361</ele>
        <time>2018-04-27T11:10:06Z</time>
      </trkpt>
      <trkpt lat="43.82621" lon="6.71963">
        <ele>1361</ele>
        <time>2018-04-27T11:10:10Z</time>
      </trkpt>
      <trkpt lat="43.8262" lon="6.71956">
        <ele>1361</ele>
        <time>2018-04-27T11:10:14Z</time>
      </trkpt>
      <trkpt lat="43.82617" lon="6.71948">
        <ele>1362</ele>
        <time>2018-04-27T11:10:18Z</time>
      </trkpt>
      <trkpt lat="43.82616" lon="6.71942">
        <ele>1362</ele>
        <time>2018-04-27T11:10:21Z</time>
      </trkpt>
      <trkpt lat="43.82614" lon="6.71937">
        <ele>1363</ele>
        <time>2018-04-27T11:10:24Z</time>
      </trkpt>
      <trkpt lat="43.82612" lon="6.71931">
        <ele>1363</ele>
        <time>2018-04-27T11:10:27Z</time>
      </trkpt>
      <trkpt lat="43.82609" lon="6.71923">
        <ele>1364</ele>
        <time>2018-04-27T11:10:31Z</time>
      </trkpt>
      <trkpt lat="43.82605" lon="6.71919">
        <ele>1365</ele>
        <time>2018-04-27T11:10:35Z</time>
      </trkpt>
      <trkpt lat="43.826" lon="6.71914">
        <ele>1366</ele>
        <time>2018-04-27T11:10:39Z</time>
      </trkpt>
      <trkpt lat="43.82597" lon="6.71909">
        <ele>1367</ele>
        <time>2018-04-27T11:10:43Z</time>
      </trkpt>
      <trkpt lat="43.82594" lon="6.71903">
        <ele>1368</ele>
        <time>2018-04-27T11:10:47Z</time>
      </trkpt>
      <trkpt lat="43.82592" lon="6.71896">
        <ele>1369</ele>
        <time>2018-04-27T11:10:51Z</time>
      </trkpt>
      <trkpt lat="43.82589" lon="6.7189">
        <ele>1370</ele>
        <time>2018-04-27T11:10:55Z</time>
      </trkpt>
      <trkpt lat="43.82587" lon="6.71883">
        <ele>1371</ele>
        <time>2018-04-27T11:10:59Z</time>
      </trkpt>
      <trkpt lat="43.82583" lon="6.71879">
        <ele>1371</ele>
        <time>2018-04-27T11:11:03Z</time>
      </trkpt>
      <trkpt lat="43.82578" lon="6.71876">
        <ele>1372</ele>
        <time>2018-04-27T11:11:07Z</time>
      </trkpt>
      <trkpt lat="43.82574" lon="6.71874">
        <ele>1373</ele>
        <time>2018-04-27T11:11:10Z</time>
      </trkpt>
      <trkpt lat="43.82569" lon="6.7187">
        <ele>1373</ele>
        <time>2018-04-27T11:11:14Z</time>
      </trkpt>
      <trkpt lat="43.82564" lon="6.71866">
        <ele>1374</ele>
        <time>2018-04-27T11:11:18Z</time>
      </trkpt>
      <trkpt lat="43.8256" lon="6.71861">
        <ele>1375</ele>
        <time>2018-04-27T11:11:22Z</time>
      </trkpt>
      <trkpt lat="43.82556" lon="6.71855">
        <ele>1375</ele>
        <time>2018-04-27T11:11:26Z</time>
      </trkpt>
      <trkpt lat="43.82552" lon="6.7185">
        <ele>1376</ele>
        <time>2018-04-27T11:11:30Z</time>
      </trkpt>
      <trkpt lat="43.82549" lon="6.71846">
        <ele>1376</ele>
        <time>2018-04-27T11:11:34Z</time>
      </trkpt>
      <trkpt lat="43.82545" lon="6.7184">
        <ele>1376</ele>
        <time>2018-04-27T11:11:38Z</time>
      </trkpt>
      <trkpt lat="43.82541" lon="6.71836">
        <ele>1376</ele>
        <time>2018-04-27T11:11:42Z</time>
      </trkpt>
      <trkpt lat="43.82538" lon="6.7183">
        <ele>1377</ele>
        <time>2018-04-27T11:11:46Z</time>
      </trkpt>
      <trkpt lat="43.82535" lon="6.71825">
        <ele>1377</ele>
        <time>2018-04-27T11:11:50Z</time>
      </trkpt>
      <trkpt lat="43.82533" lon="6.71819">
        <ele>1377</ele>
        <time>2018-04-27T11:11:54Z</time>
      </trkpt>
      <trkpt lat="43.8253" lon="6.71813">
        <ele>1378</ele>
        <time>2018-04-27T11:11:57Z</time>
      </trkpt>
      <trkpt lat="43.82526" lon="6.71808">
        <ele>1378</ele>
        <time>2018-04-27T11:12:01Z</time>
      </trkpt>
      <trkpt lat="43.82522" lon="6.71804">
        <ele>1379</ele>
        <time>2018-04-27T11:12:05Z</time>
      </trkpt>
      <trkpt lat="43.82518" lon="6.71801">
        <ele>1380</ele>
        <time>2018-04-27T11:12:09Z</time>
      </trkpt>
      <trkpt lat="43.82514" lon="6.71797">
        <ele>1381</ele>
        <time>2018-04-27T11:12:13Z</time>
      </trkpt>
      <trkpt lat="43.8251" lon="6.71794">
        <ele>1382</ele>
        <time>2018-04-27T11:12:17Z</time>
      </trkpt>
      <trkpt lat="43.82505" lon="6.71789">
        <ele>1383</ele>
        <time>2018-04-27T11:12:21Z</time>
      </trkpt>
      <trkpt lat="43.82501" lon="6.71786">
        <ele>1383</ele>
        <time>2018-04-27T11:12:25Z</time>
      </trkpt>
      <trkpt lat="43.82497" lon="6.71781">
        <ele>1384</ele>
        <time>2018-04-27T11:12:29Z</time>
      </trkpt>
      <trkpt lat="43.82494" lon="6.71774">
        <ele>1384</ele>
        <time>2018-04-27T11:12:33Z</time>
      </trkpt>
      <trkpt lat="43.82492" lon="6.71769">
        <ele>1384</ele>
        <time>2018-04-27T11:12:37Z</time>
      </trkpt>
      <trkpt lat="43.8249" lon="6.71762">
        <ele>1385</ele>
        <time>2018-04-27T11:12:41Z</time>
      </trkpt>
      <trkpt lat="43.82488" lon="6.71757">
        <ele>1386</ele>
        <time>2018-04-27T11:12:45Z</time>
      </trkpt>
      <trkpt lat="43.82486" lon="6.71749">
        <ele>1386</ele>
        <time>2018-04-27T11:12:49Z</time>
      </trkpt>
      <trkpt lat="43.82484" lon="6.71743">
        <ele>1387</ele>
        <time>2018-04-27T11:12:53Z</time>
      </trkpt>
      <trkpt lat="43.82483" lon="6.71736">
        <ele>1388</ele>
        <time>2018-04-27T11:12:57Z</time>
      </trkpt>
      <trkpt lat="43.82483" lon="6.71729">
        <ele>1388</ele>
        <time>2018-04-27T11:13:01Z</time>
      </trkpt>
      <trkpt lat="43.82482" lon="6.71723">
        <ele>1389</ele>
        <time>2018-04-27T11:13:05Z</time>
      </trkpt>
      <trkpt lat="43.82481" lon="6.71717">
        <ele>1389</ele>
        <time>2018-04-27T11:13:09Z</time>
      </trkpt>
      <trkpt lat="43.82481" lon="6.7171">
        <ele>1390</ele>
        <time>2018-04-27T11:13:13Z</time>
      </trkpt>
      <trkpt lat="43.8248" lon="6.71704">
        <ele>1391</ele>
        <time>2018-04-27T11:13:17Z</time>
      </trkpt>
      <trkpt lat="43.8248" lon="6.71698">
        <ele>1391</ele>
        <time>2018-04-27T11:13:21Z</time>
      </trkpt>
      <trkpt lat="43.8248" lon="6.7169">
        <ele>1392</ele>
        <time>2018-04-27T11:13:26Z</time>
      </trkpt>
      <trkpt lat="43.82481" lon="6.71682">
        <ele>1393</ele>
        <time>2018-04-27T11:13:30Z</time>
      </trkpt>
      <trkpt lat="43.82481" lon="6.71676">
        <ele>1393</ele>
        <time>2018-04-27T11:13:34Z</time>
      </trkpt>
      <trkpt lat="43.8248" lon="6.71669">
        <ele>1393</ele>
        <time>2018-04-27T11:13:38Z</time>
      </trkpt>
      <trkpt lat="43.82479" lon="6.71662">
        <ele>1394</ele>
        <time>2018-04-27T11:13:42Z</time>
      </trkpt>
      <trkpt lat="43.82478" lon="6.71654">
        <ele>1394</ele>
        <time>2018-04-27T11:13:46Z</time>
      </trkpt>
      <trkpt lat="43.82478" lon="6.71647">
        <ele>1395</ele>
        <time>2018-04-27T11:13:50Z</time>
      </trkpt>
      <trkpt lat="43.82477" lon="6.71641">
        <ele>1395</ele>
        <time>2018-04-27T11:13:54Z</time>
      </trkpt>
      <trkpt lat="43.82477" lon="6.71635">
        <ele>1396</ele>
        <time>2018-04-27T11:13:58Z</time>
      </trkpt>
      <trkpt lat="43.82478" lon="6.71628">
        <ele>1397</ele>
        <time>2018-04-27T11:14:02Z</time>
      </trkpt>
      <trkpt lat="43.82475" lon="6.71621">
        <ele>1398</ele>
        <time>2018-04-27T11:14:07Z</time>
      </trkpt>
      <trkpt lat="43.82476" lon="6.7162">
        <ele>1399</ele>
        <time>2018-04-27T11:14:30Z</time>
      </trkpt>
      <trkpt lat="43.82476" lon="6.7162">
        <ele>1399</ele>
        <time>2018-04-27T11:14:33Z</time>
      </trkpt>
      <trkpt lat="43.82476" lon="6.71619">
        <ele>1399</ele>
        <time>2018-04-27T11:15:00Z</time>
      </trkpt>
      <trkpt lat="43.82476" lon="6.71619">
        <ele>1398</ele>
        <time>2018-04-27T11:15:03Z</time>
      </trkpt>
      <trkpt lat="43.82477" lon="6.71612">
        <ele>1398</ele>
        <time>2018-04-27T11:15:19Z</time>
      </trkpt>
      <trkpt lat="43.82476" lon="6.71604">
        <ele>1397</ele>
        <time>2018-04-27T11:15:23Z</time>
      </trkpt>
      <trkpt lat="43.82475" lon="6.71596">
        <ele>1397</ele>
        <time>2018-04-27T11:15:27Z</time>
      </trkpt>
      <trkpt lat="43.82473" lon="6.71589">
        <ele>1397</ele>
        <time>2018-04-27T11:15:31Z</time>
      </trkpt>
      <trkpt lat="43.82471" lon="6.71582">
        <ele>1397</ele>
        <time>2018-04-27T11:15:35Z</time>
      </trkpt>
      <trkpt lat="43.82469" lon="6.71575">
        <ele>1398</ele>
        <time>2018-04-27T11:15:39Z</time>
      </trkpt>
      <trkpt lat="43.82467" lon="6.71568">
        <ele>1399</ele>
        <time>2018-04-27T11:15:43Z</time>
      </trkpt>
      <trkpt lat="43.82466" lon="6.71561">
        <ele>1399</ele>
        <time>2018-04-27T11:15:47Z</time>
      </trkpt>
      <trkpt lat="43.82464" lon="6.71554">
        <ele>1400</ele>
        <time>2018-04-27T11:15:51Z</time>
      </trkpt>
      <trkpt lat="43.82462" lon="6.71547">
        <ele>1401</ele>
        <time>2018-04-27T11:15:55Z</time>
      </trkpt>
      <trkpt lat="43.82459" lon="6.71541">
        <ele>1401</ele>
        <time>2018-04-27T11:15:58Z</time>
      </trkpt>
      <trkpt lat="43.82457" lon="6.71534">
        <ele>1402</ele>
        <time>2018-04-27T11:16:02Z</time>
      </trkpt>
      <trkpt lat="43.82456" lon="6.71526">
        <ele>1402</ele>
        <time>2018-04-27T11:16:06Z</time>
      </trkpt>
      <trkpt lat="43.82454" lon="6.71518">
        <ele>1403</ele>
        <time>2018-04-27T11:16:10Z</time>
      </trkpt>
      <trkpt lat="43.82453" lon="6.71512">
        <ele>1404</ele>
        <time>2018-04-27T11:16:13Z</time>
      </trkpt>
      <trkpt lat="43.82451" lon="6.71505">
        <ele>1404</ele>
        <time>2018-04-27T11:16:17Z</time>
      </trkpt>
      <trkpt lat="43.8245" lon="6.71498">
        <ele>1405</ele>
        <time>2018-04-27T11:16:21Z</time>
      </trkpt>
      <trkpt lat="43.82449" lon="6.7149">
        <ele>1406</ele>
        <time>2018-04-27T11:16:25Z</time>
      </trkpt>
      <trkpt lat="43.82447" lon="6.71484">
        <ele>1406</ele>
        <time>2018-04-27T11:16:29Z</time>
      </trkpt>
      <trkpt lat="43.82446" lon="6.71476">
        <ele>1407</ele>
        <time>2018-04-27T11:16:33Z</time>
      </trkpt>
      <trkpt lat="43.82445" lon="6.7147">
        <ele>1408</ele>
        <time>2018-04-27T11:16:36Z</time>
      </trkpt>
      <trkpt lat="43.82444" lon="6.71463">
        <ele>1408</ele>
        <time>2018-04-27T11:16:39Z</time>
      </trkpt>
      <trkpt lat="43.82443" lon="6.71455">
        <ele>1409</ele>
        <time>2018-04-27T11:16:43Z</time>
      </trkpt>
      <trkpt lat="43.82442" lon="6.71447">
        <ele>1409</ele>
        <time>2018-04-27T11:16:47Z</time>
      </trkpt>
      <trkpt lat="43.82441" lon="6.71441">
        <ele>1410</ele>
        <time>2018-04-27T11:16:50Z</time>
      </trkpt>
      <trkpt lat="43.8244" lon="6.71433">
        <ele>1410</ele>
        <time>2018-04-27T11:16:54Z</time>
      </trkpt>
      <trkpt lat="43.82439" lon="6.71426">
        <ele>1411</ele>
        <time>2018-04-27T11:16:57Z</time>
      </trkpt>
      <trkpt lat="43.82439" lon="6.71419">
        <ele>1411</ele>
        <time>2018-04-27T11:17:00Z</time>
      </trkpt>
      <trkpt lat="43.82439" lon="6.71413">
        <ele>1412</ele>
        <time>2018-04-27T11:17:03Z</time>
      </trkpt>
      <trkpt lat="43.82439" lon="6.71405">
        <ele>1412</ele>
        <time>2018-04-27T11:17:07Z</time>
      </trkpt>
      <trkpt lat="43.8244" lon="6.71397">
        <ele>1412</ele>
        <time>2018-04-27T11:17:11Z</time>
      </trkpt>
      <trkpt lat="43.82441" lon="6.71389">
        <ele>1413</ele>
        <time>2018-04-27T11:17:15Z</time>
      </trkpt>
      <trkpt lat="43.82442" lon="6.71381">
        <ele>1414</ele>
        <time>2018-04-27T11:17:19Z</time>
      </trkpt>
      <trkpt lat="43.82442" lon="6.71374">
        <ele>1414</ele>
        <time>2018-04-27T11:17:22Z</time>
      </trkpt>
      <trkpt lat="43.82443" lon="6.71367">
        <ele>1415</ele>
        <time>2018-04-27T11:17:26Z</time>
      </trkpt>
      <trkpt lat="43.82443" lon="6.71361">
        <ele>1415</ele>
        <time>2018-04-27T11:17:29Z</time>
      </trkpt>
      <trkpt lat="43.82443" lon="6.71353">
        <ele>1415</ele>
        <time>2018-04-27T11:17:33Z</time>
      </trkpt>
      <trkpt lat="43.82442" lon="6.71345">
        <ele>1415</ele>
        <time>2018-04-27T11:17:36Z</time>
      </trkpt>
      <trkpt lat="43.8244" lon="6.71339">
        <ele>1416</ele>
        <time>2018-04-27T11:17:39Z</time>
      </trkpt>
      <trkpt lat="43.82438" lon="6.71332">
        <ele>1416</ele>
        <time>2018-04-27T11:17:42Z</time>
      </trkpt>
      <trkpt lat="43.82437" lon="6.71325">
        <ele>1416</ele>
        <time>2018-04-27T11:17:45Z</time>
      </trkpt>
      <trkpt lat="43.82435" lon="6.7132">
        <ele>1417</ele>
        <time>2018-04-27T11:17:48Z</time>
      </trkpt>
      <trkpt lat="43.82432" lon="6.71314">
        <ele>1417</ele>
        <time>2018-04-27T11:17:51Z</time>
      </trkpt>
      <trkpt lat="43.8243" lon="6.71308">
        <ele>1418</ele>
        <time>2018-04-27T11:17:54Z</time>
      </trkpt>
      <trkpt lat="43.8243" lon="6.713">
        <ele>1419</ele>
        <time>2018-04-27T11:17:58Z</time>
      </trkpt>
      <trkpt lat="43.82434" lon="6.71295">
        <ele>1419</ele>
        <time>2018-04-27T11:18:01Z</time>
      </trkpt>
      <trkpt lat="43.82438" lon="6.71294">
        <ele>1419</ele>
        <time>2018-04-27T11:18:04Z</time>
      </trkpt>
      <trkpt lat="43.8244" lon="6.713">
        <ele>1420</ele>
        <time>2018-04-27T11:18:08Z</time>
      </trkpt>
      <trkpt lat="43.82441" lon="6.71308">
        <ele>1420</ele>
        <time>2018-04-27T11:18:12Z</time>
      </trkpt>
      <trkpt lat="43.82443" lon="6.71314">
        <ele>1421</ele>
        <time>2018-04-27T11:18:21Z</time>
      </trkpt>
      <trkpt lat="43.82446" lon="6.71319">
        <ele>1421</ele>
        <time>2018-04-27T11:18:27Z</time>
      </trkpt>
      <trkpt lat="43.82449" lon="6.71325">
        <ele>1422</ele>
        <time>2018-04-27T11:18:32Z</time>
      </trkpt>
      <trkpt lat="43.82452" lon="6.71331">
        <ele>1424</ele>
        <time>2018-04-27T11:18:38Z</time>
      </trkpt>
      <trkpt lat="43.82455" lon="6.71336">
        <ele>1424</ele>
        <time>2018-04-27T11:18:44Z</time>
      </trkpt>
      <trkpt lat="43.82457" lon="6.71343">
        <ele>1425</ele>
        <time>2018-04-27T11:18:50Z</time>
      </trkpt>
      <trkpt lat="43.8246" lon="6.71349">
        <ele>1426</ele>
        <time>2018-04-27T11:18:55Z</time>
      </trkpt>
      <trkpt lat="43.82462" lon="6.71355">
        <ele>1426</ele>
        <time>2018-04-27T11:19:00Z</time>
      </trkpt>
      <trkpt lat="43.82464" lon="6.71361">
        <ele>1427</ele>
        <time>2018-04-27T11:19:05Z</time>
      </trkpt>
      <trkpt lat="43.82465" lon="6.71368">
        <ele>1427</ele>
        <time>2018-04-27T11:19:11Z</time>
      </trkpt>
      <trkpt lat="43.82466" lon="6.71374">
        <ele>1428</ele>
        <time>2018-04-27T11:19:16Z</time>
      </trkpt>
      <trkpt lat="43.82467" lon="6.71381">
        <ele>1429</ele>
        <time>2018-04-27T11:19:22Z</time>
      </trkpt>
      <trkpt lat="43.8247" lon="6.71387">
        <ele>1430</ele>
        <time>2018-04-27T11:19:28Z</time>
      </trkpt>
      <trkpt lat="43.82473" lon="6.71393">
        <ele>1431</ele>
        <time>2018-04-27T11:19:34Z</time>
      </trkpt>
      <trkpt lat="43.82476" lon="6.71399">
        <ele>1431</ele>
        <time>2018-04-27T11:19:40Z</time>
      </trkpt>
      <trkpt lat="43.82478" lon="6.71404">
        <ele>1432</ele>
        <time>2018-04-27T11:19:45Z</time>
      </trkpt>
      <trkpt lat="43.82482" lon="6.71408">
        <ele>1432</ele>
        <time>2018-04-27T11:19:50Z</time>
      </trkpt>
      <trkpt lat="43.82486" lon="6.71413">
        <ele>1433</ele>
        <time>2018-04-27T11:19:56Z</time>
      </trkpt>
      <trkpt lat="43.82489" lon="6.71418">
        <ele>1433</ele>
        <time>2018-04-27T11:20:02Z</time>
      </trkpt>
      <trkpt lat="43.82491" lon="6.71423">
        <ele>1434</ele>
        <time>2018-04-27T11:20:07Z</time>
      </trkpt>
      <trkpt lat="43.82494" lon="6.71429">
        <ele>1434</ele>
        <time>2018-04-27T11:20:13Z</time>
      </trkpt>
      <trkpt lat="43.82496" lon="6.71435">
        <ele>1435</ele>
        <time>2018-04-27T11:20:18Z</time>
      </trkpt>
      <trkpt lat="43.82499" lon="6.7144">
        <ele>1436</ele>
        <time>2018-04-27T11:20:23Z</time>
      </trkpt>
      <trkpt lat="43.825" lon="6.71446">
        <ele>1436</ele>
        <time>2018-04-27T11:20:29Z</time>
      </trkpt>
      <trkpt lat="43.82502" lon="6.71453">
        <ele>1437</ele>
        <time>2018-04-27T11:20:41Z</time>
      </trkpt>
      <trkpt lat="43.82505" lon="6.71459">
        <ele>1437</ele>
        <time>2018-04-27T11:20:46Z</time>
      </trkpt>
      <trkpt lat="43.82508" lon="6.71465">
        <ele>1438</ele>
        <time>2018-04-27T11:20:52Z</time>
      </trkpt>
      <trkpt lat="43.82511" lon="6.71471">
        <ele>1439</ele>
        <time>2018-04-27T11:20:58Z</time>
      </trkpt>
      <trkpt lat="43.82514" lon="6.71476">
        <ele>1440</ele>
        <time>2018-04-27T11:21:04Z</time>
      </trkpt>
      <trkpt lat="43.82517" lon="6.71481">
        <ele>1440</ele>
        <time>2018-04-27T11:21:09Z</time>
      </trkpt>
      <trkpt lat="43.8252" lon="6.71487">
        <ele>1441</ele>
        <time>2018-04-27T11:21:15Z</time>
      </trkpt>
      <trkpt lat="43.82522" lon="6.71493">
        <ele>1442</ele>
        <time>2018-04-27T11:21:19Z</time>
      </trkpt>
      <trkpt lat="43.82525" lon="6.71499">
        <ele>1442</ele>
        <time>2018-04-27T11:21:24Z</time>
      </trkpt>
      <trkpt lat="43.82527" lon="6.71505">
        <ele>1442</ele>
        <time>2018-04-27T11:21:29Z</time>
      </trkpt>
      <trkpt lat="43.82529" lon="6.7151">
        <ele>1442</ele>
        <time>2018-04-27T11:21:34Z</time>
      </trkpt>
      <trkpt lat="43.82533" lon="6.71516">
        <ele>1442</ele>
        <time>2018-04-27T11:21:39Z</time>
      </trkpt>
      <trkpt lat="43.82534" lon="6.71522">
        <ele>1442</ele>
        <time>2018-04-27T11:21:44Z</time>
      </trkpt>
      <trkpt lat="43.82535" lon="6.71529">
        <ele>1443</ele>
        <time>2018-04-27T11:21:50Z</time>
      </trkpt>
      <trkpt lat="43.82536" lon="6.71536">
        <ele>1444</ele>
        <time>2018-04-27T11:21:56Z</time>
      </trkpt>
      <trkpt lat="43.82539" lon="6.71542">
        <ele>1444</ele>
        <time>2018-04-27T11:22:02Z</time>
      </trkpt>
      <trkpt lat="43.82542" lon="6.71547">
        <ele>1444</ele>
        <time>2018-04-27T11:22:07Z</time>
      </trkpt>
      <trkpt lat="43.82545" lon="6.71553">
        <ele>1444</ele>
        <time>2018-04-27T11:22:13Z</time>
      </trkpt>
      <trkpt lat="43.82548" lon="6.71557">
        <ele>1444</ele>
        <time>2018-04-27T11:22:19Z</time>
      </trkpt>
      <trkpt lat="43.82552" lon="6.71561">
        <ele>1444</ele>
        <time>2018-04-27T11:22:25Z</time>
      </trkpt>
      <trkpt lat="43.82557" lon="6.71564">
        <ele>1444</ele>
        <time>2018-04-27T11:22:30Z</time>
      </trkpt>
      <trkpt lat="43.82561" lon="6.71568">
        <ele>1445</ele>
        <time>2018-04-27T11:22:41Z</time>
      </trkpt>
      <trkpt lat="43.82565" lon="6.71571">
        <ele>1445</ele>
        <time>2018-04-27T11:22:47Z</time>
      </trkpt>
      <trkpt lat="43.82569" lon="6.71575">
        <ele>1446</ele>
        <time>2018-04-27T11:22:53Z</time>
      </trkpt>
      <trkpt lat="43.82568" lon="6.71576">
        <ele>1446</ele>
        <time>2018-04-27T11:23:15Z</time>
      </trkpt>
      <trkpt lat="43.82568" lon="6.71576">
        <ele>1447</ele>
        <time>2018-04-27T11:23:17Z</time>
      </trkpt>
      <trkpt lat="43.82572" lon="6.71579">
        <ele>1447</ele>
        <time>2018-04-27T11:23:26Z</time>
      </trkpt>
      <trkpt lat="43.82577" lon="6.71584">
        <ele>1448</ele>
        <time>2018-04-27T11:23:32Z</time>
      </trkpt>
      <trkpt lat="43.82581" lon="6.71587">
        <ele>1448</ele>
        <time>2018-04-27T11:23:36Z</time>
      </trkpt>
      <trkpt lat="43.82586" lon="6.71591">
        <ele>1448</ele>
        <time>2018-04-27T11:23:40Z</time>
      </trkpt>
      <trkpt lat="43.82591" lon="6.71594">
        <ele>1448</ele>
        <time>2018-04-27T11:23:44Z</time>
      </trkpt>
      <trkpt lat="43.82595" lon="6.71596">
        <ele>1448</ele>
        <time>2018-04-27T11:23:50Z</time>
      </trkpt>
      <trkpt lat="43.82596" lon="6.71596">
        <ele>1448</ele>
        <time>2018-04-27T11:24:15Z</time>
      </trkpt>
      <trkpt lat="43.82596" lon="6.71596">
        <ele>1448</ele>
        <time>2018-04-27T11:24:17Z</time>
      </trkpt>
      <trkpt lat="43.82596" lon="6.71596">
        <ele>1448</ele>
        <time>2018-04-27T11:24:45Z</time>
      </trkpt>
      <trkpt lat="43.82596" lon="6.71596">
        <ele>1448</ele>
        <time>2018-04-27T11:24:47Z</time>
      </trkpt>
      <trkpt lat="43.82601" lon="6.71598">
        <ele>1449</ele>
        <time>2018-04-27T11:25:01Z</time>
      </trkpt>
      <trkpt lat="43.82606" lon="6.716">
        <ele>1449</ele>
        <time>2018-04-27T11:25:04Z</time>
      </trkpt>
      <trkpt lat="43.82611" lon="6.71603">
        <ele>1450</ele>
        <time>2018-04-27T11:25:08Z</time>
      </trkpt>
      <trkpt lat="43.82616" lon="6.71605">
        <ele>1451</ele>
        <time>2018-04-27T11:25:12Z</time>
      </trkpt>
      <trkpt lat="43.82621" lon="6.71608">
        <ele>1452</ele>
        <time>2018-04-27T11:25:16Z</time>
      </trkpt>
      <trkpt lat="43.82626" lon="6.7161">
        <ele>1453</ele>
        <time>2018-04-27T11:25:20Z</time>
      </trkpt>
      <trkpt lat="43.82632" lon="6.71613">
        <ele>1454</ele>
        <time>2018-04-27T11:25:24Z</time>
      </trkpt>
      <trkpt lat="43.82637" lon="6.71617">
        <ele>1455</ele>
        <time>2018-04-27T11:25:28Z</time>
      </trkpt>
      <trkpt lat="43.8264" lon="6.71621">
        <ele>1456</ele>
        <time>2018-04-27T11:25:32Z</time>
      </trkpt>
      <trkpt lat="43.82644" lon="6.71626">
        <ele>1456</ele>
        <time>2018-04-27T11:25:36Z</time>
      </trkpt>
      <trkpt lat="43.82648" lon="6.7163">
        <ele>1457</ele>
        <time>2018-04-27T11:25:40Z</time>
      </trkpt>
      <trkpt lat="43.82652" lon="6.71635">
        <ele>1457</ele>
        <time>2018-04-27T11:25:44Z</time>
      </trkpt>
      <trkpt lat="43.82657" lon="6.7164">
        <ele>1458</ele>
        <time>2018-04-27T11:25:48Z</time>
      </trkpt>
      <trkpt lat="43.82661" lon="6.71644">
        <ele>1459</ele>
        <time>2018-04-27T11:25:52Z</time>
      </trkpt>
      <trkpt lat="43.82665" lon="6.71649">
        <ele>1459</ele>
        <time>2018-04-27T11:25:56Z</time>
      </trkpt>
      <trkpt lat="43.82669" lon="6.71653">
        <ele>1460</ele>
        <time>2018-04-27T11:26:00Z</time>
      </trkpt>
      <trkpt lat="43.82673" lon="6.71659">
        <ele>1460</ele>
        <time>2018-04-27T11:26:04Z</time>
      </trkpt>
      <trkpt lat="43.82676" lon="6.71664">
        <ele>1461</ele>
        <time>2018-04-27T11:26:08Z</time>
      </trkpt>
      <trkpt lat="43.82681" lon="6.71669">
        <ele>1461</ele>
        <time>2018-04-27T11:26:12Z</time>
      </trkpt>
      <trkpt lat="43.82684" lon="6.71674">
        <ele>1462</ele>
        <time>2018-04-27T11:26:16Z</time>
      </trkpt>
      <trkpt lat="43.82688" lon="6.71678">
        <ele>1462</ele>
        <time>2018-04-27T11:26:19Z</time>
      </trkpt>
      <trkpt lat="43.82693" lon="6.71684">
        <ele>1463</ele>
        <time>2018-04-27T11:26:23Z</time>
      </trkpt>
      <trkpt lat="43.82697" lon="6.71688">
        <ele>1463</ele>
        <time>2018-04-27T11:26:27Z</time>
      </trkpt>
      <trkpt lat="43.82702" lon="6.71694">
        <ele>1464</ele>
        <time>2018-04-27T11:26:31Z</time>
      </trkpt>
      <trkpt lat="43.82706" lon="6.71699">
        <ele>1464</ele>
        <time>2018-04-27T11:26:35Z</time>
      </trkpt>
      <trkpt lat="43.8271" lon="6.71705">
        <ele>1465</ele>
        <time>2018-04-27T11:26:39Z</time>
      </trkpt>
      <trkpt lat="43.82715" lon="6.7171">
        <ele>1465</ele>
        <time>2018-04-27T11:26:43Z</time>
      </trkpt>
      <trkpt lat="43.82718" lon="6.71715">
        <ele>1466</ele>
        <time>2018-04-27T11:26:47Z</time>
      </trkpt>
      <trkpt lat="43.82723" lon="6.7172">
        <ele>1466</ele>
        <time>2018-04-27T11:26:51Z</time>
      </trkpt>
      <trkpt lat="43.82727" lon="6.71725">
        <ele>1467</ele>
        <time>2018-04-27T11:26:55Z</time>
      </trkpt>
      <trkpt lat="43.82731" lon="6.71729">
        <ele>1467</ele>
        <time>2018-04-27T11:27:01Z</time>
      </trkpt>
      <trkpt lat="43.82734" lon="6.71735">
        <ele>1468</ele>
        <time>2018-04-27T11:27:06Z</time>
      </trkpt>
      <trkpt lat="43.82738" lon="6.71739">
        <ele>1469</ele>
        <time>2018-04-27T11:27:12Z</time>
      </trkpt>
      <trkpt lat="43.82742" lon="6.71743">
        <ele>1469</ele>
        <time>2018-04-27T11:27:17Z</time>
      </trkpt>
      <trkpt lat="43.82745" lon="6.71747">
        <ele>1470</ele>
        <time>2018-04-27T11:27:23Z</time>
      </trkpt>
      <trkpt lat="43.82749" lon="6.71752">
        <ele>1470</ele>
        <time>2018-04-27T11:27:28Z</time>
      </trkpt>
      <trkpt lat="43.82753" lon="6.71756">
        <ele>1471</ele>
        <time>2018-04-27T11:27:33Z</time>
      </trkpt>
      <trkpt lat="43.82757" lon="6.71758">
        <ele>1471</ele>
        <time>2018-04-27T11:27:38Z</time>
      </trkpt>
      <trkpt lat="43.82761" lon="6.71762">
        <ele>1471</ele>
        <time>2018-04-27T11:27:43Z</time>
      </trkpt>
      <trkpt lat="43.82765" lon="6.71766">
        <ele>1472</ele>
        <time>2018-04-27T11:27:48Z</time>
      </trkpt>
      <trkpt lat="43.82769" lon="6.7177">
        <ele>1472</ele>
        <time>2018-04-27T11:27:53Z</time>
      </trkpt>
      <trkpt lat="43.82774" lon="6.71772">
        <ele>1473</ele>
        <time>2018-04-27T11:27:58Z</time>
      </trkpt>
      <trkpt lat="43.82778" lon="6.71776">
        <ele>1473</ele>
        <time>2018-04-27T11:28:03Z</time>
      </trkpt>
      <trkpt lat="43.82783" lon="6.7178">
        <ele>1474</ele>
        <time>2018-04-27T11:28:09Z</time>
      </trkpt>
      <trkpt lat="43.82787" lon="6.71783">
        <ele>1475</ele>
        <time>2018-04-27T11:28:14Z</time>
      </trkpt>
      <trkpt lat="43.82791" lon="6.71787">
        <ele>1475</ele>
        <time>2018-04-27T11:28:19Z</time>
      </trkpt>
      <trkpt lat="43.82795" lon="6.7179">
        <ele>1476</ele>
        <time>2018-04-27T11:28:24Z</time>
      </trkpt>
      <trkpt lat="43.828" lon="6.71793">
        <ele>1476</ele>
        <time>2018-04-27T11:28:30Z</time>
      </trkpt>
      <trkpt lat="43.82804" lon="6.71796">
        <ele>1477</ele>
        <time>2018-04-27T11:28:36Z</time>
      </trkpt>
      <trkpt lat="43.82809" lon="6.71797">
        <ele>1477</ele>
        <time>2018-04-27T11:28:42Z</time>
      </trkpt>
      <trkpt lat="43.82814" lon="6.71799">
        <ele>1478</ele>
        <time>2018-04-27T11:28:48Z</time>
      </trkpt>
      <trkpt lat="43.82818" lon="6.71803">
        <ele>1479</ele>
        <time>2018-04-27T11:28:54Z</time>
      </trkpt>
      <trkpt lat="43.82822" lon="6.71807">
        <ele>1480</ele>
        <time>2018-04-27T11:29:00Z</time>
      </trkpt>
      <trkpt lat="43.82827" lon="6.7181">
        <ele>1480</ele>
        <time>2018-04-27T11:29:06Z</time>
      </trkpt>
      <trkpt lat="43.82831" lon="6.71813">
        <ele>1481</ele>
        <time>2018-04-27T11:29:11Z</time>
      </trkpt>
      <trkpt lat="43.82835" lon="6.71817">
        <ele>1482</ele>
        <time>2018-04-27T11:29:17Z</time>
      </trkpt>
      <trkpt lat="43.82839" lon="6.71822">
        <ele>1482</ele>
        <time>2018-04-27T11:29:23Z</time>
      </trkpt>
      <trkpt lat="43.82843" lon="6.71824">
        <ele>1483</ele>
        <time>2018-04-27T11:29:28Z</time>
      </trkpt>
      <trkpt lat="43.82848" lon="6.71827">
        <ele>1483</ele>
        <time>2018-04-27T11:29:34Z</time>
      </trkpt>
      <trkpt lat="43.8285" lon="6.71833">
        <ele>1484</ele>
        <time>2018-04-27T11:29:39Z</time>
      </trkpt>
      <trkpt lat="43.82855" lon="6.71837">
        <ele>1485</ele>
        <time>2018-04-27T11:29:46Z</time>
      </trkpt>
      <trkpt lat="43.82859" lon="6.7184">
        <ele>1485</ele>
        <time>2018-04-27T11:29:52Z</time>
      </trkpt>
      <trkpt lat="43.82863" lon="6.71844">
        <ele>1486</ele>
        <time>2018-04-27T11:29:58Z</time>
      </trkpt>
      <trkpt lat="43.82867" lon="6.71849">
        <ele>1487</ele>
        <time>2018-04-27T11:30:05Z</time>
      </trkpt>
      <trkpt lat="43.82872" lon="6.71851">
        <ele>1487</ele>
        <time>2018-04-27T11:30:27Z</time>
      </trkpt>
      <trkpt lat="43.82877" lon="6.71853">
        <ele>1488</ele>
        <time>2018-04-27T11:30:33Z</time>
      </trkpt>
      <trkpt lat="43.82881" lon="6.71857">
        <ele>1489</ele>
        <time>2018-04-27T11:30:39Z</time>
      </trkpt>
      <trkpt lat="43.82885" lon="6.71861">
        <ele>1489</ele>
        <time>2018-04-27T11:30:54Z</time>
      </trkpt>
      <trkpt lat="43.82889" lon="6.71865">
        <ele>1490</ele>
        <time>2018-04-27T11:30:59Z</time>
      </trkpt>
      <trkpt lat="43.82893" lon="6.71869">
        <ele>1490</ele>
        <time>2018-04-27T11:31:05Z</time>
      </trkpt>
      <trkpt lat="43.82896" lon="6.71874">
        <ele>1491</ele>
        <time>2018-04-27T11:31:10Z</time>
      </trkpt>
      <trkpt lat="43.829" lon="6.71879">
        <ele>1491</ele>
        <time>2018-04-27T11:31:16Z</time>
      </trkpt>
      <trkpt lat="43.82903" lon="6.71885">
        <ele>1491</ele>
        <time>2018-04-27T11:31:21Z</time>
      </trkpt>
      <trkpt lat="43.82906" lon="6.71891">
        <ele>1492</ele>
        <time>2018-04-27T11:31:26Z</time>
      </trkpt>
      <trkpt lat="43.82908" lon="6.71896">
        <ele>1492</ele>
        <time>2018-04-27T11:31:31Z</time>
      </trkpt>
      <trkpt lat="43.82911" lon="6.71902">
        <ele>1493</ele>
        <time>2018-04-27T11:31:37Z</time>
      </trkpt>
      <trkpt lat="43.82914" lon="6.71907">
        <ele>1493</ele>
        <time>2018-04-27T11:31:42Z</time>
      </trkpt>
      <trkpt lat="43.82918" lon="6.71911">
        <ele>1493</ele>
        <time>2018-04-27T11:31:47Z</time>
      </trkpt>
      <trkpt lat="43.82922" lon="6.71915">
        <ele>1494</ele>
        <time>2018-04-27T11:31:52Z</time>
      </trkpt>
      <trkpt lat="43.82926" lon="6.71919">
        <ele>1494</ele>
        <time>2018-04-27T11:31:57Z</time>
      </trkpt>
      <trkpt lat="43.8293" lon="6.71922">
        <ele>1494</ele>
        <time>2018-04-27T11:32:02Z</time>
      </trkpt>
      <trkpt lat="43.82935" lon="6.71923">
        <ele>1494</ele>
        <time>2018-04-27T11:32:07Z</time>
      </trkpt>
      <trkpt lat="43.8294" lon="6.71924">
        <ele>1495</ele>
        <time>2018-04-27T11:32:12Z</time>
      </trkpt>
      <trkpt lat="43.82943" lon="6.71929">
        <ele>1495</ele>
        <time>2018-04-27T11:32:18Z</time>
      </trkpt>
      <trkpt lat="43.82948" lon="6.7193">
        <ele>1496</ele>
        <time>2018-04-27T11:32:25Z</time>
      </trkpt>
      <trkpt lat="43.82953" lon="6.71928">
        <ele>1496</ele>
        <time>2018-04-27T11:32:31Z</time>
      </trkpt>
      <trkpt lat="43.82957" lon="6.71928">
        <ele>1497</ele>
        <time>2018-04-27T11:32:37Z</time>
      </trkpt>
      <trkpt lat="43.82962" lon="6.71929">
        <ele>1497</ele>
        <time>2018-04-27T11:32:44Z</time>
      </trkpt>
      <trkpt lat="43.82967" lon="6.7193">
        <ele>1498</ele>
        <time>2018-04-27T11:32:50Z</time>
      </trkpt>
      <trkpt lat="43.82972" lon="6.71928">
        <ele>1498</ele>
        <time>2018-04-27T11:32:56Z</time>
      </trkpt>
      <trkpt lat="43.82977" lon="6.71927">
        <ele>1498</ele>
        <time>2018-04-27T11:33:02Z</time>
      </trkpt>
      <trkpt lat="43.82982" lon="6.71927">
        <ele>1498</ele>
        <time>2018-04-27T11:33:29Z</time>
      </trkpt>
      <trkpt lat="43.82986" lon="6.71929">
        <ele>1498</ele>
        <time>2018-04-27T11:33:33Z</time>
      </trkpt>
      <trkpt lat="43.82991" lon="6.7193">
        <ele>1499</ele>
        <time>2018-04-27T11:33:37Z</time>
      </trkpt>
      <trkpt lat="43.82996" lon="6.71932">
        <ele>1499</ele>
        <time>2018-04-27T11:33:41Z</time>
      </trkpt>
      <trkpt lat="43.83" lon="6.71936">
        <ele>1499</ele>
        <time>2018-04-27T11:33:45Z</time>
      </trkpt>
      <trkpt lat="43.83005" lon="6.71938">
        <ele>1499</ele>
        <time>2018-04-27T11:33:49Z</time>
      </trkpt>
      <trkpt lat="43.83011" lon="6.71941">
        <ele>1500</ele>
        <time>2018-04-27T11:33:53Z</time>
      </trkpt>
      <trkpt lat="43.83015" lon="6.71943">
        <ele>1501</ele>
        <time>2018-04-27T11:33:56Z</time>
      </trkpt>
      <trkpt lat="43.83019" lon="6.71947">
        <ele>1502</ele>
        <time>2018-04-27T11:34:00Z</time>
      </trkpt>
      <trkpt lat="43.83024" lon="6.71951">
        <ele>1503</ele>
        <time>2018-04-27T11:34:04Z</time>
      </trkpt>
      <trkpt lat="43.83029" lon="6.71955">
        <ele>1504</ele>
        <time>2018-04-27T11:34:08Z</time>
      </trkpt>
      <trkpt lat="43.83035" lon="6.71958">
        <ele>1505</ele>
        <time>2018-04-27T11:34:12Z</time>
      </trkpt>
      <trkpt lat="43.83039" lon="6.71962">
        <ele>1505</ele>
        <time>2018-04-27T11:34:15Z</time>
      </trkpt>
      <trkpt lat="43.83043" lon="6.71966">
        <ele>1506</ele>
        <time>2018-04-27T11:34:18Z</time>
      </trkpt>
      <trkpt lat="43.83047" lon="6.71969">
        <ele>1507</ele>
        <time>2018-04-27T11:34:21Z</time>
      </trkpt>
      <trkpt lat="43.83051" lon="6.71973">
        <ele>1508</ele>
        <time>2018-04-27T11:34:25Z</time>
      </trkpt>
      <trkpt lat="43.83051" lon="6.71973">
        <ele>1508</ele>
        <time>2018-04-27T11:34:45Z</time>
      </trkpt>
      <trkpt lat="43.83051" lon="6.71973">
        <ele>1509</ele>
        <time>2018-04-27T11:34:47Z</time>
      </trkpt>
      <trkpt lat="43.83054" lon="6.71978">
        <ele>1510</ele>
        <time>2018-04-27T11:35:11Z</time>
      </trkpt>
      <trkpt lat="43.83058" lon="6.71982">
        <ele>1510</ele>
        <time>2018-04-27T11:35:14Z</time>
      </trkpt>
      <trkpt lat="43.83062" lon="6.71986">
        <ele>1511</ele>
        <time>2018-04-27T11:35:17Z</time>
      </trkpt>
      <trkpt lat="43.83066" lon="6.7199">
        <ele>1512</ele>
        <time>2018-04-27T11:35:20Z</time>
      </trkpt>
      <trkpt lat="43.83069" lon="6.71995">
        <ele>1512</ele>
        <time>2018-04-27T11:35:22Z</time>
      </trkpt>
      <trkpt lat="43.83073" lon="6.72002">
        <ele>1513</ele>
        <time>2018-04-27T11:35:25Z</time>
      </trkpt>
      <trkpt lat="43.83077" lon="6.72007">
        <ele>1513</ele>
        <time>2018-04-27T11:35:28Z</time>
      </trkpt>
      <trkpt lat="43.83081" lon="6.72014">
        <ele>1514</ele>
        <time>2018-04-27T11:35:31Z</time>
      </trkpt>
      <trkpt lat="43.83083" lon="6.7202">
        <ele>1514</ele>
        <time>2018-04-27T11:35:34Z</time>
      </trkpt>
      <trkpt lat="43.83087" lon="6.72027">
        <ele>1514</ele>
        <time>2018-04-27T11:35:37Z</time>
      </trkpt>
      <trkpt lat="43.8309" lon="6.72035">
        <ele>1515</ele>
        <time>2018-04-27T11:35:40Z</time>
      </trkpt>
      <trkpt lat="43.83091" lon="6.72041">
        <ele>1515</ele>
        <time>2018-04-27T11:35:42Z</time>
      </trkpt>
      <trkpt lat="43.83093" lon="6.72047">
        <ele>1515</ele>
        <time>2018-04-27T11:35:44Z</time>
      </trkpt>
      <trkpt lat="43.83093" lon="6.72054">
        <ele>1515</ele>
        <time>2018-04-27T11:35:46Z</time>
      </trkpt>
      <trkpt lat="43.83095" lon="6.72062">
        <ele>1516</ele>
        <time>2018-04-27T11:35:49Z</time>
      </trkpt>
      <trkpt lat="43.83096" lon="6.7207">
        <ele>1516</ele>
        <time>2018-04-27T11:35:52Z</time>
      </trkpt>
      <trkpt lat="43.83097" lon="6.72077">
        <ele>1517</ele>
        <time>2018-04-27T11:35:55Z</time>
      </trkpt>
      <trkpt lat="43.83098" lon="6.72083">
        <ele>1517</ele>
        <time>2018-04-27T11:35:58Z</time>
      </trkpt>
      <trkpt lat="43.831" lon="6.7209">
        <ele>1518</ele>
        <time>2018-04-27T11:36:01Z</time>
      </trkpt>
      <trkpt lat="43.83101" lon="6.72097">
        <ele>1519</ele>
        <time>2018-04-27T11:36:04Z</time>
      </trkpt>
      <trkpt lat="43.83102" lon="6.72104">
        <ele>1519</ele>
        <time>2018-04-27T11:36:07Z</time>
      </trkpt>
      <trkpt lat="43.83103" lon="6.72111">
        <ele>1520</ele>
        <time>2018-04-27T11:36:10Z</time>
      </trkpt>
      <trkpt lat="43.83105" lon="6.72117">
        <ele>1520</ele>
        <time>2018-04-27T11:36:13Z</time>
      </trkpt>
      <trkpt lat="43.83107" lon="6.72125">
        <ele>1521</ele>
        <time>2018-04-27T11:36:16Z</time>
      </trkpt>
      <trkpt lat="43.83109" lon="6.72131">
        <ele>1521</ele>
        <time>2018-04-27T11:36:19Z</time>
      </trkpt>
      <trkpt lat="43.83112" lon="6.72137">
        <ele>1521</ele>
        <time>2018-04-27T11:36:22Z</time>
      </trkpt>
      <trkpt lat="43.83115" lon="6.72142">
        <ele>1522</ele>
        <time>2018-04-27T11:36:25Z</time>
      </trkpt>
      <trkpt lat="43.83118" lon="6.72148">
        <ele>1522</ele>
        <time>2018-04-27T11:36:29Z</time>
      </trkpt>
      <trkpt lat="43.83122" lon="6.72154">
        <ele>1523</ele>
        <time>2018-04-27T11:36:32Z</time>
      </trkpt>
      <trkpt lat="43.83125" lon="6.7216">
        <ele>1523</ele>
        <time>2018-04-27T11:36:36Z</time>
      </trkpt>
      <trkpt lat="43.83129" lon="6.72166">
        <ele>1524</ele>
        <time>2018-04-27T11:36:40Z</time>
      </trkpt>
      <trkpt lat="43.83133" lon="6.72171">
        <ele>1524</ele>
        <time>2018-04-27T11:36:43Z</time>
      </trkpt>
      <trkpt lat="43.83136" lon="6.72176">
        <ele>1525</ele>
        <time>2018-04-27T11:36:47Z</time>
      </trkpt>
      <trkpt lat="43.83141" lon="6.7218">
        <ele>1526</ele>
        <time>2018-04-27T11:36:50Z</time>
      </trkpt>
      <trkpt lat="43.83144" lon="6.72184">
        <ele>1526</ele>
        <time>2018-04-27T11:36:53Z</time>
      </trkpt>
      <trkpt lat="43.83149" lon="6.72186">
        <ele>1527</ele>
        <time>2018-04-27T11:36:56Z</time>
      </trkpt>
      <trkpt lat="43.83154" lon="6.72187">
        <ele>1527</ele>
        <time>2018-04-27T11:36:59Z</time>
      </trkpt>
      <trkpt lat="43.8316" lon="6.72188">
        <ele>1527</ele>
        <time>2018-04-27T11:37:02Z</time>
      </trkpt>
      <trkpt lat="43.83164" lon="6.72189">
        <ele>1528</ele>
        <time>2018-04-27T11:37:05Z</time>
      </trkpt>
      <trkpt lat="43.8317" lon="6.7219">
        <ele>1528</ele>
        <time>2018-04-27T11:37:08Z</time>
      </trkpt>
      <trkpt lat="43.83175" lon="6.72192">
        <ele>1528</ele>
        <time>2018-04-27T11:37:11Z</time>
      </trkpt>
      <trkpt lat="43.8318" lon="6.72192">
        <ele>1528</ele>
        <time>2018-04-27T11:37:14Z</time>
      </trkpt>
      <trkpt lat="43.83184" lon="6.72193">
        <ele>1529</ele>
        <time>2018-04-27T11:37:17Z</time>
      </trkpt>
      <trkpt lat="43.83188" lon="6.72199">
        <ele>1529</ele>
        <time>2018-04-27T11:37:21Z</time>
      </trkpt>
      <trkpt lat="43.83189" lon="6.72207">
        <ele>1529</ele>
        <time>2018-04-27T11:37:24Z</time>
      </trkpt>
      <trkpt lat="43.8319" lon="6.72215">
        <ele>1529</ele>
        <time>2018-04-27T11:37:26Z</time>
      </trkpt>
      <trkpt lat="43.83191" lon="6.72223">
        <ele>1528</ele>
        <time>2018-04-27T11:37:28Z</time>
      </trkpt>
      <trkpt lat="43.83195" lon="6.72227">
        <ele>1528</ele>
        <time>2018-04-27T11:37:31Z</time>
      </trkpt>
      <trkpt lat="43.83199" lon="6.72229">
        <ele>1528</ele>
        <time>2018-04-27T11:38:00Z</time>
      </trkpt>
      <trkpt lat="43.83199" lon="6.72229">
        <ele>1527</ele>
        <time>2018-04-27T11:38:02Z</time>
      </trkpt>
      <trkpt lat="43.83199" lon="6.72229">
        <ele>1527</ele>
        <time>2018-04-27T11:38:30Z</time>
      </trkpt>
      <trkpt lat="43.83199" lon="6.72229">
        <ele>1527</ele>
        <time>2018-04-27T11:38:32Z</time>
      </trkpt>
      <trkpt lat="43.83199" lon="6.72229">
        <ele>1527</ele>
        <time>2018-04-27T11:39:00Z</time>
      </trkpt>
      <trkpt lat="43.83199" lon="6.72229">
        <ele>1527</ele>
        <time>2018-04-27T11:39:02Z</time>
      </trkpt>
      <trkpt lat="43.83199" lon="6.72229">
        <ele>1527</ele>
        <time>2018-04-27T11:39:30Z</time>
      </trkpt>
      <trkpt lat="43.83199" lon="6.72229">
        <ele>1527</ele>
        <time>2018-04-27T11:39:32Z</time>
      </trkpt>
      <trkpt lat="43.83199" lon="6.72229">
        <ele>1527</ele>
        <time>2018-04-27T11:40:00Z</time>
      </trkpt>
      <trkpt lat="43.83199" lon="6.72229">
        <ele>1527</ele>
        <time>2018-04-27T11:40:02Z</time>
      </trkpt>
      <trkpt lat="43.83199" lon="6.72229">
        <ele>1527</ele>
        <time>2018-04-27T11:40:30Z</time>
      </trkpt>
      <trkpt lat="43.83199" lon="6.72229">
        <ele>1527</ele>
        <time>2018-04-27T11:40:32Z</time>
      </trkpt>
      <trkpt lat="43.83199" lon="6.72229">
        <ele>1527</ele>
        <time>2018-04-27T11:41:00Z</time>
      </trkpt>
      <trkpt lat="43.83199" lon="6.72229">
        <ele>1527</ele>
        <time>2018-04-27T11:41:02Z</time>
      </trkpt>
      <trkpt lat="43.832" lon="6.72229">
        <ele>1527</ele>
        <time>2018-04-27T11:41:30Z</time>
      </trkpt>
      <trkpt lat="43.832" lon="6.72229">
        <ele>1527</ele>
        <time>2018-04-27T11:41:32Z</time>
      </trkpt>
      <trkpt lat="43.83198" lon="6.72229">
        <ele>1527</ele>
        <time>2018-04-27T11:42:00Z</time>
      </trkpt>
      <trkpt lat="43.83201" lon="6.7223">
        <ele>1527</ele>
        <time>2018-04-27T11:42:02Z</time>
      </trkpt>
      <trkpt lat="43.83204" lon="6.72234">
        <ele>1527</ele>
        <time>2018-04-27T11:42:04Z</time>
      </trkpt>
      <trkpt lat="43.83209" lon="6.72238">
        <ele>1527</ele>
        <time>2018-04-27T11:42:06Z</time>
      </trkpt>
      <trkpt lat="43.83208" lon="6.72248">
        <ele>1526</ele>
        <time>2018-04-27T11:42:09Z</time>
      </trkpt>
      <trkpt lat="43.83206" lon="6.72256">
        <ele>1525</ele>
        <time>2018-04-27T11:42:11Z</time>
      </trkpt>
      <trkpt lat="43.83204" lon="6.72267">
        <ele>1524</ele>
        <time>2018-04-27T11:42:13Z</time>
      </trkpt>
      <trkpt lat="43.83202" lon="6.72278">
        <ele>1524</ele>
        <time>2018-04-27T11:42:15Z</time>
      </trkpt>
      <trkpt lat="43.83203" lon="6.72284">
        <ele>1523</ele>
        <time>2018-04-27T11:42:17Z</time>
      </trkpt>
      <trkpt lat="43.83205" lon="6.72292">
        <ele>1523</ele>
        <time>2018-04-27T11:42:20Z</time>
      </trkpt>
      <trkpt lat="43.83208" lon="6.72297">
        <ele>1523</ele>
        <time>2018-04-27T11:42:22Z</time>
      </trkpt>
      <trkpt lat="43.83209" lon="6.72305">
        <ele>1523</ele>
        <time>2018-04-27T11:42:25Z</time>
      </trkpt>
      <trkpt lat="43.83208" lon="6.72312">
        <ele>1523</ele>
        <time>2018-04-27T11:42:27Z</time>
      </trkpt>
      <trkpt lat="43.83207" lon="6.72319">
        <ele>1523</ele>
        <time>2018-04-27T11:42:30Z</time>
      </trkpt>
      <trkpt lat="43.83211" lon="6.72323">
        <ele>1523</ele>
        <time>2018-04-27T11:42:39Z</time>
      </trkpt>
      <trkpt lat="43.83214" lon="6.72328">
        <ele>1523</ele>
        <time>2018-04-27T11:42:42Z</time>
      </trkpt>
      <trkpt lat="43.83219" lon="6.72331">
        <ele>1523</ele>
        <time>2018-04-27T11:42:45Z</time>
      </trkpt>
      <trkpt lat="43.83224" lon="6.72332">
        <ele>1522</ele>
        <time>2018-04-27T11:42:48Z</time>
      </trkpt>
      <trkpt lat="43.83228" lon="6.72328">
        <ele>1521</ele>
        <time>2018-04-27T11:42:51Z</time>
      </trkpt>
      <trkpt lat="43.83233" lon="6.72334">
        <ele>1520</ele>
        <time>2018-04-27T11:42:54Z</time>
      </trkpt>
      <trkpt lat="43.83235" lon="6.7234">
        <ele>1518</ele>
        <time>2018-04-27T11:42:56Z</time>
      </trkpt>
      <trkpt lat="43.83241" lon="6.72345">
        <ele>1517</ele>
        <time>2018-04-27T11:42:58Z</time>
      </trkpt>
      <trkpt lat="43.83244" lon="6.72353">
        <ele>1516</ele>
        <time>2018-04-27T11:43:00Z</time>
      </trkpt>
      <trkpt lat="43.83247" lon="6.72359">
        <ele>1514</ele>
        <time>2018-04-27T11:43:03Z</time>
      </trkpt>
      <trkpt lat="43.83248" lon="6.72367">
        <ele>1513</ele>
        <time>2018-04-27T11:43:06Z</time>
      </trkpt>
      <trkpt lat="43.83249" lon="6.72375">
        <ele>1511</ele>
        <time>2018-04-27T11:43:09Z</time>
      </trkpt>
      <trkpt lat="43.83254" lon="6.72376">
        <ele>1510</ele>
        <time>2018-04-27T11:43:17Z</time>
      </trkpt>
      <trkpt lat="43.83258" lon="6.72379">
        <ele>1508</ele>
        <time>2018-04-27T11:43:20Z</time>
      </trkpt>
      <trkpt lat="43.83262" lon="6.72385">
        <ele>1507</ele>
        <time>2018-04-27T11:43:23Z</time>
      </trkpt>
      <trkpt lat="43.83263" lon="6.72391">
        <ele>1505</ele>
        <time>2018-04-27T11:43:26Z</time>
      </trkpt>
      <trkpt lat="43.83265" lon="6.72397">
        <ele>1504</ele>
        <time>2018-04-27T11:43:29Z</time>
      </trkpt>
      <trkpt lat="43.83268" lon="6.72404">
        <ele>1502</ele>
        <time>2018-04-27T11:43:32Z</time>
      </trkpt>
      <trkpt lat="43.83269" lon="6.7241">
        <ele>1500</ele>
        <time>2018-04-27T11:43:34Z</time>
      </trkpt>
      <trkpt lat="43.83269" lon="6.72417">
        <ele>1499</ele>
        <time>2018-04-27T11:43:36Z</time>
      </trkpt>
      <trkpt lat="43.83273" lon="6.72422">
        <ele>1497</ele>
        <time>2018-04-27T11:43:43Z</time>
      </trkpt>
      <trkpt lat="43.83277" lon="6.72419">
        <ele>1495</ele>
        <time>2018-04-27T11:43:54Z</time>
      </trkpt>
      <trkpt lat="43.83275" lon="6.72426">
        <ele>1494</ele>
        <time>2018-04-27T11:44:01Z</time>
      </trkpt>
      <trkpt lat="43.83278" lon="6.72431">
        <ele>1493</ele>
        <time>2018-04-27T11:44:09Z</time>
      </trkpt>
      <trkpt lat="43.8328" lon="6.72438">
        <ele>1491</ele>
        <time>2018-04-27T11:44:12Z</time>
      </trkpt>
      <trkpt lat="43.83283" lon="6.72444">
        <ele>1490</ele>
        <time>2018-04-27T11:44:15Z</time>
      </trkpt>
      <trkpt lat="43.83287" lon="6.72449">
        <ele>1488</ele>
        <time>2018-04-27T11:44:17Z</time>
      </trkpt>
      <trkpt lat="43.83291" lon="6.72444">
        <ele>1487</ele>
        <time>2018-04-27T11:44:26Z</time>
      </trkpt>
      <trkpt lat="43.83295" lon="6.72447">
        <ele>1486</ele>
        <time>2018-04-27T11:44:30Z</time>
      </trkpt>
      <trkpt lat="43.83297" lon="6.72455">
        <ele>1484</ele>
        <time>2018-04-27T11:44:33Z</time>
      </trkpt>
      <trkpt lat="43.83297" lon="6.72463">
        <ele>1484</ele>
        <time>2018-04-27T11:44:36Z</time>
      </trkpt>
      <trkpt lat="43.833" lon="6.7247">
        <ele>1483</ele>
        <time>2018-04-27T11:44:39Z</time>
      </trkpt>
      <trkpt lat="43.83305" lon="6.72477">
        <ele>1482</ele>
        <time>2018-04-27T11:44:41Z</time>
      </trkpt>
      <trkpt lat="43.83308" lon="6.72483">
        <ele>1481</ele>
        <time>2018-04-27T11:44:43Z</time>
      </trkpt>
      <trkpt lat="43.83312" lon="6.72488">
        <ele>1480</ele>
        <time>2018-04-27T11:44:52Z</time>
      </trkpt>
      <trkpt lat="43.83317" lon="6.72491">
        <ele>1479</ele>
        <time>2018-04-27T11:44:55Z</time>
      </trkpt>
      <trkpt lat="43.83322" lon="6.72491">
        <ele>1478</ele>
        <time>2018-04-27T11:44:57Z</time>
      </trkpt>
      <trkpt lat="43.83327" lon="6.72487">
        <ele>1477</ele>
        <time>2018-04-27T11:45:00Z</time>
      </trkpt>
      <trkpt lat="43.83331" lon="6.72483">
        <ele>1476</ele>
        <time>2018-04-27T11:45:03Z</time>
      </trkpt>
      <trkpt lat="43.83337" lon="6.72481">
        <ele>1475</ele>
        <time>2018-04-27T11:45:06Z</time>
      </trkpt>
      <trkpt lat="43.83342" lon="6.72486">
        <ele>1474</ele>
        <time>2018-04-27T11:45:08Z</time>
      </trkpt>
      <trkpt lat="43.83348" lon="6.72486">
        <ele>1473</ele>
        <time>2018-04-27T11:45:11Z</time>
      </trkpt>
      <trkpt lat="43.83352" lon="6.72484">
        <ele>1472</ele>
        <time>2018-04-27T11:45:12Z</time>
      </trkpt>
      <trkpt lat="43.83358" lon="6.72484">
        <ele>1471</ele>
        <time>2018-04-27T11:45:13Z</time>
      </trkpt>
      <trkpt lat="43.83363" lon="6.72486">
        <ele>1470</ele>
        <time>2018-04-27T11:45:14Z</time>
      </trkpt>
      <trkpt lat="43.8337" lon="6.72483">
        <ele>1469</ele>
        <time>2018-04-27T11:45:16Z</time>
      </trkpt>
      <trkpt lat="43.83376" lon="6.7248">
        <ele>1468</ele>
        <time>2018-04-27T11:45:17Z</time>
      </trkpt>
      <trkpt lat="43.8338" lon="6.72476">
        <ele>1467</ele>
        <time>2018-04-27T11:45:18Z</time>
      </trkpt>
      <trkpt lat="43.83384" lon="6.72472">
        <ele>1466</ele>
        <time>2018-04-27T11:45:19Z</time>
      </trkpt>
      <trkpt lat="43.83391" lon="6.72469">
        <ele>1465</ele>
        <time>2018-04-27T11:45:21Z</time>
      </trkpt>
      <trkpt lat="43.83396" lon="6.72472">
        <ele>1464</ele>
        <time>2018-04-27T11:45:22Z</time>
      </trkpt>
      <trkpt lat="43.83405" lon="6.72473">
        <ele>1463</ele>
        <time>2018-04-27T11:45:24Z</time>
      </trkpt>
      <trkpt lat="43.8341" lon="6.72472">
        <ele>1462</ele>
        <time>2018-04-27T11:45:28Z</time>
      </trkpt>
      <trkpt lat="43.83416" lon="6.7247">
        <ele>1460</ele>
        <time>2018-04-27T11:45:42Z</time>
      </trkpt>
      <trkpt lat="43.83423" lon="6.72471">
        <ele>1459</ele>
        <time>2018-04-27T11:45:44Z</time>
      </trkpt>
      <trkpt lat="43.83427" lon="6.72467">
        <ele>1458</ele>
        <time>2018-04-27T11:45:46Z</time>
      </trkpt>
      <trkpt lat="43.83433" lon="6.72463">
        <ele>1456</ele>
        <time>2018-04-27T11:45:49Z</time>
      </trkpt>
      <trkpt lat="43.83438" lon="6.7246">
        <ele>1454</ele>
        <time>2018-04-27T11:45:56Z</time>
      </trkpt>
      <trkpt lat="43.83443" lon="6.72465">
        <ele>1452</ele>
        <time>2018-04-27T11:46:01Z</time>
      </trkpt>
      <trkpt lat="43.83446" lon="6.72472">
        <ele>1450</ele>
        <time>2018-04-27T11:46:03Z</time>
      </trkpt>
      <trkpt lat="43.8345" lon="6.72479">
        <ele>1448</ele>
        <time>2018-04-27T11:46:05Z</time>
      </trkpt>
      <trkpt lat="43.83454" lon="6.72486">
        <ele>1447</ele>
        <time>2018-04-27T11:46:07Z</time>
      </trkpt>
      <trkpt lat="43.83459" lon="6.72493">
        <ele>1445</ele>
        <time>2018-04-27T11:46:10Z</time>
      </trkpt>
      <trkpt lat="43.83461" lon="6.72499">
        <ele>1443</ele>
        <time>2018-04-27T11:46:12Z</time>
      </trkpt>
      <trkpt lat="43.83464" lon="6.72508">
        <ele>1442</ele>
        <time>2018-04-27T11:46:14Z</time>
      </trkpt>
      <trkpt lat="43.83468" lon="6.72513">
        <ele>1440</ele>
        <time>2018-04-27T11:46:16Z</time>
      </trkpt>
      <trkpt lat="43.83472" lon="6.72512">
        <ele>1438</ele>
        <time>2018-04-27T11:46:19Z</time>
      </trkpt>
      <trkpt lat="43.83477" lon="6.72507">
        <ele>1436</ele>
        <time>2018-04-27T11:46:21Z</time>
      </trkpt>
      <trkpt lat="43.83482" lon="6.72501">
        <ele>1433</ele>
        <time>2018-04-27T11:46:23Z</time>
      </trkpt>
      <trkpt lat="43.83487" lon="6.72496">
        <ele>1431</ele>
        <time>2018-04-27T11:46:24Z</time>
      </trkpt>
      <trkpt lat="43.83492" lon="6.72488">
        <ele>1430</ele>
        <time>2018-04-27T11:46:26Z</time>
      </trkpt>
      <trkpt lat="43.83494" lon="6.72483">
        <ele>1428</ele>
        <time>2018-04-27T11:46:38Z</time>
      </trkpt>
      <trkpt lat="43.83497" lon="6.72477">
        <ele>1426</ele>
        <time>2018-04-27T11:46:44Z</time>
      </trkpt>
      <trkpt lat="43.83498" lon="6.72471">
        <ele>1425</ele>
        <time>2018-04-27T11:46:58Z</time>
      </trkpt>
      <trkpt lat="43.83501" lon="6.72464">
        <ele>1424</ele>
        <time>2018-04-27T11:47:00Z</time>
      </trkpt>
      <trkpt lat="43.83503" lon="6.72456">
        <ele>1423</ele>
        <time>2018-04-27T11:47:02Z</time>
      </trkpt>
      <trkpt lat="43.83506" lon="6.72447">
        <ele>1421</ele>
        <time>2018-04-27T11:47:04Z</time>
      </trkpt>
      <trkpt lat="43.83509" lon="6.7244">
        <ele>1421</ele>
        <time>2018-04-27T11:47:06Z</time>
      </trkpt>
      <trkpt lat="43.8351" lon="6.72434">
        <ele>1420</ele>
        <time>2018-04-27T11:47:11Z</time>
      </trkpt>
      <trkpt lat="43.83513" lon="6.72428">
        <ele>1419</ele>
        <time>2018-04-27T11:47:15Z</time>
      </trkpt>
      <trkpt lat="43.83514" lon="6.72418">
        <ele>1418</ele>
        <time>2018-04-27T11:47:17Z</time>
      </trkpt>
      <trkpt lat="43.83517" lon="6.72412">
        <ele>1416</ele>
        <time>2018-04-27T11:47:18Z</time>
      </trkpt>
      <trkpt lat="43.8352" lon="6.72402">
        <ele>1415</ele>
        <time>2018-04-27T11:47:20Z</time>
      </trkpt>
      <trkpt lat="43.83524" lon="6.72397">
        <ele>1413</ele>
        <time>2018-04-27T11:47:22Z</time>
      </trkpt>
      <trkpt lat="43.8353" lon="6.72396">
        <ele>1412</ele>
        <time>2018-04-27T11:47:24Z</time>
      </trkpt>
      <trkpt lat="43.83534" lon="6.72402">
        <ele>1410</ele>
        <time>2018-04-27T11:47:26Z</time>
      </trkpt>
      <trkpt lat="43.83538" lon="6.72408">
        <ele>1409</ele>
        <time>2018-04-27T11:47:28Z</time>
      </trkpt>
      <trkpt lat="43.83544" lon="6.72407">
        <ele>1407</ele>
        <time>2018-04-27T11:47:31Z</time>
      </trkpt>
      <trkpt lat="43.83549" lon="6.72413">
        <ele>1405</ele>
        <time>2018-04-27T11:47:33Z</time>
      </trkpt>
      <trkpt lat="43.83555" lon="6.72417">
        <ele>1403</ele>
        <time>2018-04-27T11:47:35Z</time>
      </trkpt>
      <trkpt lat="43.8356" lon="6.72418">
        <ele>1401</ele>
        <time>2018-04-27T11:47:37Z</time>
      </trkpt>
      <trkpt lat="43.83567" lon="6.72419">
        <ele>1399</ele>
        <time>2018-04-27T11:47:39Z</time>
      </trkpt>
      <trkpt lat="43.83572" lon="6.72425">
        <ele>1397</ele>
        <time>2018-04-27T11:47:41Z</time>
      </trkpt>
      <trkpt lat="43.83575" lon="6.7243">
        <ele>1396</ele>
        <time>2018-04-27T11:47:42Z</time>
      </trkpt>
      <trkpt lat="43.83579" lon="6.72434">
        <ele>1394</ele>
        <time>2018-04-27T11:47:43Z</time>
      </trkpt>
      <trkpt lat="43.83583" lon="6.72438">
        <ele>1393</ele>
        <time>2018-04-27T11:47:45Z</time>
      </trkpt>
      <trkpt lat="43.83587" lon="6.72442">
        <ele>1391</ele>
        <time>2018-04-27T11:47:57Z</time>
      </trkpt>
      <trkpt lat="43.83591" lon="6.72445">
        <ele>1390</ele>
        <time>2018-04-27T11:47:59Z</time>
      </trkpt>
      <trkpt lat="43.83596" lon="6.72447">
        <ele>1388</ele>
        <time>2018-04-27T11:48:01Z</time>
      </trkpt>
      <trkpt lat="43.83601" lon="6.72454">
        <ele>1387</ele>
        <time>2018-04-27T11:48:03Z</time>
      </trkpt>
      <trkpt lat="43.83604" lon="6.72459">
        <ele>1385</ele>
        <time>2018-04-27T11:48:05Z</time>
      </trkpt>
      <trkpt lat="43.83611" lon="6.72465">
        <ele>1384</ele>
        <time>2018-04-27T11:48:07Z</time>
      </trkpt>
      <trkpt lat="43.83616" lon="6.72472">
        <ele>1383</ele>
        <time>2018-04-27T11:48:09Z</time>
      </trkpt>
      <trkpt lat="43.83619" lon="6.72478">
        <ele>1383</ele>
        <time>2018-04-27T11:48:10Z</time>
      </trkpt>
      <trkpt lat="43.83622" lon="6.72486">
        <ele>1382</ele>
        <time>2018-04-27T11:48:12Z</time>
      </trkpt>
      <trkpt lat="43.83629" lon="6.72489">
        <ele>1381</ele>
        <time>2018-04-27T11:48:14Z</time>
      </trkpt>
      <trkpt lat="43.83633" lon="6.72494">
        <ele>1379</ele>
        <time>2018-04-27T11:48:16Z</time>
      </trkpt>
      <trkpt lat="43.83637" lon="6.72499">
        <ele>1378</ele>
        <time>2018-04-27T11:48:18Z</time>
      </trkpt>
      <trkpt lat="43.8364" lon="6.72505">
        <ele>1375</ele>
        <time>2018-04-27T11:48:20Z</time>
      </trkpt>
      <trkpt lat="43.83643" lon="6.72511">
        <ele>1372</ele>
        <time>2018-04-27T11:48:22Z</time>
      </trkpt>
      <trkpt lat="43.83649" lon="6.72521">
        <ele>1369</ele>
        <time>2018-04-27T11:48:24Z</time>
      </trkpt>
      <trkpt lat="43.83651" lon="6.72527">
        <ele>1367</ele>
        <time>2018-04-27T11:48:25Z</time>
      </trkpt>
      <trkpt lat="43.83657" lon="6.72536">
        <ele>1365</ele>
        <time>2018-04-27T11:48:27Z</time>
      </trkpt>
      <trkpt lat="43.83662" lon="6.72543">
        <ele>1363</ele>
        <time>2018-04-27T11:48:29Z</time>
      </trkpt>
      <trkpt lat="43.83664" lon="6.72554">
        <ele>1362</ele>
        <time>2018-04-27T11:48:31Z</time>
      </trkpt>
      <trkpt lat="43.83664" lon="6.72561">
        <ele>1360</ele>
        <time>2018-04-27T11:48:32Z</time>
      </trkpt>
      <trkpt lat="43.83664" lon="6.7257">
        <ele>1358</ele>
        <time>2018-04-27T11:48:33Z</time>
      </trkpt>
      <trkpt lat="43.83664" lon="6.72577">
        <ele>1355</ele>
        <time>2018-04-27T11:48:34Z</time>
      </trkpt>
      <trkpt lat="43.83666" lon="6.72583">
        <ele>1353</ele>
        <time>2018-04-27T11:48:35Z</time>
      </trkpt>
      <trkpt lat="43.83667" lon="6.7259">
        <ele>1351</ele>
        <time>2018-04-27T11:48:36Z</time>
      </trkpt>
      <trkpt lat="43.8367" lon="6.72596">
        <ele>1349</ele>
        <time>2018-04-27T11:48:37Z</time>
      </trkpt>
      <trkpt lat="43.83672" lon="6.72602">
        <ele>1348</ele>
        <time>2018-04-27T11:48:38Z</time>
      </trkpt>
      <trkpt lat="43.83675" lon="6.72609">
        <ele>1347</ele>
        <time>2018-04-27T11:48:40Z</time>
      </trkpt>
      <trkpt lat="43.83678" lon="6.72616">
        <ele>1345</ele>
        <time>2018-04-27T11:48:42Z</time>
      </trkpt>
      <trkpt lat="43.83684" lon="6.7262">
        <ele>1343</ele>
        <time>2018-04-27T11:48:51Z</time>
      </trkpt>
      <trkpt lat="43.83687" lon="6.72625">
        <ele>1341</ele>
        <time>2018-04-27T11:48:52Z</time>
      </trkpt>
      <trkpt lat="43.8369" lon="6.7263">
        <ele>1338</ele>
        <time>2018-04-27T11:48:54Z</time>
      </trkpt>
      <trkpt lat="43.83694" lon="6.72637">
        <ele>1336</ele>
        <time>2018-04-27T11:48:56Z</time>
      </trkpt>
      <trkpt lat="43.83695" lon="6.72651">
        <ele>1333</ele>
        <time>2018-04-27T11:48:58Z</time>
      </trkpt>
      <trkpt lat="43.83696" lon="6.72659">
        <ele>1331</ele>
        <time>2018-04-27T11:48:59Z</time>
      </trkpt>
      <trkpt lat="43.83696" lon="6.72666">
        <ele>1329</ele>
        <time>2018-04-27T11:49:00Z</time>
      </trkpt>
      <trkpt lat="43.83698" lon="6.72675">
        <ele>1328</ele>
        <time>2018-04-27T11:49:01Z</time>
      </trkpt>
      <trkpt lat="43.83698" lon="6.72682">
        <ele>1327</ele>
        <time>2018-04-27T11:49:02Z</time>
      </trkpt>
      <trkpt lat="43.83699" lon="6.72691">
        <ele>1326</ele>
        <time>2018-04-27T11:49:04Z</time>
      </trkpt>
      <trkpt lat="43.83703" lon="6.727">
        <ele>1325</ele>
        <time>2018-04-27T11:49:06Z</time>
      </trkpt>
      <trkpt lat="43.83706" lon="6.72707">
        <ele>1324</ele>
        <time>2018-04-27T11:49:08Z</time>
      </trkpt>
      <trkpt lat="43.83714" lon="6.72716">
        <ele>1323</ele>
        <time>2018-04-27T11:49:10Z</time>
      </trkpt>
      <trkpt lat="43.8372" lon="6.72723">
        <ele>1322</ele>
        <time>2018-04-27T11:49:11Z</time>
      </trkpt>
      <trkpt lat="43.83723" lon="6.72729">
        <ele>1320</ele>
        <time>2018-04-27T11:49:12Z</time>
      </trkpt>
      <trkpt lat="43.83728" lon="6.72734">
        <ele>1319</ele>
        <time>2018-04-27T11:49:13Z</time>
      </trkpt>
      <trkpt lat="43.83733" lon="6.72739">
        <ele>1318</ele>
        <time>2018-04-27T11:49:14Z</time>
      </trkpt>
      <trkpt lat="43.83737" lon="6.72748">
        <ele>1316</ele>
        <time>2018-04-27T11:49:16Z</time>
      </trkpt>
      <trkpt lat="43.83739" lon="6.72757">
        <ele>1314</ele>
        <time>2018-04-27T11:49:18Z</time>
      </trkpt>
      <trkpt lat="43.83742" lon="6.72763">
        <ele>1312</ele>
        <time>2018-04-27T11:49:19Z</time>
      </trkpt>
      <trkpt lat="43.83746" lon="6.72772">
        <ele>1310</ele>
        <time>2018-04-27T11:49:21Z</time>
      </trkpt>
      <trkpt lat="43.83751" lon="6.72779">
        <ele>1307</ele>
        <time>2018-04-27T11:49:23Z</time>
      </trkpt>
      <trkpt lat="43.83757" lon="6.72788">
        <ele>1304</ele>
        <time>2018-04-27T11:49:25Z</time>
      </trkpt>
      <trkpt lat="43.83762" lon="6.72799">
        <ele>1301</ele>
        <time>2018-04-27T11:49:27Z</time>
      </trkpt>
      <trkpt lat="43.83764" lon="6.72805">
        <ele>1298</ele>
        <time>2018-04-27T11:49:28Z</time>
      </trkpt>
      <trkpt lat="43.83765" lon="6.72811">
        <ele>1295</ele>
        <time>2018-04-27T11:49:29Z</time>
      </trkpt>
      <trkpt lat="43.83769" lon="6.72817">
        <ele>1293</ele>
        <time>2018-04-27T11:49:30Z</time>
      </trkpt>
      <trkpt lat="43.83771" lon="6.72823">
        <ele>1291</ele>
        <time>2018-04-27T11:49:31Z</time>
      </trkpt>
      <trkpt lat="43.83773" lon="6.72829">
        <ele>1288</ele>
        <time>2018-04-27T11:49:32Z</time>
      </trkpt>
      <trkpt lat="43.83775" lon="6.72836">
        <ele>1286</ele>
        <time>2018-04-27T11:49:33Z</time>
      </trkpt>
      <trkpt lat="43.83777" lon="6.72843">
        <ele>1284</ele>
        <time>2018-04-27T11:49:34Z</time>
      </trkpt>
      <trkpt lat="43.83779" lon="6.72851">
        <ele>1282</ele>
        <time>2018-04-27T11:49:35Z</time>
      </trkpt>
      <trkpt lat="43.83782" lon="6.72856">
        <ele>1280</ele>
        <time>2018-04-27T11:49:36Z</time>
      </trkpt>
      <trkpt lat="43.83786" lon="6.72864">
        <ele>1278</ele>
        <time>2018-04-27T11:49:38Z</time>
      </trkpt>
      <trkpt lat="43.83788" lon="6.7287">
        <ele>1277</ele>
        <time>2018-04-27T11:49:40Z</time>
      </trkpt>
      <trkpt lat="43.83793" lon="6.72876">
        <ele>1275</ele>
        <time>2018-04-27T11:49:42Z</time>
      </trkpt>
      <trkpt lat="43.83799" lon="6.72886">
        <ele>1272</ele>
        <time>2018-04-27T11:49:44Z</time>
      </trkpt>
      <trkpt lat="43.83802" lon="6.72891">
        <ele>1270</ele>
        <time>2018-04-27T11:49:45Z</time>
      </trkpt>
      <trkpt lat="43.83806" lon="6.729">
        <ele>1269</ele>
        <time>2018-04-27T11:49:47Z</time>
      </trkpt>
      <trkpt lat="43.83811" lon="6.72905">
        <ele>1266</ele>
        <time>2018-04-27T11:49:49Z</time>
      </trkpt>
      <trkpt lat="43.83814" lon="6.7291">
        <ele>1264</ele>
        <time>2018-04-27T11:49:51Z</time>
      </trkpt>
      <trkpt lat="43.83818" lon="6.72914">
        <ele>1263</ele>
        <time>2018-04-27T11:50:06Z</time>
      </trkpt>
      <trkpt lat="43.83818" lon="6.72914">
        <ele>1261</ele>
        <time>2018-04-27T11:50:30Z</time>
      </trkpt>
      <trkpt lat="43.83818" lon="6.72914">
        <ele>1260</ele>
        <time>2018-04-27T11:50:33Z</time>
      </trkpt>
      <trkpt lat="43.8382" lon="6.72914">
        <ele>1259</ele>
        <time>2018-04-27T11:51:01Z</time>
      </trkpt>
      <trkpt lat="43.83821" lon="6.72914">
        <ele>1259</ele>
        <time>2018-04-27T11:51:03Z</time>
      </trkpt>
      <trkpt lat="43.83826" lon="6.72913">
        <ele>1258</ele>
        <time>2018-04-27T11:51:12Z</time>
      </trkpt>
      <trkpt lat="43.83828" lon="6.72919">
        <ele>1257</ele>
        <time>2018-04-27T11:51:21Z</time>
      </trkpt>
      <trkpt lat="43.83825" lon="6.72926">
        <ele>1256</ele>
        <time>2018-04-27T11:51:26Z</time>
      </trkpt>
      <trkpt lat="43.83828" lon="6.72934">
        <ele>1255</ele>
        <time>2018-04-27T11:51:34Z</time>
      </trkpt>
      <trkpt lat="43.83831" lon="6.72941">
        <ele>1253</ele>
        <time>2018-04-27T11:51:42Z</time>
      </trkpt>
      <trkpt lat="43.83833" lon="6.72948">
        <ele>1251</ele>
        <time>2018-04-27T11:51:44Z</time>
      </trkpt>
      <trkpt lat="43.83833" lon="6.72954">
        <ele>1250</ele>
        <time>2018-04-27T11:51:48Z</time>
      </trkpt>
      <trkpt lat="43.83831" lon="6.7296">
        <ele>1249</ele>
        <time>2018-04-27T11:51:53Z</time>
      </trkpt>
      <trkpt lat="43.83836" lon="6.72961">
        <ele>1249</ele>
        <time>2018-04-27T11:52:10Z</time>
      </trkpt>
      <trkpt lat="43.83841" lon="6.72962">
        <ele>1248</ele>
        <time>2018-04-27T11:52:27Z</time>
      </trkpt>
      <trkpt lat="43.83845" lon="6.72965">
        <ele>1248</ele>
        <time>2018-04-27T11:52:34Z</time>
      </trkpt>
      <trkpt lat="43.83848" lon="6.72971">
        <ele>1247</ele>
        <time>2018-04-27T11:52:40Z</time>
      </trkpt>
      <trkpt lat="43.83851" lon="6.72976">
        <ele>1245</ele>
        <time>2018-04-27T11:52:47Z</time>
      </trkpt>
      <trkpt lat="43.83855" lon="6.7298">
        <ele>1244</ele>
        <time>2018-04-27T11:52:49Z</time>
      </trkpt>
      <trkpt lat="43.8386" lon="6.7299">
        <ele>1242</ele>
        <time>2018-04-27T11:52:51Z</time>
      </trkpt>
      <trkpt lat="43.83862" lon="6.72996">
        <ele>1241</ele>
        <time>2018-04-27T11:52:52Z</time>
      </trkpt>
      <trkpt lat="43.83866" lon="6.73006">
        <ele>1240</ele>
        <time>2018-04-27T11:52:54Z</time>
      </trkpt>
      <trkpt lat="43.83871" lon="6.73015">
        <ele>1239</ele>
        <time>2018-04-27T11:52:56Z</time>
      </trkpt>
      <trkpt lat="43.83873" lon="6.73021">
        <ele>1238</ele>
        <time>2018-04-27T11:52:57Z</time>
      </trkpt>
      <trkpt lat="43.83876" lon="6.73027">
        <ele>1237</ele>
        <time>2018-04-27T11:52:58Z</time>
      </trkpt>
      <trkpt lat="43.83878" lon="6.73034">
        <ele>1236</ele>
        <time>2018-04-27T11:52:59Z</time>
      </trkpt>
      <trkpt lat="43.83882" lon="6.73042">
        <ele>1235</ele>
        <time>2018-04-27T11:53:01Z</time>
      </trkpt>
      <trkpt lat="43.83887" lon="6.73048">
        <ele>1234</ele>
        <time>2018-04-27T11:53:03Z</time>
      </trkpt>
      <trkpt lat="43.83892" lon="6.73053">
        <ele>1233</ele>
        <time>2018-04-27T11:53:05Z</time>
      </trkpt>
      <trkpt lat="43.83896" lon="6.73059">
        <ele>1232</ele>
        <time>2018-04-27T11:53:07Z</time>
      </trkpt>
      <trkpt lat="43.83901" lon="6.73063">
        <ele>1231</ele>
        <time>2018-04-27T11:53:09Z</time>
      </trkpt>
      <trkpt lat="43.83906" lon="6.73069">
        <ele>1230</ele>
        <time>2018-04-27T11:53:11Z</time>
      </trkpt>
      <trkpt lat="43.83909" lon="6.73074">
        <ele>1228</ele>
        <time>2018-04-27T11:53:12Z</time>
      </trkpt>
      <trkpt lat="43.83913" lon="6.7308">
        <ele>1227</ele>
        <time>2018-04-27T11:53:13Z</time>
      </trkpt>
      <trkpt lat="43.83916" lon="6.73086">
        <ele>1226</ele>
        <time>2018-04-27T11:53:14Z</time>
      </trkpt>
      <trkpt lat="43.83919" lon="6.73093">
        <ele>1225</ele>
        <time>2018-04-27T11:53:15Z</time>
      </trkpt>
      <trkpt lat="43.83921" lon="6.731">
        <ele>1224</ele>
        <time>2018-04-27T11:53:16Z</time>
      </trkpt>
      <trkpt lat="43.83923" lon="6.73106">
        <ele>1223</ele>
        <time>2018-04-27T11:53:17Z</time>
      </trkpt>
      <trkpt lat="43.83926" lon="6.73112">
        <ele>1222</ele>
        <time>2018-04-27T11:53:19Z</time>
      </trkpt>
      <trkpt lat="43.83929" lon="6.7312">
        <ele>1221</ele>
        <time>2018-04-27T11:53:21Z</time>
      </trkpt>
      <trkpt lat="43.83931" lon="6.73127">
        <ele>1223</ele>
        <time>2018-04-27T11:53:23Z</time>
      </trkpt>
      <trkpt lat="43.83932" lon="6.73134">
        <ele>1223</ele>
        <time>2018-04-27T11:53:25Z</time>
      </trkpt>
      <trkpt lat="43.83934" lon="6.73141">
        <ele>1222</ele>
        <time>2018-04-27T11:53:27Z</time>
      </trkpt>
      <trkpt lat="43.83937" lon="6.7315">
        <ele>1220</ele>
        <time>2018-04-27T11:53:30Z</time>
      </trkpt>
      <trkpt lat="43.83941" lon="6.73156">
        <ele>1218</ele>
        <time>2018-04-27T11:53:32Z</time>
      </trkpt>
      <trkpt lat="43.83943" lon="6.73163">
        <ele>1213</ele>
        <time>2018-04-27T11:53:34Z</time>
      </trkpt>
      <trkpt lat="43.83946" lon="6.73171">
        <ele>1210</ele>
        <time>2018-04-27T11:53:37Z</time>
      </trkpt>
      <trkpt lat="43.83948" lon="6.73178">
        <ele>1208</ele>
        <time>2018-04-27T11:53:39Z</time>
      </trkpt>
      <trkpt lat="43.83949" lon="6.73185">
        <ele>1206</ele>
        <time>2018-04-27T11:53:49Z</time>
      </trkpt>
      <trkpt lat="43.83949" lon="6.73192">
        <ele>1204</ele>
        <time>2018-04-27T11:53:55Z</time>
      </trkpt>
      <trkpt lat="43.83951" lon="6.73199">
        <ele>1202</ele>
        <time>2018-04-27T11:53:58Z</time>
      </trkpt>
      <trkpt lat="43.83953" lon="6.73206">
        <ele>1200</ele>
        <time>2018-04-27T11:54:01Z</time>
      </trkpt>
      <trkpt lat="43.83956" lon="6.73214">
        <ele>1199</ele>
        <time>2018-04-27T11:54:06Z</time>
      </trkpt>
      <trkpt lat="43.83955" lon="6.73222">
        <ele>1198</ele>
        <time>2018-04-27T11:54:08Z</time>
      </trkpt>
      <trkpt lat="43.83956" lon="6.7323">
        <ele>1196</ele>
        <time>2018-04-27T11:54:12Z</time>
      </trkpt>
      <trkpt lat="43.83954" lon="6.73238">
        <ele>1194</ele>
        <time>2018-04-27T11:54:15Z</time>
      </trkpt>
      <trkpt lat="43.83954" lon="6.73245">
        <ele>1193</ele>
        <time>2018-04-27T11:54:17Z</time>
      </trkpt>
      <trkpt lat="43.83955" lon="6.73254">
        <ele>1191</ele>
        <time>2018-04-27T11:54:22Z</time>
      </trkpt>
      <trkpt lat="43.83955" lon="6.73258">
        <ele>1189</ele>
        <time>2018-04-27T11:54:46Z</time>
      </trkpt>
      <trkpt lat="43.83955" lon="6.73258">
        <ele>1188</ele>
        <time>2018-04-27T11:54:48Z</time>
      </trkpt>
      <trkpt lat="43.83955" lon="6.73258">
        <ele>1187</ele>
        <time>2018-04-27T11:55:16Z</time>
      </trkpt>
      <trkpt lat="43.83955" lon="6.73258">
        <ele>1186</ele>
        <time>2018-04-27T11:55:18Z</time>
      </trkpt>
      <trkpt lat="43.83955" lon="6.73265">
        <ele>1186</ele>
        <time>2018-04-27T11:55:26Z</time>
      </trkpt>
      <trkpt lat="43.83954" lon="6.73274">
        <ele>1185</ele>
        <time>2018-04-27T11:55:28Z</time>
      </trkpt>
      <trkpt lat="43.83956" lon="6.73284">
        <ele>1184</ele>
        <time>2018-04-27T11:55:30Z</time>
      </trkpt>
      <trkpt lat="43.8396" lon="6.73293">
        <ele>1183</ele>
        <time>2018-04-27T11:55:32Z</time>
      </trkpt>
      <trkpt lat="43.83965" lon="6.73301">
        <ele>1181</ele>
        <time>2018-04-27T11:55:34Z</time>
      </trkpt>
      <trkpt lat="43.83971" lon="6.7331">
        <ele>1180</ele>
        <time>2018-04-27T11:55:36Z</time>
      </trkpt>
      <trkpt lat="43.83976" lon="6.73318">
        <ele>1178</ele>
        <time>2018-04-27T11:55:38Z</time>
      </trkpt>
      <trkpt lat="43.8398" lon="6.73328">
        <ele>1176</ele>
        <time>2018-04-27T11:55:40Z</time>
      </trkpt>
      <trkpt lat="43.83984" lon="6.7334">
        <ele>1174</ele>
        <time>2018-04-27T11:55:42Z</time>
      </trkpt>
      <trkpt lat="43.83986" lon="6.73346">
        <ele>1173</ele>
        <time>2018-04-27T11:55:43Z</time>
      </trkpt>
      <trkpt lat="43.83987" lon="6.73352">
        <ele>1171</ele>
        <time>2018-04-27T11:55:44Z</time>
      </trkpt>
      <trkpt lat="43.83991" lon="6.73363">
        <ele>1170</ele>
        <time>2018-04-27T11:55:46Z</time>
      </trkpt>
      <trkpt lat="43.83993" lon="6.73369">
        <ele>1168</ele>
        <time>2018-04-27T11:55:47Z</time>
      </trkpt>
      <trkpt lat="43.83995" lon="6.73375">
        <ele>1167</ele>
        <time>2018-04-27T11:55:48Z</time>
      </trkpt>
      <trkpt lat="43.83998" lon="6.73381">
        <ele>1166</ele>
        <time>2018-04-27T11:55:49Z</time>
      </trkpt>
      <trkpt lat="43.84" lon="6.73386">
        <ele>1165</ele>
        <time>2018-04-27T11:55:50Z</time>
      </trkpt>
      <trkpt lat="43.84002" lon="6.73397">
        <ele>1164</ele>
        <time>2018-04-27T11:55:52Z</time>
      </trkpt>
      <trkpt lat="43.84008" lon="6.73405">
        <ele>1163</ele>
        <time>2018-04-27T11:55:54Z</time>
      </trkpt>
      <trkpt lat="43.84016" lon="6.7341">
        <ele>1162</ele>
        <time>2018-04-27T11:55:56Z</time>
      </trkpt>
      <trkpt lat="43.84021" lon="6.73413">
        <ele>1161</ele>
        <time>2018-04-27T11:55:57Z</time>
      </trkpt>
      <trkpt lat="43.84025" lon="6.73417">
        <ele>1159</ele>
        <time>2018-04-27T11:55:58Z</time>
      </trkpt>
      <trkpt lat="43.84029" lon="6.73421">
        <ele>1158</ele>
        <time>2018-04-27T11:55:59Z</time>
      </trkpt>
      <trkpt lat="43.84035" lon="6.73431">
        <ele>1157</ele>
        <time>2018-04-27T11:56:01Z</time>
      </trkpt>
      <trkpt lat="43.8404" lon="6.73434">
        <ele>1156</ele>
        <time>2018-04-27T11:56:02Z</time>
      </trkpt>
      <trkpt lat="43.84044" lon="6.73438">
        <ele>1154</ele>
        <time>2018-04-27T11:56:03Z</time>
      </trkpt>
      <trkpt lat="43.84049" lon="6.73442">
        <ele>1153</ele>
        <time>2018-04-27T11:56:04Z</time>
      </trkpt>
      <trkpt lat="43.84055" lon="6.7345">
        <ele>1152</ele>
        <time>2018-04-27T11:56:06Z</time>
      </trkpt>
      <trkpt lat="43.84058" lon="6.73461">
        <ele>1151</ele>
        <time>2018-04-27T11:56:08Z</time>
      </trkpt>
      <trkpt lat="43.84058" lon="6.73473">
        <ele>1150</ele>
        <time>2018-04-27T11:56:10Z</time>
      </trkpt>
      <trkpt lat="43.84058" lon="6.7348">
        <ele>1149</ele>
        <time>2018-04-27T11:56:11Z</time>
      </trkpt>
      <trkpt lat="43.84058" lon="6.73486">
        <ele>1149</ele>
        <time>2018-04-27T11:56:12Z</time>
      </trkpt>
      <trkpt lat="43.8406" lon="6.73493">
        <ele>1148</ele>
        <time>2018-04-27T11:56:13Z</time>
      </trkpt>
      <trkpt lat="43.84064" lon="6.73505">
        <ele>1147</ele>
        <time>2018-04-27T11:56:15Z</time>
      </trkpt>
      <trkpt lat="43.84066" lon="6.73512">
        <ele>1146</ele>
        <time>2018-04-27T11:56:16Z</time>
      </trkpt>
      <trkpt lat="43.84066" lon="6.73518">
        <ele>1146</ele>
        <time>2018-04-27T11:56:17Z</time>
      </trkpt>
      <trkpt lat="43.84065" lon="6.7353">
        <ele>1145</ele>
        <time>2018-04-27T11:56:19Z</time>
      </trkpt>
      <trkpt lat="43.84065" lon="6.73537">
        <ele>1144</ele>
        <time>2018-04-27T11:56:20Z</time>
      </trkpt>
      <trkpt lat="43.84064" lon="6.73544">
        <ele>1143</ele>
        <time>2018-04-27T11:56:21Z</time>
      </trkpt>
      <trkpt lat="43.84064" lon="6.73556">
        <ele>1142</ele>
        <time>2018-04-27T11:56:23Z</time>
      </trkpt>
      <trkpt lat="43.84065" lon="6.73568">
        <ele>1141</ele>
        <time>2018-04-27T11:56:25Z</time>
      </trkpt>
      <trkpt lat="43.84067" lon="6.73579">
        <ele>1139</ele>
        <time>2018-04-27T11:56:27Z</time>
      </trkpt>
      <trkpt lat="43.84068" lon="6.73585">
        <ele>1138</ele>
        <time>2018-04-27T11:56:28Z</time>
      </trkpt>
      <trkpt lat="43.84071" lon="6.73595">
        <ele>1136</ele>
        <time>2018-04-27T11:56:30Z</time>
      </trkpt>
      <trkpt lat="43.84073" lon="6.73602">
        <ele>1134</ele>
        <time>2018-04-27T11:56:31Z</time>
      </trkpt>
      <trkpt lat="43.84076" lon="6.73615">
        <ele>1132</ele>
        <time>2018-04-27T11:56:33Z</time>
      </trkpt>
      <trkpt lat="43.84077" lon="6.73622">
        <ele>1130</ele>
        <time>2018-04-27T11:56:34Z</time>
      </trkpt>
      <trkpt lat="43.84078" lon="6.73629">
        <ele>1128</ele>
        <time>2018-04-27T11:56:35Z</time>
      </trkpt>
      <trkpt lat="43.84082" lon="6.7364">
        <ele>1126</ele>
        <time>2018-04-27T11:56:37Z</time>
      </trkpt>
      <trkpt lat="43.84083" lon="6.73646">
        <ele>1124</ele>
        <time>2018-04-27T11:56:38Z</time>
      </trkpt>
      <trkpt lat="43.84084" lon="6.73653">
        <ele>1122</ele>
        <time>2018-04-27T11:56:39Z</time>
      </trkpt>
      <trkpt lat="43.84086" lon="6.73659">
        <ele>1121</ele>
        <time>2018-04-27T11:56:40Z</time>
      </trkpt>
      <trkpt lat="43.84089" lon="6.73665">
        <ele>1119</ele>
        <time>2018-04-27T11:56:41Z</time>
      </trkpt>
      <trkpt lat="43.84093" lon="6.73673">
        <ele>1118</ele>
        <time>2018-04-27T11:56:43Z</time>
      </trkpt>
      <trkpt lat="43.84095" lon="6.73681">
        <ele>1116</ele>
        <time>2018-04-27T11:56:45Z</time>
      </trkpt>
      <trkpt lat="43.84098" lon="6.73692">
        <ele>1115</ele>
        <time>2018-04-27T11:56:47Z</time>
      </trkpt>
      <trkpt lat="43.84103" lon="6.73702">
        <ele>1113</ele>
        <time>2018-04-27T11:56:49Z</time>
      </trkpt>
      <trkpt lat="43.84106" lon="6.73708">
        <ele>1111</ele>
        <time>2018-04-27T11:56:50Z</time>
      </trkpt>
      <trkpt lat="43.8411" lon="6.73715">
        <ele>1109</ele>
        <time>2018-04-27T11:56:51Z</time>
      </trkpt>
      <trkpt lat="43.84113" lon="6.73722">
        <ele>1108</ele>
        <time>2018-04-27T11:56:52Z</time>
      </trkpt>
      <trkpt lat="43.84115" lon="6.73728">
        <ele>1106</ele>
        <time>2018-04-27T11:56:53Z</time>
      </trkpt>
      <trkpt lat="43.84118" lon="6.73735">
        <ele>1105</ele>
        <time>2018-04-27T11:56:54Z</time>
      </trkpt>
      <trkpt lat="43.84121" lon="6.73742">
        <ele>1104</ele>
        <time>2018-04-27T11:56:55Z</time>
      </trkpt>
      <trkpt lat="43.84123" lon="6.73748">
        <ele>1103</ele>
        <time>2018-04-27T11:56:56Z</time>
      </trkpt>
      <trkpt lat="43.84126" lon="6.73755">
        <ele>1101</ele>
        <time>2018-04-27T11:56:57Z</time>
      </trkpt>
      <trkpt lat="43.84131" lon="6.73761">
        <ele>1100</ele>
        <time>2018-04-27T11:56:58Z</time>
      </trkpt>
      <trkpt lat="43.84134" lon="6.73767">
        <ele>1099</ele>
        <time>2018-04-27T11:56:59Z</time>
      </trkpt>
      <trkpt lat="43.84137" lon="6.73772">
        <ele>1098</ele>
        <time>2018-04-27T11:57:00Z</time>
      </trkpt>
      <trkpt lat="43.84141" lon="6.73778">
        <ele>1098</ele>
        <time>2018-04-27T11:57:01Z</time>
      </trkpt>
      <trkpt lat="43.84144" lon="6.73784">
        <ele>1096</ele>
        <time>2018-04-27T11:57:02Z</time>
      </trkpt>
      <trkpt lat="43.84148" lon="6.7379">
        <ele>1095</ele>
        <time>2018-04-27T11:57:03Z</time>
      </trkpt>
      <trkpt lat="43.84152" lon="6.73795">
        <ele>1094</ele>
        <time>2018-04-27T11:57:04Z</time>
      </trkpt>
      <trkpt lat="43.84158" lon="6.73803">
        <ele>1092</ele>
        <time>2018-04-27T11:57:06Z</time>
      </trkpt>
      <trkpt lat="43.84163" lon="6.73811">
        <ele>1091</ele>
        <time>2018-04-27T11:57:08Z</time>
      </trkpt>
      <trkpt lat="43.84169" lon="6.73819">
        <ele>1089</ele>
        <time>2018-04-27T11:57:10Z</time>
      </trkpt>
      <trkpt lat="43.84172" lon="6.73824">
        <ele>1087</ele>
        <time>2018-04-27T11:57:12Z</time>
      </trkpt>
      <trkpt lat="43.84178" lon="6.7383">
        <ele>1086</ele>
        <time>2018-04-27T11:57:14Z</time>
      </trkpt>
      <trkpt lat="43.84182" lon="6.73838">
        <ele>1085</ele>
        <time>2018-04-27T11:57:16Z</time>
      </trkpt>
      <trkpt lat="43.84179" lon="6.73845">
        <ele>1084</ele>
        <time>2018-04-27T11:57:19Z</time>
      </trkpt>
      <trkpt lat="43.84174" lon="6.7385">
        <ele>1083</ele>
        <time>2018-04-27T11:57:21Z</time>
      </trkpt>
      <trkpt lat="43.84171" lon="6.73855">
        <ele>1083</ele>
        <time>2018-04-27T11:57:22Z</time>
      </trkpt>
      <trkpt lat="43.84165" lon="6.73862">
        <ele>1083</ele>
        <time>2018-04-27T11:57:24Z</time>
      </trkpt>
      <trkpt lat="43.84157" lon="6.73867">
        <ele>1082</ele>
        <time>2018-04-27T11:57:26Z</time>
      </trkpt>
      <trkpt lat="43.84152" lon="6.73874">
        <ele>1082</ele>
        <time>2018-04-27T11:57:28Z</time>
      </trkpt>
      <trkpt lat="43.84147" lon="6.73876">
        <ele>1082</ele>
        <time>2018-04-27T11:57:30Z</time>
      </trkpt>
      <trkpt lat="43.84142" lon="6.73877">
        <ele>1082</ele>
        <time>2018-04-27T11:57:32Z</time>
      </trkpt>
      <trkpt lat="43.84137" lon="6.73878">
        <ele>1082</ele>
        <time>2018-04-27T11:57:34Z</time>
      </trkpt>
      <trkpt lat="43.84131" lon="6.73878">
        <ele>1082</ele>
        <time>2018-04-27T11:57:36Z</time>
      </trkpt>
      <trkpt lat="43.84125" lon="6.73879">
        <ele>1081</ele>
        <time>2018-04-27T11:57:39Z</time>
      </trkpt>
      <trkpt lat="43.84119" lon="6.73883">
        <ele>1080</ele>
        <time>2018-04-27T11:57:41Z</time>
      </trkpt>
      <trkpt lat="43.84112" lon="6.73887">
        <ele>1079</ele>
        <time>2018-04-27T11:57:43Z</time>
      </trkpt>
      <trkpt lat="43.84104" lon="6.73886">
        <ele>1078</ele>
        <time>2018-04-27T11:57:45Z</time>
      </trkpt>
      <trkpt lat="43.84098" lon="6.73881">
        <ele>1077</ele>
        <time>2018-04-27T11:57:47Z</time>
      </trkpt>
      <trkpt lat="43.84089" lon="6.73876">
        <ele>1076</ele>
        <time>2018-04-27T11:57:49Z</time>
      </trkpt>
      <trkpt lat="43.84086" lon="6.73872">
        <ele>1075</ele>
        <time>2018-04-27T11:57:51Z</time>
      </trkpt>
      <trkpt lat="43.84081" lon="6.73869">
        <ele>1073</ele>
        <time>2018-04-27T11:57:53Z</time>
      </trkpt>
      <trkpt lat="43.84076" lon="6.73868">
        <ele>1072</ele>
        <time>2018-04-27T11:57:55Z</time>
      </trkpt>
      <trkpt lat="43.84071" lon="6.73866">
        <ele>1072</ele>
        <time>2018-04-27T11:57:57Z</time>
      </trkpt>
      <trkpt lat="43.84065" lon="6.73862">
        <ele>1072</ele>
        <time>2018-04-27T11:57:59Z</time>
      </trkpt>
      <trkpt lat="43.8406" lon="6.73858">
        <ele>1071</ele>
        <time>2018-04-27T11:58:01Z</time>
      </trkpt>
      <trkpt lat="43.84053" lon="6.73854">
        <ele>1070</ele>
        <time>2018-04-27T11:58:03Z</time>
      </trkpt>
      <trkpt lat="43.84046" lon="6.7385">
        <ele>1069</ele>
        <time>2018-04-27T11:58:05Z</time>
      </trkpt>
      <trkpt lat="43.84042" lon="6.73847">
        <ele>1068</ele>
        <time>2018-04-27T11:58:06Z</time>
      </trkpt>
      <trkpt lat="43.84037" lon="6.73843">
        <ele>1067</ele>
        <time>2018-04-27T11:58:07Z</time>
      </trkpt>
      <trkpt lat="43.84034" lon="6.73839">
        <ele>1067</ele>
        <time>2018-04-27T11:58:08Z</time>
      </trkpt>
      <trkpt lat="43.8403" lon="6.73836">
        <ele>1066</ele>
        <time>2018-04-27T11:58:09Z</time>
      </trkpt>
      <trkpt lat="43.84026" lon="6.73833">
        <ele>1066</ele>
        <time>2018-04-27T11:58:10Z</time>
      </trkpt>
      <trkpt lat="43.84019" lon="6.73828">
        <ele>1065</ele>
        <time>2018-04-27T11:58:12Z</time>
      </trkpt>
      <trkpt lat="43.84013" lon="6.7383">
        <ele>1065</ele>
        <time>2018-04-27T11:58:13Z</time>
      </trkpt>
      <trkpt lat="43.84005" lon="6.73827">
        <ele>1064</ele>
        <time>2018-04-27T11:58:15Z</time>
      </trkpt>
      <trkpt lat="43.84001" lon="6.73825">
        <ele>1064</ele>
        <time>2018-04-27T11:58:16Z</time>
      </trkpt>
      <trkpt lat="43.83997" lon="6.73825">
        <ele>1064</ele>
        <time>2018-04-27T11:58:17Z</time>
      </trkpt>
      <trkpt lat="43.83987" lon="6.73823">
        <ele>1064</ele>
        <time>2018-04-27T11:58:19Z</time>
      </trkpt>
      <trkpt lat="43.83982" lon="6.73822">
        <ele>1063</ele>
        <time>2018-04-27T11:58:20Z</time>
      </trkpt>
      <trkpt lat="43.83973" lon="6.73822">
        <ele>1063</ele>
        <time>2018-04-27T11:58:22Z</time>
      </trkpt>
      <trkpt lat="43.83968" lon="6.73824">
        <ele>1063</ele>
        <time>2018-04-27T11:58:23Z</time>
      </trkpt>
      <trkpt lat="43.83958" lon="6.73826">
        <ele>1063</ele>
        <time>2018-04-27T11:58:25Z</time>
      </trkpt>
      <trkpt lat="43.83953" lon="6.73828">
        <ele>1063</ele>
        <time>2018-04-27T11:58:26Z</time>
      </trkpt>
      <trkpt lat="43.83948" lon="6.73831">
        <ele>1063</ele>
        <time>2018-04-27T11:58:27Z</time>
      </trkpt>
      <trkpt lat="43.83942" lon="6.73833">
        <ele>1063</ele>
        <time>2018-04-27T11:58:28Z</time>
      </trkpt>
      <trkpt lat="43.83936" lon="6.73835">
        <ele>1063</ele>
        <time>2018-04-27T11:58:29Z</time>
      </trkpt>
      <trkpt lat="43.8393" lon="6.73837">
        <ele>1063</ele>
        <time>2018-04-27T11:58:30Z</time>
      </trkpt>
      <trkpt lat="43.83925" lon="6.73838">
        <ele>1063</ele>
        <time>2018-04-27T11:58:31Z</time>
      </trkpt>
      <trkpt lat="43.83919" lon="6.7384">
        <ele>1063</ele>
        <time>2018-04-27T11:58:32Z</time>
      </trkpt>
      <trkpt lat="43.83913" lon="6.73841">
        <ele>1063</ele>
        <time>2018-04-27T11:58:33Z</time>
      </trkpt>
      <trkpt lat="43.83908" lon="6.73843">
        <ele>1063</ele>
        <time>2018-04-27T11:58:34Z</time>
      </trkpt>
      <trkpt lat="43.83902" lon="6.73845">
        <ele>1063</ele>
        <time>2018-04-27T11:58:35Z</time>
      </trkpt>
      <trkpt lat="43.83896" lon="6.73848">
        <ele>1063</ele>
        <time>2018-04-27T11:58:36Z</time>
      </trkpt>
      <trkpt lat="43.83891" lon="6.7385">
        <ele>1062</ele>
        <time>2018-04-27T11:58:37Z</time>
      </trkpt>
      <trkpt lat="43.83885" lon="6.73853">
        <ele>1062</ele>
        <time>2018-04-27T11:58:38Z</time>
      </trkpt>
      <trkpt lat="43.8388" lon="6.73856">
        <ele>1061</ele>
        <time>2018-04-27T11:58:39Z</time>
      </trkpt>
      <trkpt lat="43.83875" lon="6.7386">
        <ele>1061</ele>
        <time>2018-04-27T11:58:40Z</time>
      </trkpt>
      <trkpt lat="43.83869" lon="6.73862">
        <ele>1061</ele>
        <time>2018-04-27T11:58:41Z</time>
      </trkpt>
      <trkpt lat="43.83865" lon="6.73865">
        <ele>1061</ele>
        <time>2018-04-27T11:58:42Z</time>
      </trkpt>
      <trkpt lat="43.83859" lon="6.73867">
        <ele>1061</ele>
        <time>2018-04-27T11:58:43Z</time>
      </trkpt>
      <trkpt lat="43.83854" lon="6.7387">
        <ele>1061</ele>
        <time>2018-04-27T11:58:44Z</time>
      </trkpt>
      <trkpt lat="43.83849" lon="6.73872">
        <ele>1060</ele>
        <time>2018-04-27T11:58:45Z</time>
      </trkpt>
      <trkpt lat="43.83844" lon="6.73875">
        <ele>1060</ele>
        <time>2018-04-27T11:58:46Z</time>
      </trkpt>
      <trkpt lat="43.83839" lon="6.73878">
        <ele>1060</ele>
        <time>2018-04-27T11:58:47Z</time>
      </trkpt>
      <trkpt lat="43.83835" lon="6.7388">
        <ele>1060</ele>
        <time>2018-04-27T11:58:48Z</time>
      </trkpt>
      <trkpt lat="43.8383" lon="6.73882">
        <ele>1060</ele>
        <time>2018-04-27T11:58:49Z</time>
      </trkpt>
      <trkpt lat="43.83825" lon="6.73885">
        <ele>1060</ele>
        <time>2018-04-27T11:58:50Z</time>
      </trkpt>
      <trkpt lat="43.8382" lon="6.73888">
        <ele>1060</ele>
        <time>2018-04-27T11:58:51Z</time>
      </trkpt>
      <trkpt lat="43.83815" lon="6.73889">
        <ele>1060</ele>
        <time>2018-04-27T11:58:52Z</time>
      </trkpt>
      <trkpt lat="43.83808" lon="6.73896">
        <ele>1061</ele>
        <time>2018-04-27T11:58:54Z</time>
      </trkpt>
      <trkpt lat="43.83802" lon="6.73907">
        <ele>1061</ele>
        <time>2018-04-27T11:58:56Z</time>
      </trkpt>
      <trkpt lat="43.83801" lon="6.73913">
        <ele>1062</ele>
        <time>2018-04-27T11:58:57Z</time>
      </trkpt>
      <trkpt lat="43.83799" lon="6.73924">
        <ele>1062</ele>
        <time>2018-04-27T11:58:59Z</time>
      </trkpt>
      <trkpt lat="43.83798" lon="6.73931">
        <ele>1062</ele>
        <time>2018-04-27T11:59:00Z</time>
      </trkpt>
      <trkpt lat="43.83797" lon="6.73937">
        <ele>1062</ele>
        <time>2018-04-27T11:59:01Z</time>
      </trkpt>
      <trkpt lat="43.83796" lon="6.73944">
        <ele>1062</ele>
        <time>2018-04-27T11:59:02Z</time>
      </trkpt>
      <trkpt lat="43.83796" lon="6.73955">
        <ele>1062</ele>
        <time>2018-04-27T11:59:04Z</time>
      </trkpt>
      <trkpt lat="43.83795" lon="6.73967">
        <ele>1063</ele>
        <time>2018-04-27T11:59:06Z</time>
      </trkpt>
      <trkpt lat="43.83794" lon="6.73974">
        <ele>1063</ele>
        <time>2018-04-27T11:59:07Z</time>
      </trkpt>
      <trkpt lat="43.83795" lon="6.73986">
        <ele>1063</ele>
        <time>2018-04-27T11:59:09Z</time>
      </trkpt>
      <trkpt lat="43.83795" lon="6.73997">
        <ele>1064</ele>
        <time>2018-04-27T11:59:11Z</time>
      </trkpt>
      <trkpt lat="43.83798" lon="6.74008">
        <ele>1064</ele>
        <time>2018-04-27T11:59:13Z</time>
      </trkpt>
      <trkpt lat="43.83795" lon="6.74018">
        <ele>1065</ele>
        <time>2018-04-27T11:59:15Z</time>
      </trkpt>
      <trkpt lat="43.838" lon="6.74027">
        <ele>1066</ele>
        <time>2018-04-27T11:59:17Z</time>
      </trkpt>
      <trkpt lat="43.83801" lon="6.74037">
        <ele>1067</ele>
        <time>2018-04-27T11:59:19Z</time>
      </trkpt>
      <trkpt lat="43.83799" lon="6.74044">
        <ele>1067</ele>
        <time>2018-04-27T11:59:20Z</time>
      </trkpt>
      <trkpt lat="43.838" lon="6.74053">
        <ele>1067</ele>
        <time>2018-04-27T11:59:22Z</time>
      </trkpt>
      <trkpt lat="43.83801" lon="6.74064">
        <ele>1068</ele>
        <time>2018-04-27T11:59:24Z</time>
      </trkpt>
      <trkpt lat="43.83802" lon="6.74072">
        <ele>1069</ele>
        <time>2018-04-27T11:59:26Z</time>
      </trkpt>
      <trkpt lat="43.83803" lon="6.74082">
        <ele>1070</ele>
        <time>2018-04-27T11:59:28Z</time>
      </trkpt>
      <trkpt lat="43.83802" lon="6.74091">
        <ele>1071</ele>
        <time>2018-04-27T11:59:30Z</time>
      </trkpt>
      <trkpt lat="43.83803" lon="6.74102">
        <ele>1071</ele>
        <time>2018-04-27T11:59:32Z</time>
      </trkpt>
      <trkpt lat="43.83804" lon="6.74112">
        <ele>1071</ele>
        <time>2018-04-27T11:59:34Z</time>
      </trkpt>
      <trkpt lat="43.83804" lon="6.74121">
        <ele>1072</ele>
        <time>2018-04-27T11:59:36Z</time>
      </trkpt>
      <trkpt lat="43.83802" lon="6.74129">
        <ele>1071</ele>
        <time>2018-04-27T11:59:38Z</time>
      </trkpt>
      <trkpt lat="43.83802" lon="6.74138">
        <ele>1071</ele>
        <time>2018-04-27T11:59:40Z</time>
      </trkpt>
      <trkpt lat="43.83801" lon="6.74146">
        <ele>1071</ele>
        <time>2018-04-27T11:59:42Z</time>
      </trkpt>
      <trkpt lat="43.83799" lon="6.74153">
        <ele>1071</ele>
        <time>2018-04-27T11:59:44Z</time>
      </trkpt>
      <trkpt lat="43.83796" lon="6.74163">
        <ele>1071</ele>
        <time>2018-04-27T11:59:46Z</time>
      </trkpt>
      <trkpt lat="43.83794" lon="6.74171">
        <ele>1071</ele>
        <time>2018-04-27T11:59:48Z</time>
      </trkpt>
      <trkpt lat="43.83793" lon="6.7418">
        <ele>1071</ele>
        <time>2018-04-27T11:59:50Z</time>
      </trkpt>
      <trkpt lat="43.83791" lon="6.7419">
        <ele>1070</ele>
        <time>2018-04-27T11:59:52Z</time>
      </trkpt>
      <trkpt lat="43.83789" lon="6.742">
        <ele>1070</ele>
        <time>2018-04-27T11:59:54Z</time>
      </trkpt>
      <trkpt lat="43.83788" lon="6.74207">
        <ele>1070</ele>
        <time>2018-04-27T11:59:56Z</time>
      </trkpt>
      <trkpt lat="43.83787" lon="6.74217">
        <ele>1070</ele>
        <time>2018-04-27T11:59:58Z</time>
      </trkpt>
      <trkpt lat="43.83783" lon="6.74223">
        <ele>1070</ele>
        <time>2018-04-27T12:00:00Z</time>
      </trkpt>
      <trkpt lat="43.83776" lon="6.74227">
        <ele>1070</ele>
        <time>2018-04-27T12:00:02Z</time>
      </trkpt>
      <trkpt lat="43.8377" lon="6.7423">
        <ele>1071</ele>
        <time>2018-04-27T12:00:04Z</time>
      </trkpt>
      <trkpt lat="43.83764" lon="6.74235">
        <ele>1070</ele>
        <time>2018-04-27T12:00:06Z</time>
      </trkpt>
      <trkpt lat="43.83757" lon="6.74237">
        <ele>1070</ele>
        <time>2018-04-27T12:00:08Z</time>
      </trkpt>
      <trkpt lat="43.8375" lon="6.7424">
        <ele>1069</ele>
        <time>2018-04-27T12:00:10Z</time>
      </trkpt>
      <trkpt lat="43.83743" lon="6.74243">
        <ele>1068</ele>
        <time>2018-04-27T12:00:12Z</time>
      </trkpt>
      <trkpt lat="43.83737" lon="6.74247">
        <ele>1068</ele>
        <time>2018-04-27T12:00:14Z</time>
      </trkpt>
      <trkpt lat="43.8373" lon="6.74252">
        <ele>1067</ele>
        <time>2018-04-27T12:00:16Z</time>
      </trkpt>
      <trkpt lat="43.83725" lon="6.74258">
        <ele>1068</ele>
        <time>2018-04-27T12:00:18Z</time>
      </trkpt>
      <trkpt lat="43.83719" lon="6.74264">
        <ele>1068</ele>
        <time>2018-04-27T12:00:20Z</time>
      </trkpt>
      <trkpt lat="43.83714" lon="6.74271">
        <ele>1068</ele>
        <time>2018-04-27T12:00:22Z</time>
      </trkpt>
      <trkpt lat="43.83708" lon="6.74278">
        <ele>1069</ele>
        <time>2018-04-27T12:00:24Z</time>
      </trkpt>
      <trkpt lat="43.83701" lon="6.74281">
        <ele>1069</ele>
        <time>2018-04-27T12:00:26Z</time>
      </trkpt>
      <trkpt lat="43.83696" lon="6.74287">
        <ele>1070</ele>
        <time>2018-04-27T12:00:28Z</time>
      </trkpt>
      <trkpt lat="43.83691" lon="6.7429">
        <ele>1070</ele>
        <time>2018-04-27T12:00:30Z</time>
      </trkpt>
      <trkpt lat="43.83684" lon="6.74295">
        <ele>1070</ele>
        <time>2018-04-27T12:00:32Z</time>
      </trkpt>
      <trkpt lat="43.83678" lon="6.74302">
        <ele>1070</ele>
        <time>2018-04-27T12:00:34Z</time>
      </trkpt>
      <trkpt lat="43.83671" lon="6.74304">
        <ele>1071</ele>
        <time>2018-04-27T12:00:36Z</time>
      </trkpt>
      <trkpt lat="43.83664" lon="6.74307">
        <ele>1071</ele>
        <time>2018-04-27T12:00:38Z</time>
      </trkpt>
      <trkpt lat="43.83658" lon="6.74306">
        <ele>1072</ele>
        <time>2018-04-27T12:00:40Z</time>
      </trkpt>
      <trkpt lat="43.83652" lon="6.74304">
        <ele>1074</ele>
        <time>2018-04-27T12:00:42Z</time>
      </trkpt>
      <trkpt lat="43.83645" lon="6.74302">
        <ele>1075</ele>
        <time>2018-04-27T12:00:44Z</time>
      </trkpt>
      <trkpt lat="43.83639" lon="6.74298">
        <ele>1076</ele>
        <time>2018-04-27T12:00:46Z</time>
      </trkpt>
      <trkpt lat="43.83633" lon="6.74295">
        <ele>1077</ele>
        <time>2018-04-27T12:00:48Z</time>
      </trkpt>
      <trkpt lat="43.83627" lon="6.74292">
        <ele>1078</ele>
        <time>2018-04-27T12:00:50Z</time>
      </trkpt>
      <trkpt lat="43.83621" lon="6.74288">
        <ele>1078</ele>
        <time>2018-04-27T12:00:52Z</time>
      </trkpt>
      <trkpt lat="43.83616" lon="6.74283">
        <ele>1079</ele>
        <time>2018-04-27T12:00:54Z</time>
      </trkpt>
      <trkpt lat="43.83611" lon="6.74278">
        <ele>1079</ele>
        <time>2018-04-27T12:00:56Z</time>
      </trkpt>
      <trkpt lat="43.83605" lon="6.74273">
        <ele>1079</ele>
        <time>2018-04-27T12:00:58Z</time>
      </trkpt>
      <trkpt lat="43.83599" lon="6.74267">
        <ele>1079</ele>
        <time>2018-04-27T12:01:00Z</time>
      </trkpt>
      <trkpt lat="43.83593" lon="6.74261">
        <ele>1079</ele>
        <time>2018-04-27T12:01:02Z</time>
      </trkpt>
      <trkpt lat="43.83587" lon="6.74255">
        <ele>1080</ele>
        <time>2018-04-27T12:01:04Z</time>
      </trkpt>
      <trkpt lat="43.83582" lon="6.74249">
        <ele>1080</ele>
        <time>2018-04-27T12:01:06Z</time>
      </trkpt>
      <trkpt lat="43.83578" lon="6.74241">
        <ele>1080</ele>
        <time>2018-04-27T12:01:08Z</time>
      </trkpt>
      <trkpt lat="43.83575" lon="6.74234">
        <ele>1080</ele>
        <time>2018-04-27T12:01:10Z</time>
      </trkpt>
      <trkpt lat="43.83572" lon="6.74225">
        <ele>1080</ele>
        <time>2018-04-27T12:01:12Z</time>
      </trkpt>
      <trkpt lat="43.8357" lon="6.74216">
        <ele>1081</ele>
        <time>2018-04-27T12:01:14Z</time>
      </trkpt>
      <trkpt lat="43.83567" lon="6.74207">
        <ele>1081</ele>
        <time>2018-04-27T12:01:16Z</time>
      </trkpt>
      <trkpt lat="43.83565" lon="6.74198">
        <ele>1082</ele>
        <time>2018-04-27T12:01:18Z</time>
      </trkpt>
      <trkpt lat="43.83563" lon="6.74188">
        <ele>1082</ele>
        <time>2018-04-27T12:01:20Z</time>
      </trkpt>
      <trkpt lat="43.83559" lon="6.7418">
        <ele>1082</ele>
        <time>2018-04-27T12:01:22Z</time>
      </trkpt>
      <trkpt lat="43.83556" lon="6.74171">
        <ele>1083</ele>
        <time>2018-04-27T12:01:24Z</time>
      </trkpt>
      <trkpt lat="43.83552" lon="6.74163">
        <ele>1083</ele>
        <time>2018-04-27T12:01:26Z</time>
      </trkpt>
      <trkpt lat="43.83548" lon="6.74156">
        <ele>1083</ele>
        <time>2018-04-27T12:01:28Z</time>
      </trkpt>
      <trkpt lat="43.83542" lon="6.74149">
        <ele>1083</ele>
        <time>2018-04-27T12:01:30Z</time>
      </trkpt>
      <trkpt lat="43.83538" lon="6.74143">
        <ele>1082</ele>
        <time>2018-04-27T12:01:32Z</time>
      </trkpt>
      <trkpt lat="43.83532" lon="6.74137">
        <ele>1082</ele>
        <time>2018-04-27T12:01:34Z</time>
      </trkpt>
      <trkpt lat="43.83524" lon="6.74132">
        <ele>1082</ele>
        <time>2018-04-27T12:01:36Z</time>
      </trkpt>
      <trkpt lat="43.83516" lon="6.74128">
        <ele>1081</ele>
        <time>2018-04-27T12:01:38Z</time>
      </trkpt>
      <trkpt lat="43.83511" lon="6.74126">
        <ele>1081</ele>
        <time>2018-04-27T12:01:39Z</time>
      </trkpt>
      <trkpt lat="43.83506" lon="6.74125">
        <ele>1081</ele>
        <time>2018-04-27T12:01:40Z</time>
      </trkpt>
      <trkpt lat="43.83501" lon="6.74124">
        <ele>1081</ele>
        <time>2018-04-27T12:01:41Z</time>
      </trkpt>
      <trkpt lat="43.83496" lon="6.74123">
        <ele>1081</ele>
        <time>2018-04-27T12:01:42Z</time>
      </trkpt>
      <trkpt lat="43.8349" lon="6.74121">
        <ele>1081</ele>
        <time>2018-04-27T12:01:43Z</time>
      </trkpt>
      <trkpt lat="43.83485" lon="6.74119">
        <ele>1081</ele>
        <time>2018-04-27T12:01:44Z</time>
      </trkpt>
      <trkpt lat="43.8348" lon="6.74117">
        <ele>1081</ele>
        <time>2018-04-27T12:01:45Z</time>
      </trkpt>
      <trkpt lat="43.83475" lon="6.74116">
        <ele>1081</ele>
        <time>2018-04-27T12:01:46Z</time>
      </trkpt>
      <trkpt lat="43.8347" lon="6.74114">
        <ele>1081</ele>
        <time>2018-04-27T12:01:47Z</time>
      </trkpt>
      <trkpt lat="43.83464" lon="6.74113">
        <ele>1081</ele>
        <time>2018-04-27T12:01:48Z</time>
      </trkpt>
      <trkpt lat="43.8346" lon="6.74112">
        <ele>1080</ele>
        <time>2018-04-27T12:01:49Z</time>
      </trkpt>
      <trkpt lat="43.83455" lon="6.74111">
        <ele>1080</ele>
        <time>2018-04-27T12:01:50Z</time>
      </trkpt>
      <trkpt lat="43.8345" lon="6.74111">
        <ele>1080</ele>
        <time>2018-04-27T12:01:51Z</time>
      </trkpt>
      <trkpt lat="43.83445" lon="6.7411">
        <ele>1080</ele>
        <time>2018-04-27T12:01:52Z</time>
      </trkpt>
      <trkpt lat="43.8344" lon="6.74108">
        <ele>1080</ele>
        <time>2018-04-27T12:01:53Z</time>
      </trkpt>
      <trkpt lat="43.83435" lon="6.74106">
        <ele>1081</ele>
        <time>2018-04-27T12:01:54Z</time>
      </trkpt>
      <trkpt lat="43.8343" lon="6.74104">
        <ele>1081</ele>
        <time>2018-04-27T12:01:55Z</time>
      </trkpt>
      <trkpt lat="43.83425" lon="6.74103">
        <ele>1080</ele>
        <time>2018-04-27T12:01:56Z</time>
      </trkpt>
      <trkpt lat="43.83419" lon="6.74102">
        <ele>1080</ele>
        <time>2018-04-27T12:01:57Z</time>
      </trkpt>
      <trkpt lat="43.83414" lon="6.741">
        <ele>1080</ele>
        <time>2018-04-27T12:01:58Z</time>
      </trkpt>
      <trkpt lat="43.83408" lon="6.74099">
        <ele>1080</ele>
        <time>2018-04-27T12:01:59Z</time>
      </trkpt>
      <trkpt lat="43.83402" lon="6.74098">
        <ele>1079</ele>
        <time>2018-04-27T12:02:00Z</time>
      </trkpt>
      <trkpt lat="43.83397" lon="6.74097">
        <ele>1079</ele>
        <time>2018-04-27T12:02:01Z</time>
      </trkpt>
      <trkpt lat="43.8339" lon="6.74095">
        <ele>1078</ele>
        <time>2018-04-27T12:02:02Z</time>
      </trkpt>
      <trkpt lat="43.83384" lon="6.74094">
        <ele>1078</ele>
        <time>2018-04-27T12:02:03Z</time>
      </trkpt>
      <trkpt lat="43.83378" lon="6.74094">
        <ele>1078</ele>
        <time>2018-04-27T12:02:04Z</time>
      </trkpt>
      <trkpt lat="43.83371" lon="6.74094">
        <ele>1077</ele>
        <time>2018-04-27T12:02:05Z</time>
      </trkpt>
      <trkpt lat="43.83365" lon="6.74096">
        <ele>1077</ele>
        <time>2018-04-27T12:02:06Z</time>
      </trkpt>
      <trkpt lat="43.83358" lon="6.74098">
        <ele>1077</ele>
        <time>2018-04-27T12:02:07Z</time>
      </trkpt>
      <trkpt lat="43.83352" lon="6.74101">
        <ele>1077</ele>
        <time>2018-04-27T12:02:08Z</time>
      </trkpt>
      <trkpt lat="43.83346" lon="6.74104">
        <ele>1077</ele>
        <time>2018-04-27T12:02:09Z</time>
      </trkpt>
      <trkpt lat="43.8334" lon="6.74107">
        <ele>1076</ele>
        <time>2018-04-27T12:02:10Z</time>
      </trkpt>
      <trkpt lat="43.83333" lon="6.74109">
        <ele>1076</ele>
        <time>2018-04-27T12:02:11Z</time>
      </trkpt>
      <trkpt lat="43.83327" lon="6.74113">
        <ele>1076</ele>
        <time>2018-04-27T12:02:12Z</time>
      </trkpt>
      <trkpt lat="43.8332" lon="6.74116">
        <ele>1076</ele>
        <time>2018-04-27T12:02:13Z</time>
      </trkpt>
      <trkpt lat="43.83313" lon="6.74116">
        <ele>1075</ele>
        <time>2018-04-27T12:02:14Z</time>
      </trkpt>
      <trkpt lat="43.83305" lon="6.74115">
        <ele>1075</ele>
        <time>2018-04-27T12:02:15Z</time>
      </trkpt>
      <trkpt lat="43.83297" lon="6.74111">
        <ele>1074</ele>
        <time>2018-04-27T12:02:16Z</time>
      </trkpt>
      <trkpt lat="43.8329" lon="6.74105">
        <ele>1074</ele>
        <time>2018-04-27T12:02:17Z</time>
      </trkpt>
      <trkpt lat="43.83283" lon="6.74097">
        <ele>1073</ele>
        <time>2018-04-27T12:02:18Z</time>
      </trkpt>
      <trkpt lat="43.83277" lon="6.74089">
        <ele>1073</ele>
        <time>2018-04-27T12:02:19Z</time>
      </trkpt>
      <trkpt lat="43.8327" lon="6.74082">
        <ele>1072</ele>
        <time>2018-04-27T12:02:20Z</time>
      </trkpt>
      <trkpt lat="43.83263" lon="6.74074">
        <ele>1072</ele>
        <time>2018-04-27T12:02:21Z</time>
      </trkpt>
      <trkpt lat="43.83255" lon="6.74067">
        <ele>1071</ele>
        <time>2018-04-27T12:02:22Z</time>
      </trkpt>
      <trkpt lat="43.83248" lon="6.74059">
        <ele>1071</ele>
        <time>2018-04-27T12:02:23Z</time>
      </trkpt>
      <trkpt lat="43.83241" lon="6.74052">
        <ele>1070</ele>
        <time>2018-04-27T12:02:24Z</time>
      </trkpt>
      <trkpt lat="43.83233" lon="6.74045">
        <ele>1070</ele>
        <time>2018-04-27T12:02:25Z</time>
      </trkpt>
      <trkpt lat="43.83225" lon="6.74037">
        <ele>1069</ele>
        <time>2018-04-27T12:02:26Z</time>
      </trkpt>
      <trkpt lat="43.83217" lon="6.7403">
        <ele>1069</ele>
        <time>2018-04-27T12:02:27Z</time>
      </trkpt>
      <trkpt lat="43.83209" lon="6.74023">
        <ele>1069</ele>
        <time>2018-04-27T12:02:28Z</time>
      </trkpt>
      <trkpt lat="43.83201" lon="6.74016">
        <ele>1068</ele>
        <time>2018-04-27T12:02:29Z</time>
      </trkpt>
      <trkpt lat="43.83194" lon="6.74008">
        <ele>1068</ele>
        <time>2018-04-27T12:02:30Z</time>
      </trkpt>
      <trkpt lat="43.83185" lon="6.74">
        <ele>1067</ele>
        <time>2018-04-27T12:02:31Z</time>
      </trkpt>
      <trkpt lat="43.83177" lon="6.73993">
        <ele>1066</ele>
        <time>2018-04-27T12:02:32Z</time>
      </trkpt>
      <trkpt lat="43.83168" lon="6.73987">
        <ele>1066</ele>
        <time>2018-04-27T12:02:33Z</time>
      </trkpt>
      <trkpt lat="43.83159" lon="6.73982">
        <ele>1065</ele>
        <time>2018-04-27T12:02:34Z</time>
      </trkpt>
      <trkpt lat="43.83149" lon="6.73979">
        <ele>1065</ele>
        <time>2018-04-27T12:02:35Z</time>
      </trkpt>
      <trkpt lat="43.83139" lon="6.73978">
        <ele>1064</ele>
        <time>2018-04-27T12:02:36Z</time>
      </trkpt>
      <trkpt lat="43.83129" lon="6.73979">
        <ele>1064</ele>
        <time>2018-04-27T12:02:37Z</time>
      </trkpt>
      <trkpt lat="43.83118" lon="6.73982">
        <ele>1063</ele>
        <time>2018-04-27T12:02:38Z</time>
      </trkpt>
      <trkpt lat="43.83109" lon="6.73986">
        <ele>1063</ele>
        <time>2018-04-27T12:02:39Z</time>
      </trkpt>
      <trkpt lat="43.831" lon="6.7399">
        <ele>1063</ele>
        <time>2018-04-27T12:02:40Z</time>
      </trkpt>
      <trkpt lat="43.8309" lon="6.73992">
        <ele>1062</ele>
        <time>2018-04-27T12:02:41Z</time>
      </trkpt>
      <trkpt lat="43.83081" lon="6.73995">
        <ele>1062</ele>
        <time>2018-04-27T12:02:42Z</time>
      </trkpt>
      <trkpt lat="43.83072" lon="6.73997">
        <ele>1062</ele>
        <time>2018-04-27T12:02:43Z</time>
      </trkpt>
      <trkpt lat="43.83062" lon="6.73999">
        <ele>1062</ele>
        <time>2018-04-27T12:02:44Z</time>
      </trkpt>
      <trkpt lat="43.83055" lon="6.74002">
        <ele>1062</ele>
        <time>2018-04-27T12:02:45Z</time>
      </trkpt>
      <trkpt lat="43.83046" lon="6.74005">
        <ele>1061</ele>
        <time>2018-04-27T12:02:46Z</time>
      </trkpt>
      <trkpt lat="43.8304" lon="6.74005">
        <ele>1061</ele>
        <time>2018-04-27T12:02:47Z</time>
      </trkpt>
      <trkpt lat="43.83032" lon="6.74006">
        <ele>1061</ele>
        <time>2018-04-27T12:02:48Z</time>
      </trkpt>
      <trkpt lat="43.83025" lon="6.74007">
        <ele>1061</ele>
        <time>2018-04-27T12:02:49Z</time>
      </trkpt>
      <trkpt lat="43.83019" lon="6.74007">
        <ele>1061</ele>
        <time>2018-04-27T12:02:50Z</time>
      </trkpt>
      <trkpt lat="43.83012" lon="6.74008">
        <ele>1061</ele>
        <time>2018-04-27T12:02:51Z</time>
      </trkpt>
      <trkpt lat="43.83005" lon="6.74008">
        <ele>1061</ele>
        <time>2018-04-27T12:02:52Z</time>
      </trkpt>
      <trkpt lat="43.82999" lon="6.7401">
        <ele>1062</ele>
        <time>2018-04-27T12:02:53Z</time>
      </trkpt>
      <trkpt lat="43.82993" lon="6.74011">
        <ele>1062</ele>
        <time>2018-04-27T12:02:54Z</time>
      </trkpt>
      <trkpt lat="43.82987" lon="6.74012">
        <ele>1062</ele>
        <time>2018-04-27T12:02:55Z</time>
      </trkpt>
      <trkpt lat="43.82982" lon="6.74013">
        <ele>1062</ele>
        <time>2018-04-27T12:02:56Z</time>
      </trkpt>
      <trkpt lat="43.82977" lon="6.74013">
        <ele>1063</ele>
        <time>2018-04-27T12:02:57Z</time>
      </trkpt>
      <trkpt lat="43.8297" lon="6.74014">
        <ele>1062</ele>
        <time>2018-04-27T12:02:58Z</time>
      </trkpt>
      <trkpt lat="43.82965" lon="6.74016">
        <ele>1062</ele>
        <time>2018-04-27T12:02:59Z</time>
      </trkpt>
      <trkpt lat="43.82959" lon="6.74018">
        <ele>1062</ele>
        <time>2018-04-27T12:03:00Z</time>
      </trkpt>
      <trkpt lat="43.82954" lon="6.7402">
        <ele>1062</ele>
        <time>2018-04-27T12:03:01Z</time>
      </trkpt>
      <trkpt lat="43.82948" lon="6.74024">
        <ele>1061</ele>
        <time>2018-04-27T12:03:02Z</time>
      </trkpt>
      <trkpt lat="43.82943" lon="6.74027">
        <ele>1061</ele>
        <time>2018-04-27T12:03:03Z</time>
      </trkpt>
      <trkpt lat="43.82935" lon="6.74032">
        <ele>1061</ele>
        <time>2018-04-27T12:03:05Z</time>
      </trkpt>
      <trkpt lat="43.8293" lon="6.74036">
        <ele>1061</ele>
        <time>2018-04-27T12:03:06Z</time>
      </trkpt>
      <trkpt lat="43.82925" lon="6.7404">
        <ele>1061</ele>
        <time>2018-04-27T12:03:07Z</time>
      </trkpt>
      <trkpt lat="43.82922" lon="6.74044">
        <ele>1061</ele>
        <time>2018-04-27T12:03:08Z</time>
      </trkpt>
      <trkpt lat="43.82917" lon="6.74047">
        <ele>1061</ele>
        <time>2018-04-27T12:03:09Z</time>
      </trkpt>
      <trkpt lat="43.82911" lon="6.74052">
        <ele>1062</ele>
        <time>2018-04-27T12:03:11Z</time>
      </trkpt>
      <trkpt lat="43.82908" lon="6.74056">
        <ele>1062</ele>
        <time>2018-04-27T12:03:12Z</time>
      </trkpt>
      <trkpt lat="43.82903" lon="6.7406">
        <ele>1063</ele>
        <time>2018-04-27T12:03:13Z</time>
      </trkpt>
      <trkpt lat="43.82899" lon="6.74063">
        <ele>1064</ele>
        <time>2018-04-27T12:03:14Z</time>
      </trkpt>
      <trkpt lat="43.82894" lon="6.74066">
        <ele>1064</ele>
        <time>2018-04-27T12:03:15Z</time>
      </trkpt>
      <trkpt lat="43.8289" lon="6.7407">
        <ele>1064</ele>
        <time>2018-04-27T12:03:16Z</time>
      </trkpt>
      <trkpt lat="43.82881" lon="6.74076">
        <ele>1063</ele>
        <time>2018-04-27T12:03:18Z</time>
      </trkpt>
      <trkpt lat="43.82877" lon="6.7408">
        <ele>1063</ele>
        <time>2018-04-27T12:03:19Z</time>
      </trkpt>
      <trkpt lat="43.82873" lon="6.74084">
        <ele>1063</ele>
        <time>2018-04-27T12:03:20Z</time>
      </trkpt>
      <trkpt lat="43.82867" lon="6.74087">
        <ele>1063</ele>
        <time>2018-04-27T12:03:21Z</time>
      </trkpt>
      <trkpt lat="43.82859" lon="6.74093">
        <ele>1063</ele>
        <time>2018-04-27T12:03:23Z</time>
      </trkpt>
      <trkpt lat="43.82855" lon="6.74094">
        <ele>1063</ele>
        <time>2018-04-27T12:03:24Z</time>
      </trkpt>
      <trkpt lat="43.82847" lon="6.74096">
        <ele>1064</ele>
        <time>2018-04-27T12:03:26Z</time>
      </trkpt>
      <trkpt lat="43.82842" lon="6.74097">
        <ele>1064</ele>
        <time>2018-04-27T12:03:27Z</time>
      </trkpt>
      <trkpt lat="43.82833" lon="6.74098">
        <ele>1065</ele>
        <time>2018-04-27T12:03:29Z</time>
      </trkpt>
      <trkpt lat="43.82829" lon="6.74099">
        <ele>1065</ele>
        <time>2018-04-27T12:03:30Z</time>
      </trkpt>
      <trkpt lat="43.82821" lon="6.74099">
        <ele>1065</ele>
        <time>2018-04-27T12:03:32Z</time>
      </trkpt>
      <trkpt lat="43.82816" lon="6.741">
        <ele>1065</ele>
        <time>2018-04-27T12:03:33Z</time>
      </trkpt>
      <trkpt lat="43.82808" lon="6.741">
        <ele>1065</ele>
        <time>2018-04-27T12:03:35Z</time>
      </trkpt>
      <trkpt lat="43.82799" lon="6.74101">
        <ele>1066</ele>
        <time>2018-04-27T12:03:37Z</time>
      </trkpt>
      <trkpt lat="43.8279" lon="6.74103">
        <ele>1066</ele>
        <time>2018-04-27T12:03:39Z</time>
      </trkpt>
      <trkpt lat="43.82785" lon="6.74105">
        <ele>1067</ele>
        <time>2018-04-27T12:03:40Z</time>
      </trkpt>
      <trkpt lat="43.82776" lon="6.74107">
        <ele>1067</ele>
        <time>2018-04-27T12:03:42Z</time>
      </trkpt>
      <trkpt lat="43.82769" lon="6.74109">
        <ele>1067</ele>
        <time>2018-04-27T12:03:44Z</time>
      </trkpt>
      <trkpt lat="43.8276" lon="6.7411">
        <ele>1066</ele>
        <time>2018-04-27T12:03:46Z</time>
      </trkpt>
      <trkpt lat="43.82755" lon="6.74111">
        <ele>1066</ele>
        <time>2018-04-27T12:03:47Z</time>
      </trkpt>
      <trkpt lat="43.82747" lon="6.74112">
        <ele>1066</ele>
        <time>2018-04-27T12:03:49Z</time>
      </trkpt>
      <trkpt lat="43.82739" lon="6.74111">
        <ele>1066</ele>
        <time>2018-04-27T12:03:51Z</time>
      </trkpt>
      <trkpt lat="43.82732" lon="6.7411">
        <ele>1066</ele>
        <time>2018-04-27T12:03:53Z</time>
      </trkpt>
      <trkpt lat="43.82724" lon="6.7411">
        <ele>1067</ele>
        <time>2018-04-27T12:03:55Z</time>
      </trkpt>
      <trkpt lat="43.82718" lon="6.7411">
        <ele>1067</ele>
        <time>2018-04-27T12:03:57Z</time>
      </trkpt>
      <trkpt lat="43.82711" lon="6.74109">
        <ele>1067</ele>
        <time>2018-04-27T12:03:59Z</time>
      </trkpt>
      <trkpt lat="43.82705" lon="6.7411">
        <ele>1067</ele>
        <time>2018-04-27T12:04:01Z</time>
      </trkpt>
      <trkpt lat="43.82698" lon="6.7411">
        <ele>1067</ele>
        <time>2018-04-27T12:04:03Z</time>
      </trkpt>
      <trkpt lat="43.82691" lon="6.74112">
        <ele>1068</ele>
        <time>2018-04-27T12:04:05Z</time>
      </trkpt>
      <trkpt lat="43.82685" lon="6.74113">
        <ele>1068</ele>
        <time>2018-04-27T12:04:07Z</time>
      </trkpt>
      <trkpt lat="43.82679" lon="6.74115">
        <ele>1068</ele>
        <time>2018-04-27T12:04:09Z</time>
      </trkpt>
      <trkpt lat="43.82673" lon="6.74116">
        <ele>1069</ele>
        <time>2018-04-27T12:04:11Z</time>
      </trkpt>
      <trkpt lat="43.82666" lon="6.74116">
        <ele>1070</ele>
        <time>2018-04-27T12:04:13Z</time>
      </trkpt>
      <trkpt lat="43.82664" lon="6.74107">
        <ele>1070</ele>
        <time>2018-04-27T12:04:15Z</time>
      </trkpt>
      <trkpt lat="43.82664" lon="6.74098">
        <ele>1070</ele>
        <time>2018-04-27T12:04:18Z</time>
      </trkpt>
      <trkpt lat="43.82664" lon="6.74099">
        <ele>1070</ele>
        <time>2018-04-27T12:04:46Z</time>
      </trkpt>
      <trkpt lat="43.82664" lon="6.74099">
        <ele>1070</ele>
        <time>2018-04-27T12:04:49Z</time>
      </trkpt>
      <trkpt lat="43.82664" lon="6.74099">
        <ele>1070</ele>
        <time>2018-04-27T12:05:16Z</time>
      </trkpt>
      <trkpt lat="43.82664" lon="6.74099">
        <ele>1070</ele>
        <time>2018-04-27T12:05:18Z</time>
      </trkpt>
      <trkpt lat="43.82664" lon="6.74099">
        <ele>1071</ele>
        <time>2018-04-27T12:05:46Z</time>
      </trkpt>
      <trkpt lat="43.82664" lon="6.74099">
        <ele>1071</ele>
        <time>2018-04-27T12:05:48Z</time>
      </trkpt>
      <trkpt lat="43.82664" lon="6.74099">
        <ele>1071</ele>
        <time>2018-04-27T12:06:16Z</time>
      </trkpt>
      <trkpt lat="43.82664" lon="6.74099">
        <ele>1071</ele>
        <time>2018-04-27T12:06:18Z</time>
      </trkpt>
      <trkpt lat="43.82663" lon="6.74099">
        <ele>1071</ele>
        <time>2018-04-27T12:06:46Z</time>
      </trkpt>
      <trkpt lat="43.82663" lon="6.74099">
        <ele>1071</ele>
        <time>2018-04-27T12:06:48Z</time>
      </trkpt>
      <trkpt lat="43.82663" lon="6.74099">
        <ele>1071</ele>
        <time>2018-04-27T12:07:16Z</time>
      </trkpt>
      <trkpt lat="43.82663" lon="6.74099">
        <ele>1071</ele>
        <time>2018-04-27T12:07:18Z</time>
      </trkpt>
      <trkpt lat="43.82665" lon="6.74095">
        <ele>1071</ele>
        <time>2018-04-27T12:07:46Z</time>
      </trkpt>
    </trkseg>
  </trk>
</gpx>